GFSNW_sfc_wetblb_000.txt.gz
Wetbulb
51.66 51.36 51.33 51.54 51.72 51.96 56.44 62.10 50.65 64.26 67.09 51.24 52.61 51.77 50.64 49.13 50.73 53.01 51.73 51.68 49.66 48.20 48.09 46.85 46.63 46.15 48.01 50.73 50.43 46.15 46.87 45.03 42.36 42.72 47.31 48.79 47.08 44.98 44.09 39.06 36.64 40.10 38.34 36.30
50.34 51.30 51.13 51.30 51.43 51.62 61.37 55.31 56.28 63.45 63.71 49.62 54.73 51.94 50.70 51.57 50.11 50.48 50.31 49.49 51.06 51.64 48.85 44.94 47.77 48.09 50.73 51.27 49.88 46.78 47.78 45.43 39.90 40.72 45.27 47.54 44.20 45.70 44.61 44.18 40.10 35.58 35.05 36.86
50.11 51.17 51.06 51.29 51.34 51.57 58.41 57.68 51.53 54.09 56.02 57.72 52.65 50.26 49.16 48.59 53.04 51.27 52.09 50.93 51.54 50.10 48.36 49.99 47.11 46.74 49.51 50.87 49.40 46.78 48.62 44.98 41.32 37.40 40.17 43.46 41.20 42.69 43.86 42.55 38.09 37.02 38.10 40.03
49.31 50.54 51.16 51.17 51.18 51.43 58.62 58.44 53.58 53.74 52.04 53.39 52.72 52.42 50.57 48.62 47.35 51.60 52.22 49.67 49.84 49.15 46.00 47.38 46.50 48.48 47.71 49.02 46.66 48.59 48.30 42.17 42.76 42.85 43.09 43.10 42.16 41.69 42.35 40.92 41.73 36.44 39.96 40.33
49.73 50.62 51.28 50.74 50.89 50.40 59.46 55.40 54.43 55.82 54.18 54.29 52.08 48.56 49.69 48.90 49.29 50.01 48.50 48.59 50.31 50.22 46.60 46.80 45.65 47.15 46.74 46.30 48.63 47.73 48.08 42.30 40.39 38.73 43.18 42.55 39.89 41.75 42.15 42.09 42.18 42.00 42.23 41.32
51.17 51.85 51.12 50.38 50.82 53.04 60.22 59.52 60.36 57.08 49.52 52.65 51.74 50.97 50.32 50.07 51.53 51.34 51.91 51.44 50.33 47.66 49.36 51.51 51.61 51.64 50.87 49.56 47.84 46.50 43.47 42.22 39.36 36.30 39.88 38.71 36.23 40.42 42.63 42.84 44.07 43.26 38.57 43.67
52.65 51.78 50.97 50.16 50.60 51.86 62.25 61.10 59.51 55.54 50.78 53.63 51.72 51.75 51.83 50.53 50.86 49.21 51.54 52.22 50.34 51.47 54.20 52.23 51.16 50.77 49.93 49.86 48.76 49.76 39.68 40.12 40.00 35.77 36.10 31.95 42.24 46.46 45.88 43.29 44.32 45.20 45.01 45.81
52.28 51.47 50.99 50.15 50.32 51.35 61.78 61.01 60.07 55.23 40.60 53.17 51.90 51.39 51.06 51.89 51.61 50.90 51.02 52.28 53.79 55.45 52.55 47.59 40.36 40.74 38.25 41.90 46.71 47.55 47.06 44.33 35.05 34.54 33.91 37.54 40.70 43.81 42.67 41.03 40.31 46.01 45.65 45.66
51.68 51.23 50.87 50.27 50.07 50.86 61.85 59.62 60.87 59.09 51.94 52.66 53.29 51.22 52.02 50.83 50.30 49.85 49.91 54.40 56.56 54.71 52.76 43.72 36.10 38.68 40.49 38.78 40.44 45.89 44.74 43.59 41.81 35.20 30.50 28.73 41.94 45.78 47.77 46.47 36.12 46.85 46.11 44.25
51.60 51.26 50.83 50.39 50.19 50.62 57.60 59.96 61.84 60.46 55.20 54.79 54.97 52.06 51.67 53.90 52.16 49.44 50.57 51.51 50.25 53.60 44.69 35.52 42.14 40.83 43.67 37.51 35.89 34.97 36.09 38.20 35.68 35.23 32.54 36.41 44.13 46.49 47.55 35.06 38.01 46.39 45.54 44.44
52.34 51.28 50.72 50.48 50.15 50.35 55.59 60.54 61.49 60.05 56.70 54.38 56.24 55.88 54.50 53.52 53.69 49.81 51.76 50.12 51.73 50.42 38.24 39.87 43.48 38.93 42.87 41.85 42.78 38.15 36.40 35.85 33.50 36.15 32.97 30.46 46.85 45.47 39.39 45.23 47.83 46.35 45.34 44.91
51.13 51.82 50.72 50.77 50.49 50.29 51.69 60.31 60.75 61.73 59.02 55.21 59.05 57.74 58.06 56.64 56.27 55.01 54.18 51.32 50.85 51.85 47.51 43.90 45.94 37.36 36.65 40.77 37.04 45.42 39.29 43.00 41.35 40.37 39.64 47.67 48.55 47.04 48.70 47.76 46.45 45.71 44.90 45.21
50.93 51.08 50.83 50.65 50.86 50.69 51.83 60.95 61.35 62.54 59.54 55.54 54.98 53.88 57.22 59.44 58.74 61.47 52.27 55.56 54.65 53.45 54.57 44.86 40.60 34.80 42.14 34.60 40.68 43.52 45.05 47.49 44.26 42.69 45.50 46.36 48.14 49.14 48.68 48.10 46.76 46.82 46.30 45.44
50.42 50.90 50.47 50.94 50.99 50.68 51.51 60.08 60.81 60.40 53.18 38.24 54.02 57.10 55.71 58.05 59.03 58.63 59.87 57.62 57.65 56.35 52.09 41.62 37.34 36.43 47.87 40.66 43.70 44.11 45.95 46.36 44.22 43.34 46.26 47.26 47.28 47.58 47.52 46.83 47.24 46.62 46.65 46.08
49.19 49.78 49.15 49.20 51.53 50.96 55.77 61.17 60.69 60.93 57.22 45.70 52.07 55.15 55.85 57.11 58.23 57.06 57.78 57.06 55.20 53.15 45.10 37.15 39.13 49.32 48.82 48.13 45.83 43.85 46.62 43.98 42.03 40.91 46.90 46.31 46.02 46.76 46.75 45.65 45.48 46.30 45.25 42.89
47.81 48.61 49.24 49.09 49.75 50.00 59.32 54.66 60.13 60.40 60.63 52.20 44.52 54.70 52.97 55.02 56.42 56.15 55.35 55.77 55.18 53.88 49.44 41.72 48.02 51.84 48.97 38.06 38.81 45.38 47.49 48.45 48.57 45.89 48.76 47.78 47.40 47.51 47.31 45.56 45.05 44.50 43.01 42.52
47.42 48.95 48.91 49.02 49.45 56.69 54.70 52.40 53.68 51.37 59.55 50.19 44.46 48.16 50.80 52.39 54.58 54.88 54.54 55.79 54.42 53.03 51.18 48.69 47.65 49.24 48.26 38.23 38.00 44.93 46.89 47.78 48.55 48.91 47.87 44.85 45.59 44.36 46.62 44.74 43.93 42.83 42.83 41.52
48.57 48.81 49.01 49.22 49.05 50.63 54.39 55.58 53.18 53.02 56.60 54.31 44.50 42.41 44.48 51.01 45.48 45.37 49.90 48.40 49.48 50.30 48.81 47.30 45.73 48.66 47.08 40.43 44.94 46.64 47.57 47.99 46.77 46.29 46.63 46.07 46.61 46.52 44.36 43.64 42.34 39.75 38.48 38.69
48.48 48.74 49.13 53.50 53.16 52.69 54.74 48.85 50.48 59.20 54.65 49.12 41.69 37.70 36.61 49.75 43.45 44.33 44.88 46.48 39.87 47.68 40.96 42.80 44.34 40.37 37.99 42.88 44.54 45.64 47.15 45.52 44.90 45.92 45.70 44.82 42.79 41.83 41.35 40.25 39.01 37.52 37.28 37.29
48.19 49.81 46.65 40.96 44.91 48.73 49.70 53.57 51.92 50.43 52.65 50.30 39.33 46.48 40.42 46.32 40.24 38.06 40.24 40.24 38.75 36.05 38.41 40.36 35.70 38.08 44.45 46.10 47.08 47.46 46.25 46.61 46.36 42.50 40.59 40.89 39.58 38.83 38.19 37.65 38.35 37.84 36.49 35.73
46.04 41.31 38.23 43.92 47.29 49.71 47.05 41.49 41.31 41.24 39.33 43.71 42.60 41.77 39.30 45.45 39.05 36.97 40.57 35.89 36.61 33.86 36.77 36.40 34.19 34.35 40.30 45.01 45.58 45.62 45.91 46.06 45.54 44.99 43.85 41.95 39.13 37.50 37.16 37.57 37.48 35.73 34.85 34.00
44.46 44.18 45.49 44.49 41.05 36.81 37.68 35.89 36.07 36.59 38.50 38.54 35.48 39.73 43.36 41.56 45.40 39.90 35.56 34.25 33.35 31.69 37.75 32.62 32.69 39.38 43.78 43.93 43.23 44.15 44.88 44.13 42.06 41.27 39.34 38.83 38.08 38.29 37.09 36.76 35.69 33.72 33.47 31.70
43.41 38.71 35.30 36.40 32.95 31.35 31.90 31.35 32.44 33.35 34.07 34.55 34.39 33.50 36.58 37.13 38.55 33.51 32.97 31.53 32.08 36.14 32.61 31.43 36.36 40.54 42.34 43.30 43.48 42.79 41.64 37.94 38.42 38.45 38.50 38.16 36.72 35.67 31.94 33.13 32.85 32.34 33.09 34.46
35.35 32.62 31.53 32.08 31.90 32.62 32.62 32.44 32.26 33.89 33.53 34.44 34.80 33.17 34.07 33.17 32.99 32.26 31.72 33.17 34.40 30.23 28.92 30.61 37.57 39.76 41.50 42.67 42.80 40.63 37.12 32.56 34.47 35.52 36.41 33.96 33.81 32.28 32.09 32.00 32.38 30.72 31.16 32.75
35.74 34.96 30.99 31.90 33.17 33.35 32.80 32.44 33.71 34.24 36.89 35.34 34.07 34.07 35.37 32.44 31.53 32.62 32.25 29.22 28.45 30.32 31.24 34.39 37.23 38.73 38.77 37.90 38.98 35.62 33.50 31.44 33.65 36.13 34.26 32.27 32.13 31.54 32.56 33.11 32.94 33.11 33.00 32.51
37.19 35.03 32.99 32.99 32.99 32.26 32.26 32.08 32.44 37.02 36.04 37.86 37.15 32.62 32.44 31.72 32.76 30.11 29.98 29.39 28.14 33.30 36.07 39.13 36.56 35.45 35.95 36.01 36.26 35.90 36.50 35.28 35.44 35.25 34.67 33.90 32.99 31.79 32.99 33.94 33.29 33.06 32.59 32.31
33.57 31.70 33.35 33.35 33.53 32.44 32.80 34.62 35.89 39.64 35.16 32.26 34.42 31.14 29.17 32.60 30.61 29.61 33.53 31.49 33.89 34.98 38.45 36.99 36.33 35.57 36.24 36.68 36.59 34.36 35.01 35.44 35.58 35.13 35.09 34.47 34.27 34.62 33.27 31.84 34.09 34.37 34.33 33.88

GFSNW_sfc_wetblb_003.txt.gz
Wetbulb
50.58 51.13 50.96 51.18 51.21 51.98 53.74 54.32 45.24 59.49 59.78 44.12 45.78 44.02 50.85 47.66 49.11 51.44 50.12 49.29 47.85 45.99 45.88 44.62 44.35 43.53 45.38 48.83 48.26 42.75 43.62 39.78 30.33 39.68 44.96 46.17 43.64 41.86 41.34 28.80 31.16 29.80 26.86 29.43
49.71 50.88 50.67 51.01 51.03 51.56 56.23 50.42 51.87 58.46 58.45 37.57 38.70 49.98 49.53 50.21 48.39 48.76 48.77 47.91 49.08 49.01 45.63 41.16 45.28 45.40 48.85 49.24 46.18 42.95 43.96 37.43 29.40 36.22 41.59 44.23 41.04 43.17 43.71 40.25 31.59 29.05 23.83 29.31
48.39 50.39 50.68 50.93 51.03 51.16 54.57 52.83 42.57 50.06 51.07 51.56 49.03 48.29 46.65 46.78 50.82 49.75 50.61 48.87 49.40 47.25 45.35 46.91 43.84 44.51 48.48 48.26 46.09 45.82 46.05 41.64 33.67 28.95 35.20 38.89 35.86 40.01 41.17 39.60 28.66 30.38 30.49 36.03
48.17 49.46 50.95 50.53 50.78 51.05 55.72 53.71 46.85 46.46 37.45 43.70 47.56 48.43 47.99 46.30 45.28 49.76 50.06 47.37 47.92 46.00 40.16 43.36 42.78 45.19 45.60 47.38 45.78 46.35 43.95 35.14 38.11 39.18 40.07 40.68 39.49 39.05 39.52 37.52 36.67 30.35 34.48 37.78
48.90 51.40 50.70 50.28 50.53 48.89 54.03 52.19 49.39 49.07 46.10 47.01 46.83 44.61 46.09 46.53 47.59 47.58 46.62 45.66 47.92 47.53 41.26 43.62 41.31 44.83 44.08 43.63 45.45 44.12 44.73 34.16 31.58 31.40 40.52 39.61 36.17 38.39 38.43 38.80 39.36 38.61 38.38 38.03
51.72 51.25 50.53 50.03 50.40 51.42 54.48 54.43 54.06 52.19 46.73 45.67 43.81 43.00 47.31 48.22 48.12 47.89 50.27 47.97 45.07 41.47 45.72 47.06 47.02 47.03 46.61 46.93 44.29 40.79 37.07 31.36 30.27 29.12 36.01 33.84 28.10 34.41 39.82 40.22 40.85 39.33 31.36 39.21
52.04 51.25 50.66 50.13 50.21 50.86 57.34 56.03 55.26 46.33 38.72 43.62 45.72 49.74 49.76 47.82 48.04 45.36 49.42 49.15 44.04 48.26 49.13 45.62 43.90 42.95 44.08 46.75 45.92 43.84 33.91 33.61 29.97 24.62 27.73 20.13 38.68 43.57 42.77 40.73 41.48 42.50 42.50 41.85
51.50 51.00 50.45 50.05 50.18 51.04 55.89 56.05 55.89 47.97 37.19 46.34 47.88 48.51 48.10 48.28 48.88 47.19 48.09 49.29 49.69 50.52 47.94 36.17 33.21 31.50 31.26 35.14 45.45 44.25 42.31 31.69 25.58 26.02 24.08 31.10 37.51 41.27 39.09 36.52 36.63 43.60 41.50 41.50
51.09 50.55 50.48 50.34 50.16 50.75 56.67 55.52 56.55 52.78 43.25 43.73 52.14 47.71 47.78 41.79 42.24 42.30 46.21 51.47 52.32 51.27 36.36 31.83 28.02 27.44 32.50 32.03 38.46 41.19 41.33 33.43 30.19 24.39 21.03 17.28 33.22 43.06 45.46 43.78 29.82 43.55 42.48 40.97
50.93 50.51 50.38 50.28 50.20 50.52 54.48 55.59 57.03 56.20 46.95 49.83 50.98 46.10 45.35 49.16 45.48 41.19 45.12 44.83 44.83 48.24 35.32 32.37 31.65 29.89 39.16 31.81 30.17 27.57 27.89 27.15 24.04 27.86 18.74 28.24 40.00 44.12 45.33 29.44 31.41 43.50 42.31 40.90
51.47 50.46 50.18 50.33 50.37 50.16 53.85 56.06 57.05 56.52 48.38 49.44 53.21 53.57 48.37 49.24 47.12 38.97 45.24 41.89 42.23 36.04 32.90 32.51 32.10 29.42 32.04 31.87 37.01 33.34 29.77 27.28 29.64 28.43 24.65 22.30 43.81 42.85 34.06 38.34 42.49 43.02 42.28 41.67
51.19 50.21 50.03 50.23 50.53 50.14 51.47 56.10 57.47 58.60 53.33 51.26 54.50 53.67 53.43 52.30 51.88 48.88 46.86 43.02 46.71 42.92 36.55 35.75 36.93 32.02 34.23 30.35 26.95 40.99 32.07 35.36 32.11 32.89 31.36 40.03 44.28 42.44 45.48 45.32 42.95 42.50 41.26 42.30
51.06 50.61 49.99 50.05 50.39 50.36 51.28 55.65 56.63 57.30 49.06 49.65 50.45 49.91 54.43 56.14 54.69 55.52 46.32 45.70 50.44 48.53 46.79 39.37 38.10 33.60 36.74 30.95 33.83 32.56 39.76 43.95 34.02 34.99 41.57 42.56 44.14 46.24 46.59 45.57 44.07 44.01 43.97 44.36
50.60 50.26 49.70 49.08 50.26 50.30 51.47 55.71 56.50 54.00 47.25 36.11 46.24 54.17 52.36 55.06 55.76 55.41 54.76 52.20 52.33 49.95 44.53 37.85 35.73 32.30 41.79 33.85 35.93 33.60 38.29 42.88 38.77 36.33 41.54 43.07 44.35 45.00 45.30 44.90 45.36 45.44 46.35 45.67
47.74 48.28 48.61 48.30 48.88 49.98 52.42 56.86 56.14 56.27 51.31 38.34 41.92 51.77 53.30 55.19 54.96 54.25 54.09 52.08 50.26 45.61 38.03 35.36 34.05 34.68 37.99 35.14 34.24 32.89 43.35 39.75 34.28 33.15 42.85 42.18 42.33 44.78 45.85 44.41 44.27 45.34 44.93 41.44
47.54 47.90 48.23 48.97 48.52 49.17 54.44 50.71 55.24 53.11 56.03 45.65 37.31 49.15 49.18 51.45 52.65 52.24 51.78 51.56 50.03 47.97 40.04 35.17 40.62 47.92 39.26 33.82 32.43 41.72 45.51 46.47 45.68 41.36 46.07 45.33 44.97 45.88 46.68 43.91 42.91 41.22 40.24 38.55
47.31 48.17 48.78 49.39 49.76 52.91 50.06 48.59 50.52 49.40 53.34 41.62 37.90 36.64 45.34 48.39 50.78 48.83 49.14 50.55 48.34 46.63 40.53 36.19 36.01 39.24 43.70 34.46 34.98 42.06 45.05 45.73 45.12 46.97 45.78 42.44 44.56 42.51 44.95 43.24 41.21 41.12 38.20 37.02
47.29 48.39 49.39 49.83 48.93 49.31 50.74 51.96 50.13 49.91 51.51 45.43 37.81 37.33 38.68 47.87 38.81 38.45 45.26 41.15 44.02 44.74 42.55 41.16 37.18 39.13 34.62 31.92 41.28 44.26 45.84 45.73 44.64 44.61 44.84 44.34 45.38 45.15 43.08 41.33 37.92 35.68 34.39 33.95
48.12 49.19 49.59 52.13 49.81 45.19 49.23 48.89 48.91 54.49 49.30 37.04 36.25 35.14 34.15 44.63 40.73 40.19 39.42 42.12 35.55 41.84 36.09 38.26 39.73 35.53 35.77 39.70 42.16 43.34 43.58 42.91 42.53 43.80 44.99 44.57 41.58 39.95 38.83 36.77 35.22 33.81 32.63 32.72
48.68 49.59 47.15 40.26 43.87 47.85 49.04 49.82 42.95 41.29 40.80 41.98 35.89 40.90 36.27 42.44 35.71 35.00 36.27 35.18 34.44 34.10 35.66 39.45 33.72 35.22 40.24 43.07 43.52 43.67 43.25 44.15 44.05 40.02 38.20 38.32 37.78 35.83 34.97 34.54 34.82 34.30 32.81 32.35
46.53 41.15 38.08 43.73 47.38 48.39 43.42 37.90 36.70 38.30 35.83 40.41 39.45 37.67 36.95 41.20 35.59 34.61 35.71 33.54 33.72 31.86 31.67 34.20 31.67 31.64 36.80 41.24 42.20 42.95 44.00 44.60 44.48 43.15 40.98 38.91 36.60 34.78 33.80 33.04 32.24 30.75 30.12 29.79
44.61 44.18 45.36 43.84 40.76 36.99 36.44 35.17 34.79 35.18 35.27 35.68 36.25 37.54 38.87 37.51 42.08 34.91 34.05 33.51 32.80 29.73 35.40 32.25 28.86 32.63 39.74 40.85 41.06 42.31 41.93 40.32 38.89 38.66 37.10 36.22 35.90 35.16 31.12 30.88 30.21 27.44 29.17 27.22
43.16 39.45 35.31 37.30 32.93 31.67 32.06 31.06 32.19 32.63 33.16 34.23 33.69 33.16 34.61 35.78 37.00 32.96 32.96 31.89 30.82 33.66 31.50 29.10 28.65 38.58 40.93 41.61 36.82 35.40 36.15 35.01 35.35 35.34 35.00 34.09 33.13 31.77 27.01 27.56 25.93 27.35 29.95 30.29
35.01 33.54 31.45 31.69 30.75 31.50 30.96 31.50 31.91 32.99 32.65 33.17 33.54 32.63 33.33 32.63 32.78 31.88 30.54 31.11 31.44 28.52 24.54 22.52 32.87 38.25 39.67 39.32 36.25 34.25 32.47 30.41 30.69 31.76 30.96 28.95 28.26 26.10 24.00 24.64 24.80 22.15 24.52 27.81
33.46 33.38 29.91 30.58 31.68 32.06 32.09 32.27 32.45 33.29 35.11 33.90 33.14 32.95 33.75 31.69 30.55 31.33 29.81 27.40 26.25 27.96 28.15 30.61 33.01 35.33 36.27 34.52 34.25 31.11 29.50 28.89 30.32 32.00 29.27 27.22 26.29 24.12 27.19 27.00 27.71 30.68 31.47 30.76
34.12 32.58 30.77 31.92 32.00 31.91 32.12 32.12 31.94 35.72 34.08 34.44 33.49 31.33 31.50 30.01 30.02 27.97 28.13 27.18 25.72 29.67 31.72 32.36 32.59 32.83 32.65 32.90 32.49 31.69 32.21 31.81 31.87 31.50 30.20 29.51 26.59 25.60 28.11 30.41 32.07 31.46 31.68 31.38
32.22 30.46 32.25 32.43 32.27 31.61 32.06 32.48 33.54 37.36 33.54 31.88 32.07 29.39 27.20 30.05 27.99 27.58 31.17 29.30 31.50 32.25 32.22 32.05 32.95 32.51 32.85 33.18 33.18 31.20 32.28 32.33 31.95 30.58 31.96 29.42 28.03 27.45 30.96 29.65 30.68 28.38 29.06 29.40

GFSNW_sfc_wetblb_006.txt.gz
Wetbulb
51.14 50.99 50.98 51.26 51.32 52.07 52.96 50.90 42.75 55.68 51.16 39.73 42.09 41.49 47.93 46.96 47.10 49.61 48.40 47.71 46.53 43.60 44.11 43.14 41.97 41.68 43.68 47.22 46.29 40.35 42.25 36.86 28.77 37.61 42.97 44.22 41.57 39.75 37.98 27.47 30.71 27.37 25.00 28.53
50.14 50.83 50.71 50.95 50.86 51.81 52.47 47.99 49.11 56.10 49.51 32.56 31.72 46.43 47.90 47.90 46.55 46.55 46.88 46.11 47.31 47.12 43.59 39.70 43.51 43.53 46.77 46.08 44.32 41.55 41.63 34.49 27.86 34.33 39.78 41.97 39.73 40.88 41.58 36.47 29.64 28.51 22.46 26.65
48.49 50.67 50.69 50.76 50.85 50.88 53.43 49.59 40.38 46.29 48.64 45.74 44.61 43.99 44.33 44.87 48.72 47.96 48.34 46.96 47.98 45.32 43.41 44.94 41.89 42.83 46.31 45.55 44.03 44.79 44.57 39.04 32.68 29.18 33.51 36.37 33.24 37.54 39.81 36.48 26.74 28.93 28.69 33.58
48.47 50.19 50.55 50.58 50.77 50.59 52.28 50.83 42.78 44.10 34.73 39.20 45.36 46.48 45.83 44.39 43.42 47.69 47.99 45.36 46.08 43.77 38.67 41.48 40.77 43.53 43.80 45.21 44.77 44.32 41.71 33.61 35.60 36.41 38.10 37.94 36.70 36.14 36.13 35.43 35.16 30.11 33.35 34.68
49.73 50.62 50.21 50.44 50.61 50.87 51.42 49.31 46.12 45.64 40.24 44.69 44.72 43.28 44.69 44.71 45.68 45.91 44.65 43.35 45.95 44.99 39.60 41.96 40.13 42.58 41.71 41.13 43.31 42.80 41.29 31.71 30.32 30.55 38.50 37.81 33.64 36.25 36.42 36.44 37.32 36.18 36.97 36.15
51.18 50.71 50.14 50.23 50.72 51.65 52.44 53.94 51.53 47.76 42.23 41.16 41.08 40.40 45.09 45.96 47.00 45.89 47.91 46.11 43.13 40.63 44.16 44.58 44.50 45.15 45.68 44.94 42.45 37.67 35.08 29.80 27.62 27.16 32.79 31.74 26.56 33.65 37.59 37.70 38.81 37.39 31.16 37.45
51.20 50.63 49.76 49.70 50.49 52.71 57.49 55.23 51.61 44.25 36.47 39.88 42.15 47.52 47.24 45.89 46.04 44.67 47.24 46.65 42.81 46.89 48.77 44.22 42.57 41.25 43.77 44.82 42.27 40.67 33.19 32.22 26.78 22.19 23.93 17.51 36.29 41.18 40.83 39.41 40.30 40.06 39.38 39.06
50.58 50.21 49.80 49.60 50.00 50.99 54.90 53.68 52.68 44.60 33.64 41.62 45.23 46.39 46.32 46.53 46.64 45.00 46.47 47.50 47.64 47.86 43.16 33.14 32.12 30.23 32.60 34.14 42.02 42.39 38.28 27.89 25.94 20.73 22.37 27.92 35.02 39.28 38.02 35.35 36.51 41.38 39.78 39.70
49.87 49.83 49.91 49.76 50.02 50.89 53.68 53.32 54.40 47.38 41.62 41.35 49.58 45.36 46.01 39.67 39.56 40.67 44.34 49.75 50.40 44.87 32.24 30.02 26.66 24.21 29.39 30.28 37.00 39.70 38.05 30.39 27.19 26.29 17.10 15.68 30.66 40.84 43.35 41.43 29.85 41.73 41.03 39.69
49.71 50.03 49.94 50.04 50.10 50.67 54.84 53.04 55.12 52.00 44.11 47.26 48.16 44.12 44.27 46.09 41.90 39.01 42.71 42.86 43.06 42.63 27.18 28.10 29.80 29.09 36.18 30.22 28.46 26.75 26.29 23.89 23.09 23.16 16.10 25.91 35.78 41.14 42.87 29.13 30.61 41.73 41.18 39.83
49.40 49.42 49.55 49.70 49.80 50.07 54.96 53.36 54.88 52.40 45.92 47.86 51.55 50.99 47.21 46.67 44.09 38.68 43.71 41.16 39.53 34.68 28.73 25.48 31.24 29.57 31.06 30.09 34.16 31.72 28.99 25.68 23.29 22.98 18.75 22.35 40.20 41.40 33.60 37.07 39.99 41.86 41.14 40.61
49.48 49.32 49.41 49.51 49.78 49.96 52.86 53.03 55.89 55.69 50.10 49.60 52.20 52.39 52.22 51.19 49.31 46.59 44.10 41.37 42.17 39.32 34.68 34.82 36.97 31.52 33.02 26.29 27.11 38.17 30.91 32.48 29.89 32.36 31.44 38.27 41.16 41.10 42.46 43.55 41.59 41.68 40.69 41.36
49.42 49.07 48.84 48.68 49.72 50.29 53.26 53.97 54.04 52.48 44.62 45.97 48.42 48.84 53.37 54.53 53.27 52.33 44.41 42.69 48.59 45.77 41.66 36.30 36.21 27.53 34.39 30.44 32.20 31.87 38.56 41.71 32.99 34.44 39.93 40.79 42.38 44.33 45.28 44.49 43.01 42.94 42.69 42.51
48.12 47.59 47.77 48.15 48.28 49.87 52.99 53.65 53.67 48.74 42.65 35.44 43.55 52.58 50.90 54.41 54.85 54.19 51.78 50.25 49.13 45.95 40.87 35.45 35.14 28.44 38.27 30.26 33.23 31.99 35.81 40.47 37.26 34.50 39.29 41.31 43.28 43.71 44.19 44.01 43.83 43.54 44.48 43.65
47.84 48.26 48.87 48.93 49.06 49.20 53.66 54.03 52.35 53.46 47.42 37.84 41.56 49.28 52.16 53.20 53.52 52.68 51.77 50.38 47.77 42.08 36.86 33.31 33.21 30.47 35.77 34.52 31.74 31.67 40.50 38.38 33.80 34.52 40.32 40.83 40.99 43.82 44.49 43.46 43.41 44.60 44.22 36.92
47.72 48.46 49.28 49.92 49.85 50.24 53.11 48.27 52.62 50.98 52.24 42.69 35.89 44.80 47.21 49.50 51.81 51.14 49.79 49.55 47.89 44.16 39.05 35.26 37.96 44.12 36.04 34.02 35.83 40.57 43.55 45.14 43.75 41.01 44.23 44.58 43.86 44.52 45.06 43.49 43.65 41.34 38.49 36.45
47.74 48.74 49.26 49.49 49.14 50.58 49.12 45.17 49.70 48.40 49.84 40.18 38.02 35.32 42.54 46.97 47.80 45.27 46.30 47.50 45.83 44.85 38.32 35.75 37.01 36.56 40.57 34.20 31.38 40.16 43.06 44.91 44.92 45.57 44.99 41.67 43.11 42.52 44.66 41.21 39.44 37.71 35.82 35.20
47.77 49.48 49.65 49.91 49.05 50.05 49.30 50.23 49.14 50.07 47.54 41.27 35.33 34.43 36.35 45.74 37.30 37.66 42.93 38.91 42.75 42.43 40.28 37.64 35.80 37.03 33.55 33.22 39.86 42.72 44.63 45.42 44.41 45.32 43.78 43.37 44.06 42.21 40.43 38.40 36.67 34.28 32.86 32.67
48.51 49.16 49.97 49.12 47.39 45.40 49.67 47.88 47.70 51.86 46.50 36.67 34.02 34.14 33.43 41.84 39.54 37.46 35.69 40.89 34.00 40.15 35.86 36.21 38.34 34.93 35.39 39.31 40.88 42.21 43.26 42.33 42.48 43.16 42.85 43.16 42.22 38.09 37.05 36.05 34.99 32.93 31.89 31.49
48.84 47.57 42.85 40.92 43.43 47.46 48.74 45.92 42.51 41.55 41.51 41.10 34.38 37.88 36.03 41.01 34.38 34.22 34.56 34.20 34.22 34.04 36.12 39.21 33.85 35.33 39.40 40.26 43.12 43.04 42.76 43.26 43.18 38.70 37.38 37.05 36.21 34.76 34.86 34.43 34.70 34.04 32.13 31.19
46.11 41.80 38.39 43.98 47.28 45.68 41.31 36.48 36.15 37.56 35.85 38.90 37.96 36.36 36.84 37.52 35.16 34.75 34.56 33.48 32.93 32.01 30.63 34.55 30.30 31.79 35.10 39.61 40.46 42.02 42.71 43.92 42.24 39.45 38.37 37.63 36.21 34.65 34.06 33.22 32.08 30.42 29.95 29.89
44.76 44.11 45.15 43.35 40.16 37.39 36.00 34.70 34.86 34.56 34.47 34.86 35.11 35.83 39.08 36.74 38.85 35.24 34.17 33.27 32.92 29.79 34.61 32.37 29.74 31.87 37.74 39.10 37.66 37.59 37.64 37.39 36.71 37.13 35.99 35.51 34.49 33.96 31.07 29.32 28.78 27.07 27.01 24.23
43.22 39.67 35.49 38.11 33.20 32.72 34.78 33.20 32.57 32.56 32.92 34.19 33.66 34.02 34.38 35.89 37.11 33.11 32.92 32.19 30.95 33.39 31.63 29.89 30.86 38.04 36.30 35.08 34.71 34.63 35.71 34.89 34.08 34.08 34.22 33.63 32.49 30.58 27.14 27.73 24.76 22.67 26.60 29.29
35.30 34.22 31.71 32.37 29.60 30.70 30.67 31.41 32.03 32.57 32.39 32.75 32.93 32.37 33.11 32.39 32.77 32.19 30.87 31.23 31.41 28.65 25.88 23.04 32.13 36.66 35.39 35.24 34.90 33.74 33.18 31.83 31.72 31.57 30.51 28.08 27.59 27.08 24.76 23.19 22.92 19.80 22.73 26.22
33.14 32.80 28.78 28.80 30.35 31.98 32.13 32.22 32.39 32.92 34.34 33.48 33.10 32.54 33.55 31.42 30.48 31.08 29.38 27.12 25.44 27.11 27.00 30.16 32.00 34.72 35.19 33.42 32.30 29.99 28.98 29.06 30.48 31.23 29.02 27.04 25.18 22.99 25.43 24.60 23.44 28.26 29.79 29.98
33.30 32.03 30.00 31.61 31.28 31.62 32.22 32.06 32.06 35.20 33.66 33.64 32.90 31.26 30.90 29.01 29.38 26.77 26.91 25.98 24.72 28.48 31.63 31.23 33.44 33.62 32.18 32.18 31.44 31.38 32.12 31.72 31.43 30.63 29.75 28.61 25.35 24.24 26.43 27.50 27.49 26.00 26.02 25.99
31.71 30.14 32.03 32.19 31.88 31.58 32.04 32.42 33.11 36.49 33.11 31.26 31.44 25.46 25.06 29.79 26.98 26.77 30.70 28.47 30.88 32.39 32.37 31.95 32.45 32.03 32.47 32.75 32.63 30.97 31.85 32.13 31.64 30.21 31.64 28.36 26.47 23.60 25.23 26.54 30.48 27.40 27.70 25.48

GFSNW_sfc_wetblb_009.txt.gz
Wetbulb
50.99 51.30 51.20 51.39 51.90 52.50 52.53 47.19 38.59 52.56 48.18 39.65 39.69 39.56 45.43 47.12 45.15 48.13 47.06 46.02 44.09 41.49 42.40 41.11 40.41 40.20 41.97 44.92 44.47 39.03 40.79 35.59 28.58 35.69 41.57 42.53 39.65 37.58 35.53 26.02 28.66 26.01 23.13 27.70
50.83 50.79 50.90 51.19 51.57 52.70 51.65 45.63 48.79 54.77 47.05 32.69 30.04 42.00 47.01 46.04 44.64 45.05 45.18 44.27 45.45 45.13 42.15 38.69 41.52 41.80 44.87 43.65 42.64 40.10 39.98 33.28 27.90 33.64 38.42 40.08 37.50 39.43 37.84 33.87 29.15 28.84 20.55 25.69
49.97 50.71 50.81 51.14 51.08 52.02 52.21 46.01 40.66 44.63 46.34 41.55 39.30 40.87 42.80 42.97 47.00 46.20 46.38 45.02 45.99 43.61 42.13 43.01 40.21 41.18 44.41 43.32 42.75 44.59 43.23 37.00 31.66 28.76 32.24 34.66 31.87 35.95 37.24 34.48 25.69 27.58 27.37 30.79
48.76 49.60 50.76 50.90 50.88 50.77 52.24 47.18 40.68 43.63 35.58 39.23 44.68 44.70 43.76 42.51 41.56 46.00 46.05 43.89 44.55 42.24 37.73 39.36 39.21 41.92 41.86 43.15 44.16 43.09 39.91 32.14 34.03 34.60 36.25 36.02 34.82 34.74 35.98 34.90 33.73 29.84 32.31 32.78
48.76 50.64 50.35 50.58 50.64 50.84 50.21 47.98 42.95 42.93 37.99 42.39 43.41 41.79 43.61 43.18 43.78 44.28 42.63 42.51 43.95 42.96 38.75 40.88 39.18 40.87 39.44 38.65 42.79 40.85 38.18 31.37 29.76 30.49 35.95 35.56 32.28 34.58 34.34 34.42 34.72 34.91 34.68 34.53
50.83 50.48 50.03 50.52 50.46 51.40 48.48 49.66 49.99 45.23 39.40 39.27 40.17 39.37 44.11 44.73 45.06 45.27 45.76 45.11 42.02 38.75 42.07 43.34 43.54 43.44 43.29 42.73 41.14 36.02 32.48 29.16 26.03 24.14 30.88 30.17 24.88 31.81 36.05 35.69 37.03 35.66 31.34 36.47
50.89 50.32 49.84 49.83 50.99 51.84 53.48 52.55 49.18 42.61 34.41 36.21 39.42 45.23 45.20 44.83 44.52 43.57 45.08 45.17 41.87 44.50 45.11 43.17 42.05 40.31 42.63 43.50 41.69 39.11 32.42 28.59 24.08 21.41 22.71 17.52 32.91 37.97 38.96 37.08 37.96 38.08 37.34 38.24
50.40 49.82 49.60 49.48 50.24 51.56 55.53 53.64 49.05 43.26 33.68 40.16 43.43 45.01 44.68 44.85 45.09 43.81 44.78 46.09 45.85 46.38 39.62 33.79 33.10 29.91 32.20 33.46 40.58 38.94 36.02 27.44 26.11 20.01 20.93 27.07 33.25 37.73 37.46 35.32 35.07 39.60 37.80 37.82
49.60 49.57 49.70 49.65 50.04 51.61 54.19 53.35 50.56 45.97 43.04 40.88 46.91 44.25 43.93 37.88 38.56 39.27 42.51 48.26 47.19 42.69 30.59 29.61 24.85 24.56 29.35 29.68 35.34 38.31 34.86 28.70 25.61 23.99 15.99 15.98 29.56 38.40 41.48 39.54 29.25 40.80 39.56 38.12
49.44 49.52 49.52 49.49 49.88 52.29 53.65 52.57 52.97 49.17 42.72 46.24 46.47 42.67 42.94 43.60 40.59 37.71 41.31 42.02 41.40 40.27 26.79 23.18 27.60 28.12 33.58 29.15 27.82 25.47 26.24 22.15 19.96 18.91 14.99 25.02 33.68 40.14 41.31 29.74 30.17 40.54 40.70 39.59
49.28 49.37 49.35 49.40 49.65 50.52 53.74 53.01 53.27 50.06 44.92 47.06 49.69 49.14 45.95 44.96 43.10 38.25 42.61 40.51 38.72 32.28 28.15 24.79 26.38 26.54 30.20 29.20 32.76 31.31 29.67 26.25 21.58 24.58 18.69 22.57 38.51 39.10 33.92 37.32 38.06 41.65 40.56 40.21
49.94 48.98 48.15 48.73 49.64 50.23 53.02 52.14 54.55 53.11 48.90 48.12 50.86 50.70 50.60 49.61 47.96 44.93 42.26 41.96 40.40 38.13 31.97 29.41 31.97 30.47 31.95 26.61 26.99 35.79 29.11 31.24 29.05 30.87 30.37 37.32 39.15 39.74 40.45 41.48 40.89 40.78 40.79 41.07
46.85 47.48 47.80 48.54 48.81 50.90 53.58 53.07 52.32 48.76 43.55 45.91 47.66 47.74 52.14 53.53 51.70 50.74 43.19 41.15 45.82 42.24 39.45 36.86 32.22 25.95 29.41 28.55 30.45 30.20 36.59 38.89 31.76 33.15 37.94 38.73 39.76 42.01 43.76 43.14 42.51 42.34 42.46 42.05
47.73 47.89 48.24 48.54 49.36 51.30 53.16 51.89 51.31 46.31 41.08 35.82 43.04 51.21 49.85 53.40 53.73 53.01 49.53 48.04 45.87 42.70 39.23 34.67 32.78 27.47 36.13 28.28 32.51 31.10 35.58 38.84 35.91 33.48 37.88 39.88 42.15 43.04 43.89 43.88 43.02 42.72 42.99 42.64
48.31 48.83 49.23 49.23 50.23 50.91 53.15 51.28 50.24 51.21 45.70 36.66 37.68 48.13 50.42 51.04 52.47 50.86 49.96 48.30 45.38 40.27 35.48 32.92 32.18 29.71 34.60 33.84 31.99 31.97 38.95 37.12 32.14 32.16 38.84 39.96 39.35 43.00 44.12 42.84 42.69 43.42 41.93 38.49
48.33 48.81 49.23 49.45 49.70 51.52 49.54 44.49 51.06 50.40 49.25 41.42 36.47 43.33 45.68 48.15 49.92 49.55 49.26 48.64 45.24 42.34 38.56 33.69 35.93 39.88 34.97 33.70 34.35 39.57 42.00 42.96 41.22 40.02 41.30 41.17 42.11 43.40 44.22 43.63 43.67 43.88 37.31 35.46
48.43 48.87 49.14 48.22 49.60 50.29 46.29 41.68 47.89 48.13 47.92 40.11 37.61 35.45 41.43 44.78 46.49 43.82 45.41 45.66 44.81 43.34 38.57 35.30 36.52 35.00 39.36 33.82 32.65 40.69 42.05 43.39 43.81 44.02 43.75 40.10 41.87 42.18 43.96 40.46 38.46 37.96 36.12 35.43
48.63 49.69 48.90 48.89 49.53 49.65 48.92 49.49 47.37 47.91 44.24 40.03 34.97 34.03 35.99 44.31 37.31 37.31 43.28 38.25 41.74 41.70 39.82 38.35 37.12 36.01 34.55 33.58 39.35 41.59 43.51 43.50 43.12 43.69 44.47 43.14 43.60 42.08 37.19 35.76 34.93 33.80 32.98 32.90
49.49 49.23 48.46 48.44 47.24 45.74 48.60 47.59 47.53 48.45 45.00 36.48 33.97 33.37 33.30 40.97 38.73 36.93 37.10 40.21 34.23 39.96 36.80 35.67 37.02 33.66 34.61 38.70 40.02 40.76 41.81 41.81 42.01 42.83 42.03 41.84 38.75 35.81 35.57 35.17 34.89 32.90 31.61 31.82
48.14 46.58 41.62 39.57 43.98 47.81 48.03 45.74 41.16 39.42 40.89 39.19 32.93 37.22 35.49 41.52 34.07 34.25 34.17 34.23 36.06 34.39 36.46 39.04 33.89 35.57 38.24 39.11 39.62 41.01 41.87 42.25 42.39 37.37 35.33 33.64 33.75 35.31 36.45 35.94 35.26 34.08 32.96 31.96
44.25 42.02 38.78 44.84 46.81 43.80 40.45 36.78 35.60 37.88 35.85 38.52 36.92 35.47 35.86 39.93 35.34 35.15 34.41 33.33 32.78 32.24 31.45 35.14 32.87 30.95 34.00 37.92 37.59 37.59 39.70 38.46 37.12 38.09 37.66 37.52 36.54 34.69 33.06 32.91 33.17 32.21 30.51 29.72
43.70 42.85 44.03 41.58 37.71 36.40 34.56 33.82 34.41 34.39 33.75 34.53 34.96 35.68 38.78 36.59 37.59 35.77 34.40 33.28 32.39 29.82 33.93 32.59 29.63 29.85 31.45 32.59 33.62 34.90 35.70 35.45 34.95 35.41 35.06 35.42 35.70 36.16 34.34 32.18 29.64 28.60 28.31 24.47
42.30 39.77 36.09 39.12 33.91 33.22 33.61 32.72 32.22 32.41 32.56 33.64 33.52 34.05 33.87 35.71 36.73 33.33 33.11 32.03 30.98 32.53 31.29 30.10 30.75 33.25 35.17 34.67 34.87 34.66 36.03 36.17 36.23 35.99 36.22 34.21 31.64 30.20 28.25 28.23 26.98 25.48 27.20 29.17
35.91 34.07 32.32 32.60 30.34 30.55 30.93 31.64 32.09 32.24 32.42 32.60 32.96 32.42 32.77 32.42 32.96 32.21 31.09 31.62 31.27 29.06 23.66 22.11 31.67 33.94 34.83 35.27 35.33 34.51 32.45 32.49 32.41 30.77 30.28 28.87 28.65 27.67 26.29 25.50 23.28 21.53 24.32 26.03
32.97 32.14 27.74 28.13 30.35 31.83 31.86 32.06 32.42 32.78 34.17 33.33 32.95 32.57 33.58 31.64 31.02 30.93 29.04 27.32 25.10 25.32 23.77 29.83 31.88 33.90 34.12 31.95 30.70 29.89 29.57 29.89 30.27 30.80 28.95 27.36 26.46 25.60 26.71 25.65 24.94 28.06 28.11 24.93
33.04 31.71 29.70 31.29 31.07 31.30 32.09 32.07 32.09 35.09 33.33 33.13 32.92 31.29 30.34 28.85 29.41 25.86 21.81 21.77 21.14 27.99 31.12 31.68 32.75 31.78 31.52 31.95 32.63 32.27 32.61 31.54 30.71 30.15 29.33 28.17 26.00 26.01 27.57 26.96 25.31 24.21 23.62 23.58
31.51 30.12 32.07 31.98 31.89 31.83 32.09 32.62 33.14 35.97 33.14 31.09 31.24 25.43 23.17 29.60 24.78 24.44 29.99 27.01 30.40 32.06 32.60 32.21 32.88 31.59 32.95 33.37 32.61 31.02 32.13 32.01 31.31 30.17 30.70 28.79 26.03 23.26 24.31 26.13 29.96 27.03 26.42 23.10

GFSNW_sfc_wetblb_012.txt.gz
Wetbulb
52.17 51.29 50.57 51.59 51.87 52.38 52.06 43.82 38.61 50.25 47.02 39.31 37.74 37.69 44.02 46.38 44.02 45.97 45.28 44.03 42.04 39.97 40.59 39.34 38.62 38.72 40.23 42.69 43.06 38.31 39.26 35.03 28.53 34.32 39.71 41.04 38.16 35.76 33.77 25.25 26.52 25.03 22.08 26.08
51.53 50.19 51.29 51.51 51.79 53.09 50.35 44.09 48.07 53.22 46.63 31.78 29.46 39.49 44.40 45.80 43.18 43.64 43.52 42.72 43.71 43.83 40.61 37.46 39.87 40.38 43.08 41.84 40.89 39.12 39.20 32.79 28.08 32.24 36.13 38.07 35.70 37.73 35.21 32.09 29.06 27.77 21.63 26.14
50.85 51.06 50.96 51.15 51.42 52.76 50.24 46.31 41.34 45.01 43.30 39.83 38.48 38.94 40.45 41.70 45.11 44.32 44.78 43.84 44.49 42.06 40.31 41.65 39.12 39.61 42.64 42.21 41.78 44.27 42.14 34.99 31.35 27.86 30.76 33.25 32.09 35.61 35.13 33.23 24.84 26.73 26.54 29.00
49.63 50.68 50.96 51.10 51.08 51.76 51.24 43.83 41.12 43.98 35.69 38.32 39.17 40.85 41.94 40.73 40.57 44.37 44.63 42.48 42.65 41.19 36.96 37.74 37.36 40.36 39.99 42.01 43.38 41.82 37.94 31.92 32.75 33.16 34.42 34.31 33.09 33.29 34.87 33.08 32.09 29.25 30.46 30.76
48.60 48.81 50.79 50.72 50.79 51.18 49.09 46.44 41.22 39.50 38.51 43.22 43.09 39.91 41.86 41.76 41.95 42.56 41.07 41.22 42.12 41.40 37.70 39.53 38.12 39.62 37.70 36.65 41.49 38.33 36.12 29.22 29.35 30.56 34.19 33.39 31.59 33.67 33.47 33.30 33.51 33.27 32.76 33.03
48.62 50.41 50.40 50.42 50.60 51.21 47.30 48.14 47.48 43.05 36.95 38.11 39.68 38.53 43.21 43.59 43.87 43.40 44.15 43.41 40.75 38.01 41.08 42.28 41.72 41.46 40.79 40.87 39.58 34.02 30.39 28.32 25.83 23.06 28.79 27.53 24.44 31.13 32.92 32.92 33.99 34.08 30.22 34.94
50.88 50.42 49.96 50.17 50.46 51.09 50.34 50.10 48.04 40.73 31.68 33.80 38.75 42.94 44.27 43.34 42.89 42.21 43.31 43.56 40.46 42.58 44.62 42.70 41.35 39.82 41.12 41.75 39.83 37.48 29.02 26.76 23.07 20.96 21.86 16.74 31.72 35.71 35.78 35.36 36.20 37.23 36.04 36.84
50.28 49.82 49.73 49.85 50.24 50.67 52.50 51.37 48.09 42.09 30.18 36.01 40.35 43.13 43.25 43.64 43.92 42.59 43.32 44.93 43.99 44.30 39.02 33.91 33.53 30.35 32.04 32.52 38.36 35.16 33.56 26.64 23.69 20.25 19.70 26.69 31.98 35.91 35.75 34.57 33.95 38.57 37.34 36.94
49.62 49.53 49.46 49.57 50.24 51.17 52.42 52.19 48.84 46.00 39.22 38.12 44.68 43.00 42.62 36.55 37.14 36.92 40.81 46.43 44.64 40.31 29.97 28.80 25.71 26.24 29.96 29.12 33.75 36.97 32.91 27.99 24.95 18.60 16.22 15.92 29.92 35.21 39.32 38.15 29.51 38.87 38.75 37.21
49.38 49.23 49.25 49.48 50.34 51.72 53.72 51.57 51.17 47.74 42.67 45.25 45.28 41.54 41.75 42.21 39.15 36.64 40.59 41.52 39.88 38.74 25.76 22.38 23.74 25.83 31.73 28.30 27.26 25.26 26.63 24.76 18.93 19.10 14.24 24.35 32.55 38.38 40.01 29.39 31.04 38.87 39.43 38.24
48.90 49.13 49.04 49.18 50.92 51.75 54.76 52.55 52.17 48.49 44.85 46.00 48.62 47.78 43.88 43.55 41.80 37.52 41.58 39.70 38.01 31.28 28.38 25.15 25.62 22.54 29.44 28.63 31.63 30.77 29.45 25.39 20.64 21.42 15.38 21.37 36.58 38.35 33.45 37.13 36.05 39.48 39.38 38.69
46.80 47.19 47.73 49.02 50.39 51.61 54.51 53.10 53.99 51.77 48.17 46.94 49.76 50.14 49.22 48.41 46.66 43.67 40.87 41.50 39.95 37.99 31.27 24.84 29.55 29.95 30.65 25.26 25.87 34.47 29.06 30.63 27.12 28.36 28.51 35.54 37.83 37.80 39.62 39.68 38.95 39.69 39.72 40.31
47.57 47.90 48.01 49.38 50.45 51.90 53.64 52.61 49.77 47.86 43.19 45.38 47.30 46.69 51.24 52.48 50.76 49.22 42.49 39.53 43.45 39.59 37.83 31.19 31.86 25.62 28.29 26.81 28.84 29.10 34.98 36.20 29.98 32.18 36.35 36.79 38.29 39.89 41.46 42.06 41.04 41.37 41.80 41.37
47.90 48.55 48.82 49.90 50.90 51.52 52.37 50.63 49.18 45.44 41.26 35.65 41.77 49.64 48.64 51.86 52.44 50.76 48.20 45.74 43.09 40.66 38.06 29.94 32.54 26.76 34.13 25.97 31.12 29.81 34.61 36.94 34.20 32.31 37.03 37.35 39.70 41.28 41.97 42.37 42.94 42.38 42.67 42.11
48.53 49.02 49.42 50.09 50.52 51.52 52.39 50.64 49.17 48.87 44.41 36.96 37.72 46.56 48.02 49.98 50.34 48.74 47.95 46.25 43.61 39.30 33.95 30.58 31.67 29.10 33.49 33.46 32.36 31.10 37.39 36.07 31.79 31.12 38.15 37.89 38.33 40.71 42.50 42.71 42.84 43.11 41.76 40.40
48.24 48.30 48.64 49.31 50.17 50.49 45.99 43.63 48.67 50.53 46.89 41.81 36.57 42.16 43.86 46.89 48.40 48.15 47.60 46.75 43.17 41.08 37.97 32.11 34.06 37.84 34.19 33.58 29.29 38.00 39.62 40.24 39.98 39.17 39.20 39.65 39.92 41.62 42.49 42.82 42.96 42.80 40.10 36.23
48.75 48.78 48.95 49.19 49.52 50.02 43.43 41.12 46.98 47.95 46.19 40.03 37.17 36.02 40.41 43.17 45.31 43.45 44.14 45.30 42.92 41.54 38.09 33.63 30.23 35.89 36.82 34.14 28.40 40.95 41.04 42.00 42.43 42.68 41.22 39.94 40.89 41.62 42.60 42.90 40.53 36.60 35.21 35.10
48.87 48.56 48.61 48.88 49.15 48.94 47.84 48.57 47.75 47.30 42.79 39.13 33.53 33.47 35.30 42.94 37.30 37.05 42.66 38.17 41.20 41.03 38.68 37.35 35.24 36.77 35.04 33.75 38.25 40.07 41.87 42.51 42.27 42.24 42.71 41.68 41.44 36.79 34.32 34.89 34.35 33.14 32.52 33.20
48.05 47.59 48.30 48.41 47.14 46.12 47.66 47.48 47.25 47.59 44.33 35.05 34.39 32.87 32.10 41.38 37.94 36.56 37.56 40.00 34.20 39.80 35.85 35.29 38.22 33.47 33.70 36.46 37.14 37.82 39.35 39.48 40.29 40.76 41.06 38.20 33.73 33.13 33.75 34.02 34.22 32.79 32.18 32.24
47.40 46.34 42.00 39.55 44.33 47.64 46.99 44.38 40.22 39.00 39.04 39.83 33.47 37.37 35.48 42.05 34.21 34.21 34.24 34.38 35.68 33.91 35.46 38.83 34.02 34.71 36.09 33.93 34.99 35.16 37.27 39.52 39.96 35.22 31.13 31.44 32.95 34.28 35.03 34.59 34.27 33.64 33.05 34.13
43.57 40.29 39.29 45.26 45.81 43.28 37.33 35.18 33.95 37.07 36.40 37.71 36.33 35.44 34.89 39.72 35.95 35.12 33.99 33.29 32.75 31.80 30.34 34.38 32.42 31.79 31.26 32.56 33.24 34.41 34.92 35.38 35.31 35.65 36.42 36.44 35.53 34.40 33.74 33.50 33.99 32.90 32.20 30.33
42.88 43.88 43.22 40.38 38.16 36.08 33.96 32.77 33.82 34.39 31.26 34.35 34.92 35.29 37.92 35.65 36.88 35.81 34.37 33.55 32.34 30.57 33.86 32.39 29.06 29.37 32.44 32.68 33.43 35.35 36.02 36.56 36.53 37.18 36.65 36.83 36.85 36.58 34.46 32.17 30.40 28.82 28.69 26.07
40.97 37.68 34.40 37.06 33.77 33.82 32.14 30.72 32.16 32.37 32.55 33.63 33.31 33.84 33.47 35.46 35.64 33.29 33.23 32.18 31.32 32.81 30.88 29.76 30.13 33.61 35.49 35.97 35.87 36.40 37.26 36.73 36.32 36.51 36.00 33.29 31.21 30.49 28.75 28.86 27.43 26.81 27.97 29.10
36.04 34.58 33.11 32.86 31.32 30.50 30.14 31.41 31.83 32.01 32.39 32.57 32.93 32.57 32.93 32.39 33.26 32.19 31.75 31.42 31.07 28.85 25.99 23.90 30.88 33.40 33.56 34.27 34.15 33.55 31.83 29.58 29.93 30.07 29.97 28.77 28.52 27.94 26.88 26.25 25.55 24.19 25.70 26.51
32.71 32.61 28.15 28.40 30.52 31.59 31.81 32.03 32.39 32.57 33.79 32.93 32.92 32.70 34.00 31.98 31.15 30.85 29.47 24.32 20.10 19.98 17.39 29.22 31.60 32.72 32.42 30.48 31.12 32.28 31.34 27.82 28.53 29.67 28.55 27.50 26.72 26.11 26.97 26.72 25.63 26.52 25.94 24.11
32.62 31.35 29.87 30.88 31.11 30.91 31.87 32.04 32.24 34.88 33.11 33.10 33.23 31.41 29.89 28.80 29.55 24.32 22.44 22.17 18.63 25.75 31.21 31.45 32.24 31.57 31.77 32.40 33.20 32.75 32.40 31.03 30.69 30.29 28.67 27.02 23.10 22.62 25.78 25.06 23.90 23.16 23.79 23.72
31.16 30.11 32.24 31.59 31.92 31.65 32.05 32.42 32.75 35.59 33.11 31.18 30.65 24.00 24.16 29.11 21.36 21.11 26.19 21.48 28.58 32.34 32.00 32.70 32.78 32.54 33.29 33.38 32.99 31.13 31.58 31.56 30.49 29.18 29.48 27.24 24.51 22.86 25.08 27.39 29.45 27.60 26.20 20.95

GFSNW_sfc_wetblb_015.txt.gz
Wetbulb
51.96 51.98 52.31 52.05 51.87 52.02 51.79 45.88 41.00 51.81 48.93 41.74 39.71 39.54 43.45 46.19 46.85 47.59 47.23 45.46 44.05 42.31 42.89 41.59 41.05 40.90 43.27 44.86 46.16 42.96 42.65 39.79 36.73 38.80 43.02 44.57 43.04 40.42 39.06 34.38 30.88 30.46 31.16 34.92
51.56 51.78 51.66 50.82 51.66 52.67 50.13 43.49 48.99 54.23 48.35 36.00 35.29 41.36 45.53 47.37 45.11 45.62 46.10 45.40 45.80 46.10 42.70 39.89 42.17 42.78 45.08 44.67 44.64 42.67 42.82 38.44 34.31 37.17 40.13 42.45 41.19 40.52 37.78 35.97 34.66 31.43 33.68 35.04
51.49 51.21 50.11 51.23 51.58 52.81 50.42 47.83 43.81 47.52 43.71 41.41 40.52 40.92 42.37 43.62 46.37 46.24 46.32 45.08 46.13 44.35 43.01 43.25 41.10 41.97 44.66 45.44 44.44 43.85 43.87 37.53 36.84 34.16 35.84 38.26 37.20 38.90 38.10 38.11 34.03 32.57 34.57 37.02
51.32 50.63 51.02 51.11 51.43 52.17 50.29 45.51 43.43 46.90 38.75 38.44 40.22 42.19 43.08 42.81 42.49 46.54 46.53 44.97 44.70 43.27 39.88 40.97 40.02 42.64 42.51 44.13 44.44 43.32 42.00 36.90 36.77 36.29 36.75 37.50 37.25 37.52 37.47 36.83 36.98 35.75 36.44 35.36
50.72 50.99 50.75 50.79 50.99 51.61 48.85 43.66 42.42 41.28 40.92 42.82 41.18 39.92 42.98 42.86 43.95 44.70 43.88 43.67 44.61 45.03 40.65 42.27 40.02 41.92 40.88 40.48 43.32 40.66 38.88 34.59 34.23 34.66 35.91 35.42 35.41 36.94 37.25 37.58 37.30 36.88 36.61 37.34
49.62 49.78 50.48 50.56 50.90 52.09 48.66 49.19 47.01 44.57 36.95 40.99 39.60 39.42 42.17 43.88 45.57 45.12 45.51 45.28 43.28 41.61 44.25 44.45 43.07 42.97 42.33 43.13 41.99 37.23 35.46 33.04 32.06 29.45 31.42 31.68 30.64 34.81 36.79 36.91 37.93 39.71 35.70 41.21
49.18 48.88 50.17 50.17 50.92 51.33 50.74 50.44 46.79 41.48 33.88 37.88 39.26 43.22 45.14 44.41 44.81 43.97 45.08 45.53 43.63 44.67 46.77 44.89 44.43 42.66 42.31 42.16 39.17 38.92 32.58 31.09 28.52 30.49 27.52 26.93 37.03 39.84 38.94 38.05 38.40 39.68 39.38 40.74
49.57 50.00 49.93 49.97 50.68 51.63 53.07 51.80 48.18 42.04 33.23 37.80 40.36 43.51 43.73 44.41 44.85 44.11 44.70 45.47 45.35 46.51 42.51 38.71 36.52 35.23 35.45 35.87 37.86 36.19 35.97 32.45 27.68 30.78 28.03 31.12 36.25 36.37 37.95 37.55 38.78 41.90 40.69 41.33
49.70 49.48 49.66 49.83 50.26 51.32 52.92 52.40 49.70 45.68 38.77 38.04 43.94 43.73 43.98 39.98 40.01 40.89 43.05 46.40 45.88 42.16 35.21 34.40 32.43 32.22 34.50 33.27 36.58 38.25 35.05 32.28 33.80 26.85 28.35 26.02 34.88 37.65 42.84 42.22 35.33 42.19 42.77 40.75
49.16 49.16 49.27 49.60 50.02 50.90 53.31 52.92 51.30 49.47 43.06 46.56 46.11 43.61 43.09 43.58 42.00 40.39 42.11 42.92 43.01 41.95 33.30 32.04 32.60 33.07 34.25 32.09 30.26 30.07 32.44 30.06 29.69 23.10 29.90 31.01 36.65 40.49 42.67 34.30 36.98 40.83 42.59 42.15
49.04 49.17 49.15 49.44 49.86 50.99 53.63 52.32 53.45 50.44 46.19 48.00 50.17 48.10 44.42 44.13 44.48 40.99 43.31 42.67 41.63 36.38 34.55 34.39 32.65 33.46 33.99 33.33 34.71 33.31 32.98 30.93 29.29 24.84 26.00 28.26 38.58 41.41 38.05 42.55 42.36 42.35 43.01 43.09
47.12 48.40 48.98 49.72 50.08 50.85 52.81 52.76 53.71 52.67 49.10 48.49 51.03 51.56 51.50 51.20 48.37 45.27 43.39 44.87 42.02 41.53 36.15 32.90 32.44 32.65 32.31 30.35 33.38 36.39 33.35 35.72 34.50 33.10 34.36 39.90 40.67 42.78 43.59 43.03 42.72 43.61 43.47 44.04
47.51 48.50 49.70 50.41 50.83 51.57 53.18 53.50 51.78 49.33 45.82 47.44 48.75 48.61 51.81 52.52 51.50 51.39 44.71 41.85 45.02 41.48 41.06 35.69 34.27 33.83 34.01 32.38 32.68 34.34 37.09 37.52 35.56 35.96 39.62 38.02 40.29 42.79 43.10 44.12 44.74 44.84 45.22 45.51
48.32 49.07 49.61 50.28 51.26 51.67 52.75 51.57 50.37 47.74 43.06 37.25 44.08 49.81 49.01 51.51 52.37 51.74 49.60 45.80 43.52 41.94 40.35 35.73 34.06 34.48 35.92 32.48 35.77 35.26 37.95 38.14 36.59 35.90 39.12 40.39 41.96 43.06 45.38 45.38 44.73 44.87 45.56 45.24
49.18 50.30 50.24 51.01 51.27 51.52 52.64 51.29 50.87 49.56 47.80 39.25 40.25 46.94 47.73 49.79 49.81 47.92 47.78 46.24 44.56 41.62 38.18 34.85 36.31 34.37 35.71 34.74 35.04 34.51 39.14 38.79 37.41 37.44 42.46 42.28 42.67 43.80 44.94 44.69 45.09 45.85 44.97 43.10
49.05 49.43 51.03 50.95 50.38 50.19 50.15 47.32 49.71 49.20 47.47 43.41 38.15 43.32 44.23 46.76 48.11 47.62 47.24 46.86 44.39 43.49 41.19 36.42 36.95 39.36 38.54 34.34 34.60 40.12 40.75 42.37 42.63 42.24 42.85 42.65 43.63 43.55 45.71 45.25 45.40 45.07 43.69 40.96
48.46 49.68 50.41 50.56 49.32 50.66 45.50 44.27 47.54 47.26 46.85 41.39 37.41 37.78 42.02 43.08 45.61 44.62 45.27 47.19 43.83 43.82 39.63 36.22 35.73 38.30 38.59 34.79 34.16 40.68 42.03 43.09 43.78 44.20 43.93 43.12 43.66 43.54 42.54 39.61 36.44 36.47 35.91 35.63
48.42 48.78 48.94 48.87 49.16 48.89 48.62 48.87 47.57 47.15 42.82 40.54 35.21 34.84 37.56 43.51 39.58 38.59 42.90 40.25 42.93 42.28 39.61 37.77 36.76 38.18 37.98 35.83 38.58 38.08 39.31 40.44 43.23 42.68 44.32 42.63 37.39 36.47 35.47 36.14 36.15 35.11 35.11 35.72
47.38 47.70 48.17 48.78 47.67 46.23 47.67 47.37 46.85 47.20 44.45 36.19 32.97 34.50 34.61 42.39 38.64 37.50 39.61 40.82 36.35 39.94 37.80 37.22 40.02 34.34 32.99 32.07 33.17 33.94 34.99 36.20 38.38 37.52 35.39 35.36 34.22 34.41 35.05 35.61 35.61 34.00 33.94 34.71
47.13 46.72 43.27 39.56 45.01 47.10 46.91 44.63 40.84 39.80 39.04 40.54 33.99 37.77 35.01 41.68 35.26 34.90 35.95 36.71 35.26 34.70 37.08 39.18 34.90 34.53 32.28 33.39 34.29 34.67 34.93 35.73 39.17 34.80 32.41 33.95 34.11 34.60 35.57 35.42 35.54 35.72 36.50 35.60
44.82 41.52 40.14 45.37 45.78 44.41 38.45 34.93 35.11 36.88 34.03 37.66 36.27 36.10 35.90 39.85 37.52 35.44 35.44 34.71 33.81 33.05 35.05 35.51 33.76 31.23 30.30 34.14 34.56 35.93 36.48 36.79 36.67 37.09 36.88 36.73 36.16 34.52 34.79 35.02 35.20 34.71 34.35 33.64
43.80 44.25 44.04 42.16 39.58 35.99 34.71 33.32 34.53 33.29 33.17 34.49 35.24 35.79 39.02 36.51 39.80 37.07 35.38 33.81 33.26 31.72 36.02 33.08 30.34 28.98 33.30 34.64 35.66 36.15 36.59 36.81 36.51 37.15 36.58 36.92 36.47 36.97 35.57 33.80 32.61 31.08 30.29 29.29
42.48 39.39 36.07 38.35 34.95 32.07 28.21 31.20 32.54 32.10 33.08 33.96 33.79 33.97 34.71 36.70 36.20 34.17 34.35 32.90 32.12 34.00 31.97 30.31 30.12 34.08 35.22 35.40 36.12 35.52 35.62 35.60 35.19 35.34 35.17 33.95 32.23 31.18 30.71 30.81 30.15 29.80 30.51 30.66
34.50 34.00 31.97 30.22 32.31 31.21 31.56 32.36 32.54 32.36 32.54 32.90 33.81 33.08 34.17 33.08 33.63 32.72 32.72 31.57 31.71 29.78 27.98 27.51 31.17 33.35 33.37 34.61 35.08 33.99 32.15 28.98 30.48 30.80 30.66 29.15 28.85 28.71 27.88 27.15 27.39 26.86 29.15 29.31
32.91 33.21 27.73 28.63 30.70 31.91 31.77 32.18 32.72 32.89 34.06 33.81 33.63 33.45 34.86 32.36 31.94 31.70 30.80 27.46 26.14 26.82 24.98 30.22 31.62 32.60 32.11 32.45 33.46 31.72 30.55 28.16 31.26 31.86 30.42 28.26 26.97 25.98 28.75 27.80 27.92 28.42 27.84 27.80
32.50 31.80 30.19 31.39 31.48 31.26 32.18 32.18 32.00 34.98 33.05 33.42 33.73 31.74 31.57 29.55 31.13 29.07 28.13 25.46 21.99 27.21 31.27 31.85 32.24 31.08 32.66 33.66 34.45 33.80 33.22 32.72 32.22 31.73 30.45 29.37 27.86 27.44 28.56 28.50 28.86 27.19 27.43 26.47
31.01 30.62 32.00 32.00 32.18 31.62 31.81 32.36 32.34 35.12 33.25 31.63 31.72 29.71 27.24 30.14 26.95 25.72 28.86 25.15 28.75 31.70 31.67 33.01 33.67 32.65 32.93 34.12 34.65 32.90 32.63 31.99 31.24 30.41 29.83 28.66 27.17 26.01 27.44 26.57 27.73 27.41 28.10 26.31

GFSNW_sfc_wetblb_021.txt.gz
Wetbulb
50.69 51.89 52.84 53.11 52.51 52.14 51.75 53.97 47.10 60.39 62.67 49.40 51.74 48.40 50.12 49.38 51.71 54.29 50.96 50.63 48.53 47.21 47.68 46.49 46.15 45.36 47.88 52.58 52.41 47.95 50.00 47.23 43.39 45.39 49.99 50.79 49.87 47.73 47.38 40.92 39.03 41.45 40.46 40.20
49.65 51.18 52.31 52.65 52.00 52.17 54.44 51.81 53.07 60.91 59.55 46.57 50.47 51.63 50.15 50.84 51.10 51.19 50.78 48.41 50.19 50.34 47.67 44.83 47.24 47.98 50.86 51.64 51.67 49.05 51.01 45.65 40.81 42.71 46.91 49.08 46.17 47.51 47.69 46.51 44.97 39.81 37.86 40.75
49.52 50.53 51.69 52.31 51.87 52.28 56.95 53.00 48.41 53.52 55.21 54.56 51.12 49.31 48.37 47.89 52.93 51.53 52.17 49.95 51.94 50.42 48.82 50.55 48.21 48.94 49.55 51.14 51.48 45.43 48.98 47.38 44.06 40.02 43.45 47.07 44.95 46.06 47.16 45.98 41.00 40.91 41.96 43.12
49.59 50.58 51.19 51.89 51.74 51.79 55.14 54.19 50.53 53.17 47.30 50.47 52.03 50.83 49.22 47.26 47.59 52.11 53.22 50.90 50.17 49.33 46.50 48.25 47.89 50.48 48.52 50.04 46.29 49.63 50.47 44.44 46.42 46.64 46.37 45.80 45.39 44.93 45.96 44.34 44.78 42.01 43.46 43.27
49.40 50.02 49.77 51.49 51.47 51.81 53.09 51.57 51.53 53.72 51.82 52.26 50.60 47.64 48.36 47.41 49.56 50.75 49.91 49.39 50.38 50.79 48.45 49.25 47.25 50.29 49.76 48.81 50.67 50.30 50.39 44.63 44.61 42.66 46.10 45.01 43.21 45.15 45.11 45.12 45.51 44.97 44.95 44.47
49.20 49.24 48.62 51.18 51.48 51.99 52.98 56.66 57.54 54.77 49.96 51.80 48.75 49.83 49.01 48.70 52.11 51.95 53.07 52.07 51.33 50.45 51.78 54.07 54.35 54.46 53.41 52.55 50.62 49.22 47.98 45.47 41.69 37.82 41.81 42.10 37.53 43.04 44.82 45.34 46.48 46.18 42.85 46.90
49.07 48.67 47.76 50.78 51.13 52.03 57.03 57.96 57.05 51.62 48.35 50.60 48.84 49.45 50.23 49.65 52.09 50.73 52.18 54.37 52.54 53.03 55.90 55.31 54.21 52.54 51.06 50.29 49.33 51.54 45.40 44.57 42.68 38.80 36.19 30.66 42.74 46.70 45.66 44.86 46.14 47.54 47.08 47.71
48.66 47.91 47.57 50.53 50.70 51.48 56.82 60.29 57.59 53.62 46.55 50.21 49.15 49.07 49.17 51.05 53.33 52.67 52.43 52.48 55.02 56.37 54.29 49.01 45.16 45.39 44.82 45.19 46.69 46.11 47.81 44.93 39.20 38.21 36.92 40.84 42.70 44.17 43.20 42.44 43.08 47.53 46.87 47.41
48.48 47.78 49.86 50.13 50.46 51.12 55.38 61.97 61.79 57.37 51.45 49.56 50.97 49.11 49.94 50.95 51.59 50.78 49.44 53.87 55.86 53.71 52.84 48.39 41.57 39.67 42.87 41.96 44.17 46.40 44.42 45.23 42.70 38.19 35.73 32.58 42.88 45.38 48.24 47.75 39.71 47.24 47.48 47.38
48.66 48.94 49.73 49.81 50.12 50.76 54.93 61.97 62.50 56.99 50.78 52.76 52.62 49.67 48.96 52.71 53.31 51.75 50.34 50.25 49.98 52.27 49.53 43.83 44.37 42.66 45.53 40.18 38.89 37.81 40.68 41.62 38.87 38.90 37.81 40.94 45.55 46.17 48.48 37.88 41.72 49.04 49.30 48.95
48.93 49.44 49.53 49.55 49.82 50.28 53.96 61.75 62.93 58.55 53.45 53.92 55.03 54.49 52.34 52.64 53.49 50.99 52.15 50.36 50.78 50.52 46.25 47.09 46.62 44.95 45.14 43.56 44.80 42.38 41.03 39.96 39.26 40.40 35.83 33.42 46.83 47.14 42.15 48.27 49.94 49.82 50.13 50.23
48.67 48.83 49.21 49.40 49.91 50.22 52.49 60.30 62.53 63.93 57.21 55.81 58.97 58.27 58.14 57.57 57.89 56.08 53.84 53.24 52.43 53.04 50.58 49.62 50.75 42.77 39.52 44.58 40.38 46.76 41.48 45.51 44.54 43.20 43.85 48.13 48.71 48.08 50.04 50.74 49.64 49.69 49.69 50.56
48.46 48.71 49.29 49.42 49.81 50.51 52.83 61.89 62.31 61.23 57.43 55.45 55.26 54.32 57.48 59.18 59.33 60.57 53.97 56.14 56.48 54.96 57.68 52.97 51.60 42.16 47.53 39.73 44.38 45.69 46.78 47.44 44.37 43.23 46.14 47.06 48.35 49.81 50.13 50.53 50.18 51.25 51.80 51.72
48.47 48.69 48.95 49.23 49.70 50.35 51.84 60.76 62.88 60.82 57.15 46.89 52.77 57.63 55.40 57.74 58.70 58.87 59.01 58.36 56.99 56.37 56.34 53.23 44.88 44.52 49.92 47.50 47.66 46.20 47.75 47.10 44.99 45.01 47.27 48.02 48.78 50.34 50.56 50.91 51.81 51.92 52.59 52.49
48.42 48.52 48.92 49.51 50.02 50.91 57.23 60.75 59.61 60.99 57.20 48.83 51.74 55.12 55.21 57.00 57.38 56.77 57.22 56.53 54.95 53.57 51.25 45.02 48.86 49.67 48.47 48.18 47.69 46.18 48.31 45.95 44.58 43.35 48.38 47.77 48.59 50.81 51.17 50.54 49.94 49.97 50.23 50.47
48.19 48.68 49.17 49.36 49.82 50.93 57.93 55.68 58.10 57.89 60.37 54.70 48.49 54.32 52.83 55.68 56.57 55.94 55.79 56.47 55.86 56.19 53.43 49.79 50.95 49.22 50.22 43.31 43.93 47.61 47.98 48.53 48.50 47.33 50.13 50.23 50.52 48.07 48.11 46.11 45.45 45.80 45.16 44.43
48.22 48.65 48.98 49.48 50.69 57.66 54.22 52.16 54.28 51.25 59.09 53.56 47.57 47.72 52.24 53.43 54.51 53.28 55.05 55.98 55.16 55.95 52.91 47.34 50.46 48.96 49.98 43.14 43.13 46.57 44.97 46.21 48.25 48.09 49.30 48.40 46.23 44.51 46.06 45.47 44.77 42.85 41.56 40.34
48.94 49.32 49.72 49.83 49.87 49.53 54.63 51.73 49.18 52.80 53.67 55.54 47.14 43.44 48.59 53.06 49.98 48.92 52.62 51.60 54.69 50.24 46.76 47.35 47.08 47.17 48.81 44.06 44.32 44.03 44.38 45.99 45.25 45.04 46.61 46.02 45.71 45.34 43.55 42.93 40.33 38.37 37.60 37.82
49.22 49.79 51.23 56.83 56.00 54.99 53.09 46.95 50.08 56.22 54.00 49.98 48.27 42.07 40.47 50.59 45.54 47.94 48.41 51.71 45.10 47.91 42.63 46.17 47.79 40.59 41.24 40.57 40.65 42.02 42.17 42.68 43.19 44.08 44.67 44.28 41.35 39.11 39.25 39.60 38.31 36.01 35.78 36.59
48.70 56.21 53.44 50.31 51.73 47.51 50.00 51.49 51.99 51.76 51.56 49.46 40.71 47.24 42.06 48.47 44.12 42.15 44.55 45.10 42.69 39.39 42.10 45.20 41.83 39.94 38.57 39.51 40.14 41.54 42.70 44.40 44.17 40.03 38.66 37.86 36.73 37.33 37.53 37.85 39.24 39.76 39.64 39.35
55.60 52.86 48.70 51.41 47.77 50.09 49.18 44.92 46.21 47.71 43.67 43.89 42.05 43.73 42.23 46.87 43.02 39.62 42.80 40.49 41.11 36.88 40.57 39.72 38.45 37.52 36.86 38.52 39.38 40.62 42.37 43.58 42.78 42.11 40.16 40.25 39.77 38.57 38.17 38.37 38.18 36.07 35.51 33.98
51.36 51.70 51.13 51.36 48.17 47.19 40.97 38.73 41.02 42.10 38.91 39.82 39.85 40.75 42.81 43.12 47.65 42.42 41.90 37.34 38.67 35.24 42.19 38.22 35.33 34.18 36.22 36.80 37.49 39.04 40.71 40.87 40.32 40.43 39.06 39.05 38.46 38.37 36.16 35.20 34.63 33.69 33.95 32.84
52.96 49.42 42.75 45.72 41.92 37.26 35.27 32.17 36.36 35.68 37.99 37.63 38.34 37.02 42.33 42.86 44.53 41.13 40.52 35.80 36.84 42.37 36.47 34.56 34.76 34.98 35.87 36.39 38.49 39.02 39.68 39.46 39.15 38.33 37.99 37.25 35.84 35.54 35.64 33.85 32.88 34.10 35.34 36.11
43.26 40.48 34.91 35.27 35.63 34.18 33.64 34.54 34.54 34.18 34.91 38.89 41.18 38.35 40.18 40.15 37.44 38.71 34.00 34.00 37.76 33.64 32.31 33.87 32.81 34.23 35.42 37.21 38.53 38.40 37.14 36.08 36.19 36.36 35.38 34.74 33.32 32.50 32.55 32.55 32.91 32.53 32.09 32.91
38.01 38.29 31.64 31.82 32.73 33.09 32.91 33.46 34.54 35.07 37.62 40.11 41.87 41.43 42.52 37.44 35.63 37.26 35.27 32.01 31.99 34.13 33.95 34.15 33.89 34.37 35.36 36.72 37.38 36.33 34.96 34.08 36.40 36.91 34.07 33.64 34.29 33.44 32.37 31.71 31.37 30.91 30.04 29.80
36.53 34.79 32.37 33.09 32.91 32.19 32.37 32.73 32.73 35.76 35.99 38.65 40.68 35.99 35.81 33.64 35.99 34.36 34.17 33.90 32.42 33.06 35.18 34.33 33.95 33.53 35.25 36.75 36.69 36.92 38.01 37.41 36.96 36.11 34.77 33.27 31.92 32.27 31.83 30.63 29.62 30.43 29.53 28.43
35.04 32.73 32.73 33.27 32.55 31.64 32.01 32.91 33.06 35.89 35.09 32.55 35.81 34.00 32.01 35.08 33.95 32.37 35.73 33.27 34.36 33.82 33.98 35.74 35.48 33.74 35.02 37.01 36.74 36.36 36.79 36.38 36.02 35.06 33.77 31.92 31.25 31.04 29.68 28.48 28.67 28.78 29.00 28.46

GFSNW_sfc_wetblb_024.txt.gz
Wetbulb
49.54 50.17 51.29 52.24 52.99 52.50 51.33 52.12 44.15 58.26 60.67 46.28 47.69 46.82 48.84 49.72 51.03 52.00 50.78 50.07 47.92 46.60 47.67 45.93 45.33 44.60 47.91 51.61 50.98 47.25 49.48 46.61 43.14 43.99 49.32 50.74 48.69 46.65 45.83 42.04 38.78 42.76 40.23 39.17
48.46 49.74 50.61 51.97 52.48 52.41 51.50 48.26 50.59 59.38 58.12 41.73 45.00 49.44 49.42 50.60 49.80 50.68 50.38 48.95 49.94 49.54 47.48 44.70 46.92 47.60 52.23 53.01 51.04 48.56 50.42 45.47 39.56 41.41 46.50 49.18 45.99 46.80 46.33 47.03 46.01 40.16 37.27 39.57
46.20 49.26 49.70 51.37 52.26 52.39 52.26 49.62 45.13 51.88 54.09 50.89 47.92 47.61 47.21 47.00 52.09 50.45 51.45 50.39 50.69 48.84 46.96 48.85 46.60 47.63 50.33 52.21 52.02 46.82 51.55 46.55 42.87 38.74 42.19 46.60 44.81 45.77 46.12 45.27 40.87 40.52 39.79 41.94
45.36 48.78 49.34 50.47 51.84 52.06 51.13 51.48 48.19 51.19 45.30 47.58 49.13 50.96 48.74 46.79 46.94 50.47 52.30 49.50 48.30 48.66 46.11 46.86 46.95 49.14 49.47 50.54 46.79 49.39 49.87 43.45 45.16 45.39 46.35 46.48 45.68 45.12 45.28 43.69 44.70 40.11 43.26 43.05
46.67 48.68 49.12 49.88 51.37 51.91 49.09 48.12 49.23 52.86 49.83 49.85 48.80 48.27 48.27 47.37 48.16 49.61 49.07 48.85 49.34 50.27 47.77 48.26 46.54 49.04 49.82 48.26 50.14 49.38 50.36 44.58 45.91 43.57 46.17 46.02 43.39 45.07 45.30 44.64 44.42 44.51 44.40 44.01
47.86 48.72 48.74 49.83 50.82 51.33 48.70 53.05 56.60 52.61 48.21 48.75 47.91 48.91 49.98 49.39 50.88 51.67 52.10 51.36 50.38 49.12 51.29 53.77 54.32 54.89 54.38 52.75 50.54 49.02 48.93 46.74 42.55 38.62 42.34 41.21 35.42 42.41 43.83 44.51 45.96 45.49 41.36 46.62
48.33 48.66 49.07 49.53 50.50 51.27 52.70 54.48 55.83 49.55 45.81 47.51 48.47 50.63 51.33 49.51 50.57 50.97 52.68 53.83 52.04 53.81 56.68 56.02 54.68 53.09 52.11 52.23 51.17 52.79 46.99 45.60 43.51 39.57 36.29 31.21 42.16 47.23 46.01 44.25 45.00 45.90 45.64 46.95
48.12 48.62 48.71 48.49 48.14 50.51 53.28 57.22 55.03 51.21 43.67 49.90 49.73 51.18 51.32 51.28 51.61 52.33 52.40 53.89 56.09 57.71 54.76 49.04 45.09 46.26 44.04 46.19 47.96 47.83 49.62 46.12 40.65 37.26 36.29 40.11 42.45 44.89 43.73 42.69 42.74 46.71 45.70 46.45
47.63 48.06 47.88 47.45 47.72 47.60 51.65 54.52 54.92 56.05 49.05 49.35 52.43 50.37 52.03 49.30 51.02 50.66 50.38 55.50 58.72 57.18 54.38 49.68 42.01 40.11 42.59 41.58 43.68 46.79 45.88 47.53 44.14 38.79 36.31 32.94 43.49 45.81 48.19 47.32 39.11 47.29 47.46 47.21
47.66 47.93 47.54 47.27 47.57 47.88 49.17 53.78 55.15 55.46 50.22 54.47 54.07 50.02 49.98 53.43 52.61 50.25 51.01 50.61 50.83 54.19 49.83 41.92 45.85 43.40 46.46 41.00 39.71 37.56 40.70 42.38 37.55 38.65 37.59 40.71 46.37 47.22 48.33 38.15 41.26 48.72 48.83 48.68
47.32 47.33 47.44 47.14 47.31 48.28 50.03 50.29 53.72 54.33 51.36 54.25 56.52 55.71 52.19 54.41 54.56 49.66 52.07 50.51 51.64 53.35 46.99 46.57 48.18 44.63 46.47 45.15 45.02 41.45 40.06 40.11 38.16 41.67 35.15 32.82 47.59 46.79 41.89 48.41 50.88 49.79 49.57 49.90
47.22 47.62 47.44 47.81 49.39 50.03 51.32 48.42 54.43 56.88 56.87 55.50 59.73 58.28 58.88 58.30 57.37 55.54 53.97 53.53 52.15 53.32 50.81 49.73 51.46 40.42 39.55 43.92 40.84 47.60 42.08 46.08 44.79 42.81 42.48 49.33 49.63 48.67 50.33 51.13 49.64 49.90 50.12 50.50
47.66 48.00 48.41 48.92 49.50 49.86 50.43 50.94 53.59 59.17 57.36 54.91 55.37 54.62 57.75 59.76 60.18 62.06 53.34 55.60 57.03 55.73 59.47 54.94 52.74 40.04 47.95 39.09 44.91 47.36 47.77 49.10 46.26 45.48 46.39 47.36 48.85 49.84 50.29 50.81 50.57 51.01 51.37 51.64
48.16 48.12 48.52 49.02 49.44 49.96 50.81 50.81 54.46 59.65 56.65 46.29 52.55 58.37 55.84 58.50 59.47 59.97 60.12 60.04 60.19 59.45 57.91 54.40 43.09 43.15 51.33 47.41 49.45 49.23 48.51 47.75 45.05 45.15 47.46 48.49 49.13 50.21 50.77 50.93 51.76 51.10 51.42 49.99
48.44 48.57 48.93 49.07 49.93 50.55 51.90 53.67 56.74 61.23 56.36 48.55 50.78 55.26 56.15 57.30 58.12 57.84 58.88 59.29 57.66 56.04 51.86 42.96 49.84 51.88 49.81 49.56 49.71 47.79 48.69 46.60 45.42 44.53 48.09 48.01 48.20 48.73 49.82 47.66 46.60 46.88 46.49 44.26
48.29 48.56 49.02 49.27 50.01 50.36 52.53 51.96 59.05 60.04 61.60 54.17 47.97 53.93 53.83 55.99 57.00 56.29 56.65 57.42 57.38 56.56 53.76 49.82 52.17 51.57 51.60 43.52 44.25 48.20 48.83 49.42 49.09 47.71 49.57 49.84 48.21 47.11 46.55 44.42 44.53 44.42 43.41 42.54
47.95 48.45 48.88 49.73 49.63 54.72 53.37 50.22 52.38 50.47 60.51 53.85 46.02 45.71 52.20 55.68 55.25 55.06 54.93 56.80 56.21 55.75 53.38 50.22 50.41 49.03 50.46 42.69 43.99 47.34 46.82 47.26 48.75 48.23 48.78 45.68 47.16 43.72 45.64 42.91 42.30 41.27 40.47 39.87
47.93 48.47 48.77 49.58 49.26 50.66 52.65 53.81 50.65 50.49 55.66 54.49 44.26 39.91 46.75 53.61 51.00 49.01 53.50 53.63 54.13 51.22 48.06 49.66 49.35 47.46 50.54 44.93 45.78 45.69 45.46 46.87 45.79 46.14 47.17 46.20 45.19 43.67 41.76 41.78 41.07 38.80 37.68 37.80
48.47 48.94 49.22 52.83 55.29 54.23 53.76 48.33 49.04 58.57 52.82 44.65 46.31 40.29 39.56 51.20 46.37 47.81 49.37 52.21 45.06 48.96 44.15 48.97 48.36 41.75 41.57 44.52 44.01 43.81 43.74 44.97 43.93 45.44 44.96 42.99 40.84 40.05 39.84 39.34 38.04 36.83 36.76 38.04
49.35 53.05 53.40 47.25 51.91 48.68 49.35 52.61 52.13 51.24 49.28 49.71 41.38 46.32 42.25 47.05 43.67 41.19 43.54 45.57 42.57 39.22 42.70 46.16 43.22 40.87 41.86 42.39 43.04 43.62 44.18 45.48 45.17 40.49 37.60 38.02 37.46 37.71 38.22 38.33 38.46 37.12 35.62 35.24
56.46 51.92 46.71 51.19 49.64 51.99 49.25 44.03 45.16 45.38 41.18 43.65 42.68 44.00 42.84 47.70 43.06 40.07 43.44 40.53 41.38 37.43 40.34 40.88 38.67 37.09 38.45 41.21 41.00 42.48 44.32 44.24 43.65 42.73 40.68 40.43 39.55 38.26 36.98 35.36 34.75 34.32 33.58 32.29
52.19 51.80 51.93 51.40 49.13 44.76 38.32 38.58 41.26 41.89 38.81 38.73 39.94 41.93 43.60 44.21 48.42 42.06 41.69 36.76 39.53 35.84 41.52 37.19 34.90 37.13 38.47 38.73 38.70 40.57 41.76 41.49 40.68 40.72 38.94 38.80 37.76 36.60 35.26 34.24 33.52 32.31 32.02 31.00
53.61 47.99 41.57 43.69 39.76 35.58 35.76 32.30 35.38 34.43 36.57 36.80 38.20 36.76 42.53 43.31 44.64 40.46 39.22 35.32 36.62 41.83 35.35 34.47 35.82 36.34 37.33 38.22 39.39 39.11 39.96 39.99 38.86 37.61 37.23 36.17 35.26 34.96 33.00 31.93 31.65 33.46 33.58 31.94
44.17 38.66 33.58 33.76 33.40 32.49 32.67 33.22 33.40 33.76 33.94 36.48 39.93 38.11 39.28 39.02 36.66 37.57 34.49 34.31 38.27 33.22 31.50 33.43 33.89 35.37 36.37 38.44 38.41 37.96 36.53 35.14 35.32 35.19 34.05 32.50 31.33 30.84 31.14 30.95 30.79 29.27 28.45 29.76
36.63 36.22 30.30 30.82 32.12 32.86 32.86 33.22 33.94 34.47 37.58 38.29 41.55 41.16 40.95 36.66 33.94 36.48 34.31 32.31 32.07 33.34 33.51 33.75 34.60 35.39 36.58 36.68 37.41 34.91 34.61 34.12 34.63 34.47 32.72 31.54 31.74 30.46 29.62 29.50 30.14 29.74 27.99 27.57
34.77 33.31 31.54 32.49 32.48 31.69 32.12 32.31 32.31 35.34 36.30 39.89 41.36 36.84 35.03 33.22 35.58 34.49 32.48 33.80 32.30 32.49 33.16 33.47 34.35 34.42 35.81 36.92 35.49 35.74 36.57 36.40 35.01 34.10 32.98 31.64 31.56 31.25 29.87 29.22 28.80 27.48 27.13 24.39
33.94 31.95 31.95 32.49 31.92 31.41 31.77 32.31 33.38 36.39 35.58 32.86 35.74 33.04 30.48 35.18 33.57 31.82 32.98 30.65 32.13 31.77 32.98 33.59 34.36 34.15 35.81 36.35 36.05 35.66 35.86 35.65 35.02 33.91 32.85 31.58 31.09 30.76 30.00 28.39 27.88 28.88 28.56 24.84

GFSNW_sfc_wetblb_027.txt.gz
Wetbulb
46.75 48.37 49.65 50.78 51.41 52.57 51.55 50.00 42.11 52.19 55.40 42.82 42.67 40.15 45.40 47.49 49.17 51.43 49.12 48.39 46.80 43.60 45.53 42.50 41.37 41.59 46.57 49.18 49.28 44.90 45.54 41.90 35.38 42.30 47.13 48.01 45.29 43.10 42.53 30.53 32.07 31.76 29.08 31.86
47.22 47.67 49.43 50.13 51.17 52.20 50.14 46.27 46.95 53.49 52.16 36.62 38.05 42.39 45.85 48.34 48.11 48.38 48.13 47.28 48.44 47.73 45.69 41.92 43.38 46.07 49.90 50.36 48.62 45.20 46.33 39.48 29.70 35.21 41.13 45.48 42.40 43.78 43.83 43.22 36.41 31.82 25.81 31.57
47.21 47.59 46.64 49.93 50.60 51.81 51.42 46.91 41.49 48.93 49.80 45.14 41.26 39.97 42.72 44.41 50.14 49.16 49.85 48.58 48.93 46.27 44.17 46.87 43.24 45.13 49.41 50.25 48.16 45.77 47.83 42.66 36.44 29.95 36.77 42.53 39.96 43.43 43.76 40.39 30.17 30.94 32.07 37.77
46.71 46.38 46.46 49.38 50.14 51.68 51.12 46.66 42.14 48.04 41.69 43.31 42.06 43.81 44.45 44.40 44.58 49.14 49.71 47.24 46.92 44.96 40.49 43.14 42.83 46.37 46.78 49.14 46.49 46.83 45.21 37.74 40.33 42.39 44.28 44.50 43.08 43.04 43.69 40.65 39.82 34.00 37.65 39.86
46.38 46.39 46.33 48.89 49.65 51.44 48.28 44.46 43.41 48.41 45.21 45.88 44.30 42.52 43.71 44.97 46.30 47.28 45.95 45.86 46.82 45.76 42.92 45.00 42.44 46.63 45.60 44.35 45.92 44.51 45.87 37.85 38.15 36.55 43.23 41.87 38.84 41.67 41.84 41.41 41.71 39.67 40.02 39.56
46.17 46.79 46.19 47.39 49.34 50.52 46.05 47.61 49.32 48.47 44.38 44.69 42.32 41.66 45.26 45.96 47.91 48.59 49.37 48.84 46.96 44.82 48.12 49.85 49.48 50.03 49.47 48.86 45.13 42.78 41.89 36.14 32.87 30.61 37.18 36.05 28.40 36.09 39.98 41.29 42.02 40.75 35.19 40.00
46.68 46.69 45.94 47.74 48.99 50.31 48.39 48.61 48.52 46.77 40.23 44.61 42.34 45.08 46.70 47.24 47.71 46.40 49.63 49.71 46.81 50.06 52.78 51.17 49.58 48.01 48.22 48.80 47.09 48.51 39.36 37.53 32.29 28.65 29.08 20.65 36.96 43.90 42.62 41.39 41.24 41.49 41.30 41.96
46.48 46.67 46.68 48.21 48.76 50.15 47.27 48.63 49.62 48.42 35.77 45.09 44.12 45.22 47.19 49.49 49.92 47.92 50.25 51.87 52.50 52.82 50.20 42.33 39.27 35.12 35.52 40.10 45.38 45.81 45.97 35.64 31.56 26.82 27.17 33.47 38.65 41.75 41.05 38.69 37.84 42.74 41.49 42.57
46.01 46.49 47.59 48.15 48.74 49.73 48.82 47.05 49.56 50.60 45.79 44.03 47.28 45.21 48.52 45.65 43.85 45.42 48.30 51.99 52.55 52.61 45.82 35.64 33.03 30.64 36.05 35.65 39.57 44.33 42.83 38.80 31.06 28.48 25.04 21.16 35.87 42.62 45.51 43.78 31.51 43.84 43.93 42.96
46.55 46.99 47.63 48.43 48.71 49.00 47.88 47.00 50.28 49.41 47.65 48.98 48.54 45.56 47.18 50.20 47.26 44.33 47.01 48.50 46.86 50.26 35.44 35.46 31.22 31.58 42.09 34.19 33.19 31.45 31.03 30.82 27.61 25.33 23.63 31.39 43.59 44.70 45.61 30.24 32.70 43.99 44.44 43.68
46.84 47.12 47.61 47.82 47.53 47.68 46.65 45.22 48.29 50.34 48.18 49.18 52.14 51.68 48.81 50.96 48.60 42.62 46.89 46.10 44.95 39.61 37.34 35.14 33.24 32.30 34.84 35.01 40.33 36.18 33.13 30.45 27.18 30.92 29.00 26.96 45.03 43.39 35.67 41.14 43.53 44.38 43.74 43.35
46.59 47.30 47.43 47.31 47.20 47.41 47.37 42.14 49.50 52.88 47.80 49.93 55.26 54.86 54.64 55.00 53.43 49.62 47.63 48.56 46.87 46.92 41.76 39.90 37.47 34.86 34.26 33.91 29.98 42.95 33.54 38.72 33.74 35.70 33.74 42.99 43.91 43.24 45.23 45.15 43.80 44.14 44.92 46.05
47.32 47.34 47.60 47.14 47.31 47.67 47.10 45.72 51.95 51.49 47.62 48.68 51.37 50.78 53.68 56.50 56.55 55.40 47.71 49.73 51.60 50.02 51.74 43.77 40.51 36.31 34.30 32.32 33.23 36.65 41.89 45.27 37.11 37.68 42.06 43.01 43.75 46.39 47.66 47.59 46.57 46.77 44.95 44.17
46.98 47.03 47.17 47.30 47.69 48.73 48.90 47.51 50.93 51.02 48.20 41.63 48.50 56.27 52.35 56.21 57.52 56.69 56.61 54.29 54.61 53.75 51.53 40.54 37.60 37.20 45.24 33.76 39.11 36.58 41.26 42.73 40.79 39.14 42.20 45.36 45.68 46.34 46.48 45.24 45.52 42.71 41.85 41.19
47.16 47.55 47.78 48.15 49.33 50.16 50.74 51.28 51.47 53.25 47.44 43.74 46.01 52.35 53.92 55.04 55.46 55.37 56.32 54.18 52.30 48.74 41.20 35.23 37.04 38.82 40.35 34.84 37.03 33.41 43.10 41.18 35.00 32.48 44.61 42.85 42.11 43.80 44.56 42.45 41.73 42.19 40.59 39.09
47.02 47.73 48.44 48.72 48.97 49.73 50.86 45.94 51.45 52.38 50.77 46.26 39.59 49.86 50.66 52.15 54.02 53.30 53.59 52.88 51.17 50.65 45.37 40.76 43.54 46.57 40.03 33.41 30.60 43.10 44.56 45.57 45.87 43.89 45.09 43.76 42.82 41.95 42.47 40.48 40.30 40.18 39.48 39.03
47.68 47.89 48.07 48.67 48.98 50.74 47.31 46.46 50.80 51.33 51.76 47.29 38.85 39.21 48.96 52.27 52.05 49.65 50.54 52.12 50.34 49.14 46.18 39.25 40.74 42.09 44.44 32.98 32.40 42.75 44.08 44.72 45.03 45.81 45.02 41.46 42.28 39.01 40.35 39.29 38.85 39.05 38.23 37.81
47.99 47.95 48.44 48.89 49.50 50.49 49.27 52.13 50.35 50.49 51.59 48.93 38.80 37.61 42.51 51.48 41.61 40.63 48.37 43.94 45.31 45.23 42.31 41.08 36.95 40.28 35.34 33.34 40.72 42.37 43.97 44.00 43.66 42.75 44.05 41.23 40.73 40.38 39.52 39.27 38.00 35.83 34.52 34.74
48.03 48.46 48.73 49.86 50.22 49.43 51.12 49.64 49.40 54.21 49.68 38.87 37.58 36.35 36.15 47.88 42.98 41.00 43.32 46.04 37.42 44.03 36.50 36.26 38.49 32.90 33.64 40.53 40.38 41.02 42.70 42.18 41.33 41.26 40.68 39.87 38.36 38.24 37.42 35.84 35.05 33.88 33.52 33.50
48.55 49.77 49.53 43.05 49.30 49.65 50.38 49.42 45.23 43.53 44.22 42.05 35.42 41.48 37.80 44.37 36.91 36.91 37.63 36.53 37.21 32.71 37.33 40.37 33.96 30.26 38.17 39.84 40.46 41.19 42.13 42.49 40.35 36.36 34.88 35.81 36.34 35.77 36.48 35.30 33.82 33.50 33.45 31.98
50.30 46.68 42.16 48.23 49.23 48.64 41.79 34.92 35.77 36.87 33.52 36.16 36.90 39.38 38.16 44.56 36.94 35.44 36.86 35.23 34.53 29.43 33.82 33.44 33.04 30.05 36.20 38.77 39.05 39.95 41.39 43.05 42.09 40.22 38.80 38.77 38.08 35.06 33.22 32.44 32.08 30.27 29.64 29.24
49.19 48.62 49.29 48.01 45.22 40.00 35.23 33.17 33.38 35.90 33.93 33.60 36.16 37.76 41.74 38.87 43.30 34.94 37.27 34.25 32.56 28.95 38.43 34.41 28.95 33.25 37.34 37.88 38.28 39.93 40.75 40.17 39.46 39.13 36.94 36.56 35.55 34.83 32.91 31.17 30.39 29.38 29.00 29.21
48.17 42.52 37.97 41.24 35.72 33.66 32.54 29.11 32.63 32.24 33.63 34.88 34.88 34.52 36.53 38.36 39.95 35.61 34.91 34.56 32.41 35.30 33.21 29.67 29.55 35.78 36.87 37.71 38.10 37.65 37.96 37.08 35.85 35.33 35.20 34.35 32.81 32.13 31.43 30.84 30.19 29.08 27.92 28.45
38.43 34.46 31.56 32.28 31.91 30.47 30.34 31.24 31.82 32.18 32.36 33.64 35.80 34.55 34.53 34.37 34.14 33.46 32.35 32.30 33.32 31.06 28.55 27.63 32.28 35.12 36.43 36.89 37.43 36.36 34.52 32.85 32.17 31.79 30.80 30.38 29.65 29.13 28.58 28.34 25.60 25.58 25.71 27.22
33.43 32.59 28.41 28.79 31.06 31.97 31.97 32.34 32.71 32.86 34.86 34.19 35.62 35.08 36.59 33.27 33.02 33.05 32.38 31.14 29.03 30.04 27.40 31.27 33.69 35.31 35.84 35.46 34.24 32.93 31.82 31.19 31.23 31.30 30.19 29.09 28.41 27.22 27.58 26.63 27.01 26.38 24.16 22.45
32.90 31.45 30.78 31.95 31.71 31.00 31.57 31.98 32.01 35.16 33.63 34.90 35.06 33.17 32.66 31.73 32.69 31.66 31.06 29.40 25.91 28.72 30.71 32.36 34.45 34.17 34.46 33.29 33.77 34.25 33.98 32.80 32.22 31.54 31.28 30.20 27.78 26.52 26.77 26.89 24.68 22.09 20.67 17.29
31.59 30.07 31.83 31.80 31.60 30.70 31.83 31.83 32.72 35.87 33.96 32.01 32.71 30.78 28.77 32.15 31.18 28.58 30.05 26.95 29.58 31.06 31.24 32.86 34.18 34.44 33.05 33.20 33.73 33.66 33.15 32.47 31.18 30.86 30.90 30.23 28.56 26.59 25.55 24.75 25.93 25.44 23.11 16.72

GFSNW_sfc_wetblb_030.txt.gz
Wetbulb
47.47 47.52 48.08 48.71 48.78 49.82 49.68 47.22 41.07 51.37 54.48 41.27 41.30 40.67 43.18 44.37 46.60 49.68 48.23 46.84 44.82 41.61 41.79 39.89 39.73 39.77 42.43 46.90 47.87 43.12 45.28 41.11 32.61 40.21 45.54 46.13 42.71 41.16 40.50 29.48 30.66 29.38 27.68 31.56
47.03 46.84 47.05 47.67 48.13 49.34 46.39 43.60 45.43 51.73 51.33 35.22 35.73 41.15 43.61 45.15 45.02 46.52 46.67 45.51 46.68 45.66 42.87 39.16 42.46 43.11 47.91 48.45 46.80 43.73 44.31 37.81 29.16 34.36 39.16 42.69 41.09 42.20 41.83 39.43 33.33 30.59 25.75 30.93
46.71 46.72 46.99 47.63 47.10 49.11 47.43 44.45 39.47 45.77 47.00 44.65 38.42 38.63 40.48 41.15 46.64 45.90 47.65 47.10 47.24 44.54 41.92 44.36 41.84 43.86 47.34 48.22 47.10 45.78 46.06 39.50 34.83 29.80 34.52 38.46 37.39 41.15 41.86 39.27 29.10 30.67 30.65 36.06
46.53 46.65 46.80 47.42 48.78 49.06 47.21 44.95 41.63 43.16 38.42 39.59 39.51 40.34 40.70 39.52 39.47 47.10 47.88 45.24 45.58 43.74 38.75 40.64 41.76 45.02 45.30 47.20 45.75 45.51 43.05 36.82 38.09 38.92 41.58 41.79 39.82 40.91 41.53 38.72 37.79 32.64 36.42 37.19
46.03 46.58 46.77 46.12 47.32 49.09 44.92 42.21 42.83 44.52 41.96 42.37 40.03 39.46 38.75 39.02 41.16 43.74 43.48 44.03 45.72 44.47 41.18 41.76 40.93 44.78 43.28 42.42 44.37 42.47 43.78 36.21 36.51 34.68 39.87 39.02 36.79 39.26 39.37 39.67 39.32 39.18 38.76 37.42
46.16 46.64 46.87 46.68 47.65 48.08 43.22 45.71 48.22 45.89 41.55 41.85 39.54 38.39 39.79 40.51 42.78 45.87 47.00 46.55 45.14 42.33 44.94 47.42 46.52 47.83 47.30 46.74 43.18 41.14 39.77 34.90 31.36 30.71 34.54 33.63 28.68 34.77 38.11 39.42 40.01 39.68 33.20 38.16
46.01 45.30 45.65 46.16 46.54 46.33 47.56 45.39 47.22 44.52 38.53 42.30 41.03 41.90 42.40 41.72 43.94 42.55 47.57 47.97 45.35 47.76 50.46 48.46 46.92 45.21 46.07 47.02 46.29 46.00 37.12 34.58 30.34 27.56 27.49 20.74 36.39 41.40 40.96 38.46 38.73 39.37 40.01 39.98
45.93 45.88 46.21 46.49 46.91 46.05 47.26 48.54 46.87 45.53 34.54 43.49 43.45 43.29 42.45 44.07 45.85 46.21 46.93 49.34 50.12 51.57 47.26 40.29 37.18 34.14 36.41 38.88 43.64 43.86 43.47 35.03 30.85 25.63 25.73 31.99 37.15 40.06 38.36 36.81 35.99 40.36 39.55 40.79
45.70 45.80 45.98 46.30 46.24 47.18 47.56 47.28 48.29 45.16 43.82 41.66 47.13 44.02 44.20 40.68 42.47 43.19 46.39 50.46 51.92 50.48 41.60 34.09 31.61 29.78 34.52 33.81 37.75 41.95 40.50 35.37 31.16 27.70 23.93 21.01 33.60 40.75 43.32 41.85 30.67 42.17 41.89 40.96
45.42 45.65 46.10 46.09 45.82 47.99 47.42 46.88 48.50 45.17 41.92 47.90 47.74 43.37 42.66 45.58 44.68 43.31 45.95 46.63 45.69 47.37 34.64 31.72 30.26 31.09 39.27 32.26 31.60 30.17 29.55 29.05 26.05 22.15 21.83 28.63 38.92 43.22 42.70 29.75 31.13 42.30 42.59 41.91
45.44 45.42 45.81 46.00 46.74 48.46 46.56 46.45 48.38 46.18 44.22 46.85 49.71 48.02 45.05 46.95 47.64 42.58 45.25 44.75 44.39 37.75 35.67 34.12 31.71 28.78 34.34 33.47 37.23 34.42 32.11 28.71 26.00 30.29 24.17 25.75 43.42 41.52 35.52 37.42 41.46 42.54 42.18 42.24
45.19 45.28 46.14 46.62 47.63 48.18 47.37 44.19 48.40 49.44 43.99 46.47 50.53 50.77 50.85 51.37 51.54 48.04 45.82 45.49 45.50 45.12 39.98 38.17 35.26 33.11 31.91 32.23 30.17 40.10 32.37 35.06 31.55 33.26 32.27 40.89 41.91 41.61 43.75 43.53 42.72 42.78 44.07 44.61
45.70 45.81 46.74 47.55 47.89 48.26 46.61 45.60 48.56 48.07 44.50 45.87 46.81 47.29 52.23 54.63 54.34 55.02 46.22 46.75 49.36 47.95 47.99 42.11 39.62 33.19 32.13 30.65 30.30 34.67 39.39 43.37 36.27 36.63 40.57 41.18 43.86 45.10 45.41 45.38 42.57 41.24 42.25 42.77
46.16 46.72 47.27 47.55 47.61 47.82 47.50 45.62 47.80 49.44 47.42 38.99 45.20 54.44 51.27 55.00 55.70 54.78 52.89 51.87 52.45 51.35 46.58 38.88 35.91 34.19 40.39 30.94 36.66 34.31 39.36 41.34 39.22 36.98 41.23 43.04 43.05 42.82 42.61 40.66 40.49 39.52 39.68 39.18
46.33 47.09 47.36 47.36 47.57 47.76 46.94 48.25 49.11 50.06 47.80 40.25 42.60 50.65 53.23 54.64 54.89 54.58 54.24 53.49 49.72 44.78 38.96 34.30 34.06 35.12 39.26 31.40 34.76 31.61 40.96 39.28 34.31 32.93 42.51 40.56 40.61 41.51 42.09 40.35 39.57 39.45 38.25 37.27
46.83 47.27 47.56 47.47 47.48 47.82 47.06 43.28 49.49 51.56 51.43 43.83 36.89 48.40 49.38 52.45 53.99 54.02 53.10 52.31 49.77 47.63 42.25 36.01 40.97 44.93 37.94 31.36 28.95 41.05 42.99 43.68 43.80 42.72 43.71 41.33 40.35 40.38 40.78 38.93 38.51 38.40 37.15 36.61
46.90 47.13 47.22 47.62 47.64 48.30 45.03 43.75 48.77 50.60 50.68 43.65 38.24 39.37 48.38 51.15 49.77 48.74 49.85 50.73 47.69 47.64 43.80 37.71 38.79 41.23 40.54 30.07 32.01 41.20 42.25 43.51 42.57 42.59 41.56 38.40 39.76 36.49 38.14 37.82 37.63 37.78 36.56 36.21
46.87 47.20 47.56 48.00 48.33 49.11 47.04 48.68 50.57 51.63 48.76 47.89 36.97 38.81 40.87 49.12 41.30 41.61 46.65 42.81 44.00 43.87 42.17 40.01 35.69 39.50 33.01 32.96 39.68 41.78 41.73 41.43 41.59 41.10 41.58 39.85 38.42 37.66 36.63 36.78 35.93 34.50 33.12 32.47
47.08 47.73 48.23 47.96 47.71 45.45 46.67 49.37 50.05 50.82 48.62 40.25 35.34 35.17 36.26 44.98 39.98 39.29 40.80 40.96 36.94 41.67 35.87 36.24 38.22 34.23 31.54 38.18 39.51 40.44 40.81 40.18 38.16 38.87 38.84 38.08 36.15 35.38 34.62 34.10 33.61 32.08 30.61 30.85
47.65 47.13 45.90 39.77 46.46 49.77 50.60 48.69 45.50 44.72 44.31 40.00 35.34 40.64 36.79 42.72 35.88 36.62 34.60 36.24 34.79 33.51 34.71 38.16 33.27 33.21 36.71 38.06 39.50 40.58 40.24 39.99 39.20 35.10 33.63 34.21 33.15 33.69 33.58 33.23 32.59 31.77 30.18 29.35
46.57 44.53 41.15 48.80 49.70 47.37 42.55 35.81 35.62 36.14 33.19 35.98 36.23 36.31 38.38 43.09 36.50 35.16 34.90 34.25 32.32 30.46 33.73 32.58 31.83 31.47 34.49 38.31 38.92 39.73 40.66 40.71 39.35 38.47 36.98 36.04 35.56 33.36 32.16 31.11 30.21 29.38 29.32 28.97
48.66 47.98 48.81 48.02 44.60 36.98 34.27 32.17 34.18 33.30 32.74 34.91 35.49 36.64 41.26 39.01 42.82 36.99 35.48 33.18 31.47 27.66 36.83 30.64 31.57 33.64 37.65 39.36 39.37 39.72 40.34 39.77 38.94 38.91 36.83 35.58 34.73 33.73 31.15 29.22 28.65 28.94 29.44 29.01
45.79 41.27 36.23 38.70 33.21 31.62 27.59 28.91 31.70 31.73 32.95 34.57 34.43 34.41 36.24 38.03 39.51 34.40 33.76 31.61 29.63 34.11 33.08 30.27 28.81 35.83 37.29 37.57 36.99 35.62 36.16 35.84 35.12 34.62 34.33 33.45 32.33 31.60 29.40 28.76 28.36 28.28 28.09 27.27
34.93 32.61 29.85 31.38 29.55 29.26 29.49 31.12 31.88 32.21 32.26 33.34 34.43 33.89 34.78 33.54 34.23 32.80 31.32 32.41 32.77 26.26 23.10 25.45 32.02 34.91 35.59 35.84 35.20 34.31 33.17 32.21 31.44 31.13 30.71 29.97 29.75 28.42 29.25 28.21 27.00 26.70 25.73 25.21
31.94 32.29 27.10 28.14 30.96 31.83 31.86 32.07 32.41 32.92 34.20 33.52 34.61 34.41 35.91 32.62 32.75 32.15 31.88 30.45 28.03 26.84 26.29 30.58 33.31 35.10 35.10 33.79 33.18 31.74 30.65 30.19 29.92 29.98 28.79 28.17 27.90 26.93 26.57 26.71 26.68 26.21 24.23 21.73
29.48 31.22 30.03 31.28 30.78 30.51 31.47 31.88 32.10 35.06 33.16 34.05 34.38 32.39 30.89 30.90 31.96 30.31 28.98 28.13 25.83 27.47 29.86 31.86 33.75 32.91 32.73 32.51 32.40 32.11 31.28 30.31 30.00 29.75 28.96 28.10 26.92 26.35 26.43 25.76 24.16 22.40 21.39 18.02
29.72 29.26 31.73 31.68 31.49 30.75 31.52 31.70 32.21 35.39 33.51 31.89 32.21 28.86 28.70 32.02 28.42 25.93 28.81 25.43 27.98 30.40 30.94 32.60 33.79 32.46 32.71 33.24 32.29 31.74 31.79 31.41 30.98 30.12 29.15 27.95 27.10 26.29 25.15 23.55 23.86 24.15 22.12 18.39

GFSNW_sfc_wetblb_033.txt.gz
Wetbulb
48.81 49.18 48.93 48.95 48.74 48.93 48.39 43.93 37.50 50.76 52.73 42.33 39.56 36.40 40.63 43.88 44.87 47.46 46.21 46.01 43.81 40.56 39.83 38.19 38.28 38.23 41.04 44.07 45.75 41.58 42.96 37.79 30.88 38.62 43.12 44.51 41.46 38.98 37.84 29.23 30.18 28.37 26.91 30.21
48.29 48.73 48.39 48.21 48.06 48.77 45.26 39.51 42.74 51.38 50.11 37.05 36.00 39.41 41.20 43.67 43.31 43.65 43.85 44.19 45.15 44.01 39.58 36.78 39.10 40.06 45.51 46.29 44.35 42.15 43.20 36.41 29.03 34.04 38.63 40.94 38.70 40.15 40.34 37.28 31.53 29.53 25.18 30.13
48.60 48.39 47.84 47.62 47.87 48.27 46.78 41.45 37.00 44.32 46.30 44.63 39.58 37.43 38.67 40.35 45.70 43.55 45.46 44.88 46.05 43.38 40.50 42.10 40.06 41.82 45.58 46.59 45.60 45.49 44.33 37.61 34.83 30.59 34.74 37.78 35.19 39.16 39.28 37.67 29.11 29.75 29.31 34.34
48.00 47.74 47.38 47.71 47.91 47.34 44.64 40.94 38.17 43.22 37.94 38.84 40.57 39.75 39.60 38.77 39.76 43.85 44.23 41.84 43.68 42.19 37.88 38.52 38.90 42.86 43.77 45.29 44.74 43.54 42.63 35.72 35.63 36.51 37.74 39.99 39.11 39.20 39.44 37.12 36.28 32.01 35.52 35.12
47.67 47.22 46.99 46.90 47.02 47.95 41.85 37.84 40.09 43.28 40.24 41.93 39.59 39.44 37.46 38.54 40.89 41.74 40.90 40.25 43.82 43.09 39.88 40.15 38.74 42.55 41.43 41.60 42.80 40.86 41.72 34.35 35.75 34.03 37.72 37.11 35.50 38.34 37.85 37.66 37.93 37.28 36.98 36.49
47.17 47.01 46.75 46.56 46.92 46.56 39.40 42.58 44.33 43.20 40.68 40.09 38.39 37.66 38.15 39.27 42.66 43.44 44.43 44.76 43.92 41.45 43.69 45.28 43.96 45.40 45.90 44.90 42.57 39.34 38.06 33.81 31.56 30.15 32.91 32.31 28.63 33.68 36.43 37.69 38.91 38.53 33.33 37.59
46.84 46.49 46.22 46.45 46.79 46.23 44.53 42.86 44.11 41.97 36.75 39.06 38.29 39.57 40.31 39.95 41.80 40.31 43.72 43.81 42.80 45.90 47.95 46.28 45.52 43.83 44.62 45.64 44.19 42.79 34.92 32.75 29.76 26.91 27.35 20.77 36.07 39.35 39.18 37.17 36.75 37.51 38.04 38.48
46.08 45.81 46.10 46.25 46.49 46.31 42.43 45.44 43.14 42.49 35.25 39.91 40.61 39.77 40.02 41.52 43.10 42.03 42.53 45.91 46.54 49.51 45.23 39.01 37.06 33.47 36.16 37.52 41.58 42.27 40.76 32.84 29.06 26.24 26.09 31.24 35.63 37.27 37.48 35.66 34.19 38.87 37.94 39.34
45.40 45.37 45.96 46.05 46.22 45.67 43.48 44.71 45.54 43.11 40.10 39.60 43.67 41.21 41.45 38.37 38.81 39.49 42.81 47.14 49.88 47.06 38.77 32.43 31.75 30.99 34.77 32.95 36.89 40.21 37.28 34.75 32.74 25.72 23.21 22.54 33.83 38.35 41.52 40.47 29.96 40.46 39.98 39.70
45.13 45.49 45.63 46.42 46.22 45.87 44.59 44.57 49.07 44.23 38.50 43.53 45.39 41.97 40.90 43.17 40.95 38.85 43.12 46.17 45.30 46.28 32.69 30.03 29.48 29.39 38.06 31.74 31.76 30.22 29.80 28.68 27.34 21.74 22.32 28.21 36.35 41.16 40.96 30.52 32.11 40.73 41.21 40.90
44.77 45.05 45.24 45.63 46.26 46.79 44.29 43.29 48.57 44.69 40.03 43.33 47.85 47.30 43.14 44.32 43.15 38.56 42.13 45.10 43.94 35.64 35.49 33.57 30.32 29.18 34.13 32.15 35.26 32.88 32.72 29.06 25.81 25.24 21.68 25.16 40.44 40.21 34.23 36.55 39.14 41.34 40.86 40.97
44.78 45.29 45.72 45.91 45.83 46.39 45.10 43.83 49.28 49.23 43.27 42.99 47.02 46.75 47.88 47.13 47.53 45.74 44.98 44.19 44.92 44.14 39.02 36.00 35.12 30.35 29.40 32.52 29.75 38.35 32.21 33.76 31.55 32.98 31.95 39.06 40.51 39.71 40.96 41.82 41.10 40.94 41.99 42.59
45.06 45.37 45.81 46.18 45.90 46.65 46.89 45.66 47.07 46.17 42.17 40.45 43.34 44.29 49.06 51.38 50.70 52.42 45.37 45.14 48.24 46.12 47.32 41.29 37.26 32.86 32.61 30.50 30.43 33.56 37.46 40.58 34.85 34.72 38.65 39.78 41.24 42.32 42.63 43.00 42.06 42.35 43.45 43.21
45.06 45.37 45.72 45.91 46.42 47.69 47.64 45.54 47.86 46.37 44.26 37.49 43.23 53.74 51.06 53.71 53.32 52.25 51.67 50.25 51.28 48.62 46.17 39.77 36.00 33.61 38.90 32.09 35.58 33.38 37.74 40.43 37.40 36.01 39.35 40.91 40.94 39.92 38.91 38.69 39.03 38.44 38.40 38.05
45.18 45.60 46.05 46.32 47.39 47.95 47.22 47.26 47.84 49.16 44.20 37.96 40.32 46.58 50.75 53.06 52.89 51.98 51.57 51.94 48.16 43.12 39.16 34.19 36.13 36.71 37.98 30.72 33.99 30.04 39.74 38.52 35.15 33.62 41.51 39.98 40.12 39.67 40.14 38.80 37.75 37.80 36.64 35.52
45.34 45.77 46.37 47.62 47.42 47.19 45.18 40.39 46.69 48.84 49.10 41.92 34.50 45.54 46.98 50.81 51.78 50.81 50.29 50.53 47.37 44.44 41.90 35.45 39.45 43.78 39.48 33.99 29.97 39.92 41.62 42.00 41.77 40.82 42.72 40.24 39.67 39.08 39.42 37.98 37.50 37.08 35.72 34.52
46.09 46.58 47.21 46.99 46.64 43.78 40.32 38.87 45.03 48.00 49.42 41.71 34.86 32.09 44.52 50.75 48.34 47.37 48.20 48.73 47.84 47.12 43.71 36.14 38.29 40.30 38.46 28.24 30.73 40.62 41.61 41.83 40.79 40.47 39.85 36.62 37.62 35.74 37.48 37.03 36.62 36.44 35.01 34.70
46.16 46.35 46.60 46.65 46.58 45.59 44.79 49.45 48.25 48.90 45.83 45.08 36.21 34.72 39.12 47.14 38.65 42.15 46.74 42.10 44.29 44.23 42.07 37.73 34.50 39.21 32.56 32.82 38.74 40.10 40.70 40.39 40.12 39.23 40.59 39.32 37.34 36.49 35.41 35.57 34.71 33.36 32.48 32.35
46.94 46.87 47.05 45.99 44.20 42.83 45.86 49.22 50.21 51.44 47.30 39.62 35.47 33.73 34.00 44.41 39.58 39.80 40.19 42.19 37.08 42.57 36.93 37.66 38.73 33.46 33.96 36.79 38.92 39.33 40.44 39.76 37.04 37.34 36.83 36.29 34.75 34.04 33.93 33.42 32.30 30.50 29.20 29.79
47.19 46.05 43.42 38.17 44.32 49.05 48.53 47.35 44.18 43.60 44.85 40.37 34.76 39.50 36.75 42.27 35.29 35.30 37.03 36.70 34.74 34.02 35.96 39.00 34.32 33.22 36.40 37.42 39.43 39.25 38.57 38.41 37.74 34.38 32.75 33.25 32.38 32.19 32.21 31.83 31.77 30.81 28.90 29.11
44.91 40.75 39.45 46.88 48.36 45.13 40.96 36.52 35.99 36.73 33.81 36.13 37.48 37.05 37.96 42.72 36.38 35.27 34.66 34.17 32.67 32.69 34.60 35.32 32.16 32.27 33.83 36.80 37.66 39.27 39.64 39.65 39.19 38.64 36.97 35.95 34.57 32.29 30.69 29.98 29.88 29.38 29.23 28.68
44.86 46.83 47.88 46.43 42.70 37.73 32.67 32.36 33.76 33.64 32.90 34.18 35.30 36.21 40.62 37.96 41.18 35.88 35.46 33.11 32.27 30.23 35.73 30.87 31.15 33.43 35.65 36.35 37.14 38.11 38.18 37.61 37.00 37.39 36.00 35.14 34.56 33.82 31.39 29.63 29.08 29.08 28.96 27.10
46.15 40.76 36.30 37.79 32.91 31.10 29.90 29.40 31.25 31.60 32.52 34.20 34.02 34.20 34.92 37.19 37.69 32.64 31.36 28.93 27.59 31.73 32.75 30.90 31.16 36.21 36.92 36.18 35.80 35.78 37.03 36.59 35.54 34.77 34.29 32.84 31.31 30.58 29.38 28.70 28.77 28.22 27.65 26.72
35.56 33.37 29.08 29.90 27.88 28.80 28.87 30.32 31.42 31.99 32.21 32.93 33.84 33.65 33.99 32.93 33.56 32.04 28.37 31.81 32.98 28.90 26.76 24.84 31.77 34.57 34.50 35.16 35.24 34.27 33.01 32.55 31.92 31.26 30.77 29.87 29.07 27.83 27.69 27.51 27.44 26.04 25.34 25.71
32.07 32.27 26.85 28.45 31.07 31.78 31.78 32.01 32.37 32.87 34.14 33.47 34.20 34.32 35.00 32.33 32.39 32.12 31.85 30.31 27.49 27.17 24.88 30.00 32.73 33.90 33.52 33.25 32.48 31.17 30.27 29.89 29.98 30.08 29.26 28.53 27.95 26.18 25.86 26.56 26.61 24.84 22.78 21.11
31.38 31.03 29.26 30.62 30.25 30.59 31.35 31.57 31.99 34.95 33.26 33.64 34.39 31.89 31.44 30.68 31.44 29.68 27.30 27.51 24.71 26.48 28.87 31.44 33.01 32.25 32.10 31.79 31.45 30.95 30.73 30.27 30.00 29.92 29.18 28.41 27.31 26.31 25.90 25.55 23.96 21.97 20.68 18.92
28.53 29.15 31.98 31.41 31.04 30.32 31.23 31.42 31.77 34.75 33.26 31.25 31.72 28.16 26.84 31.53 26.83 24.76 27.45 24.06 26.78 29.19 30.68 31.99 32.48 31.82 31.48 31.66 31.26 30.84 30.62 29.87 29.07 28.45 28.00 27.23 26.19 25.18 24.23 23.60 23.85 22.62 20.94 18.50

GFSNW_sfc_wetblb_039.txt.gz
Wetbulb
49.77 49.69 49.29 48.87 48.91 48.99 47.69 41.90 32.85 44.91 49.46 38.80 40.71 37.05 40.05 42.61 43.14 46.62 45.27 45.41 43.92 41.75 40.25 38.22 38.85 39.54 42.81 43.57 44.51 41.96 44.66 41.13 36.35 39.87 44.05 44.98 43.58 42.56 41.47 37.34 33.84 33.61 33.21 35.55
49.56 49.68 49.17 48.58 48.66 48.91 44.54 37.65 37.53 45.64 45.96 33.42 35.02 39.72 39.70 41.57 41.46 43.21 43.78 43.16 44.71 45.53 41.19 37.86 39.72 40.10 44.09 43.97 44.17 43.21 43.96 38.76 34.51 36.84 40.56 42.80 42.20 42.13 40.68 38.52 37.03 33.56 34.81 37.01
49.76 49.61 48.96 48.31 48.22 49.07 44.48 38.98 32.47 39.67 41.48 41.03 37.01 36.57 36.66 37.58 43.19 42.50 44.87 43.96 45.43 44.33 42.22 41.70 39.10 39.93 44.10 44.59 45.11 44.57 45.80 39.73 37.81 34.25 37.93 41.04 38.88 40.21 40.63 40.93 35.60 36.23 36.53 39.83
48.81 49.46 48.76 48.02 48.22 48.46 43.93 39.88 35.00 39.44 32.31 34.82 36.60 38.39 37.56 36.70 36.92 42.80 44.31 41.88 43.13 42.14 38.60 40.00 38.85 42.01 44.26 45.11 45.07 44.95 45.06 38.45 38.68 39.10 40.01 40.33 40.28 40.61 39.78 39.18 40.11 38.27 40.55 37.87
48.51 49.56 48.48 47.73 48.00 48.38 41.81 36.23 36.24 39.60 38.66 37.12 36.11 37.73 36.30 36.39 38.48 39.91 39.75 40.06 42.28 43.03 40.92 41.47 39.36 43.06 42.92 42.80 43.06 42.98 42.49 38.69 38.20 36.79 38.87 39.65 38.97 39.96 40.28 40.16 39.36 39.39 39.65 39.98
48.33 49.02 48.14 47.65 47.77 47.09 40.32 42.10 40.26 39.40 37.73 36.42 33.57 34.50 36.82 37.70 40.64 41.55 42.88 42.45 41.71 40.38 42.56 45.91 45.96 46.51 46.71 45.93 43.82 41.08 40.33 37.43 35.98 33.97 35.51 37.16 33.63 37.66 39.85 39.86 40.85 41.96 38.31 43.99
47.64 47.77 47.75 47.50 47.90 46.73 43.34 41.48 41.23 37.16 32.13 36.18 34.42 36.07 38.61 38.35 39.95 38.82 42.16 44.08 41.01 44.20 48.18 47.53 46.73 44.85 44.52 44.51 43.32 44.10 37.77 37.59 35.58 32.43 32.15 29.58 40.36 41.12 41.82 41.15 41.66 41.90 41.26 42.18
46.76 47.58 47.43 47.34 47.80 47.62 42.27 42.34 41.57 38.98 32.94 37.33 37.35 37.53 37.00 40.62 41.61 40.51 42.01 44.51 46.44 47.81 47.20 40.78 38.93 37.09 38.27 38.93 40.68 40.80 40.79 36.74 32.10 32.36 32.23 35.45 37.89 39.58 39.84 39.13 40.62 42.89 41.69 41.59
46.14 47.71 47.15 47.04 47.67 47.69 43.90 42.88 44.30 41.89 35.82 36.15 40.57 38.34 38.63 36.63 37.81 38.64 41.07 46.60 48.66 46.23 40.75 36.90 34.42 34.11 36.55 35.22 37.62 39.41 37.49 38.21 38.54 30.03 31.06 29.72 39.25 41.86 42.74 43.17 35.65 43.13 42.46 41.85
46.25 47.25 46.81 47.01 47.41 47.27 43.42 41.96 44.73 43.00 36.63 39.75 41.39 39.18 38.25 41.00 39.69 37.45 39.78 42.11 43.05 45.39 35.21 34.21 33.67 35.18 39.20 34.93 34.40 34.02 34.76 33.57 33.82 28.86 33.67 35.15 40.66 41.72 43.48 35.65 39.54 43.08 43.52 43.75
47.09 46.78 46.78 46.98 47.13 46.74 43.21 40.40 44.28 41.74 37.96 39.06 42.38 41.83 41.47 41.22 40.63 35.97 39.91 40.50 41.48 38.22 35.41 35.47 35.46 33.90 37.00 37.06 38.19 36.54 36.46 34.28 33.52 31.09 32.66 32.92 41.99 40.49 39.19 44.29 43.11 43.72 44.36 44.72
46.57 46.30 46.62 46.89 46.63 46.39 44.07 38.14 44.70 45.14 40.07 39.70 45.61 46.15 46.09 44.67 45.89 42.23 43.02 40.65 41.52 41.53 39.43 36.91 35.41 34.65 33.39 36.26 35.02 38.83 37.14 39.63 37.74 38.83 39.38 44.60 42.72 45.57 44.96 43.97 44.82 43.61 45.08 44.45
46.43 46.53 46.53 46.62 46.80 46.23 43.75 40.82 41.97 41.86 38.90 37.57 39.94 40.32 45.57 47.97 46.46 48.94 41.15 43.10 46.79 44.58 47.01 41.02 40.28 35.25 36.47 33.63 34.82 37.32 38.63 40.13 40.10 40.53 42.74 42.21 43.16 43.78 45.08 44.52 45.02 44.48 45.71 44.68
46.27 45.93 46.00 45.99 46.17 46.25 44.38 42.07 42.82 41.06 40.97 33.02 37.13 47.61 45.36 51.20 49.11 47.97 48.73 48.53 48.60 47.83 46.68 40.87 37.94 37.26 42.06 37.42 39.97 38.28 39.97 40.80 38.39 39.20 40.65 42.61 44.04 44.47 44.97 42.93 43.61 43.08 42.53 42.43
46.18 45.99 45.95 46.20 46.29 45.50 42.89 43.10 43.96 43.78 40.89 35.35 37.40 43.81 46.09 47.97 48.28 48.40 48.83 48.28 47.70 44.81 41.55 37.40 39.16 39.13 39.23 36.59 38.80 36.57 41.20 40.42 38.43 38.51 43.95 44.14 44.54 46.05 42.96 41.96 42.10 42.12 39.98 38.72
45.28 45.64 45.83 45.65 45.43 44.53 41.77 36.85 43.76 46.87 46.32 37.90 33.09 43.29 42.87 47.64 50.24 49.62 48.35 48.10 47.34 47.47 43.29 39.18 41.13 44.57 41.12 36.91 36.84 43.19 43.97 44.68 45.11 43.70 44.34 40.47 39.70 41.21 41.82 40.59 39.98 39.73 39.57 38.23
44.32 44.70 45.34 45.39 45.34 43.61 39.57 37.67 41.99 45.39 47.43 39.96 33.78 34.73 42.33 46.08 49.08 48.32 48.19 49.00 47.42 46.61 43.80 40.54 41.99 42.79 42.59 35.27 36.90 43.48 43.25 44.27 43.23 42.27 42.17 39.88 39.50 39.62 39.29 38.32 37.32 37.36 36.65 36.54
44.76 44.94 45.20 45.31 45.19 43.95 41.52 44.76 46.84 47.29 43.80 41.81 32.47 32.94 37.38 46.61 40.67 41.59 46.49 43.70 44.68 44.02 42.40 39.16 40.09 40.25 36.74 34.92 40.23 41.29 41.58 41.90 41.16 40.79 40.51 42.28 39.24 37.66 35.86 35.91 35.61 34.14 33.11 33.22
44.98 45.23 45.22 43.72 42.17 39.62 40.09 46.50 46.75 47.09 42.72 33.88 33.09 31.79 33.60 44.08 40.98 41.34 40.59 41.75 37.97 42.40 37.44 39.16 40.84 36.27 36.95 39.29 39.44 39.98 40.00 40.40 38.91 37.80 37.94 37.95 37.15 35.04 34.55 34.76 34.36 32.97 32.30 32.49
45.06 43.34 39.94 33.41 40.25 45.53 46.46 43.87 40.39 39.88 41.00 41.37 34.72 39.40 36.17 41.35 35.99 36.17 36.09 36.70 35.98 36.17 37.21 39.29 36.90 36.35 37.27 37.80 38.75 40.16 39.16 38.47 38.50 35.16 34.22 34.36 33.84 33.73 33.35 33.39 33.96 33.45 32.59 32.09
42.38 38.22 36.45 41.36 46.41 42.82 38.13 32.67 33.72 35.38 33.97 37.01 36.56 37.30 37.01 42.22 36.20 35.40 37.13 33.95 34.09 33.60 36.87 36.89 34.86 35.33 35.03 38.35 38.22 39.03 39.05 39.17 39.41 39.04 37.02 37.16 36.00 33.87 32.73 32.30 32.75 32.53 32.22 31.11
42.13 42.63 44.80 44.49 40.29 36.09 32.47 30.96 31.91 32.25 33.29 34.66 35.38 36.67 40.17 37.95 41.36 35.18 35.88 33.63 32.49 32.29 36.63 34.48 32.88 33.66 36.18 37.72 37.68 37.95 38.60 37.92 36.68 36.59 34.60 34.21 33.52 33.46 32.17 31.66 31.04 29.73 28.63 28.21
45.56 39.80 35.33 36.54 32.68 31.08 29.02 28.53 30.87 31.07 32.11 33.59 33.98 33.45 35.75 36.79 38.12 33.38 33.05 31.61 31.76 34.94 32.89 29.65 30.66 34.18 34.74 35.67 35.68 34.74 35.73 35.45 34.68 33.62 33.22 32.50 31.77 31.78 30.67 29.02 29.01 28.89 28.07 28.14
33.48 32.50 28.71 29.12 26.24 27.87 28.51 29.13 30.28 31.76 31.78 32.17 33.24 33.06 33.77 33.09 32.68 31.82 31.82 31.81 31.78 29.79 26.48 26.64 30.18 32.31 32.68 32.82 33.35 32.92 31.62 31.42 31.11 30.71 30.48 29.70 28.95 28.34 28.93 28.53 28.71 27.69 26.43 26.58
31.55 30.50 25.92 27.17 30.86 30.96 31.60 31.58 31.99 32.14 33.38 32.86 33.60 33.78 35.14 32.18 32.18 31.58 31.31 29.97 24.67 24.67 23.98 27.79 30.52 31.96 31.88 31.22 31.18 30.76 30.26 29.55 29.01 29.15 28.37 27.79 27.71 26.93 26.38 27.60 27.98 27.15 25.86 24.34
30.72 26.21 24.47 26.92 26.84 24.48 26.39 26.42 28.29 32.34 31.79 33.59 33.95 31.72 30.30 27.92 26.87 24.17 20.65 22.94 18.76 21.77 24.48 29.51 31.48 30.28 30.32 30.28 30.40 30.07 30.05 29.38 28.80 28.77 28.48 27.58 26.20 25.03 24.59 24.76 24.35 24.06 23.44 21.86
28.95 25.14 25.65 24.25 24.49 23.21 24.47 25.57 26.85 30.95 33.08 29.15 28.48 21.09 19.81 25.87 20.83 17.50 20.18 17.17 20.70 21.42 25.38 29.93 30.93 30.19 30.02 30.26 30.22 30.16 29.80 28.97 28.30 27.71 27.08 25.99 25.66 25.47 24.62 22.59 22.76 22.77 22.23 21.82

GFSNW_sfc_wetblb_042.txt.gz
Wetbulb
50.22 50.16 50.17 49.98 49.75 49.05 48.36 43.01 34.27 48.56 50.95 36.13 37.84 36.30 41.90 43.08 44.55 48.63 47.17 47.47 46.51 44.26 43.89 41.39 42.22 43.00 45.75 49.34 49.73 45.39 48.67 45.89 41.44 43.47 47.97 48.86 47.94 46.09 46.28 40.51 38.46 41.10 39.87 40.17
49.95 49.96 50.08 49.87 49.47 49.14 46.49 37.61 39.04 48.24 47.68 30.40 32.64 39.43 40.78 43.38 43.70 44.89 45.99 45.26 47.57 48.00 44.84 40.87 44.06 45.00 49.26 49.26 48.89 46.96 48.35 44.12 39.07 40.36 43.78 46.62 44.98 46.54 46.53 45.74 43.75 40.55 38.48 41.00
49.92 49.93 49.93 49.80 49.34 49.09 46.61 38.67 32.43 39.86 41.01 42.66 37.67 36.62 38.70 38.63 44.84 44.39 47.01 46.34 47.63 46.68 44.53 45.96 42.90 44.34 46.56 48.62 49.49 47.08 49.01 45.91 42.32 38.03 41.38 44.86 42.76 44.67 46.10 45.30 41.09 41.35 41.95 43.54
48.52 49.62 49.93 49.77 49.11 48.84 45.89 39.16 35.60 38.76 32.71 35.63 38.87 39.84 39.31 38.08 38.75 44.56 46.54 45.29 45.80 45.26 41.70 43.11 42.68 44.17 45.79 46.78 46.21 48.48 48.73 42.74 44.54 44.36 44.64 44.68 44.07 43.80 45.24 43.95 44.91 41.77 43.88 43.87
47.74 48.38 49.32 49.51 48.95 48.55 42.62 35.20 38.58 42.16 38.38 38.65 37.53 39.13 37.64 37.94 40.23 41.86 41.17 42.80 45.52 46.09 43.34 43.71 42.15 44.40 45.10 45.55 47.53 47.40 48.78 42.83 44.65 41.79 44.56 44.22 42.71 44.65 44.97 45.53 45.50 45.45 45.55 44.69
47.64 47.88 47.74 49.36 48.48 47.80 40.63 42.56 45.44 42.96 38.49 37.72 35.75 37.72 37.73 38.96 41.94 43.37 44.56 44.71 43.62 43.31 45.36 47.95 47.44 47.80 47.57 47.60 47.34 46.49 46.23 44.31 41.43 37.80 42.94 42.67 38.09 42.92 44.72 45.72 47.16 46.70 43.09 47.35
47.42 47.74 47.77 48.33 48.34 47.35 45.59 45.01 44.50 39.79 35.57 37.53 36.12 37.34 39.02 38.95 41.09 40.79 43.87 45.78 44.10 46.82 50.29 49.29 48.84 48.04 47.49 48.36 47.63 49.62 45.38 44.17 43.51 39.40 37.28 32.87 43.85 47.61 48.37 46.51 47.35 48.81 48.07 49.01
47.01 47.15 47.34 47.50 48.04 47.66 45.79 46.64 43.74 40.95 36.74 39.04 37.97 37.72 38.23 40.48 42.27 42.20 43.42 46.44 48.46 50.53 46.79 41.12 37.52 37.61 41.10 43.91 46.82 47.15 48.80 45.50 40.21 38.22 36.90 41.52 42.21 43.62 44.72 44.71 45.46 49.50 48.51 49.23
46.69 46.74 46.89 47.03 47.74 47.37 45.43 47.51 48.52 45.54 39.85 38.34 41.17 38.05 39.23 38.33 39.60 40.87 43.83 47.87 52.31 49.73 44.61 41.68 35.08 31.98 35.62 38.94 40.90 43.76 44.71 45.34 44.39 37.17 35.83 34.00 43.62 48.23 49.57 48.26 42.02 50.05 49.71 48.99
46.62 46.39 46.46 47.31 47.38 47.24 45.30 46.45 49.87 45.99 39.75 42.96 43.32 39.55 39.03 42.47 42.34 41.01 43.24 45.14 45.91 48.97 42.20 39.17 37.24 35.96 41.20 36.51 38.11 37.03 38.79 39.54 39.26 39.32 38.99 42.26 47.06 47.55 48.78 40.27 44.05 50.03 50.51 50.26
46.12 46.15 46.31 47.31 47.00 47.05 45.07 44.47 49.80 46.10 42.17 43.07 43.73 44.40 42.56 43.06 43.63 39.99 43.98 43.51 44.92 44.39 39.80 39.53 39.99 39.87 41.06 40.50 43.44 40.80 39.40 38.97 38.63 40.66 38.43 36.48 47.24 45.62 44.71 50.61 50.46 51.17 51.12 51.29
45.75 45.98 46.93 46.99 46.77 47.13 45.88 41.59 48.27 49.72 44.60 40.86 46.26 44.84 46.83 45.96 48.08 46.29 46.77 43.85 44.32 45.67 42.32 44.21 44.42 41.95 40.22 42.29 37.92 44.85 38.96 44.50 43.74 43.40 43.82 50.96 49.13 51.42 51.88 53.21 52.11 50.70 51.54 51.56
46.10 46.77 46.90 46.92 47.25 46.77 45.87 44.29 46.59 45.70 42.76 39.82 39.71 41.33 46.08 48.41 50.14 52.21 43.89 46.46 47.75 47.22 50.53 47.39 46.72 42.66 44.60 40.51 41.84 44.58 44.64 44.32 43.31 43.35 48.51 48.53 50.37 51.71 51.08 51.00 51.49 51.28 51.82 51.75
46.60 46.60 46.69 46.90 47.01 45.82 45.65 44.34 46.97 45.47 42.18 35.45 38.10 47.67 45.24 49.42 50.50 51.02 50.59 49.85 51.27 51.81 50.48 47.80 44.99 44.01 47.41 45.20 46.05 44.11 47.59 44.02 44.87 45.71 49.27 47.45 49.43 50.91 51.76 50.29 49.79 49.22 51.20 51.10
46.72 46.74 47.01 46.78 45.84 45.72 45.77 46.73 46.01 46.40 42.01 36.28 37.82 43.64 46.21 47.65 46.89 47.00 50.69 49.21 49.53 48.30 47.14 42.91 42.51 46.88 45.83 45.50 44.92 44.30 46.67 45.98 43.76 44.99 51.00 50.31 52.06 52.97 52.88 50.54 48.40 49.45 49.52 48.76
45.95 47.03 46.96 45.84 45.18 45.04 41.85 36.61 44.19 48.00 47.28 38.84 33.91 44.70 44.00 46.51 46.63 46.61 47.85 48.95 48.45 48.44 46.68 46.60 47.82 48.01 47.00 42.88 41.94 46.89 49.03 49.90 50.61 48.77 48.61 49.91 48.36 48.42 52.28 49.90 49.32 49.68 48.94 49.23
45.85 45.53 45.13 45.19 44.75 44.60 40.35 38.63 43.71 46.58 47.31 37.96 33.81 37.08 43.73 46.10 46.87 48.26 47.68 49.55 49.05 48.00 46.82 46.27 47.33 46.81 46.91 44.57 41.60 47.49 50.07 50.50 50.01 47.66 46.29 46.17 45.30 46.30 46.14 47.70 47.75 45.96 47.61 46.78
45.39 45.22 44.89 44.81 44.72 44.47 42.85 46.76 46.39 48.61 43.19 41.38 34.82 35.35 39.27 46.34 44.53 42.50 49.10 46.85 46.88 46.10 45.03 45.00 45.44 46.40 44.87 41.50 46.55 48.88 49.33 46.78 46.51 46.51 45.73 44.36 45.39 44.98 44.25 44.25 43.62 42.43 41.57 41.90
45.08 45.42 44.92 44.41 43.41 39.33 40.77 45.78 46.07 48.05 44.85 37.12 35.70 34.11 35.45 44.77 41.54 42.45 41.26 44.54 41.05 45.98 43.01 44.78 45.91 43.23 40.51 43.75 45.00 44.86 45.02 44.26 44.88 42.50 43.80 42.79 42.44 40.78 39.93 40.28 40.77 40.59 38.17 39.27
44.66 43.76 39.42 34.99 40.20 45.65 46.79 43.43 37.94 40.09 42.86 43.07 36.99 39.73 32.78 40.02 40.50 41.11 37.77 37.31 36.35 35.86 40.54 44.94 41.62 42.63 43.34 41.92 42.89 43.82 43.81 42.81 42.81 40.25 38.73 39.41 37.74 38.08 39.30 39.21 40.39 39.28 38.22 38.06
43.10 38.33 36.89 44.54 45.81 45.20 42.69 34.81 34.54 35.67 33.45 39.52 38.99 39.44 34.61 42.13 38.50 38.55 42.22 35.99 34.03 33.86 38.30 40.17 38.70 39.35 38.15 40.09 41.52 42.64 42.08 42.78 42.63 43.16 42.61 42.35 41.92 39.85 37.47 37.27 38.40 38.01 36.68 36.00
43.31 44.62 46.44 46.05 42.18 39.29 33.60 31.96 33.68 33.46 33.16 38.19 36.71 37.90 39.48 41.16 45.30 41.90 39.39 37.47 35.68 33.68 38.39 38.28 35.13 33.18 35.74 37.72 39.12 40.26 41.53 41.42 40.53 41.34 40.29 40.39 39.52 38.99 37.93 36.50 34.01 32.00 31.03 30.63
47.24 42.96 38.94 37.82 34.98 30.77 29.88 29.86 32.22 32.41 33.50 34.98 35.46 35.30 39.29 42.33 43.32 37.34 35.93 33.86 34.41 35.25 33.12 28.37 28.34 32.66 33.77 34.37 35.12 34.89 35.86 36.11 35.61 35.46 34.75 34.18 33.78 33.55 32.31 30.41 30.40 30.49 29.66 29.46
36.25 33.68 29.46 31.33 29.04 29.79 30.26 30.41 32.23 34.59 32.78 33.68 35.31 34.59 35.80 35.31 34.05 32.96 33.86 32.78 33.77 31.14 27.35 25.00 28.17 30.96 32.07 32.91 33.24 32.00 30.66 30.89 30.68 30.33 30.51 29.25 28.50 28.66 29.38 29.68 29.89 29.45 28.57 29.35
31.17 31.94 26.84 27.95 30.20 29.14 29.67 30.59 32.04 32.87 32.90 33.14 34.23 34.35 34.73 32.40 32.05 31.43 32.70 29.96 25.19 25.17 23.16 26.96 28.16 32.01 31.99 31.54 31.09 30.18 29.60 29.29 29.11 28.95 28.12 28.06 28.21 28.14 28.46 29.11 29.04 28.64 27.58 26.43
29.06 25.00 22.92 25.36 26.00 24.08 25.02 25.54 26.66 30.66 30.40 32.40 33.26 32.23 30.35 27.11 26.69 24.05 21.84 23.00 17.95 20.71 22.67 25.41 29.87 30.56 30.32 30.43 30.18 29.83 29.83 29.30 29.00 28.82 28.28 27.83 27.22 26.49 25.98 26.55 26.54 26.32 25.95 25.08
27.12 24.17 25.21 23.42 23.89 22.18 24.03 26.05 26.55 30.62 32.97 29.63 28.28 22.91 22.17 28.23 22.56 18.74 21.17 17.91 20.52 22.35 23.12 24.65 28.46 29.04 29.25 29.86 29.86 29.72 29.59 29.05 28.60 28.09 27.50 27.10 27.48 27.57 26.02 23.86 24.39 24.90 24.76 24.08

GFSNW_sfc_wetblb_045.txt.gz
Wetbulb
50.57 50.56 50.49 50.54 50.35 49.76 47.88 42.86 34.89 48.71 50.50 36.36 38.54 34.22 39.87 43.41 44.21 46.48 45.24 47.11 46.44 45.04 46.85 44.68 43.76 43.58 46.03 49.16 49.93 46.67 49.21 47.09 42.63 44.86 50.14 50.92 49.16 47.26 47.16 41.51 40.18 42.96 41.66 41.68
49.80 50.38 50.42 50.29 50.13 49.74 45.70 38.63 39.71 49.48 48.27 31.18 35.71 38.73 39.79 43.03 43.25 43.94 44.20 45.45 47.93 49.31 46.29 43.44 45.49 45.89 49.33 50.74 49.06 47.91 49.21 44.81 40.40 42.10 46.35 49.00 46.61 48.28 48.19 47.92 46.61 41.75 39.43 41.62
49.08 49.90 50.19 50.09 50.10 50.01 46.23 39.23 33.05 39.58 42.20 42.59 38.96 36.49 37.22 37.97 44.31 44.29 45.13 45.99 47.81 47.05 46.36 48.26 45.21 45.32 47.96 50.93 49.16 48.34 49.96 46.36 43.27 39.89 43.29 46.37 43.78 45.48 46.97 46.27 42.32 41.90 42.46 44.30
48.24 48.70 49.30 49.91 50.07 49.56 45.76 39.48 36.60 39.74 32.35 36.43 39.95 39.98 38.86 37.59 38.01 44.37 45.48 43.86 45.45 44.34 42.79 44.55 44.26 46.47 47.41 47.36 48.23 48.83 49.18 43.20 45.02 45.60 46.75 46.37 45.77 45.47 45.80 44.60 45.23 42.20 44.48 44.83
47.63 47.73 48.43 49.02 49.73 49.55 43.17 34.73 39.12 41.50 40.41 39.80 38.90 38.96 37.39 37.82 39.93 41.55 41.27 42.04 45.00 46.48 43.90 45.13 43.48 45.58 45.60 44.59 47.72 47.27 49.66 43.68 45.11 42.93 46.24 45.84 43.58 45.08 45.34 45.45 45.84 45.58 45.80 45.33
47.63 47.64 47.55 48.17 48.94 48.81 41.89 41.82 45.53 42.22 39.11 38.19 38.17 38.86 38.58 38.32 41.57 43.60 44.67 44.14 43.49 44.29 46.46 50.05 49.44 49.41 48.84 48.21 47.48 46.35 46.84 45.58 42.77 39.60 44.65 44.37 40.28 43.86 44.83 45.68 46.95 46.93 43.69 47.92
47.23 47.60 47.53 47.66 48.56 48.65 42.81 44.26 45.76 41.17 36.26 37.84 38.52 39.65 40.41 39.46 41.24 41.49 44.40 45.75 44.55 47.75 52.26 51.16 50.64 48.35 46.69 47.94 48.01 49.24 46.77 45.15 44.35 40.04 39.87 33.27 43.98 48.94 48.34 46.43 47.28 48.52 48.62 49.57
46.59 47.06 47.16 47.28 47.93 49.38 44.35 47.45 45.98 42.29 37.48 39.80 39.11 40.16 40.51 41.28 42.53 41.76 43.71 46.62 48.99 50.65 49.15 43.66 39.96 39.70 40.06 42.38 45.75 46.37 47.95 46.94 42.41 39.03 38.63 41.59 44.07 46.60 46.67 45.63 45.44 49.36 48.84 50.10
46.29 46.38 46.89 47.08 47.54 47.34 45.62 47.64 50.25 46.43 40.07 38.28 42.28 39.69 41.46 38.74 40.26 40.88 43.77 48.53 51.64 50.78 45.54 41.53 35.11 32.61 37.03 36.50 40.30 46.81 47.69 47.93 44.49 41.02 36.17 33.57 43.89 48.40 51.06 50.22 42.52 50.31 50.47 50.57
46.73 46.32 46.80 47.09 47.05 47.42 46.05 46.96 51.67 45.88 40.58 43.21 43.29 40.41 40.43 43.10 42.51 41.16 42.42 45.82 47.58 50.46 43.48 38.69 36.98 35.71 40.38 35.79 37.02 37.63 39.50 41.01 40.25 40.49 38.83 42.60 48.23 49.58 51.56 41.59 43.65 51.75 51.38 51.22
46.32 46.41 46.56 46.77 46.76 47.35 45.88 44.57 50.62 47.15 42.70 43.24 45.03 46.25 42.81 43.65 44.51 40.66 43.40 43.74 44.86 45.19 40.18 39.65 39.37 39.94 41.32 40.15 40.47 40.93 39.54 39.19 39.80 41.84 39.16 36.77 50.31 49.09 45.23 50.45 54.29 53.91 53.85 52.98
45.85 46.23 46.42 46.73 46.52 47.03 46.86 43.38 49.34 51.65 45.08 41.46 47.55 48.62 49.57 48.22 47.62 46.05 46.05 44.92 45.44 46.27 43.16 43.79 42.55 42.85 46.00 41.06 36.72 44.31 39.04 44.30 42.89 44.22 44.39 51.70 51.33 51.93 53.23 54.46 53.78 54.69 54.39 53.85
45.84 46.11 46.59 46.52 47.17 46.76 46.82 46.56 48.70 47.39 42.27 42.82 43.97 43.19 48.41 49.57 49.50 52.50 42.71 47.43 49.13 48.05 50.46 46.48 45.35 41.35 46.53 39.72 40.86 42.00 45.85 48.33 45.43 46.21 49.33 50.25 52.02 51.98 53.62 54.64 54.82 55.63 55.25 54.22
45.91 46.05 46.26 46.67 46.94 46.71 46.98 46.36 48.35 46.39 42.76 37.96 40.63 48.42 46.21 50.18 48.06 48.71 51.16 50.19 51.47 52.67 50.70 47.74 45.89 43.58 46.83 44.86 45.47 44.35 47.27 48.05 46.14 46.45 48.75 50.53 51.88 52.95 53.98 54.53 54.70 54.38 54.20 54.17
46.07 46.37 46.99 47.10 46.41 46.90 47.16 47.34 48.52 48.60 42.64 38.58 40.05 45.57 47.02 49.82 48.07 46.70 49.33 50.66 49.76 48.89 47.55 46.96 43.70 46.55 46.41 48.16 47.61 45.37 48.45 47.07 45.99 44.78 49.53 51.07 51.93 54.34 54.56 54.48 53.97 53.40 52.61 52.83
46.66 46.76 46.85 46.23 46.55 45.74 44.23 37.40 45.74 48.55 47.04 42.58 36.32 45.88 44.81 47.25 46.64 45.75 47.04 49.31 49.07 49.19 46.47 47.10 47.15 48.30 46.41 43.63 42.00 46.42 47.98 50.84 51.23 49.17 52.40 52.18 53.00 53.54 53.20 53.86 54.54 54.18 53.07 53.29
45.89 45.59 45.71 45.97 45.67 45.52 41.78 40.09 44.52 47.29 48.67 41.97 37.29 37.76 45.00 47.02 46.44 46.35 47.14 49.80 48.10 47.97 45.37 45.98 46.82 47.22 47.62 46.21 42.03 46.56 47.39 47.73 48.72 51.51 51.89 48.09 49.82 49.88 50.92 52.44 53.90 51.78 53.04 53.16
45.14 45.20 45.41 45.39 45.08 45.16 43.90 47.60 46.43 48.01 43.91 43.57 35.78 36.62 40.38 47.08 43.05 41.96 48.58 46.68 47.53 47.00 45.01 46.94 45.44 47.31 47.11 41.81 45.91 47.74 49.17 50.10 51.23 50.85 51.34 50.60 49.12 48.40 48.46 49.66 49.59 48.31 49.61 50.06
45.14 44.81 44.83 44.08 43.39 40.80 42.98 45.71 45.98 49.11 44.86 36.90 37.40 34.61 34.03 41.02 41.56 44.55 44.97 44.99 40.59 47.25 43.80 44.29 45.88 43.87 40.21 44.33 45.81 47.24 48.37 46.99 47.30 46.90 46.88 47.73 46.27 46.79 44.87 45.60 45.95 46.47 45.95 46.20
44.65 44.87 41.05 36.82 42.58 45.81 45.48 42.56 39.02 41.62 43.08 43.37 37.74 41.21 34.62 36.46 38.43 37.03 39.09 42.78 38.25 35.95 39.50 46.56 42.54 42.58 44.53 42.02 44.97 46.31 46.17 46.57 46.69 44.31 44.30 44.73 43.98 44.58 43.46 44.23 45.19 45.29 42.77 42.48
45.02 40.43 39.20 44.44 45.27 42.44 41.50 35.36 33.54 34.38 35.05 39.45 39.55 40.03 36.73 43.07 36.04 36.32 41.97 37.19 37.59 34.49 39.68 42.30 40.39 38.63 32.73 35.94 39.74 43.26 44.89 45.21 45.52 45.91 46.11 45.87 45.69 45.18 43.22 42.33 42.77 42.11 41.61 40.17
43.20 44.84 46.42 46.60 42.86 39.91 34.74 32.57 34.03 33.95 34.50 39.07 38.84 39.24 40.70 39.97 41.17 38.39 40.74 34.87 37.39 33.78 39.48 39.25 29.24 29.15 32.22 33.30 35.01 36.32 38.60 41.18 42.06 43.32 42.85 43.05 42.71 42.62 41.00 38.79 35.58 33.56 32.43 31.68
48.39 44.40 39.61 39.90 36.39 30.94 29.69 29.36 33.23 32.68 34.14 35.80 38.35 36.25 39.40 39.92 39.99 38.64 38.13 34.67 33.78 34.49 31.51 27.26 28.56 30.68 31.61 32.43 33.49 32.79 33.16 33.29 34.25 33.53 33.45 33.32 32.62 32.76 31.96 30.62 30.82 30.24 29.00 28.72
37.94 35.36 30.52 31.78 30.59 30.29 28.68 29.30 30.85 32.87 32.51 33.20 36.86 34.50 35.05 36.68 37.04 32.69 33.23 32.51 35.48 31.06 27.74 25.26 28.33 30.25 31.46 31.91 31.23 30.02 28.87 29.38 29.18 29.06 29.35 28.78 28.64 28.83 29.74 29.97 30.36 29.69 28.67 28.75
31.19 31.73 25.12 26.77 29.45 29.41 29.83 31.57 32.22 33.43 33.43 33.60 34.50 33.93 35.07 32.06 32.15 32.41 34.85 31.29 25.54 24.76 23.37 25.74 28.01 31.14 31.31 30.74 30.51 29.84 29.29 29.03 28.99 29.35 29.38 29.04 29.00 28.36 28.22 29.01 28.97 28.10 26.70 25.43
28.47 25.03 23.44 24.57 27.16 26.13 27.16 28.31 28.21 31.75 29.93 32.86 34.25 32.69 30.12 27.66 28.69 25.17 23.99 23.57 19.91 22.62 25.26 26.30 29.20 29.76 30.00 29.90 30.04 30.30 30.12 29.78 29.35 29.14 28.68 27.87 27.00 26.79 26.98 27.62 27.71 27.85 27.71 27.05
26.67 24.33 25.16 23.75 24.29 23.01 25.34 27.35 28.46 33.01 32.78 30.33 30.20 24.29 23.34 28.71 22.57 18.71 20.73 18.10 21.14 23.62 24.30 26.52 26.67 26.24 27.23 28.29 28.71 28.92 29.18 28.80 28.63 28.02 28.02 27.73 28.25 27.79 26.44 24.66 25.36 25.43 25.41 25.19

GFSNW_sfc_wetblb_048.txt.gz
Wetbulb
50.47 50.78 50.93 50.92 50.91 50.39 48.84 42.95 34.73 48.75 50.63 36.91 37.97 34.39 38.31 41.33 41.03 44.30 43.71 43.91 42.11 42.46 44.26 43.32 44.57 43.48 47.03 50.58 49.91 45.09 47.59 46.35 41.05 43.81 48.62 50.06 48.73 46.50 46.93 40.78 38.95 42.86 41.45 40.42
49.69 49.82 50.55 50.62 50.58 50.34 46.28 38.83 38.62 47.76 47.99 30.24 32.65 37.85 37.26 40.00 40.02 40.74 42.40 42.15 43.89 45.09 43.90 42.02 45.83 46.77 49.93 50.81 49.02 47.23 47.62 43.21 37.97 41.02 46.02 48.70 45.70 47.43 47.37 47.44 46.14 41.32 36.38 39.97
49.44 49.92 50.24 50.42 50.51 50.50 46.78 38.91 32.32 39.90 41.86 41.55 36.86 35.39 36.32 35.81 41.64 41.18 42.74 43.24 44.55 43.40 43.75 46.67 44.46 45.84 48.90 51.65 49.57 47.27 49.22 44.94 41.45 37.42 42.21 46.08 43.73 45.79 47.30 46.14 39.94 40.32 41.79 43.64
49.78 50.02 49.73 50.37 50.45 50.22 46.35 39.31 35.56 39.20 32.46 34.66 37.99 38.44 37.92 36.13 35.68 40.80 42.48 41.82 42.65 41.98 40.22 42.78 43.10 46.91 47.16 48.85 49.12 49.68 49.01 42.77 44.11 44.40 45.55 46.38 45.53 45.19 45.30 43.94 44.69 41.47 43.79 43.73
48.65 48.96 49.01 49.24 49.72 50.20 44.12 33.84 37.59 41.50 39.00 38.22 37.09 37.83 36.88 36.42 38.36 38.79 38.18 40.23 42.77 43.59 41.52 43.27 41.46 45.56 46.35 45.66 48.23 47.29 48.56 42.42 43.93 41.27 44.96 45.06 43.85 45.75 45.62 45.23 45.34 45.13 45.63 44.93
47.72 48.09 48.38 48.30 48.66 49.45 43.26 41.16 44.34 41.80 38.34 37.34 35.77 35.96 37.61 38.07 40.42 41.72 42.07 42.44 42.55 42.54 44.47 46.99 48.05 49.34 49.10 49.55 47.72 46.27 45.92 44.80 40.87 36.51 43.44 42.86 37.71 44.45 45.39 45.71 46.46 46.07 42.54 47.36
47.26 47.42 47.34 47.50 47.94 48.44 42.35 41.42 43.75 39.03 34.65 37.30 36.73 38.29 39.17 38.83 40.51 39.23 42.18 43.94 42.34 46.97 50.58 49.75 49.17 49.15 47.99 47.93 48.69 48.88 45.19 43.91 42.59 35.51 38.27 31.37 43.44 48.90 48.13 46.01 46.42 47.53 47.39 48.30
46.64 46.83 47.00 47.19 47.39 47.96 43.78 44.82 42.99 39.66 36.47 39.13 38.67 38.75 39.32 40.80 42.36 41.05 42.00 44.27 46.69 49.75 47.98 40.92 37.24 38.82 41.29 43.15 47.22 46.57 47.24 45.15 40.97 35.85 34.63 40.62 43.32 46.29 45.64 44.65 44.14 48.50 47.46 48.51
46.42 46.30 46.57 46.94 47.28 47.63 45.25 42.42 46.63 43.05 38.46 38.02 41.57 39.05 40.55 37.68 39.03 40.48 42.28 46.61 49.72 47.92 44.33 39.26 33.10 31.38 37.33 37.56 40.88 46.84 45.81 46.40 41.39 40.00 33.06 30.77 42.81 47.89 50.02 49.53 39.75 49.66 49.56 49.76
46.19 46.28 46.24 46.62 47.13 47.65 46.12 41.99 45.82 44.33 39.01 43.02 43.47 39.86 39.75 42.92 41.37 39.92 42.28 43.58 44.46 47.10 42.33 36.90 33.52 33.41 40.71 35.44 36.59 37.64 38.92 39.02 37.58 37.74 36.32 41.02 47.16 48.86 50.19 39.30 41.27 51.38 52.04 51.09
46.11 46.44 46.46 46.43 46.82 47.34 45.67 43.14 47.49 44.86 41.46 43.74 44.82 44.46 41.40 42.47 43.27 38.83 43.17 42.93 44.33 39.99 38.06 38.88 37.82 37.34 39.33 37.74 40.65 39.23 37.28 36.51 36.86 39.12 36.58 34.15 50.18 48.48 43.41 48.49 52.70 53.92 53.19 54.16
46.71 46.69 46.25 46.42 46.72 47.22 46.12 40.60 47.23 48.71 44.32 42.96 47.40 47.41 48.83 47.17 46.98 44.92 44.63 43.88 43.53 44.52 40.77 41.96 42.44 41.46 41.62 39.74 34.19 44.13 36.94 40.39 39.33 42.05 42.26 49.75 50.72 49.45 52.19 53.72 54.26 54.23 54.14 54.92
46.50 46.46 46.41 46.43 46.86 47.15 46.38 44.14 46.39 46.09 42.26 42.28 43.02 42.55 48.55 50.95 50.90 52.72 44.56 46.09 47.97 46.90 47.66 45.08 45.08 40.35 43.64 40.29 39.68 41.78 44.75 47.61 42.83 42.00 45.27 48.24 50.63 51.28 52.88 53.01 52.87 54.69 55.27 55.41
46.41 46.23 46.18 46.51 46.86 46.61 46.80 43.99 46.62 45.72 43.68 37.29 38.69 46.57 46.70 50.94 50.50 49.94 50.53 49.38 49.54 50.48 50.15 45.10 44.17 41.14 46.37 41.46 43.97 41.89 44.26 46.05 45.00 44.78 46.93 48.10 48.86 49.59 51.86 53.53 54.71 54.84 54.29 54.35
46.21 46.37 46.60 47.01 47.04 47.02 47.34 47.12 47.03 49.75 42.86 36.47 38.85 45.24 47.55 49.27 48.74 47.56 48.75 48.62 47.44 47.21 43.31 43.42 41.67 43.96 45.13 46.99 46.05 43.67 46.89 45.08 42.74 43.69 48.79 48.32 49.75 51.70 53.72 52.55 51.83 53.37 53.71 53.10
46.16 46.53 46.73 46.60 46.62 47.20 44.51 37.07 45.34 48.73 47.19 40.61 35.14 44.80 44.74 47.50 47.49 45.82 45.03 46.75 47.19 47.31 44.36 44.28 46.64 48.93 46.15 43.24 40.54 45.64 47.38 48.81 49.13 48.08 52.30 51.31 52.56 51.77 53.11 52.11 52.16 53.95 54.20 53.50
46.06 46.13 46.11 46.55 46.51 45.68 42.73 40.52 44.50 47.69 48.71 40.58 36.28 37.56 43.71 46.00 46.31 45.76 45.00 47.07 45.07 45.65 44.60 43.54 44.81 46.16 46.11 42.56 38.57 44.56 46.97 47.78 47.99 48.56 49.90 48.36 49.63 49.56 50.72 50.33 51.27 52.34 53.96 53.21
45.91 45.81 46.05 46.13 46.53 46.77 43.92 46.38 46.66 48.18 43.72 41.76 35.30 36.23 39.87 46.00 41.54 40.43 46.35 44.25 45.57 45.31 44.35 45.95 44.75 46.23 45.44 39.41 43.93 46.21 47.69 48.45 48.89 48.28 49.69 50.23 50.38 49.49 49.48 49.30 49.58 49.51 49.75 50.86
45.62 45.76 45.84 44.56 43.83 41.46 42.95 46.05 46.34 50.96 44.21 36.76 36.77 33.96 33.37 41.06 42.37 43.55 44.41 45.56 38.85 45.75 42.65 42.75 45.11 42.69 37.50 36.39 39.42 43.09 45.50 45.72 45.80 47.02 47.46 47.78 47.42 47.52 47.41 45.63 46.11 45.29 45.62 46.51
45.71 44.70 40.62 36.34 42.78 45.90 46.00 43.88 40.10 40.31 41.99 41.88 37.12 40.47 35.53 39.42 35.82 38.18 38.75 42.17 37.63 35.77 41.21 44.51 39.93 38.29 35.02 33.78 35.60 37.85 39.04 43.28 45.65 43.46 43.03 43.97 44.18 45.89 46.13 44.86 45.49 45.95 44.74 43.44
44.26 40.96 37.65 43.34 45.93 44.01 40.55 34.85 34.29 35.45 33.15 38.44 39.33 40.10 36.57 39.96 34.45 33.52 39.42 37.56 34.79 34.66 38.85 38.65 37.88 31.42 30.00 33.01 33.95 36.33 37.01 40.12 41.50 43.22 44.19 44.08 44.09 44.37 44.40 42.28 40.15 38.31 35.70 33.55
43.33 43.51 44.45 43.20 38.37 36.86 33.77 32.34 32.96 32.44 32.71 39.61 38.50 39.19 39.65 38.72 40.01 33.31 35.71 34.07 34.25 32.24 41.00 35.03 26.41 28.25 31.66 31.47 31.69 31.42 33.08 35.08 34.70 35.59 35.32 35.44 35.90 35.98 34.25 32.49 31.35 30.56 30.27 28.76
46.97 43.02 38.86 38.70 36.17 31.03 29.97 26.68 30.36 32.00 31.56 33.66 38.39 36.09 38.44 38.57 38.01 31.88 32.98 31.71 31.30 34.02 30.39 25.55 25.76 28.82 30.59 30.43 30.11 29.31 30.02 30.20 30.05 29.73 30.34 29.93 29.46 29.81 29.35 28.23 28.36 27.75 26.62 26.56
38.53 35.15 29.13 31.05 27.53 27.42 27.05 27.24 29.75 32.03 32.07 30.90 33.28 34.79 33.16 32.44 32.06 31.89 32.07 31.89 32.66 29.44 24.70 20.97 25.55 28.58 29.84 30.32 29.90 28.63 27.89 28.62 28.54 28.12 27.99 27.23 26.76 26.66 27.31 27.76 27.39 26.42 25.53 25.84
29.49 30.00 23.60 24.90 28.14 28.88 28.96 30.93 31.84 32.08 33.16 31.74 33.89 33.34 34.92 32.14 31.95 31.65 33.37 29.52 21.99 22.18 19.43 22.58 26.98 28.77 29.30 28.93 29.12 28.62 28.07 27.39 27.00 27.38 26.76 26.48 26.60 26.34 26.10 26.50 26.09 25.42 24.73 24.20
27.74 24.35 23.08 25.50 26.33 25.05 26.74 27.92 29.00 32.86 31.31 32.90 34.38 32.44 29.98 26.53 27.49 24.17 22.12 22.31 17.64 19.84 23.31 25.19 26.69 26.74 27.25 27.90 28.25 28.15 28.33 27.92 27.38 27.36 26.98 26.36 25.23 24.66 24.63 25.16 25.24 25.35 25.24 24.42
26.62 24.11 26.19 25.75 25.22 24.22 26.96 28.54 28.31 31.73 31.05 30.29 29.94 24.12 24.28 28.78 22.02 18.30 21.05 17.99 20.41 22.86 24.04 25.20 24.69 24.24 25.08 25.59 25.32 25.49 26.32 26.90 27.12 26.85 26.65 26.06 26.24 25.70 24.49 23.12 24.34 24.66 24.45 24.04

GFSNW_sfc_wetblb_051.txt.gz
Wetbulb
49.41 49.94 50.21 50.73 51.07 50.83 48.95 43.53 34.09 45.24 47.46 35.78 36.05 31.15 34.63 39.22 38.16 41.44 39.22 40.21 38.95 37.59 38.63 37.53 38.15 40.85 44.76 48.04 47.39 43.50 45.27 41.93 35.56 39.48 46.59 48.29 45.48 42.54 42.43 34.81 35.06 36.51 30.67 34.04
48.97 49.16 49.71 50.17 50.64 50.79 46.65 39.33 38.48 46.25 44.85 29.85 31.73 34.68 34.92 37.57 36.83 37.92 38.37 37.00 40.44 40.88 37.96 35.05 39.51 43.41 48.54 49.33 46.81 44.60 44.92 38.72 33.47 35.75 41.55 45.90 43.03 44.15 45.14 43.88 41.90 35.16 30.17 34.80
48.74 48.89 49.31 49.75 50.43 50.68 47.44 38.11 32.05 39.20 41.28 37.83 33.23 32.06 32.11 32.87 39.32 37.75 39.06 38.61 39.44 37.06 37.61 40.18 37.94 42.12 47.85 49.00 47.13 47.45 46.83 41.16 36.93 32.31 37.60 43.84 41.16 43.24 44.13 42.21 33.87 35.59 35.15 39.14
48.23 48.53 49.09 49.55 49.84 50.22 47.30 38.14 34.16 37.32 32.55 33.77 34.42 34.20 34.22 32.11 32.64 38.39 38.72 36.12 36.69 36.01 33.88 36.95 37.01 42.68 44.19 46.44 47.88 46.44 45.11 37.29 40.55 41.02 42.94 44.35 44.28 43.72 43.39 42.06 42.15 36.92 39.95 41.95
48.33 48.60 48.57 48.91 49.36 49.65 45.17 32.64 35.82 38.09 34.41 37.05 34.83 34.38 32.10 31.79 34.79 35.70 34.98 34.19 36.81 37.60 34.81 37.36 36.40 40.66 41.47 41.32 45.90 44.13 44.96 37.52 40.11 38.56 42.66 43.35 41.41 43.43 43.41 42.88 43.69 43.60 43.24 42.37
48.06 48.32 48.00 48.92 49.21 49.08 44.18 42.28 40.30 38.81 35.64 35.07 33.37 32.51 32.74 34.27 36.68 37.87 39.63 38.07 36.24 35.33 38.12 41.53 44.18 46.22 46.91 46.02 43.26 42.08 42.38 38.62 36.52 32.43 40.61 39.94 33.71 39.50 42.96 43.86 45.31 43.37 38.44 42.29
47.76 47.72 47.67 48.78 49.21 49.11 46.26 42.50 41.54 35.86 33.12 33.27 33.09 34.70 35.53 34.92 37.59 35.39 39.56 40.50 37.10 39.86 45.33 47.04 46.23 45.85 44.41 44.72 45.02 46.88 41.27 39.23 36.30 31.20 35.13 28.23 39.59 45.70 46.13 45.13 45.49 44.85 43.16 43.06
46.90 47.16 47.22 46.79 47.63 49.11 44.82 43.27 41.15 37.68 32.64 34.91 35.20 35.26 35.42 37.03 38.17 37.59 38.65 41.38 42.90 42.69 40.06 37.66 35.35 34.15 37.29 39.33 44.06 44.57 44.53 39.08 33.54 31.79 31.97 36.26 40.69 43.98 43.86 42.38 41.31 45.36 43.40 44.13
46.33 46.36 46.52 47.10 47.44 48.12 46.46 42.22 44.00 41.54 35.18 34.17 38.47 36.09 36.96 33.84 34.31 35.51 37.94 43.47 43.87 41.45 38.04 35.35 29.19 25.80 34.54 34.57 38.55 45.16 44.05 43.29 36.22 31.08 28.80 27.52 37.53 45.13 48.54 46.90 36.57 45.87 46.04 45.12
46.44 46.58 46.40 46.55 47.00 47.51 46.23 43.02 42.78 39.22 34.98 39.63 39.97 35.75 35.65 39.48 37.16 34.99 37.67 39.25 38.39 41.07 32.96 30.33 28.14 29.26 37.52 31.65 32.01 33.99 36.84 34.70 32.90 28.89 27.86 34.29 43.51 47.00 48.64 35.96 36.96 46.86 48.10 46.85
46.90 46.81 46.62 46.36 46.48 46.88 45.19 42.31 43.36 39.61 34.09 40.13 42.21 44.08 39.60 39.95 39.91 34.15 37.11 37.70 37.96 36.45 31.93 30.96 29.73 28.17 35.00 34.84 36.85 33.29 35.11 33.18 30.43 33.98 31.11 29.39 45.17 45.96 40.68 43.18 47.13 48.13 48.44 47.67
46.55 46.78 46.75 46.30 46.45 46.61 46.42 41.16 43.81 44.42 37.64 41.08 46.14 46.45 46.61 45.24 45.52 41.68 40.47 37.76 38.56 38.34 34.18 35.23 34.24 29.54 33.46 33.55 28.08 40.42 34.43 38.00 34.98 36.60 34.95 44.42 45.15 46.13 49.22 49.50 49.25 49.31 48.63 49.98
46.35 46.44 46.83 46.48 46.58 46.50 46.11 42.44 43.63 42.35 37.10 39.43 42.51 42.27 47.36 49.34 47.70 49.04 40.54 40.14 42.20 42.00 42.22 38.41 38.67 31.92 35.74 30.39 32.36 36.18 39.49 42.66 37.45 38.71 42.20 43.29 44.99 47.55 49.38 50.15 48.13 49.84 50.53 49.06
46.32 46.56 46.44 46.44 46.71 46.56 46.23 42.16 44.40 42.47 40.59 33.94 37.67 46.28 44.84 48.65 47.56 46.84 47.48 46.15 46.18 45.13 43.32 39.29 37.57 33.86 41.55 32.25 37.57 35.60 38.51 41.90 40.83 39.94 43.02 44.94 46.44 47.29 48.81 50.31 50.66 49.95 50.86 49.62
46.32 46.51 46.63 46.79 46.95 46.63 45.70 44.71 45.34 46.96 41.41 34.50 35.98 42.60 44.78 47.05 47.34 45.60 46.63 45.87 43.45 41.56 38.26 34.99 33.90 38.85 39.03 38.26 38.18 34.48 40.98 39.20 37.14 35.03 45.15 44.64 45.64 48.19 50.52 49.38 49.08 50.50 49.86 49.89
46.57 46.74 46.90 46.76 46.50 46.62 43.90 38.60 43.82 44.93 47.17 39.44 30.83 41.45 42.69 45.41 46.34 43.96 43.15 43.61 42.92 42.64 40.16 39.71 40.95 43.91 41.36 33.56 31.23 41.31 43.00 44.11 44.56 43.10 45.88 47.70 48.25 49.54 50.85 49.11 49.62 50.05 48.93 50.32
46.07 46.30 46.16 46.32 46.16 45.04 40.57 37.42 43.21 46.57 47.05 39.28 32.07 33.64 41.46 44.62 43.72 41.78 41.05 42.34 41.96 41.02 39.53 39.05 40.71 41.39 42.22 30.22 29.33 40.85 43.31 44.78 45.44 46.73 46.65 43.37 44.64 43.78 46.63 46.79 47.44 48.35 49.03 48.87
46.25 46.14 45.97 46.32 46.98 46.25 42.48 45.39 46.73 46.74 41.41 38.82 29.58 28.52 33.87 42.81 35.70 34.96 41.66 38.13 40.10 39.28 38.47 40.46 36.76 39.61 37.84 32.73 35.49 37.28 38.75 42.51 43.67 43.90 45.27 44.71 45.60 45.54 44.47 44.86 44.83 44.46 44.46 44.99
46.39 46.28 45.91 44.62 43.19 39.85 41.34 46.28 46.72 47.08 41.51 32.60 30.24 27.18 26.47 38.90 36.17 37.15 37.77 39.95 32.70 39.72 32.66 36.27 38.89 32.19 29.86 31.24 32.25 34.45 36.49 37.47 39.80 42.80 43.61 43.58 43.29 43.98 43.02 42.79 42.61 41.67 40.07 38.52
45.70 44.42 38.98 34.50 40.23 45.80 45.47 42.48 38.98 39.06 38.85 38.05 30.64 34.49 31.07 36.70 33.86 35.34 35.88 33.86 29.54 27.65 31.79 41.20 33.35 28.83 32.24 31.45 33.41 34.38 34.79 37.56 38.80 37.42 35.41 37.33 37.51 40.57 37.06 36.54 36.13 34.23 32.31 30.68
43.45 38.71 36.63 41.87 45.55 41.89 37.87 30.91 30.56 32.06 28.55 33.99 33.40 32.07 31.13 36.37 31.83 32.38 34.27 32.61 32.44 31.06 31.98 33.28 31.15 23.86 27.87 30.65 30.68 31.42 32.94 35.16 35.13 36.64 35.75 35.73 35.20 34.57 33.20 31.51 31.05 29.32 27.83 26.22
42.09 41.75 43.94 41.76 37.82 36.27 30.33 27.75 30.85 30.02 29.67 34.02 29.35 31.36 34.99 36.01 36.28 30.29 33.35 32.08 31.84 28.90 34.79 29.83 21.91 25.47 28.66 28.93 28.85 29.10 30.51 31.43 31.58 32.34 31.40 31.38 31.09 30.17 28.70 26.99 26.08 25.48 25.10 24.03
44.47 41.66 34.40 35.71 32.46 27.61 24.64 25.19 28.55 29.26 30.00 31.30 33.37 32.78 30.06 35.43 34.86 30.03 31.80 30.18 30.59 32.75 27.08 19.94 21.66 26.24 27.39 27.78 28.22 28.06 29.04 28.52 27.84 27.36 27.72 27.29 26.94 27.25 26.56 25.23 25.24 24.89 24.08 24.31
34.36 31.15 22.48 25.52 23.05 24.13 23.33 24.23 26.13 29.67 30.76 30.08 31.06 32.25 32.41 31.90 28.82 30.98 30.14 30.42 29.73 23.32 18.92 15.70 22.17 25.11 26.38 27.84 27.80 26.63 25.82 26.18 25.94 25.62 25.46 24.81 24.06 23.60 24.12 24.13 24.27 23.44 22.59 23.27
24.73 24.43 19.19 19.04 26.29 25.91 26.79 28.32 29.25 30.74 31.69 29.99 31.72 31.89 32.91 30.36 29.53 28.82 29.65 24.57 17.51 18.54 15.05 19.79 22.64 24.63 26.06 25.85 26.40 25.85 25.29 24.89 24.30 24.42 23.67 23.59 23.90 23.55 23.55 24.45 24.69 24.40 23.92 23.25
23.15 20.98 16.79 20.12 18.24 15.26 20.97 25.31 26.22 30.50 29.54 31.30 32.55 30.92 27.29 24.38 23.58 19.93 17.74 17.00 13.69 15.84 19.29 21.81 23.53 22.92 22.88 23.09 24.91 25.51 25.45 24.83 24.47 24.28 24.10 23.71 22.75 22.36 22.51 23.44 23.47 23.18 23.02 22.04
23.25 19.00 23.32 18.83 18.09 20.52 24.43 26.07 25.34 30.78 30.02 27.25 27.03 19.47 18.60 25.04 15.13 12.99 16.59 11.92 16.17 19.45 20.31 21.68 21.84 21.84 22.23 22.91 23.01 23.01 23.10 22.73 23.73 24.81 24.97 24.68 24.49 24.10 22.87 21.35 22.58 22.82 22.25 21.79

GFSNW_sfc_wetblb_054.txt.gz
Wetbulb
48.06 48.55 49.09 49.48 49.93 50.19 48.68 44.09 34.48 44.00 46.99 34.93 34.19 29.58 33.84 38.62 37.59 40.36 38.45 38.68 36.47 36.22 36.90 35.62 36.22 37.32 41.31 47.18 46.61 41.09 42.84 39.38 34.64 38.15 43.89 45.21 42.02 41.17 40.76 34.25 33.38 34.20 29.78 34.00
47.91 48.26 48.53 49.29 49.58 50.08 46.86 39.73 38.35 45.30 43.62 29.04 29.42 32.65 33.65 36.66 36.38 36.76 35.49 36.08 37.74 38.12 35.26 31.77 37.08 38.97 44.46 47.01 46.26 42.87 43.20 37.32 30.37 34.86 39.74 42.68 39.95 42.31 43.10 41.74 38.50 34.25 29.80 33.60
47.92 47.99 48.23 48.81 49.51 50.06 47.20 36.70 32.06 38.58 40.03 36.78 32.41 30.64 31.03 31.56 37.99 36.11 37.12 36.77 37.80 35.81 33.98 36.44 34.30 36.42 42.25 46.66 46.40 46.40 45.23 39.38 36.88 32.30 35.25 39.84 38.51 41.24 42.99 40.98 32.21 34.79 35.07 38.11
47.36 47.80 48.26 48.81 49.11 49.66 46.73 37.10 33.66 36.85 31.69 32.97 33.63 33.04 33.24 31.02 30.80 36.76 38.08 35.01 34.77 33.89 31.08 32.73 32.89 37.77 41.84 45.16 46.20 45.73 43.94 36.63 39.47 40.34 41.83 42.16 40.97 41.26 42.16 39.50 39.31 36.01 38.79 40.04
47.31 47.66 48.00 48.31 48.80 49.36 44.11 32.63 35.25 37.99 34.06 36.33 34.17 33.41 31.29 30.99 33.21 34.69 33.14 32.88 35.02 35.64 32.23 33.33 31.62 35.43 38.98 40.57 44.87 43.22 44.11 37.01 37.67 36.55 41.07 41.69 39.34 41.04 42.50 42.07 42.32 41.79 41.53 40.82
47.66 47.82 47.80 47.89 48.34 48.44 42.34 42.97 40.81 38.64 35.86 34.18 33.52 31.92 31.48 33.09 34.74 35.87 37.13 36.45 34.99 33.22 35.35 37.90 39.50 40.78 42.41 43.92 43.14 40.79 40.47 38.46 35.28 32.84 38.61 39.44 33.38 38.47 40.12 41.13 42.70 42.43 37.84 42.87
47.82 48.17 48.02 47.90 48.35 48.17 45.23 43.79 41.75 36.38 32.25 32.21 32.56 34.48 35.21 33.83 35.36 32.76 37.36 37.75 34.76 38.53 41.89 42.23 43.57 42.86 42.64 43.63 44.01 44.49 39.18 37.74 36.52 30.01 32.77 27.87 39.06 44.70 43.33 41.90 43.73 44.41 43.62 43.51
47.45 47.35 47.80 47.65 48.06 48.56 46.03 45.11 42.07 37.89 32.10 33.66 33.39 34.34 34.57 36.52 36.30 35.19 36.51 38.58 40.80 41.82 37.77 32.80 30.72 29.72 33.61 36.46 41.77 43.52 42.55 39.22 32.86 28.23 30.25 34.51 38.77 41.63 41.20 40.26 39.43 44.50 43.32 43.84
46.21 46.27 46.63 47.13 47.56 47.91 46.23 45.76 45.33 41.82 35.31 33.43 36.96 34.06 35.44 32.48 32.73 33.58 35.68 41.12 41.80 39.66 34.02 30.13 25.22 22.59 30.41 31.61 36.40 42.67 43.31 42.16 34.99 32.64 28.30 26.79 36.15 42.82 46.05 44.85 33.74 44.11 45.04 45.56
46.01 46.10 46.20 46.56 46.92 47.17 44.64 43.97 45.07 38.29 33.75 36.62 38.11 34.43 34.01 36.99 34.85 31.86 34.75 36.25 36.31 39.50 29.59 24.56 24.86 26.24 34.83 28.24 29.12 31.97 34.95 34.93 32.83 31.84 29.06 32.02 40.86 44.11 47.00 35.31 35.80 44.44 46.66 46.83
46.47 46.52 46.36 46.18 46.65 46.81 44.30 42.95 44.81 39.31 33.39 35.82 39.91 42.30 37.03 37.49 36.75 31.87 34.71 34.52 34.82 32.91 28.78 27.48 26.77 24.09 32.00 30.90 34.75 32.06 31.90 32.75 31.82 32.71 30.96 27.64 44.04 45.24 38.87 41.60 44.31 45.76 47.54 46.30
46.59 46.57 46.59 46.31 46.46 46.60 46.30 40.27 44.24 45.15 39.09 37.01 42.14 43.60 46.51 43.39 42.72 39.41 36.86 35.80 36.61 36.90 31.77 30.86 30.33 26.48 25.67 29.91 26.79 37.11 31.35 35.00 33.89 35.54 35.08 42.91 44.68 45.19 47.35 47.57 46.04 46.19 46.26 47.69
46.29 46.47 46.79 46.62 46.66 46.81 45.64 41.40 42.17 41.74 36.79 36.87 37.30 37.69 45.86 48.99 47.08 46.46 37.89 38.78 41.62 39.30 39.26 35.70 34.48 29.30 30.42 25.87 28.05 33.65 37.16 40.85 36.64 37.68 41.15 43.23 45.57 46.26 48.88 47.71 47.03 48.41 49.03 48.47
46.01 46.43 46.66 46.49 46.80 46.74 45.88 41.64 43.30 41.01 37.88 31.88 36.19 43.44 40.84 48.49 47.16 46.90 45.90 44.40 46.14 44.82 41.71 35.44 31.58 30.10 38.42 28.64 34.70 32.15 37.59 41.34 39.79 38.60 41.21 43.44 44.59 45.14 46.34 46.90 48.50 49.12 50.02 48.38
46.41 46.61 46.87 46.85 47.09 46.66 45.40 44.55 43.94 43.38 38.88 32.15 35.02 42.47 44.71 46.53 44.64 44.57 45.05 44.73 43.64 41.67 37.49 34.14 31.30 35.78 35.54 34.70 37.02 35.80 40.79 39.19 36.99 34.63 42.31 42.56 42.60 45.14 46.92 47.01 47.96 48.83 48.95 47.38
46.22 46.64 47.02 46.97 46.65 46.04 42.96 37.76 43.81 44.32 44.33 39.60 32.18 40.71 42.23 44.15 44.06 42.07 41.71 43.46 42.79 42.46 39.05 36.79 38.41 41.68 39.76 32.67 31.51 37.84 39.30 40.94 42.92 40.14 43.50 44.30 46.25 47.15 48.36 47.82 47.03 47.32 47.32 48.02
46.13 46.41 46.70 46.36 45.99 44.25 38.80 36.74 40.97 45.67 44.14 37.28 32.69 33.28 41.58 44.45 42.78 40.46 40.12 41.44 40.79 40.87 38.58 37.14 38.75 39.26 40.92 32.89 31.55 35.55 37.76 38.33 41.63 42.71 43.62 42.72 43.23 41.93 44.09 44.99 45.69 45.56 45.45 44.95
46.38 46.24 46.31 46.04 46.11 44.86 41.42 44.64 45.59 44.86 39.75 40.09 30.12 31.72 34.00 41.02 36.44 35.95 41.58 38.29 38.96 39.18 37.33 35.88 36.21 38.97 38.85 32.59 31.14 33.71 35.73 37.29 39.05 39.93 41.16 41.60 42.86 42.97 42.27 43.34 43.10 39.21 35.47 33.81
45.86 45.72 45.67 44.70 41.59 39.35 42.12 45.11 45.20 44.36 41.59 32.13 29.03 28.20 30.01 37.13 34.62 34.55 36.84 37.30 31.27 36.77 32.64 31.32 35.74 30.93 24.88 27.62 29.49 31.88 32.06 33.69 35.47 39.13 37.51 38.09 38.32 36.61 36.05 36.18 35.65 32.84 30.14 29.12
44.89 44.00 39.01 32.10 41.26 46.52 45.82 42.57 38.26 37.62 36.72 35.72 27.96 31.77 32.04 35.52 30.01 34.11 33.07 30.29 27.03 30.80 31.79 36.28 27.76 24.87 30.23 29.19 30.38 30.19 31.55 33.85 35.29 35.09 34.07 34.65 35.09 33.92 31.81 31.08 30.07 29.17 27.69 26.75
41.39 38.14 36.18 42.31 45.28 41.38 36.57 30.92 29.58 30.75 28.64 31.04 30.39 29.19 29.91 35.01 27.62 29.60 33.81 31.91 32.59 29.21 30.99 29.29 24.67 20.60 25.42 28.40 27.91 29.63 31.27 32.56 32.63 34.00 33.22 32.66 32.27 31.05 29.38 27.67 26.81 26.00 25.29 24.19
40.65 41.35 42.31 38.90 37.20 33.31 27.19 26.86 27.95 27.23 29.86 32.83 27.56 30.53 33.48 33.25 35.08 29.54 33.10 31.83 31.53 28.39 33.25 24.30 15.86 22.70 26.07 26.59 26.91 27.75 28.79 28.88 28.12 28.47 27.63 28.01 27.61 27.08 26.02 25.26 24.13 23.92 23.93 23.44
43.32 38.42 34.39 32.87 28.03 19.89 18.77 22.01 24.20 25.66 29.41 29.87 31.93 32.98 33.64 33.73 33.31 30.09 31.29 29.81 29.50 31.76 22.09 16.14 19.38 23.79 25.41 25.49 26.12 25.45 26.79 26.78 25.82 25.12 25.13 24.57 24.12 24.61 24.25 22.99 23.04 23.17 22.44 22.71
29.13 25.96 17.17 17.93 16.34 20.08 19.54 18.31 18.31 25.25 29.47 28.80 30.34 31.86 32.23 31.88 26.56 30.76 28.42 26.35 26.10 17.77 9.79 13.03 19.76 22.99 24.41 25.11 25.44 24.15 22.94 23.65 23.56 23.47 23.71 23.17 22.70 22.51 23.17 23.17 23.39 22.10 20.80 21.45
23.82 22.97 14.56 16.11 21.52 19.43 21.75 25.08 22.15 27.31 30.15 29.59 31.32 31.68 31.82 28.09 26.34 24.38 25.09 17.53 13.77 14.71 11.69 15.35 19.96 21.53 23.37 22.98 23.25 23.26 22.84 22.51 22.29 22.47 22.10 21.95 22.06 21.35 21.34 22.29 22.80 22.54 22.02 21.29
21.61 20.53 14.68 17.63 15.95 17.30 19.79 23.93 22.33 27.93 28.62 30.19 30.80 29.21 25.22 21.43 20.09 16.16 13.58 13.60 10.10 13.58 17.01 20.40 21.49 20.89 21.24 21.08 22.18 23.33 23.87 23.43 23.04 23.03 23.03 22.64 21.68 21.09 20.89 21.64 21.28 20.96 21.35 19.83
19.38 16.01 16.52 14.18 12.69 15.10 19.21 22.14 23.22 28.75 28.66 22.75 23.79 16.06 17.63 22.40 16.68 13.54 15.84 11.83 15.08 17.26 18.32 20.04 20.62 20.23 20.62 21.13 21.06 21.24 21.14 20.35 20.22 20.74 21.45 21.39 22.71 22.42 20.83 18.97 20.21 20.65 20.23 19.35

GFSNW_sfc_wetblb_057.txt.gz
Wetbulb
47.40 47.92 48.20 48.14 48.62 49.02 47.41 43.46 34.29 45.02 46.67 34.59 35.11 29.34 31.67 37.50 36.12 39.43 37.84 37.91 35.81 33.89 34.54 33.81 35.15 36.39 38.47 45.40 45.21 39.84 41.58 37.45 33.62 36.89 42.26 43.50 41.52 39.35 39.49 32.26 31.64 31.79 28.49 33.31
47.07 47.23 47.38 47.57 48.39 48.89 45.54 38.99 37.79 45.23 43.31 29.36 29.30 33.06 32.35 34.63 35.13 35.47 35.59 34.80 36.82 37.68 33.72 30.39 34.00 37.16 42.03 44.92 43.67 42.68 43.50 35.88 31.34 33.57 37.28 40.61 38.27 39.63 40.38 39.60 36.45 32.02 29.27 33.36
46.79 47.10 47.29 47.94 48.14 48.65 45.38 35.50 31.35 37.67 39.65 35.74 32.81 30.92 30.57 30.67 36.91 35.76 36.69 35.35 36.81 34.96 32.73 35.24 32.55 34.30 39.91 42.05 45.78 46.22 44.60 38.19 34.51 31.08 34.52 38.67 36.83 39.83 40.54 39.51 31.85 32.10 33.99 37.43
46.92 47.15 47.43 48.00 48.07 48.32 44.89 35.88 32.98 37.24 31.19 32.25 33.69 33.56 32.48 29.42 30.62 35.47 36.99 33.87 33.77 33.00 29.75 31.40 31.12 35.55 37.58 41.31 45.84 45.76 42.67 35.46 37.95 38.17 39.61 40.77 40.52 39.40 38.96 37.09 38.39 34.92 37.21 37.27
46.54 46.82 47.12 47.34 47.85 48.20 42.48 31.92 34.78 38.13 32.65 36.19 33.58 33.63 31.31 30.51 31.40 32.84 31.65 31.27 34.01 33.98 30.68 31.90 29.79 33.37 35.05 35.88 41.75 42.01 43.74 35.24 36.65 34.06 39.33 39.65 38.13 40.25 40.72 39.94 39.46 38.99 39.17 37.89
46.32 46.79 47.03 46.92 47.47 47.67 41.31 41.87 40.62 39.07 36.13 33.64 32.69 31.10 32.17 32.44 34.50 35.14 35.49 34.88 33.10 31.77 34.08 36.76 37.09 37.72 37.99 39.71 38.81 38.51 38.54 36.25 34.74 30.70 36.81 36.79 31.96 37.10 39.94 39.99 41.33 41.17 36.82 40.88
46.67 46.90 46.98 47.00 47.30 47.52 44.20 43.01 41.46 36.08 31.99 32.16 32.41 34.41 34.15 32.89 34.42 32.10 35.41 36.48 33.79 36.87 40.34 39.20 38.98 39.83 39.77 41.43 42.60 43.27 38.09 36.65 36.01 32.03 32.49 26.76 37.91 42.98 43.31 40.91 41.79 42.38 42.53 43.18
46.85 46.94 46.87 47.00 47.30 47.55 44.24 44.24 41.69 37.57 31.71 34.71 33.64 34.33 34.66 35.59 36.11 35.05 34.89 36.84 39.02 39.80 36.86 31.13 29.38 27.26 30.68 33.59 39.65 41.94 40.77 37.80 32.53 31.28 30.69 33.15 38.75 39.99 39.53 38.92 39.50 43.34 42.63 44.02
46.41 46.83 47.10 47.41 47.64 47.75 45.35 43.39 45.89 40.85 35.24 33.24 37.17 34.31 35.42 32.18 31.83 33.46 34.38 39.70 41.09 38.12 32.38 29.28 25.00 21.23 27.37 29.44 34.28 41.98 39.91 37.98 33.15 31.44 27.63 26.57 34.35 41.32 45.17 43.85 34.91 42.97 44.09 43.97
46.27 46.36 46.39 46.37 46.77 47.42 45.89 44.30 45.83 41.16 34.73 38.07 38.61 34.02 33.15 36.03 33.51 31.49 33.94 35.46 35.14 37.54 28.28 24.10 24.29 24.96 31.99 25.61 26.81 29.84 34.50 33.90 32.11 31.64 29.97 31.11 39.68 43.07 45.83 33.99 35.85 43.38 45.17 45.51
45.73 45.94 46.06 46.23 46.42 46.59 44.89 42.35 46.55 41.97 35.89 37.56 40.09 40.51 36.71 36.03 35.81 30.04 34.00 33.85 33.25 30.90 26.87 26.26 26.29 22.25 28.74 29.38 32.36 30.69 29.90 30.19 30.78 31.86 29.86 26.46 42.77 41.98 38.47 41.27 43.74 45.26 46.10 46.33
46.26 45.94 45.87 46.13 46.34 46.34 46.08 39.86 44.22 46.01 39.34 38.57 41.77 42.44 42.85 42.38 40.91 37.69 35.88 34.69 35.45 34.79 29.94 28.38 28.25 23.94 23.03 28.29 24.23 34.90 28.73 31.90 30.12 32.41 32.50 42.03 42.80 43.16 45.17 46.31 45.56 45.47 45.87 46.76
46.27 46.08 46.26 46.48 46.57 46.50 45.28 40.44 42.62 41.83 36.77 37.92 37.77 36.65 41.99 46.43 45.94 43.95 35.91 37.31 39.65 37.00 37.61 32.96 32.10 27.63 28.23 22.98 26.06 30.20 34.05 37.48 33.23 34.37 37.44 40.35 42.33 43.89 44.96 46.32 47.03 48.32 48.47 47.96
46.47 46.54 46.31 46.52 46.93 46.48 45.61 40.25 43.16 41.17 38.52 30.23 32.89 42.85 40.13 44.99 45.92 46.22 44.23 42.80 44.67 42.45 39.99 34.76 31.45 27.53 35.83 27.21 32.24 29.62 33.78 37.31 35.06 35.22 38.64 41.47 43.30 44.83 45.66 47.12 48.02 47.87 49.49 49.01
46.22 46.47 46.77 46.89 46.91 46.71 44.47 43.07 43.10 43.30 37.66 30.48 31.03 40.75 42.82 43.72 44.32 44.94 46.06 44.69 42.14 39.42 35.76 33.97 32.86 33.77 34.17 33.14 33.49 31.23 38.13 36.78 34.81 31.54 40.39 40.22 42.23 44.72 45.32 44.37 44.68 47.28 46.63 47.73
46.03 46.31 46.77 46.89 46.57 46.54 42.05 36.54 42.42 43.85 42.80 37.65 29.88 38.02 41.05 43.94 43.94 44.19 43.80 44.09 42.36 40.36 38.54 35.39 38.92 40.13 38.34 29.94 27.90 36.05 37.62 38.34 39.54 38.82 40.54 40.91 44.22 43.75 43.27 43.84 44.59 44.45 42.51 40.62
46.08 46.29 46.26 46.50 46.43 42.79 37.84 35.92 40.27 44.29 41.03 34.23 32.14 34.00 41.26 43.56 42.75 41.88 41.28 42.54 41.16 38.41 36.76 34.52 35.95 38.88 40.99 32.06 27.18 32.72 35.27 35.60 37.74 39.57 39.41 41.47 41.73 38.89 40.33 41.23 41.10 38.83 36.78 34.76
46.29 46.31 46.41 45.37 44.51 45.12 40.79 42.61 44.77 43.47 38.14 37.71 31.49 32.57 36.05 43.19 37.25 36.51 38.74 35.94 37.64 37.56 35.63 35.02 35.40 38.47 38.58 30.58 29.22 31.59 32.45 34.35 37.82 36.81 38.67 38.41 38.89 37.26 35.41 36.18 34.80 31.97 30.20 29.62
46.31 45.42 45.41 44.08 41.77 38.29 41.26 45.42 44.48 42.82 39.97 32.53 30.91 26.92 30.40 38.38 34.59 35.48 35.22 35.98 28.88 35.51 31.16 32.98 35.85 30.31 24.81 25.74 27.36 28.44 29.68 30.66 32.34 34.88 37.61 37.57 35.58 33.29 32.10 30.70 29.50 27.94 26.18 25.90
45.15 43.23 38.15 33.37 39.75 45.51 45.08 40.64 35.87 34.41 36.83 37.32 31.25 29.87 32.27 35.70 32.03 32.56 32.06 32.87 31.53 31.10 32.65 35.36 24.61 24.30 26.79 26.60 27.66 28.07 29.65 32.80 33.69 33.19 33.72 33.14 33.39 31.50 28.79 27.81 27.57 26.73 25.77 25.10
41.17 34.83 34.76 42.39 45.80 40.46 35.97 31.50 31.47 31.68 27.73 30.79 29.47 29.35 31.72 34.96 29.43 30.44 30.74 32.20 32.56 28.40 30.83 29.95 23.75 20.22 23.60 25.44 25.83 27.56 28.88 30.20 29.66 31.83 30.64 30.14 29.50 28.60 26.77 25.51 25.45 24.59 23.94 23.21
41.32 41.21 42.41 41.06 37.08 31.36 26.57 27.07 26.07 28.69 29.05 31.23 31.32 29.47 31.74 31.93 33.31 28.45 32.93 30.52 30.99 26.49 29.27 22.28 16.86 21.42 24.04 24.83 24.56 25.29 26.78 26.61 25.77 26.59 25.70 25.86 25.17 24.98 23.95 23.08 22.31 22.19 21.93 21.78
39.62 33.75 28.66 28.56 22.93 15.82 14.58 18.00 23.52 23.82 28.45 29.02 31.77 32.06 32.86 33.51 33.34 30.56 31.21 29.19 26.70 27.99 19.38 15.03 17.44 22.12 23.88 23.94 23.83 23.33 24.95 24.78 24.30 24.09 24.46 24.02 23.34 23.60 23.07 21.81 22.08 21.73 20.92 21.08
26.88 22.73 12.53 14.47 11.56 17.24 17.26 16.70 16.31 24.98 27.81 28.59 30.75 31.83 31.83 31.88 29.99 29.48 25.01 23.22 21.87 12.02 7.67 12.38 17.61 20.98 21.69 23.03 23.34 22.05 21.52 22.19 21.95 21.39 21.94 21.39 20.66 20.77 21.63 21.34 21.02 19.58 18.44 19.25
23.19 22.01 12.62 15.42 19.32 19.89 18.65 20.64 21.01 25.71 29.20 29.42 31.50 29.85 28.43 23.63 20.64 20.91 19.27 12.24 8.86 11.29 7.15 12.42 18.35 20.08 21.61 21.97 22.34 21.98 21.44 21.44 21.25 21.44 20.46 20.23 20.12 19.47 19.54 20.85 20.76 20.35 19.90 19.44
22.27 19.32 14.31 16.07 14.79 16.60 18.70 19.86 18.86 26.55 27.14 30.39 29.85 25.21 21.72 16.65 17.09 13.63 11.74 11.25 7.56 9.48 13.99 18.60 20.05 19.30 19.47 19.44 19.76 19.43 20.52 21.24 21.06 21.58 21.33 20.70 19.80 18.91 18.88 19.54 18.97 18.70 18.34 17.23
19.22 14.36 19.01 12.33 13.11 15.58 18.26 21.39 22.80 27.23 26.70 20.50 22.38 16.94 17.54 21.24 14.44 10.69 13.48 10.26 13.31 15.08 15.41 16.93 17.66 17.83 17.86 18.91 19.25 19.62 19.56 18.77 18.60 19.49 19.72 20.34 20.90 20.37 18.75 16.89 18.09 18.31 18.04 17.15

GFSNW_sfc_wetblb_060.txt.gz
Wetbulb
45.00 45.52 45.95 46.85 47.61 47.60 45.61 40.77 32.02 45.70 47.07 34.55 33.95 30.70 32.61 35.75 33.89 37.99 36.40 37.24 35.30 33.26 33.72 32.17 33.93 35.61 38.24 40.87 43.15 37.76 40.38 36.49 31.70 35.81 40.75 41.65 38.45 37.21 38.29 31.30 29.90 31.12 29.06 32.72
45.30 45.68 46.09 47.23 47.60 47.13 42.80 36.55 36.66 45.53 44.50 29.54 30.29 34.17 32.67 33.33 32.77 34.43 34.78 33.66 35.91 36.00 32.62 29.45 34.32 35.76 40.63 40.29 40.32 41.67 43.03 34.79 28.60 31.68 36.28 38.17 35.92 37.94 38.72 37.53 34.44 30.20 29.64 31.88
45.20 45.84 46.57 46.84 46.84 47.27 43.76 36.14 30.00 36.57 39.87 37.82 32.51 30.82 30.45 30.18 35.36 33.41 35.65 34.86 35.64 33.96 31.60 34.55 32.15 33.50 38.54 39.99 39.48 45.38 44.88 39.16 32.96 29.18 33.12 37.37 34.38 37.29 38.78 37.79 30.11 30.17 31.21 35.22
45.58 46.14 46.60 46.76 46.81 47.17 43.55 36.65 31.19 36.30 30.40 32.29 33.55 33.49 31.73 30.01 29.90 34.11 35.67 32.89 33.31 32.29 29.03 29.94 29.70 34.96 35.30 38.98 42.01 44.05 41.50 34.82 37.29 38.07 38.93 38.96 37.97 37.90 37.27 35.34 35.26 32.32 34.61 35.50
45.73 46.09 46.36 46.07 46.48 46.91 40.89 31.62 33.92 37.64 35.00 35.74 33.82 33.28 30.07 30.67 31.50 32.56 30.96 30.75 33.18 33.18 29.72 30.74 28.69 31.77 32.62 32.94 38.19 37.81 41.84 33.44 35.14 34.04 38.52 38.19 35.39 37.45 37.93 37.38 37.20 36.62 37.52 36.73
45.68 45.90 45.62 45.85 46.28 46.06 39.61 40.31 40.20 38.81 35.76 34.16 31.79 31.58 32.06 31.21 34.14 33.84 34.73 33.63 31.89 30.58 32.67 35.36 36.15 35.99 36.36 36.53 34.60 34.92 36.44 34.04 31.61 29.60 35.81 34.89 29.52 34.51 37.09 38.76 39.97 38.73 35.66 39.26
45.71 45.52 45.49 45.63 46.08 46.03 42.87 42.00 40.53 35.30 31.46 32.83 32.53 33.65 34.29 33.13 33.77 31.92 36.08 35.74 31.96 36.48 38.72 38.20 37.09 35.99 35.57 35.49 35.39 38.43 36.40 34.62 33.16 29.86 31.64 25.37 35.98 40.73 40.63 38.35 40.00 40.63 40.43 41.29
45.84 45.93 45.96 46.00 46.08 46.63 43.30 43.77 40.31 36.43 30.46 35.07 33.74 34.22 33.43 34.67 35.70 34.45 34.67 36.39 39.11 39.00 35.89 30.79 28.98 27.17 29.62 32.50 37.55 37.93 41.46 35.96 31.93 27.25 27.01 30.95 34.61 38.26 37.66 36.76 37.29 41.38 40.08 41.76
45.61 46.17 46.33 46.44 46.58 46.96 44.69 43.23 45.31 39.61 33.46 32.58 36.52 34.36 35.20 31.89 31.43 32.31 34.32 39.83 39.99 38.01 32.45 30.09 26.25 20.75 26.32 27.49 32.10 36.97 38.10 36.98 31.45 31.55 25.20 22.76 31.76 40.57 43.54 42.92 32.90 42.12 42.66 42.08
45.63 45.78 46.08 46.42 46.68 46.95 45.00 42.93 45.17 41.81 34.77 37.54 38.36 33.76 34.44 36.87 34.64 31.74 34.39 35.72 33.62 36.28 29.56 28.68 27.46 25.86 29.67 24.30 26.46 31.28 32.79 32.62 31.14 30.24 28.72 29.83 37.53 41.43 44.02 32.01 31.67 41.85 43.09 43.70
45.75 45.92 45.92 46.33 46.60 46.83 45.28 42.37 44.93 40.66 33.65 38.03 40.37 40.88 37.25 36.71 36.02 30.64 34.43 34.21 31.97 29.31 25.80 26.54 28.61 23.57 27.42 26.84 30.19 31.56 30.99 30.38 26.83 30.68 28.11 23.66 40.07 40.29 37.91 40.16 42.28 42.97 43.71 44.13
45.51 45.75 45.87 45.64 45.47 46.35 46.81 37.93 45.03 44.43 39.12 38.53 42.77 43.93 43.55 42.47 41.29 37.80 37.66 33.98 33.02 33.23 28.20 27.27 27.73 23.60 21.72 28.01 24.05 33.36 26.87 31.10 28.84 30.75 30.48 38.14 39.93 40.95 43.51 44.31 43.45 44.16 44.39 45.38
46.10 45.96 46.07 46.05 45.89 45.72 44.97 40.99 41.90 39.54 35.00 37.75 37.89 37.55 41.97 44.40 43.99 44.49 34.95 35.74 37.94 34.96 35.96 31.02 29.83 25.71 26.99 22.17 25.16 29.20 32.23 36.04 31.81 32.09 34.29 37.42 38.92 40.63 42.78 43.51 43.98 45.62 46.88 46.66
46.10 46.05 46.22 46.08 46.12 46.06 45.19 40.91 42.79 40.54 38.03 32.35 35.55 42.34 41.53 45.26 45.86 45.26 43.78 41.31 43.29 40.31 38.46 32.44 29.16 27.27 33.80 25.79 30.44 28.15 31.77 34.87 33.19 32.55 36.95 39.41 40.13 41.51 42.58 41.73 44.53 44.86 46.12 46.84
46.42 46.31 46.22 46.54 46.40 46.35 44.52 43.12 43.03 43.16 38.44 31.31 32.43 40.03 41.53 42.76 43.41 42.61 44.42 43.81 41.26 39.01 35.60 29.75 31.62 31.92 33.05 31.19 32.14 30.20 36.70 34.63 31.51 29.59 38.26 38.34 38.76 41.12 39.96 40.16 41.18 40.37 39.84 43.02
46.26 46.74 46.70 46.67 46.63 46.26 41.56 36.14 42.33 43.98 44.13 37.01 29.04 37.86 40.10 40.44 40.56 40.81 42.03 43.24 42.39 39.35 37.20 34.62 35.24 38.25 35.68 31.95 26.63 35.69 37.50 37.39 37.90 37.30 38.23 37.83 38.97 40.45 37.61 36.28 38.08 37.24 35.51 33.54
46.26 46.47 46.77 46.51 46.27 42.87 38.01 34.24 40.72 44.41 43.77 36.40 30.95 32.63 40.31 41.41 41.33 40.02 39.86 42.63 42.60 41.41 38.38 35.92 34.18 35.66 39.18 33.27 30.35 32.06 33.89 33.81 35.07 38.85 37.81 37.70 38.41 35.91 35.44 34.95 35.51 34.41 31.57 29.67
45.98 46.12 46.42 46.11 44.54 44.57 41.47 41.53 44.12 43.83 39.58 37.10 30.07 32.05 36.10 42.06 36.90 35.93 40.90 38.44 40.05 39.23 37.50 35.39 33.66 36.14 35.84 31.58 27.83 30.94 31.38 31.60 34.10 34.32 35.85 37.37 37.76 35.53 32.73 32.67 31.49 28.88 26.74 26.26
46.20 46.27 44.62 42.85 39.43 37.52 40.76 44.76 43.70 42.43 38.20 29.59 29.42 29.37 29.65 39.51 36.08 37.48 36.37 38.31 31.76 36.64 32.41 31.34 34.27 31.63 26.73 24.04 25.22 26.85 27.82 28.54 29.96 32.57 34.24 36.73 35.60 31.64 29.98 28.98 28.20 26.32 25.31 25.42
44.31 42.01 36.59 31.62 40.18 44.86 44.52 40.06 36.03 35.19 34.78 37.19 31.35 32.44 31.22 35.92 32.86 32.38 33.37 32.15 29.28 26.36 29.78 31.07 24.97 22.34 24.86 25.56 26.33 27.00 27.31 29.25 30.18 29.68 30.10 29.45 30.29 29.21 26.53 25.73 25.91 25.71 24.63 23.99
40.30 36.88 35.38 41.54 44.15 39.12 36.12 30.82 29.83 31.37 29.89 33.00 32.09 32.30 32.59 36.32 28.29 31.14 30.87 30.20 31.76 27.71 27.57 26.81 23.62 19.36 21.90 24.47 24.26 25.55 26.86 27.39 27.13 28.42 27.57 26.89 26.90 26.06 25.22 23.82 23.75 23.15 22.58 21.34
41.42 41.01 41.68 38.10 33.49 30.43 28.46 27.57 28.84 29.59 28.65 31.16 32.29 32.29 34.11 34.17 31.70 30.26 32.50 29.30 31.02 24.12 27.36 21.86 14.62 20.25 22.82 23.99 23.14 23.70 24.86 25.04 24.54 25.32 24.51 24.80 24.37 24.34 23.45 22.49 21.25 20.73 20.48 19.96
37.34 32.65 27.18 27.18 23.20 17.71 18.98 17.39 20.65 22.76 27.12 28.47 32.11 31.37 32.45 32.44 32.92 31.52 31.05 28.49 22.45 26.19 18.35 14.06 15.64 20.45 22.03 22.87 22.69 22.24 23.57 23.79 23.47 23.02 23.10 22.67 21.71 21.95 21.20 19.69 20.07 20.32 19.59 19.66
26.11 20.99 11.53 12.66 8.72 14.21 15.32 14.44 15.63 24.65 27.47 27.93 31.53 31.71 30.72 30.95 28.65 27.48 23.29 19.48 19.47 10.08 8.09 10.80 16.43 19.90 20.55 21.35 22.27 20.78 20.37 20.88 20.41 20.17 20.33 19.79 19.13 18.90 19.57 19.43 19.49 18.47 17.44 17.70
21.15 18.99 9.11 12.80 18.44 19.90 20.61 21.73 22.63 25.47 27.77 29.29 29.49 24.17 26.66 19.28 15.27 18.94 18.71 12.05 9.22 11.10 7.02 13.05 17.14 18.49 19.06 19.15 20.62 20.99 20.43 19.86 19.30 19.67 18.90 18.39 18.36 17.87 17.62 18.39 18.38 17.98 17.26 17.24
20.16 17.36 12.22 13.67 11.70 14.00 13.77 16.30 17.42 24.89 25.35 25.12 25.95 18.67 15.40 12.99 15.28 11.56 9.32 10.57 6.43 7.55 12.12 16.39 17.62 17.58 18.29 18.64 19.30 19.17 19.71 19.89 19.90 19.88 19.64 19.02 17.92 17.04 16.99 17.60 16.88 16.36 15.94 15.07
16.86 14.89 15.32 11.91 11.52 11.17 14.76 17.48 20.90 25.39 23.74 18.32 21.50 14.84 15.86 20.59 11.90 8.20 11.90 3.74 7.32 11.31 14.31 16.70 17.61 17.23 17.25 18.13 18.24 18.24 18.39 17.48 17.69 18.01 18.90 18.39 18.79 18.45 16.81 14.47 15.65 16.37 16.29 15.22

GFSNW_sfc_wetblb_063.txt.gz
Wetbulb
45.34 45.20 45.05 45.20 45.55 46.67 43.50 39.12 30.37 44.75 47.15 33.99 34.79 30.93 32.55 35.54 33.78 37.78 36.28 36.74 35.33 33.57 33.86 32.24 33.34 33.82 37.05 40.40 40.22 38.95 42.12 38.57 33.17 36.87 42.12 43.96 42.75 40.99 41.40 35.89 33.34 35.38 34.52 36.74
44.99 44.94 44.58 45.17 45.93 46.06 40.96 35.92 35.38 44.59 43.88 28.17 29.54 34.39 32.73 33.70 32.97 34.54 34.69 33.92 35.62 37.00 33.47 30.38 33.99 35.10 40.19 40.35 39.55 37.90 43.63 36.78 31.50 33.76 39.02 41.15 39.48 41.23 41.38 40.06 37.95 35.85 33.51 36.38
44.99 44.70 44.57 45.00 45.61 46.06 42.31 35.90 29.73 35.95 38.59 37.51 32.34 31.35 30.78 30.08 35.17 33.71 34.60 34.55 36.18 34.24 32.51 35.27 32.36 33.14 37.79 40.53 40.90 44.06 45.22 40.01 34.74 30.86 34.82 39.18 36.53 38.72 40.70 40.68 35.01 35.70 36.36 38.99
44.41 44.46 44.44 44.80 46.05 46.23 41.74 35.87 30.81 35.05 28.46 29.93 32.71 33.16 32.06 29.55 29.57 34.64 35.63 32.27 33.58 32.69 29.24 30.77 30.94 34.65 35.36 38.12 41.83 42.41 43.07 35.40 38.27 38.64 39.15 39.15 38.36 38.16 39.56 37.68 39.12 36.08 38.84 38.91
44.12 43.94 44.57 45.28 45.95 46.23 39.34 32.16 33.72 36.02 33.11 34.97 31.59 33.25 30.86 30.09 31.49 33.30 31.40 31.42 33.66 34.13 30.91 31.96 30.22 32.91 33.76 33.43 37.54 37.03 38.78 36.04 37.29 35.08 38.82 38.68 36.95 39.06 38.98 39.14 39.44 39.33 40.14 40.25
43.94 44.03 44.83 45.40 46.08 45.52 38.24 39.46 39.56 36.59 32.59 32.05 32.00 32.54 32.16 31.85 34.53 35.09 36.00 34.81 33.17 31.49 33.37 36.56 37.13 37.63 37.34 36.90 34.34 34.12 35.01 36.13 34.14 30.96 35.49 35.98 33.30 36.68 38.08 39.72 40.94 40.55 37.04 42.63
44.76 45.04 45.07 45.52 45.89 45.46 41.27 40.61 39.67 33.92 28.42 31.69 31.60 33.46 33.90 33.04 34.04 32.30 35.46 36.64 33.89 36.91 40.56 40.31 38.99 36.86 36.34 36.40 35.99 37.68 33.87 35.79 34.20 31.36 32.36 24.87 37.60 41.69 40.96 40.08 41.03 42.28 42.01 42.87
45.04 45.07 45.25 45.13 45.18 45.49 42.23 42.29 39.66 35.38 29.41 32.01 33.37 33.79 33.96 35.31 36.15 34.52 34.72 36.92 39.08 41.13 38.38 33.11 30.86 30.08 31.39 33.19 35.06 35.20 37.19 34.48 33.05 29.64 29.56 32.64 36.45 39.80 40.33 39.43 39.16 42.63 42.28 43.93
45.11 45.06 44.76 44.66 45.29 45.68 43.44 42.20 43.47 39.64 32.12 30.38 35.21 34.47 35.21 32.40 32.45 33.19 35.23 40.01 42.21 40.37 34.17 31.04 25.95 24.53 27.71 28.53 33.72 38.04 36.45 37.40 35.30 31.86 28.04 25.13 35.36 41.67 44.41 44.02 34.71 43.54 44.20 43.39
45.25 45.34 45.29 45.31 45.63 46.10 43.89 42.21 44.01 39.59 32.90 36.47 36.96 33.77 35.20 37.15 34.95 32.76 34.43 35.75 35.90 39.33 32.53 29.00 27.80 27.45 31.38 26.72 28.65 30.31 32.26 33.53 30.92 31.52 30.00 33.15 39.32 42.62 44.54 33.22 35.05 44.66 44.92 45.37
45.42 45.22 45.62 45.80 45.73 46.14 44.41 41.67 44.62 40.33 33.44 37.28 40.29 40.74 37.85 37.66 36.52 32.24 35.55 34.78 34.48 33.59 29.96 29.49 28.96 28.36 30.71 29.92 32.36 33.53 32.04 30.92 31.13 32.70 30.14 26.35 41.14 42.44 37.62 41.82 44.94 45.10 45.98 46.18
45.65 45.56 45.30 45.09 44.76 46.33 46.13 40.46 44.95 44.24 38.48 37.16 42.89 43.07 44.51 43.09 41.78 38.65 38.18 36.40 34.34 34.81 31.82 31.86 32.47 29.41 29.35 31.12 27.48 35.37 30.34 35.65 34.24 34.81 34.76 40.20 42.83 42.41 43.54 44.41 43.51 44.54 44.84 46.31
45.47 45.82 45.84 45.82 45.35 45.87 45.47 39.80 43.45 41.94 37.18 36.52 37.89 38.29 43.38 44.96 44.77 45.86 36.78 38.03 39.85 37.22 38.59 34.65 33.54 30.17 31.82 29.17 30.25 32.60 35.69 37.96 35.68 35.42 37.66 39.79 41.70 43.63 44.05 43.42 43.62 43.84 42.03 43.32
45.99 45.73 46.05 45.82 45.65 45.37 42.57 40.77 42.15 40.67 37.67 33.07 35.56 43.08 41.51 46.31 46.07 44.79 44.38 42.94 43.39 41.58 41.03 36.02 33.16 32.36 35.72 31.99 33.69 33.02 35.59 37.33 35.80 35.51 38.67 41.29 42.01 41.68 40.84 41.45 42.05 40.77 40.27 38.65
46.06 46.03 46.28 46.26 45.92 45.45 44.02 43.39 42.35 42.99 38.79 32.28 34.75 40.21 42.02 44.35 44.58 44.00 44.71 43.68 42.21 41.66 38.09 34.08 34.30 35.55 36.77 35.05 35.38 34.39 38.71 36.82 35.63 34.60 37.13 36.72 39.00 42.13 39.39 38.91 38.37 37.48 36.21 35.13
45.98 46.42 46.63 46.42 45.58 45.17 40.85 34.68 42.15 43.90 43.53 36.41 31.92 38.81 39.33 41.58 43.97 43.05 42.69 42.91 42.30 41.43 38.70 37.05 38.54 40.01 38.67 32.96 31.55 36.27 37.83 37.16 36.16 35.50 38.02 38.56 40.16 40.15 37.59 36.26 36.64 35.39 32.50 31.29
45.96 46.42 46.23 46.28 45.58 43.17 37.99 35.86 40.47 44.38 44.86 36.09 32.30 33.11 40.01 41.12 40.97 40.71 41.46 43.32 41.75 41.11 39.09 37.41 37.73 39.20 39.88 34.66 31.26 33.31 33.12 33.46 34.09 36.44 36.24 38.20 38.59 36.18 34.94 34.23 34.52 33.27 31.55 29.93
46.10 46.15 46.07 46.47 45.23 44.01 40.89 42.77 44.53 44.39 40.20 37.81 31.51 31.86 35.91 41.53 36.34 36.26 41.76 39.03 40.13 39.67 37.80 37.25 36.97 38.80 37.98 31.09 28.57 29.92 29.79 30.64 33.53 31.95 33.79 34.38 36.45 34.70 32.20 32.29 31.50 29.79 28.36 27.84
46.26 46.22 45.58 41.33 38.64 36.75 40.66 44.68 44.71 44.06 39.41 31.92 31.29 30.48 29.23 39.92 36.97 38.02 37.64 39.23 32.66 37.62 34.06 33.58 37.03 34.11 30.59 24.01 24.95 26.15 27.01 27.17 28.38 30.58 32.24 33.15 32.75 29.75 28.63 27.84 27.52 26.48 25.63 25.10
43.97 41.87 37.62 31.81 36.82 44.95 44.24 40.34 35.33 36.24 36.58 37.54 30.26 34.68 31.99 37.12 35.00 32.89 33.62 33.91 31.95 30.72 33.26 33.11 28.49 21.55 24.32 24.93 25.73 25.42 25.97 27.58 28.30 27.12 27.67 26.68 26.94 26.88 25.26 24.55 25.14 25.07 23.52 22.77
40.57 36.88 34.98 41.23 44.55 39.97 36.54 32.10 29.45 29.82 28.77 33.17 33.73 33.55 32.40 34.41 32.15 32.04 33.64 32.22 32.29 28.00 29.48 30.82 24.52 19.61 21.83 24.89 23.72 24.38 25.52 26.02 25.96 27.41 26.64 26.23 26.11 25.21 24.00 22.71 22.98 22.35 21.41 20.01
40.90 39.22 39.00 36.33 31.83 31.31 27.78 27.89 29.53 29.42 28.56 31.86 32.09 32.60 34.72 33.73 35.44 33.53 33.10 31.06 31.50 25.13 27.70 23.39 15.63 19.88 22.21 23.11 22.32 22.64 24.21 24.39 23.76 24.32 23.47 23.67 23.21 22.99 22.16 20.99 20.02 19.81 19.36 18.75
35.60 31.14 26.12 26.57 21.16 16.12 17.81 19.49 21.62 22.23 26.04 28.89 31.96 31.80 32.85 33.68 34.47 32.78 32.13 27.76 22.12 25.35 18.08 13.97 16.26 19.87 21.31 21.82 22.07 21.74 22.72 22.55 22.09 21.73 21.85 21.38 20.54 21.09 20.03 18.57 19.40 18.92 17.58 18.10
25.84 21.78 13.10 13.13 12.19 16.22 17.23 16.90 18.57 24.91 26.96 27.28 32.45 30.22 29.29 28.79 27.91 26.29 22.74 20.91 21.30 13.51 11.13 9.96 16.43 19.17 20.36 21.34 22.19 20.49 19.79 20.25 19.63 19.44 19.44 18.62 18.05 17.80 18.67 18.87 18.51 16.99 15.59 16.03
20.83 19.48 11.23 12.62 17.73 18.98 20.09 21.44 23.39 25.31 27.23 30.09 28.75 24.02 26.00 19.82 17.94 20.41 19.50 14.43 10.10 11.85 10.20 13.96 17.55 18.82 19.09 19.28 20.18 20.09 19.69 19.36 18.92 19.35 18.24 17.62 17.25 16.49 16.17 17.46 17.62 17.18 16.32 16.12
19.58 16.44 13.92 14.79 14.60 14.89 16.03 18.37 20.50 25.23 25.25 27.87 25.62 19.84 15.60 13.88 14.89 12.10 10.37 11.54 8.28 10.22 14.24 16.95 18.38 17.56 18.01 18.13 18.66 19.06 19.48 19.61 19.24 19.06 18.66 17.94 16.86 16.30 16.35 16.77 16.48 15.96 15.30 13.91
16.78 13.95 15.01 13.02 13.86 13.91 16.30 18.58 20.62 25.30 25.32 18.81 20.33 14.83 16.03 18.91 10.81 8.23 11.78 8.31 10.64 13.05 15.81 17.57 17.87 17.16 17.43 18.00 17.94 18.16 18.13 17.92 18.16 18.69 18.45 17.72 18.10 17.64 15.99 13.86 15.23 15.73 15.24 14.27

GFSNW_sfc_wetblb_066.txt.gz
Wetbulb
45.15 44.88 45.66 45.92 45.57 45.86 44.24 40.84 31.38 47.34 49.79 34.61 36.53 30.83 34.41 37.58 37.51 40.08 38.20 38.43 37.32 36.19 36.29 34.53 35.18 34.08 36.29 40.84 41.74 39.37 42.92 41.39 37.66 39.96 45.12 46.89 46.09 43.93 43.83 38.63 37.55 40.46 40.23 40.68
44.53 44.91 45.11 45.46 45.89 45.55 43.87 35.16 36.44 46.72 46.36 30.55 31.36 34.07 35.10 36.72 36.13 37.05 37.11 36.16 38.17 38.95 35.81 32.40 35.65 35.37 40.16 40.90 39.26 39.73 44.04 39.31 34.42 36.07 41.35 44.23 42.88 44.20 44.20 43.90 43.15 38.97 36.72 40.13
44.10 44.54 45.09 45.37 45.82 45.63 43.83 37.22 30.79 37.18 40.19 38.85 34.34 32.40 32.51 33.00 38.47 37.55 38.76 37.21 38.44 37.20 35.38 37.45 34.53 35.36 37.03 39.66 41.10 42.96 44.91 41.56 37.40 33.36 36.58 40.96 39.51 41.91 43.90 42.77 38.16 38.74 39.64 41.80
44.08 44.46 45.09 45.26 45.79 45.61 43.62 36.51 32.49 36.81 30.79 32.29 33.98 33.97 33.64 31.97 32.49 37.53 38.60 35.78 35.60 34.74 31.85 33.86 33.67 36.78 37.40 38.75 41.14 40.67 42.17 36.79 39.70 40.63 40.96 41.20 40.53 40.55 42.23 40.94 42.00 39.00 41.52 42.20
43.74 44.39 44.63 44.90 45.46 45.57 39.45 33.28 33.55 37.18 35.16 35.49 33.02 31.36 31.43 31.30 34.74 35.30 34.32 34.06 35.79 36.88 33.56 35.12 32.65 35.43 36.43 34.72 38.75 38.24 40.90 35.74 37.67 35.88 39.89 40.60 39.14 41.90 42.46 43.06 43.18 42.51 43.17 43.01
43.64 44.08 44.42 44.66 45.10 45.21 39.69 39.41 39.95 36.98 34.02 33.60 32.22 32.49 33.47 33.28 35.95 37.61 38.70 37.28 35.15 34.85 36.94 39.12 40.42 40.72 40.16 39.53 36.81 35.53 35.96 35.12 34.92 31.38 37.76 36.91 34.46 40.32 41.46 42.14 43.85 43.71 41.05 44.88
43.73 44.52 44.64 44.76 44.99 45.13 43.06 40.55 40.34 32.68 28.23 32.13 32.23 33.77 33.18 34.00 35.36 35.49 37.97 38.41 35.95 39.06 43.36 42.95 42.06 40.98 40.02 40.13 39.51 39.76 35.24 36.92 35.95 32.81 34.53 25.16 39.82 44.72 44.27 43.15 43.96 44.96 44.73 46.28
45.06 44.85 44.61 44.66 44.95 45.63 44.72 44.37 39.15 35.63 30.33 33.14 33.05 33.88 34.71 36.22 37.58 36.99 36.60 38.25 39.92 41.92 39.43 35.41 32.99 34.16 33.75 36.15 38.72 38.89 39.85 36.96 35.36 30.37 30.73 36.13 38.85 41.95 41.84 40.96 41.06 44.84 44.86 46.83
45.63 45.58 45.13 44.80 44.99 45.61 44.68 41.51 43.10 38.22 33.87 32.46 36.36 34.65 35.83 33.30 35.07 35.25 36.38 40.61 42.63 40.70 36.90 33.63 27.75 27.73 30.67 30.89 34.68 39.89 39.02 39.34 36.28 33.75 28.53 26.16 38.01 43.80 46.55 46.07 36.94 44.65 46.06 46.16
45.57 45.31 45.89 45.06 45.09 45.71 43.40 41.05 43.23 38.93 32.14 37.84 38.88 34.88 35.19 38.78 37.18 34.76 36.61 37.43 37.13 39.29 34.85 31.12 29.72 29.56 34.49 29.83 30.65 31.24 32.00 33.90 31.16 32.37 31.51 35.11 41.99 44.30 46.29 34.52 37.32 45.35 46.10 46.44
45.35 45.37 45.64 45.59 45.00 45.04 43.08 40.67 43.85 39.86 34.81 37.77 40.61 41.61 38.56 39.16 38.54 33.75 37.13 35.95 36.50 36.07 32.07 31.84 32.28 32.07 34.38 32.91 35.56 34.57 32.91 31.76 31.40 32.98 29.89 28.84 44.68 43.78 38.51 43.24 46.34 47.06 47.59 48.29
45.45 45.42 45.33 45.50 45.43 45.41 45.02 39.59 44.13 44.23 38.63 37.90 43.47 44.39 45.70 44.13 43.20 40.24 39.66 36.93 37.45 38.11 35.17 36.31 36.93 33.17 36.64 34.43 30.70 39.12 33.66 38.00 36.60 37.02 36.77 44.79 46.33 44.90 47.24 46.84 45.69 46.79 46.46 46.67
46.08 46.00 45.56 45.30 45.77 45.82 45.05 41.62 42.99 41.78 37.18 37.16 39.55 37.87 44.43 47.19 47.20 48.76 38.08 39.38 41.40 40.95 43.66 40.35 38.35 33.45 38.00 32.66 34.07 36.67 39.41 41.47 38.72 37.90 41.14 42.96 44.80 46.46 46.39 46.58 45.74 45.39 45.27 44.85
46.30 46.21 45.52 45.54 44.90 45.30 45.10 41.40 43.65 41.79 37.84 33.85 36.51 44.30 40.88 46.14 47.64 47.08 46.42 43.53 44.43 43.62 43.36 39.28 38.01 35.39 40.63 37.34 37.85 37.03 40.03 40.62 37.74 38.28 41.64 43.61 44.46 45.24 44.11 44.54 45.38 44.00 43.41 42.38
46.37 46.46 46.21 45.93 45.58 44.76 44.70 43.83 44.78 43.96 40.16 34.06 35.48 41.51 43.32 44.95 45.60 45.35 45.00 43.29 41.73 40.77 38.57 37.99 36.86 41.14 39.96 40.93 40.57 37.96 42.89 39.67 38.10 37.13 39.97 38.78 40.85 42.78 41.91 41.58 41.97 41.82 39.71 38.67
45.96 46.46 46.40 46.16 45.04 44.17 40.94 34.16 41.54 45.08 45.64 37.15 32.57 41.59 40.68 43.41 45.17 43.86 43.16 43.38 41.93 40.93 39.35 39.39 41.86 42.82 41.21 36.83 34.86 40.47 41.82 41.08 40.58 39.46 41.09 40.97 42.36 40.38 38.38 37.33 37.52 39.02 38.12 36.84
46.05 46.23 46.16 45.87 44.44 42.79 39.84 38.98 41.10 44.01 45.22 37.51 34.25 35.16 40.20 42.38 43.21 43.13 42.40 43.43 41.52 40.47 39.14 38.68 39.57 40.67 41.19 37.39 34.08 38.10 35.66 36.39 37.61 37.61 38.07 39.43 37.21 36.28 35.54 35.95 35.91 34.87 33.24 32.08
46.10 46.12 45.93 45.49 44.00 43.86 42.08 45.03 44.23 44.51 41.11 40.38 33.99 33.82 36.07 42.08 37.47 36.89 42.30 39.05 41.14 40.00 38.83 38.87 39.11 40.71 39.84 33.51 30.18 30.77 31.50 34.45 34.90 34.11 34.35 34.38 36.65 34.44 32.06 32.89 33.39 31.05 28.93 27.59
45.98 46.08 45.79 42.34 40.26 38.53 42.05 44.79 45.15 46.77 41.06 34.97 35.33 32.41 31.17 41.00 38.13 38.63 39.66 40.07 34.73 38.96 35.21 37.20 37.72 36.64 30.58 25.05 26.37 26.56 27.55 28.71 29.49 32.08 34.03 32.31 31.01 29.22 28.39 28.24 27.81 27.04 25.03 25.24
43.44 41.52 35.76 31.83 38.12 45.18 44.31 39.71 35.29 36.45 37.66 39.34 36.04 37.79 33.45 39.17 37.81 36.43 36.39 38.24 35.32 32.74 34.06 36.40 34.15 24.63 26.50 26.10 26.52 26.76 27.70 28.15 29.11 28.08 30.39 29.80 29.44 28.14 26.42 25.47 25.99 25.63 25.02 23.76
42.56 37.15 35.03 41.41 44.94 41.36 37.09 32.90 33.66 34.10 32.28 36.90 36.77 36.67 34.00 38.28 34.63 33.70 37.41 34.18 35.06 30.46 32.25 32.68 29.61 24.83 24.07 26.50 25.48 26.27 26.84 27.39 27.55 28.41 27.97 27.93 27.95 27.45 25.93 24.70 23.97 23.68 22.47 21.15
41.44 38.88 38.60 36.26 34.05 35.06 32.29 30.74 31.69 31.54 30.20 33.16 33.05 34.24 37.13 35.84 38.15 35.50 34.16 33.43 34.02 28.95 33.57 31.96 25.11 21.64 24.12 24.66 24.05 24.36 25.27 25.70 25.15 25.79 25.15 25.45 25.12 25.01 23.96 22.68 21.44 20.89 20.33 19.78
39.13 35.12 28.84 30.29 27.36 24.33 26.56 24.46 27.02 28.52 30.13 31.26 33.09 32.74 35.35 33.51 35.96 34.37 35.77 30.55 27.30 31.33 27.95 22.48 20.29 22.19 23.77 23.85 24.03 23.40 24.48 24.53 24.09 23.33 23.65 23.22 22.58 22.89 21.49 19.78 20.14 20.19 18.94 19.44
29.86 27.34 19.36 22.73 20.33 21.92 23.09 25.15 26.63 28.77 30.33 30.03 34.72 32.18 33.40 34.06 31.54 30.17 27.55 25.37 28.37 23.32 20.76 16.43 21.23 21.00 22.00 22.72 23.34 22.46 21.00 21.21 21.07 20.68 20.39 19.61 19.32 19.38 19.54 19.34 19.34 18.15 16.96 17.29
24.41 24.83 17.86 19.64 22.85 24.40 24.40 26.38 28.12 29.49 30.84 33.25 33.12 31.78 32.68 28.12 26.73 27.40 25.98 22.37 18.60 20.34 19.72 20.12 21.47 21.58 21.53 21.61 22.18 20.96 20.60 20.13 19.97 20.09 19.03 18.48 18.62 18.25 17.94 18.68 18.85 18.02 17.02 16.65
23.50 21.04 19.62 22.92 24.37 22.97 24.83 25.37 27.17 29.40 30.60 33.62 33.27 28.66 25.82 21.91 23.64 21.30 17.29 21.00 17.66 17.55 20.31 21.26 21.80 20.18 20.10 20.12 20.67 21.09 21.47 21.07 20.76 20.28 19.60 18.78 17.95 17.35 17.58 17.69 17.01 16.70 16.24 15.01
20.75 19.59 22.93 22.38 22.85 21.27 23.27 24.91 26.10 29.74 31.48 27.86 28.09 23.08 19.25 24.45 19.55 15.12 19.20 17.61 18.34 19.80 20.58 21.93 21.48 20.61 19.85 20.18 20.34 20.32 20.84 20.73 20.61 20.18 19.75 19.28 19.83 19.42 18.13 16.31 17.71 17.36 16.80 15.42

GFSNW_sfc_wetblb_069.txt.gz
Wetbulb
44.90 44.84 44.37 45.45 45.80 46.15 43.80 41.12 33.26 48.00 49.73 35.64 37.23 31.64 36.07 39.40 38.69 41.51 39.09 39.47 38.14 37.52 38.49 36.99 36.52 36.53 37.76 40.25 39.65 37.83 41.90 39.20 35.22 39.95 46.43 46.92 45.21 44.22 44.57 39.50 38.14 41.95 41.33 41.41
44.61 44.59 44.79 45.02 45.31 45.46 43.38 35.60 37.68 47.31 46.65 31.24 33.01 36.00 36.36 38.32 37.18 38.27 38.39 37.43 39.11 40.46 37.46 34.24 38.12 38.82 41.90 40.62 38.26 37.50 39.23 38.01 31.83 34.73 41.84 45.52 42.87 45.03 45.72 45.26 44.05 38.38 37.48 40.94
43.49 44.41 43.35 44.89 45.33 45.36 43.97 37.80 32.16 37.97 41.98 40.34 35.80 34.21 34.39 34.04 39.93 38.38 39.52 38.88 40.15 38.45 36.68 39.81 36.35 37.14 39.22 40.55 38.72 41.81 41.70 39.40 36.23 33.83 37.81 42.37 40.76 43.34 45.21 44.21 39.77 39.99 40.97 43.39
44.12 44.39 44.24 44.71 45.14 45.32 43.58 36.91 34.01 37.34 31.48 34.36 35.74 36.43 35.61 33.50 34.12 39.03 39.68 37.27 37.90 36.30 32.86 35.07 35.40 38.30 39.72 41.02 40.17 39.70 40.53 35.77 39.32 40.46 42.00 42.85 42.05 42.05 43.33 42.34 43.05 39.58 42.15 42.56
43.87 44.15 44.27 45.24 44.83 44.84 42.01 33.57 33.92 38.18 35.96 37.60 35.11 34.84 33.78 33.42 35.70 36.77 35.62 35.77 37.43 38.11 35.19 36.16 34.54 37.45 38.14 36.81 39.54 37.33 39.07 34.74 37.06 37.50 41.43 41.54 40.19 42.18 42.16 42.81 43.39 43.43 43.65 42.83
43.63 43.97 43.73 44.70 44.73 44.34 39.47 40.72 41.62 38.41 34.23 35.20 33.50 33.64 34.64 34.27 36.87 38.01 39.41 38.64 37.73 36.65 38.17 41.30 42.75 43.03 42.32 40.83 38.61 36.25 35.42 34.67 33.96 33.29 37.72 38.07 34.41 40.43 41.77 42.55 44.60 44.80 41.12 45.13
43.83 43.88 44.36 44.68 44.91 44.42 42.91 42.17 40.69 33.95 29.60 32.51 33.96 34.70 35.72 35.24 36.32 35.49 37.95 40.95 38.21 40.64 44.86 44.67 43.59 42.35 41.29 40.91 40.12 40.90 35.86 34.88 35.28 31.73 35.22 26.46 40.33 46.32 45.35 43.56 44.28 46.15 46.43 46.84
44.94 44.65 44.53 44.72 45.03 45.11 43.90 43.39 40.53 36.57 30.14 34.35 34.04 35.17 35.43 37.16 38.36 37.17 38.73 40.79 42.44 44.82 41.09 35.87 33.47 34.50 34.84 37.36 39.68 39.66 40.09 36.75 33.56 29.11 30.45 34.50 38.76 42.28 42.84 42.15 41.26 46.09 45.86 47.25
45.62 45.08 45.03 44.89 44.89 45.28 44.67 44.18 45.22 39.31 34.36 33.12 37.17 34.64 36.52 33.93 34.73 36.42 38.50 42.58 43.93 40.44 37.48 35.43 29.49 28.29 32.72 32.21 35.44 40.93 39.92 39.27 35.62 33.86 28.10 25.94 37.20 44.65 46.92 45.99 36.38 45.71 46.51 46.48
45.30 45.44 45.37 45.34 45.11 45.18 44.87 42.36 46.13 39.89 33.80 37.21 38.59 35.18 35.78 38.90 37.72 35.39 39.07 38.69 38.22 39.71 35.08 32.23 31.01 31.04 36.34 31.03 31.34 32.42 34.27 34.90 31.49 32.28 31.58 35.48 43.57 45.58 47.17 34.86 36.19 46.75 47.72 47.77
45.49 45.72 45.75 45.91 45.56 45.15 45.02 43.09 46.36 40.32 34.86 37.50 40.43 41.31 38.25 39.35 38.50 35.26 38.95 36.49 36.78 34.99 33.41 33.10 33.47 33.06 35.33 34.44 37.36 35.07 33.59 32.37 31.78 33.40 30.83 28.71 46.27 44.62 39.58 44.08 47.60 47.87 47.84 47.62
45.34 45.46 45.72 46.00 45.61 45.21 45.20 41.08 46.13 45.57 38.03 37.76 44.91 44.21 45.62 45.15 42.48 39.85 39.30 37.35 37.31 38.79 35.91 37.43 37.88 34.77 37.48 35.68 31.35 41.17 34.06 37.91 36.29 36.86 36.60 45.66 47.84 46.25 47.60 48.47 46.89 46.27 46.42 47.28
46.04 45.57 45.70 45.67 45.60 46.05 44.50 40.65 43.02 41.18 35.54 36.65 39.79 40.17 45.39 47.70 47.77 48.48 38.47 41.18 42.58 41.59 43.86 39.32 39.16 34.75 39.31 33.49 35.41 37.56 40.74 43.24 40.33 39.57 43.26 43.71 46.16 47.38 47.04 47.61 46.50 46.58 46.26 45.64
45.95 46.44 46.14 45.60 45.70 46.30 44.84 41.09 42.98 40.71 37.84 33.11 37.97 45.84 42.93 48.04 48.00 47.25 46.48 43.55 46.08 44.73 44.46 40.11 38.48 36.50 41.88 38.00 37.98 38.98 40.23 41.74 39.56 39.86 42.57 44.97 46.13 45.64 44.92 45.82 46.19 45.42 45.41 44.23
46.49 46.51 46.53 45.79 45.60 45.81 44.89 43.58 43.79 44.62 39.96 35.39 36.73 43.87 45.41 45.65 45.17 45.01 45.21 43.58 43.12 41.05 38.97 38.86 37.57 42.05 41.03 42.33 41.49 38.47 42.59 40.57 38.10 37.94 42.50 42.90 43.43 43.99 43.76 43.09 42.21 42.86 42.38 41.51
46.53 46.74 46.30 45.44 45.21 45.78 41.86 34.56 43.20 44.82 45.70 38.23 34.45 42.45 42.06 43.83 44.74 43.87 42.31 43.10 42.56 41.03 38.40 39.59 41.76 44.26 41.76 37.99 35.96 41.92 42.65 42.58 42.60 41.08 42.38 42.82 42.81 41.19 41.35 40.01 39.71 40.07 39.45 37.92
46.12 46.37 45.58 45.58 45.26 42.59 39.32 38.64 41.76 45.37 45.04 37.53 33.47 36.11 42.05 44.61 44.42 44.14 43.37 43.69 41.54 40.28 38.26 39.87 40.85 41.51 42.68 39.00 34.66 35.52 38.05 39.94 40.25 40.37 40.19 39.83 39.30 36.61 37.78 36.66 37.67 37.98 37.45 35.20
46.11 46.26 45.70 45.21 44.42 44.21 41.48 44.40 45.47 45.79 41.31 39.81 34.12 34.86 37.25 43.67 38.74 37.95 42.69 39.30 39.80 39.14 38.58 41.13 39.94 41.92 40.69 34.38 31.84 33.26 34.31 37.30 37.87 36.46 38.27 36.56 36.92 35.14 33.05 33.69 34.30 32.98 30.57 30.08
46.12 45.73 44.92 42.66 40.86 39.34 42.05 45.04 46.02 47.06 41.65 35.83 36.19 33.83 31.31 41.12 38.57 39.70 39.34 40.33 33.49 39.89 35.19 37.36 41.05 37.23 27.33 26.85 27.85 28.62 29.74 29.62 30.70 34.39 36.93 35.77 33.84 31.85 31.11 31.07 30.65 30.22 29.82 29.15
45.85 41.20 35.87 32.03 40.63 44.73 44.17 39.93 35.32 36.89 39.67 40.57 35.68 40.53 34.40 38.81 38.42 36.44 36.66 38.13 36.24 31.22 34.99 39.09 36.31 26.44 28.16 29.28 29.61 29.21 29.23 30.23 31.45 29.56 29.43 29.83 30.16 30.80 29.52 28.73 29.25 28.56 27.22 26.04
40.64 34.66 35.25 41.73 44.75 41.58 38.18 34.01 33.83 35.43 33.79 38.14 37.89 38.44 35.64 40.92 35.75 35.44 39.48 36.35 36.97 31.41 34.33 33.96 31.44 24.22 25.47 28.34 28.27 29.09 29.24 29.93 29.73 30.10 29.31 29.00 28.57 28.31 28.19 26.24 26.06 25.30 24.56 23.20
42.10 38.79 40.01 39.84 38.25 35.25 32.54 32.58 33.83 33.91 32.50 36.23 35.16 36.41 38.82 38.95 41.30 37.02 36.97 33.96 35.63 29.49 36.64 32.90 26.91 23.97 26.18 26.55 25.95 26.50 27.29 27.37 26.79 27.22 26.43 26.44 26.06 26.89 25.55 24.34 22.88 22.32 22.01 21.81
42.48 36.40 32.50 34.56 32.07 29.09 29.36 25.30 28.67 29.01 32.56 33.59 36.09 34.19 36.83 38.57 37.98 35.76 35.15 31.43 31.06 34.74 30.98 26.12 23.54 24.78 24.58 25.05 25.48 24.86 25.66 25.98 25.12 24.21 24.42 24.07 23.06 23.44 22.58 21.12 21.70 21.86 21.03 21.72
33.69 30.27 22.73 28.24 25.80 26.35 27.07 28.90 29.92 30.37 32.90 33.47 35.99 34.05 35.40 35.21 33.39 33.30 29.66 29.07 31.81 27.81 25.55 21.64 22.97 22.68 23.40 23.93 24.38 23.43 21.81 22.04 21.69 21.30 21.21 20.71 20.25 20.12 20.65 20.60 20.74 19.78 18.18 18.46
28.62 29.12 22.26 22.89 26.04 27.28 28.25 30.19 31.61 31.96 33.08 33.49 35.54 35.36 36.22 32.00 29.93 31.10 28.90 26.03 23.42 25.00 23.31 22.90 23.46 23.43 23.31 23.29 23.18 22.08 21.34 21.29 21.24 21.64 20.50 19.79 19.76 19.10 18.89 19.76 19.78 18.98 18.33 18.15
27.26 25.29 24.30 27.13 28.58 27.60 28.29 29.52 29.71 31.25 32.26 36.23 36.42 31.33 28.83 26.02 29.11 25.97 21.57 25.71 22.94 21.48 23.17 23.14 23.13 21.74 22.01 22.06 22.56 22.59 22.84 22.79 21.98 21.90 21.31 20.65 19.41 18.94 18.80 18.88 18.42 18.02 17.77 16.72
24.36 23.69 26.57 26.85 26.26 26.11 26.91 28.78 28.87 32.57 32.70 30.82 33.49 27.19 23.00 28.94 24.84 20.43 22.88 20.65 21.22 22.12 23.31 24.50 24.01 22.29 21.88 22.12 22.27 22.51 23.01 22.60 22.14 21.74 21.59 21.20 21.54 21.55 20.54 18.53 19.39 18.83 17.84 16.55

GFSNW_sfc_wetblb_072.txt.gz
Wetbulb
44.88 45.16 45.11 44.75 44.09 44.91 43.56 39.37 31.47 46.46 49.25 34.67 34.97 30.18 34.40 38.79 38.68 41.02 39.06 38.99 37.46 36.33 37.62 36.60 36.79 37.07 38.71 41.83 40.76 36.69 40.38 36.84 31.82 34.91 42.24 45.24 43.77 40.28 41.02 36.33 34.87 38.88 39.01 40.18
44.76 44.66 44.75 44.89 45.12 44.28 40.72 36.43 36.06 45.21 46.33 29.56 31.73 34.68 34.95 37.01 36.74 37.65 37.43 36.88 38.50 38.84 35.97 33.37 37.05 38.68 42.98 42.27 40.56 36.46 36.90 35.47 29.06 32.36 38.93 42.90 40.28 41.47 41.66 41.90 42.07 37.49 35.44 38.80
44.45 44.40 44.26 44.57 44.43 44.73 40.87 37.40 30.50 36.71 41.33 39.21 34.45 32.41 33.17 33.62 39.56 37.66 38.93 37.94 39.52 37.75 35.34 37.91 36.04 37.22 41.39 42.36 40.30 40.07 40.28 35.53 33.63 30.02 34.43 37.86 38.16 40.82 42.46 41.74 36.02 38.23 39.05 42.48
44.06 44.20 43.67 44.15 43.89 44.82 40.79 37.35 32.58 36.63 31.05 33.68 34.56 35.00 34.95 33.32 33.44 38.42 39.12 36.50 36.48 36.04 33.52 34.88 34.75 38.18 38.95 40.22 39.78 40.08 38.50 34.33 36.97 37.18 38.04 39.76 40.18 40.18 40.99 40.29 42.02 38.82 41.74 42.24
43.94 44.04 44.36 44.66 43.53 44.59 38.61 34.90 32.74 36.35 34.65 36.03 34.56 34.15 32.41 32.95 35.18 36.38 34.93 35.15 36.81 37.01 34.29 35.48 33.52 36.62 36.90 36.96 40.09 38.34 38.68 32.54 34.49 33.02 38.27 39.18 37.59 41.51 41.82 41.70 42.60 43.16 43.40 42.16
43.98 43.99 44.11 44.28 44.55 44.29 37.87 39.08 40.01 36.53 33.75 34.10 32.51 33.56 34.02 33.87 36.62 37.63 39.05 37.68 37.08 36.10 37.86 40.48 41.39 42.18 40.90 40.56 38.46 36.86 35.77 33.55 33.39 29.18 36.40 37.41 34.29 39.17 40.63 41.66 43.45 43.08 39.46 43.61
44.48 44.31 44.26 44.74 44.38 44.30 42.13 40.60 39.22 34.02 28.54 31.31 32.23 34.64 35.80 35.03 36.16 34.74 37.78 39.37 37.53 40.63 45.01 44.36 43.25 41.88 41.07 40.85 40.37 40.77 35.68 33.76 32.83 29.90 32.78 26.74 38.21 43.94 43.77 42.78 43.76 44.90 45.16 46.32
44.50 44.91 44.74 44.85 44.91 44.48 43.09 41.26 40.19 35.82 29.65 32.54 33.18 34.09 34.41 36.61 37.73 36.66 37.21 39.38 41.65 44.82 41.42 35.55 32.49 33.51 34.43 36.19 38.62 38.81 39.75 35.87 30.47 29.24 28.93 33.30 37.89 41.05 42.12 41.09 40.63 45.44 45.10 46.80
45.53 45.22 45.22 44.79 45.07 44.42 44.30 43.12 44.95 38.72 33.72 31.19 35.91 33.88 35.35 33.06 34.11 35.58 38.03 43.40 44.90 42.29 37.05 33.05 27.24 25.91 30.88 30.67 34.55 40.09 39.21 38.54 33.46 31.85 27.51 25.58 36.01 43.21 44.61 42.93 33.86 44.17 45.35 45.86
45.43 45.16 45.05 45.29 45.16 45.03 43.54 41.62 46.01 40.03 32.79 35.82 36.12 33.82 34.28 38.20 36.50 34.59 37.05 38.50 38.46 40.97 33.69 29.72 29.19 28.98 35.93 29.96 30.47 31.65 32.87 33.42 29.90 31.09 30.10 34.44 42.33 44.98 45.98 32.40 35.47 45.30 46.22 45.36
45.69 45.50 45.38 45.59 45.36 45.29 44.00 42.17 46.07 40.40 35.26 35.95 38.56 39.29 36.10 37.77 38.01 34.23 38.45 36.31 37.33 34.94 29.81 30.46 32.02 32.20 34.32 34.15 36.62 34.18 32.38 30.93 30.61 31.94 29.78 27.95 45.30 44.18 38.86 43.00 46.01 46.02 45.81 45.43
45.40 45.54 45.57 45.56 45.73 45.43 45.07 39.22 44.70 45.93 38.29 36.27 42.12 42.67 43.51 42.33 41.32 39.35 37.08 36.72 36.70 37.64 34.69 35.76 35.95 34.16 36.17 34.77 30.43 40.34 32.40 36.78 34.66 35.10 35.32 44.54 46.25 44.80 47.08 46.95 44.64 44.24 44.41 44.60
45.68 45.76 45.96 46.06 45.97 45.99 44.59 42.16 44.46 42.80 36.44 36.48 36.86 36.54 42.59 45.45 46.27 47.45 37.38 39.76 40.51 39.04 43.26 38.94 37.25 33.83 38.23 32.94 34.35 36.33 39.82 42.69 38.38 39.24 42.14 42.87 43.89 45.38 46.14 45.75 44.36 44.59 44.62 43.95
45.62 45.78 45.94 45.73 45.92 46.18 45.67 40.38 43.36 41.61 37.48 30.59 34.13 43.65 42.11 45.12 46.69 46.71 46.13 43.72 44.60 43.81 43.80 37.55 37.00 35.33 41.02 36.83 38.21 37.62 40.27 40.69 39.85 38.83 41.04 41.03 41.88 42.75 43.94 43.33 43.87 43.33 43.70 42.67
46.17 46.13 46.47 46.27 45.99 46.04 45.22 42.91 43.74 43.92 37.78 32.30 33.82 41.34 44.01 46.31 44.80 44.71 45.39 44.12 42.50 40.41 38.17 37.53 35.79 39.46 39.21 40.24 40.61 36.69 41.09 38.91 37.74 35.76 40.06 39.98 39.40 41.02 42.86 41.05 40.64 40.97 39.81 38.72
46.47 46.47 46.75 46.77 45.90 45.73 41.14 32.99 42.26 44.98 43.85 35.52 32.17 41.08 42.15 44.66 44.50 43.02 42.16 43.33 41.52 41.11 38.50 37.75 40.61 43.18 39.80 36.22 34.50 36.35 39.24 40.19 38.95 36.13 40.95 41.40 41.10 39.34 39.67 38.50 38.49 39.08 37.60 35.52
46.43 46.41 46.57 46.36 45.57 43.88 37.94 37.41 42.07 44.70 44.30 35.43 33.29 34.02 41.79 43.73 42.79 42.17 42.25 43.60 41.25 40.46 38.17 37.41 39.17 40.26 41.03 37.51 32.29 33.23 34.99 39.52 37.50 38.50 39.95 37.57 35.87 34.29 36.22 36.79 37.48 36.40 34.58 32.13
46.27 46.41 45.77 44.90 44.69 43.23 40.72 45.07 45.35 44.67 40.07 38.58 32.65 33.73 36.95 43.40 38.69 37.78 43.20 38.91 39.51 38.72 38.16 39.77 38.44 40.99 40.35 29.31 29.53 31.15 32.44 35.76 34.67 35.97 38.15 36.22 36.13 35.03 33.87 35.12 35.04 33.10 30.33 29.00
46.22 45.47 45.03 42.95 40.62 38.13 41.38 45.53 45.12 45.78 40.48 34.82 34.93 31.41 31.33 42.08 39.56 39.74 39.66 39.04 33.17 39.06 35.07 36.92 39.43 34.28 25.54 26.83 28.16 27.99 29.35 29.81 31.18 35.14 34.18 34.35 33.51 33.08 32.43 32.04 31.33 30.13 28.34 27.30
44.88 41.22 36.07 32.08 39.33 45.32 44.50 40.09 34.01 35.85 37.91 39.71 35.13 38.53 33.83 38.96 38.53 36.23 35.20 37.63 34.70 32.19 35.10 39.39 32.65 25.24 29.20 30.19 29.49 29.20 29.22 30.24 30.90 29.22 27.97 28.70 28.97 29.78 28.50 27.55 27.65 27.24 25.76 24.61
39.79 35.07 35.33 42.19 45.10 41.84 37.55 32.61 33.17 34.31 32.74 37.26 38.02 37.62 34.54 40.82 35.19 34.13 38.75 34.34 36.39 30.80 32.98 33.07 30.03 24.30 25.70 28.66 27.93 28.48 28.63 29.01 28.43 28.94 28.14 28.09 27.89 27.27 26.23 24.72 24.33 23.60 22.86 21.58
40.39 39.84 42.02 41.03 38.07 35.78 32.82 31.09 34.00 33.17 31.58 37.15 36.56 37.59 38.78 38.91 39.96 36.19 36.73 33.69 35.31 29.59 36.90 32.60 24.35 23.52 26.20 26.62 25.76 25.84 26.71 26.67 25.55 26.38 25.41 25.39 25.24 25.02 23.79 22.60 21.40 21.12 21.35 20.81
42.49 38.33 35.05 35.75 32.65 29.53 28.86 25.23 28.95 30.70 34.17 34.98 36.39 34.73 38.24 38.69 39.11 36.85 35.47 30.89 30.33 35.15 30.76 24.48 22.66 23.75 24.92 25.34 25.48 24.27 25.00 24.64 23.93 23.11 23.23 22.36 21.79 22.41 21.34 20.13 20.83 20.28 19.12 19.39
34.16 31.77 24.76 28.86 26.25 27.36 27.19 28.54 29.90 31.95 34.51 35.71 36.31 35.03 35.99 36.44 33.20 33.53 28.65 30.08 31.85 27.87 25.40 20.54 21.97 22.75 23.03 23.66 23.99 22.50 21.36 21.60 20.93 20.54 20.54 20.05 19.94 19.44 19.84 19.70 19.22 18.26 16.62 17.46
30.10 30.72 23.06 23.74 26.79 28.40 29.91 31.83 32.64 32.49 34.22 34.26 35.93 36.61 35.66 32.14 30.92 31.93 29.33 26.11 24.12 23.55 20.31 21.81 22.77 23.30 23.54 22.78 22.41 21.78 21.43 21.60 21.17 20.92 19.99 19.64 19.24 18.66 18.43 19.02 18.84 18.15 17.37 17.08
27.84 27.07 26.20 29.31 29.18 28.53 29.54 31.12 30.47 32.91 33.53 34.96 37.86 32.42 30.12 27.32 29.83 27.06 24.59 26.25 22.14 21.14 21.59 22.60 22.91 22.03 22.21 22.10 22.55 22.93 22.76 22.29 21.62 21.32 20.61 19.83 19.11 18.43 17.99 18.25 18.09 17.78 17.48 16.22
25.72 24.40 28.33 29.05 28.24 27.04 28.19 30.35 30.53 34.59 32.99 32.06 33.68 27.68 24.95 29.73 24.94 20.95 22.38 20.58 21.15 23.19 23.66 24.07 23.28 21.89 21.73 22.45 22.76 23.10 22.82 22.15 21.86 21.68 21.50 20.91 21.47 21.57 20.19 18.20 18.66 18.35 17.12 16.22

GFSNW_sfc_wetblb_075.txt.gz
Wetbulb
44.93 45.15 45.16 45.09 44.97 44.30 42.45 37.90 29.01 38.94 44.79 31.19 33.31 27.08 30.73 36.08 34.66 37.81 36.57 36.53 35.42 33.81 34.19 32.93 33.35 34.75 38.01 40.96 39.86 36.49 39.09 37.02 30.64 33.78 41.11 43.31 40.30 38.94 38.69 33.62 33.03 35.86 33.31 34.57
44.55 44.70 44.79 44.91 44.76 44.74 40.37 33.79 32.92 39.25 41.40 26.62 27.53 31.39 31.70 33.42 33.03 34.73 35.27 34.57 36.77 37.14 33.35 30.11 34.30 37.53 40.91 41.30 39.26 35.14 36.77 34.55 29.36 30.59 36.16 40.51 37.51 40.31 40.54 38.98 38.20 34.19 31.84 35.25
44.23 44.19 44.48 44.69 44.50 44.69 40.36 33.10 26.73 31.24 33.35 33.32 31.58 28.79 29.78 30.64 36.82 35.34 36.27 35.49 36.74 35.18 33.50 35.60 32.34 35.73 40.25 41.10 40.15 41.13 39.65 34.00 30.85 28.02 32.55 35.79 34.80 38.82 40.68 38.42 34.66 34.87 36.29 40.43
43.99 44.20 44.40 44.43 44.13 44.23 39.84 32.55 30.10 32.86 20.14 29.42 31.54 32.49 32.96 30.78 31.00 36.84 37.64 34.45 34.23 33.28 29.89 32.22 31.60 35.48 38.21 40.12 40.60 39.06 37.76 30.52 33.91 35.34 35.99 36.94 36.33 36.33 38.44 37.82 38.23 35.88 39.39 40.91
43.96 44.16 44.21 44.38 44.16 43.18 37.76 31.78 30.69 34.12 32.42 33.36 32.58 31.43 30.37 29.87 32.20 33.63 33.32 33.16 34.97 35.00 30.23 32.20 31.45 35.04 34.74 34.95 38.64 37.32 37.76 30.27 33.16 31.42 36.43 35.59 34.58 37.85 38.22 40.50 39.75 39.73 41.03 40.54
43.86 44.20 44.25 44.30 44.20 42.80 34.89 37.31 36.73 33.80 30.98 30.40 29.72 30.82 31.73 32.12 34.85 35.40 37.16 36.06 34.70 33.35 35.86 37.85 38.20 38.27 38.38 38.36 36.76 35.99 35.19 31.75 29.18 27.03 34.29 33.45 31.68 37.00 39.02 40.36 42.28 41.74 38.40 42.54
44.32 44.33 44.33 44.45 44.28 43.75 38.53 38.39 34.70 28.41 23.66 27.07 28.60 31.25 32.83 33.89 34.14 32.43 36.52 37.85 35.08 39.06 43.35 41.67 40.20 38.60 38.43 38.41 37.98 39.05 33.43 32.47 31.14 27.80 31.42 26.48 35.77 42.68 42.77 41.13 42.81 44.12 44.19 45.50
44.85 44.95 44.75 44.71 44.56 44.59 39.13 37.64 34.58 31.18 23.13 28.75 29.56 31.08 32.38 34.04 35.57 34.45 35.18 37.73 39.99 40.61 38.68 33.77 30.81 28.38 30.63 33.52 36.42 36.71 37.12 33.68 29.15 26.26 27.48 32.06 37.03 40.17 39.53 40.21 37.64 42.02 42.65 45.25
45.14 45.23 45.13 44.10 44.83 44.64 40.11 38.39 38.75 35.18 29.83 26.13 33.06 31.45 32.96 29.44 30.13 32.39 34.86 40.24 41.09 38.53 35.27 29.96 23.60 22.13 27.82 27.65 31.69 37.41 36.02 35.91 30.74 29.57 26.07 25.39 35.18 41.22 43.39 43.41 34.11 42.28 43.36 42.85
45.40 45.43 45.21 44.89 45.38 44.86 41.05 37.73 40.33 36.38 31.50 32.22 33.41 30.45 31.01 34.13 33.09 30.64 33.44 36.07 37.64 36.63 29.41 24.22 23.46 24.65 32.74 26.13 26.97 27.84 29.29 31.14 28.26 28.11 27.00 31.09 42.11 43.07 44.11 32.40 34.45 44.85 43.57 43.16
45.38 45.77 45.49 44.82 45.16 45.54 41.64 37.88 40.57 36.92 31.92 32.90 35.59 36.48 32.79 34.06 34.49 31.74 34.81 34.56 36.20 31.97 24.99 25.66 25.98 25.52 30.67 31.69 33.50 31.76 29.06 28.81 27.13 28.50 26.03 24.81 44.31 42.88 37.91 41.80 44.69 42.95 42.46 42.87
45.24 45.59 45.61 45.70 45.66 45.85 44.25 35.97 40.48 41.66 36.18 32.40 38.39 38.59 39.56 38.47 37.77 36.57 34.53 34.44 34.84 36.03 31.96 30.13 31.73 30.34 32.36 32.36 28.56 37.85 30.02 33.23 30.95 31.79 31.31 42.13 44.29 43.78 44.35 43.74 41.64 41.49 41.24 41.99
45.60 45.73 45.78 45.91 45.96 45.77 44.64 39.29 38.11 37.52 33.40 33.37 33.29 32.70 38.38 41.12 41.45 43.51 34.23 37.39 39.40 37.32 41.58 36.91 35.09 31.57 35.20 28.43 31.09 34.95 38.33 40.04 36.14 36.39 39.93 40.60 41.39 42.46 42.94 43.22 41.83 41.87 40.96 40.17
45.97 46.08 45.91 45.92 46.28 46.05 45.33 40.42 39.80 37.88 33.88 24.84 29.90 40.25 37.47 41.57 41.54 41.54 42.49 40.45 43.21 41.49 39.45 35.25 33.96 32.49 39.08 33.67 36.14 34.18 35.28 39.51 37.44 33.65 34.77 38.18 38.73 40.17 40.64 40.57 41.27 40.09 39.07 37.07
46.17 46.29 46.42 46.12 46.40 46.70 45.22 43.04 41.68 41.53 34.77 29.84 32.07 37.50 40.88 41.98 41.94 39.94 40.67 41.90 40.54 36.38 34.40 35.60 33.74 38.22 37.14 37.27 37.59 32.04 35.99 32.43 33.02 32.09 36.59 35.42 35.21 38.24 39.49 37.67 37.18 36.04 35.63 33.51
46.17 46.42 46.52 46.56 46.12 46.19 40.56 32.37 40.96 42.77 41.04 33.22 27.04 38.48 38.62 40.51 41.59 39.22 39.68 39.67 38.21 36.69 37.59 36.04 37.43 41.77 37.27 32.87 30.44 33.23 34.01 35.56 35.58 35.58 38.39 36.81 36.04 35.83 37.55 35.87 34.29 32.83 30.97 30.53
46.15 46.45 46.54 46.42 46.43 43.21 37.39 35.06 39.25 43.15 42.97 33.93 29.87 30.59 37.88 40.55 40.14 38.10 37.84 39.58 38.76 37.85 36.95 36.00 36.58 38.35 39.38 32.77 27.13 30.32 31.89 33.48 34.45 36.88 37.80 32.70 32.80 31.19 34.83 35.72 33.78 32.40 29.32 27.90
46.27 46.36 46.51 46.42 45.37 43.16 39.46 44.11 44.06 43.64 38.64 37.22 29.51 29.82 35.07 40.72 34.01 34.45 40.00 38.08 38.58 37.98 37.33 37.09 36.12 37.52 34.19 24.31 27.60 28.99 29.89 32.18 31.71 34.20 35.42 34.66 33.92 32.68 31.29 32.42 31.68 28.27 26.28 25.55
46.38 46.34 45.61 41.95 40.03 36.73 39.90 45.48 44.10 44.19 38.97 30.96 31.31 28.16 28.49 39.43 37.09 38.36 38.10 38.62 31.38 38.23 33.55 34.57 36.86 28.95 21.98 25.97 25.93 26.26 27.67 27.65 28.04 32.05 30.39 31.30 30.53 29.41 28.44 28.02 27.65 25.48 24.86 24.41
43.84 41.23 36.05 31.81 39.13 45.33 44.33 38.38 35.77 35.19 37.42 37.39 32.49 35.11 29.75 36.75 34.04 33.28 34.02 34.11 32.46 30.64 32.54 37.15 27.38 23.58 27.30 26.93 26.72 26.64 27.01 27.29 28.12 25.38 24.85 26.21 26.97 24.92 23.96 23.74 24.59 23.74 22.18 20.96
39.54 35.38 34.85 41.10 44.91 40.19 36.14 30.26 31.20 32.12 30.07 32.56 33.68 34.12 32.72 38.19 32.54 32.09 33.56 32.27 31.09 27.31 31.34 31.37 26.75 22.10 24.05 25.19 24.53 25.68 26.34 26.06 25.93 26.02 25.09 25.14 25.16 23.23 21.93 21.11 21.04 20.57 19.56 18.28
39.71 40.34 41.76 40.34 37.21 34.64 30.64 29.68 30.99 29.59 26.29 30.23 31.13 34.42 37.03 36.49 38.82 33.11 32.42 30.94 31.24 27.48 34.15 30.61 19.32 21.68 23.92 23.42 22.58 23.22 24.18 23.57 22.53 22.94 22.15 22.49 21.70 21.57 21.04 20.31 19.17 19.23 18.72 17.98
41.53 37.92 33.76 34.59 31.14 26.28 22.34 22.30 21.79 27.31 32.51 33.41 33.40 33.25 35.13 35.83 37.61 33.22 31.88 28.32 26.41 29.77 26.66 16.83 18.49 21.76 22.83 23.28 22.29 21.39 22.19 21.80 21.14 20.22 20.25 19.69 19.18 19.28 17.97 16.39 15.07 15.37 15.32 15.71
33.11 27.74 16.65 25.13 25.25 24.97 25.42 26.61 28.26 30.85 32.34 33.25 32.75 32.48 32.33 32.99 30.75 31.77 27.24 28.26 29.88 23.14 16.33 15.00 17.78 17.71 18.75 20.32 21.56 20.18 18.02 17.77 16.71 13.83 14.79 14.48 14.27 14.62 14.20 14.58 11.83 12.30 12.41 13.26
27.25 26.12 19.41 20.28 23.77 22.71 28.27 30.44 30.67 30.91 32.90 32.89 30.77 30.40 32.29 30.07 27.36 28.99 25.82 25.11 22.66 18.03 10.93 14.26 18.85 19.73 18.99 16.51 17.89 18.67 16.27 14.66 14.82 12.46 13.20 11.77 11.65 12.38 13.75 11.76 11.98 12.37 10.67 9.43
26.42 23.95 22.91 25.07 24.93 24.88 27.98 29.64 28.70 31.67 31.78 32.87 30.61 30.08 26.89 25.89 27.24 22.47 17.41 21.47 13.04 11.76 13.58 17.97 16.83 15.44 14.72 18.78 19.22 15.00 14.08 13.86 13.60 12.45 12.96 12.78 10.08 10.63 11.64 10.97 9.78 7.35 7.91 6.09
24.10 19.99 23.85 26.37 20.81 22.31 25.90 28.06 29.49 32.84 31.77 30.85 28.05 22.90 23.94 26.22 19.44 15.58 18.01 12.10 15.80 18.55 19.20 18.24 14.97 13.73 12.13 14.49 16.05 17.47 18.31 19.04 19.04 17.11 15.05 12.39 12.33 13.56 14.22 13.01 11.35 13.00 12.34 9.07

GFSNW_sfc_wetblb_078.txt.gz
Wetbulb
44.93 44.79 44.93 45.07 45.07 44.60 40.59 33.80 27.15 36.72 41.00 30.04 30.42 25.33 28.52 34.06 31.91 35.69 33.64 34.51 33.24 32.47 32.88 31.46 31.72 34.26 37.28 40.09 38.87 34.87 38.45 35.10 28.93 32.02 39.26 42.58 40.99 37.28 38.43 31.46 31.25 34.77 32.74 33.75
44.43 44.54 44.58 44.67 44.77 44.02 37.49 32.70 31.07 36.87 39.90 25.19 24.51 28.74 29.76 31.38 30.20 30.94 32.81 32.65 34.70 35.11 31.89 28.39 33.31 35.86 40.02 40.44 37.68 34.48 35.97 32.73 26.52 28.74 35.12 40.07 36.46 38.47 39.19 39.71 38.00 34.36 31.21 34.00
44.29 44.38 44.34 44.48 44.34 44.31 38.35 32.91 24.73 29.23 31.26 31.03 29.61 26.62 26.68 27.72 34.35 32.86 33.14 32.57 34.88 32.94 31.67 34.31 31.08 34.21 39.13 39.94 39.50 41.11 38.91 32.84 28.95 25.12 30.21 35.10 33.53 35.89 36.48 37.88 32.93 33.08 34.15 37.83
43.59 44.10 44.39 44.37 44.29 43.75 38.99 32.25 23.65 30.96 25.85 27.97 29.67 30.09 29.06 27.85 27.54 33.90 35.43 33.42 32.97 31.56 28.32 30.23 29.13 34.57 36.78 39.41 40.96 38.30 36.41 28.91 31.73 33.28 35.09 35.28 34.87 35.54 36.52 34.73 36.14 34.03 36.92 38.33
43.77 44.10 44.28 44.31 44.34 43.71 37.45 29.83 29.04 32.53 31.72 32.73 30.22 31.69 28.52 29.26 30.71 33.08 31.90 32.14 34.63 34.24 30.77 31.99 29.86 33.49 33.66 33.60 36.16 36.05 36.44 28.07 30.69 29.44 34.38 36.01 34.04 36.13 36.07 36.68 37.31 36.72 38.51 39.42
43.90 44.09 44.22 44.21 44.41 42.49 35.40 36.72 35.53 33.17 29.45 28.70 26.92 27.51 28.47 32.03 34.46 34.36 35.00 34.06 33.33 32.81 35.18 37.54 37.66 37.50 37.27 36.50 35.59 34.74 33.71 32.75 27.80 23.30 32.83 31.98 29.30 34.14 35.89 37.17 40.01 39.91 36.14 41.01
44.17 44.41 44.53 44.53 44.60 43.09 38.85 38.16 36.11 28.75 23.39 27.32 26.99 29.42 30.60 30.93 32.37 31.69 35.26 36.54 33.82 38.29 42.40 40.67 38.79 37.38 37.12 36.35 36.37 37.76 32.30 31.00 29.19 25.16 29.08 22.84 35.69 39.94 41.77 40.66 40.64 43.31 43.87 45.05
44.31 44.38 44.74 45.06 45.12 44.57 39.27 37.65 34.86 31.96 22.70 28.77 28.74 30.19 31.12 32.84 33.77 32.05 34.10 37.17 39.36 40.79 37.66 31.76 28.68 27.74 28.94 31.44 34.96 35.27 35.74 31.15 25.62 22.12 24.60 28.76 34.51 38.31 39.87 34.97 35.55 43.49 43.26 44.65
44.55 44.50 44.63 44.94 44.47 44.79 37.81 35.75 37.08 35.17 27.47 26.65 31.82 29.62 32.08 28.95 29.42 30.99 33.68 39.51 39.92 37.20 31.27 28.11 23.07 21.37 26.54 26.47 30.19 35.50 34.87 33.71 28.04 26.34 23.10 20.77 33.85 40.39 43.62 43.19 32.79 42.47 44.40 43.86
44.38 44.67 45.03 45.39 45.31 44.72 40.02 38.59 37.70 35.54 29.33 29.73 31.18 27.34 27.86 32.57 32.12 30.25 33.65 33.13 34.41 34.81 26.50 22.48 21.94 23.69 31.06 24.25 25.47 26.92 27.01 27.83 26.83 25.76 25.44 29.70 38.80 42.87 44.53 31.96 34.54 42.04 42.17 42.02
44.61 44.87 45.20 45.43 45.06 44.93 42.11 38.00 38.75 35.12 31.33 31.04 33.91 34.67 30.24 30.72 31.63 28.42 32.54 31.97 35.31 32.45 25.00 24.60 24.74 22.58 27.83 27.62 32.63 31.42 28.49 26.63 25.77 27.06 26.14 23.92 43.62 42.10 36.39 39.89 42.50 42.36 42.06 41.71
45.09 45.32 45.42 45.44 45.57 45.39 44.14 36.76 39.03 39.17 33.62 29.64 37.15 37.51 37.64 35.89 36.12 32.80 35.27 33.97 34.18 34.12 29.88 27.97 30.24 27.26 29.51 31.54 27.48 36.49 29.84 32.21 28.12 30.47 30.39 41.22 42.68 42.17 43.62 43.20 40.48 39.56 40.40 40.63
45.37 45.51 45.71 45.48 45.86 45.67 44.23 38.98 36.44 35.43 32.24 31.51 31.21 31.09 36.73 39.85 38.62 40.16 30.82 36.91 37.01 36.74 38.98 36.29 35.27 30.56 33.80 28.73 31.24 34.54 34.65 38.98 34.45 34.81 36.30 37.59 38.62 40.90 40.86 39.66 37.81 37.22 37.49 37.98
46.02 46.39 46.16 45.86 46.04 46.09 45.09 39.87 39.58 34.73 31.05 20.20 26.23 37.59 34.61 38.86 38.53 38.07 39.33 39.34 40.52 39.94 39.32 35.45 33.71 31.10 36.98 32.79 32.27 29.76 32.41 34.81 35.40 33.12 33.65 36.55 36.44 36.86 37.76 37.76 37.30 34.67 33.81 33.82
46.20 46.48 46.43 46.09 46.11 46.37 44.79 42.95 40.86 38.83 30.88 24.79 28.73 35.48 38.15 39.31 38.28 37.68 39.64 39.64 39.00 38.04 34.98 33.13 33.33 36.96 36.90 34.90 33.54 27.48 32.34 29.76 32.44 30.59 33.92 34.01 34.03 35.30 35.58 33.03 31.48 32.36 30.90 28.98
46.09 46.36 46.52 46.48 46.13 46.23 41.99 32.84 41.26 41.53 38.31 30.92 24.16 33.77 37.09 38.75 39.10 38.39 37.21 38.71 39.42 37.17 35.62 35.46 36.16 41.11 35.74 31.69 27.26 29.56 31.86 33.52 34.98 33.24 34.61 33.59 33.74 35.28 34.08 30.79 29.16 28.71 27.98 27.89
46.25 46.22 46.48 46.37 45.97 42.32 37.41 34.22 38.42 42.97 41.96 34.22 25.73 27.33 35.63 39.50 38.59 38.52 36.50 38.17 36.83 35.23 36.17 35.53 35.03 37.48 37.19 29.18 23.73 27.75 30.75 32.40 33.44 35.27 35.83 30.48 30.92 29.36 32.76 30.81 29.39 28.13 25.52 25.26
46.18 46.25 46.30 46.34 45.20 43.71 39.99 43.52 43.65 43.24 37.89 36.24 27.07 26.27 32.12 39.39 33.20 34.47 36.01 34.98 35.49 37.37 36.62 36.04 34.99 34.60 30.89 23.16 25.94 27.05 28.74 30.19 30.29 31.52 33.00 31.10 30.56 29.81 30.25 30.11 28.33 24.82 23.22 22.64
46.23 46.16 46.34 41.85 39.68 36.09 38.94 44.78 44.21 43.60 37.18 29.05 29.57 27.43 24.79 39.27 35.32 36.92 36.48 38.08 31.33 37.72 33.41 33.80 34.08 25.77 20.20 23.55 23.41 24.08 24.97 25.59 27.44 28.97 30.14 29.37 26.80 25.93 26.49 26.22 25.28 23.87 23.06 22.18
44.82 41.59 35.83 31.54 39.36 45.11 43.72 39.97 35.13 34.68 35.81 36.94 30.88 33.83 29.94 36.31 34.22 32.64 32.81 34.38 32.13 29.02 31.63 33.68 25.45 21.10 24.38 24.24 24.55 24.48 24.74 25.40 25.52 24.60 23.60 25.99 23.50 22.57 21.87 22.04 22.33 21.44 20.29 19.55
39.27 34.19 34.24 41.30 44.50 39.90 35.88 29.99 30.33 31.00 29.02 31.20 29.97 33.53 32.59 38.46 31.87 30.62 34.01 30.73 32.20 28.04 29.51 29.37 23.79 20.18 21.16 23.77 23.38 23.86 23.53 23.31 23.30 23.15 22.99 23.19 23.32 21.47 20.26 19.75 19.82 19.51 18.73 17.07
39.25 40.33 41.96 40.58 35.68 33.30 30.46 28.40 30.11 28.00 25.65 27.66 31.80 32.51 35.59 35.27 38.15 31.98 32.93 29.70 31.30 26.63 33.68 24.69 14.02 19.73 21.56 21.51 21.09 21.58 21.87 21.25 20.45 21.37 21.06 21.10 21.17 20.80 19.75 19.17 17.95 16.70 15.99 14.66
41.41 37.38 33.38 33.39 31.12 26.20 21.62 22.18 25.09 27.35 32.38 32.99 33.91 32.49 34.43 33.49 35.94 32.53 31.45 24.13 27.01 30.64 17.84 14.37 16.36 21.17 21.75 20.96 20.36 20.01 20.62 20.23 19.57 18.87 19.24 18.66 17.35 16.90 16.02 14.43 12.67 12.79 12.55 11.80
32.00 27.07 18.27 20.16 23.74 24.10 19.85 22.92 27.73 30.47 32.23 32.79 31.57 32.41 30.00 32.55 29.45 30.75 25.50 26.26 27.43 20.21 11.76 12.70 15.64 17.12 18.58 19.49 20.10 17.90 14.12 13.90 13.40 10.68 11.83 11.20 11.45 10.79 10.62 8.37 4.78 7.16 7.86 6.06
25.95 25.20 16.63 14.82 20.86 21.97 27.61 28.75 30.36 30.68 32.43 32.78 31.41 27.62 29.10 27.23 26.39 28.18 26.47 22.94 18.48 16.16 14.47 12.39 16.64 16.11 16.04 14.86 15.56 14.27 12.37 10.23 10.08 7.13 8.52 6.12 6.78 8.54 9.53 4.14 5.09 7.26 5.84 5.04
24.74 22.31 20.49 24.23 21.66 22.27 25.86 28.40 28.71 31.63 31.64 32.61 29.65 28.88 26.48 25.33 26.25 19.03 16.03 18.46 12.73 8.94 9.01 12.07 17.24 14.58 13.53 14.68 14.07 10.90 9.59 9.92 7.75 7.31 8.16 7.94 5.75 7.09 5.99 5.76 5.16 2.17 4.48 2.55
21.65 17.76 15.78 13.49 13.04 21.91 21.58 27.44 28.08 32.26 31.89 29.68 27.66 24.06 23.43 25.90 14.34 11.28 14.46 6.58 8.36 14.96 15.41 13.68 10.50 12.00 12.82 12.24 15.03 14.89 15.68 12.64 9.90 9.02 8.81 7.59 6.31 6.84 10.49 9.05 6.67 10.36 8.95 3.10

GFSNW_sfc_wetblb_081.txt.gz
Wetbulb
44.69 44.84 44.75 44.57 44.93 44.27 39.59 31.82 19.71 36.38 39.57 27.06 27.20 24.98 27.40 31.76 30.13 33.21 30.83 32.63 31.91 30.00 31.01 29.28 31.55 33.10 37.29 40.63 39.98 34.93 37.24 35.03 28.27 30.15 37.18 40.43 38.85 36.36 37.52 32.13 31.89 33.91 31.87 30.96
44.48 44.43 44.58 44.69 44.56 43.41 35.21 29.35 31.10 35.09 35.94 22.42 25.47 28.24 28.54 29.93 28.62 28.97 29.36 30.48 33.35 33.56 30.31 26.89 32.65 35.42 39.72 39.48 37.31 34.58 35.43 32.18 24.31 25.75 33.01 38.95 36.92 37.85 37.65 37.78 36.56 31.38 27.83 30.53
43.80 43.79 44.18 44.38 44.53 43.63 37.45 32.28 23.37 25.45 30.23 25.73 22.29 24.09 26.51 25.69 31.78 31.02 32.24 30.76 31.95 29.92 29.26 32.28 31.25 34.17 38.40 39.10 38.33 40.93 38.20 31.56 27.95 23.21 25.97 33.54 30.65 34.70 36.06 34.13 31.36 32.95 32.46 35.32
43.17 43.26 43.79 44.42 44.49 43.49 36.72 32.39 23.26 26.06 15.66 24.10 27.22 25.74 23.83 24.88 25.02 31.47 32.06 30.08 31.34 29.92 28.07 29.37 29.22 34.76 36.54 38.12 40.45 37.23 34.08 27.22 30.47 31.39 32.59 33.14 32.62 32.78 34.09 32.85 33.34 30.66 33.14 35.72
43.51 43.63 43.98 44.12 43.71 43.68 36.07 26.81 27.29 29.36 24.93 30.69 28.40 27.70 28.38 27.96 27.75 31.36 29.61 29.23 32.56 33.22 30.31 31.57 30.02 32.95 32.31 32.89 35.34 34.91 35.38 27.75 29.88 28.23 31.60 32.53 31.35 32.61 34.49 34.59 35.34 35.64 35.84 35.44
43.61 43.86 44.12 44.39 44.53 41.84 35.78 35.71 34.99 33.63 26.55 26.94 26.09 26.27 27.88 27.97 31.09 33.74 34.59 33.45 32.11 31.49 33.68 36.24 36.25 35.95 35.83 35.18 34.47 33.30 33.26 30.33 27.50 21.15 28.70 28.66 25.69 32.35 35.21 36.36 37.73 35.99 32.50 38.23
43.91 44.08 44.27 44.55 44.67 42.92 34.86 34.63 36.44 30.91 22.06 26.44 26.34 28.63 29.34 30.37 32.04 31.66 35.32 35.79 33.31 36.34 41.07 39.45 37.81 36.03 35.66 35.22 35.24 36.66 31.65 30.61 28.01 22.54 25.52 14.84 31.92 38.92 38.77 37.62 38.97 40.20 41.14 42.21
44.07 44.34 44.58 44.75 44.92 44.61 39.73 37.01 34.36 32.16 22.66 27.75 28.23 29.19 29.98 31.73 32.61 32.80 33.97 36.96 39.21 40.31 36.56 30.47 28.32 27.41 28.55 30.52 33.81 35.07 34.67 30.59 24.61 19.98 20.83 25.41 30.82 36.86 36.42 34.85 35.73 39.73 41.97 42.50
43.88 44.15 44.48 44.67 44.96 45.11 41.30 38.46 37.47 33.50 26.02 23.29 30.80 27.76 30.64 27.48 29.33 31.18 33.14 36.92 38.53 36.88 30.87 28.65 23.50 21.66 26.21 25.84 29.19 34.22 33.46 31.72 26.91 24.44 19.40 16.69 30.68 38.99 41.45 39.76 31.89 40.45 43.23 42.21
43.83 44.15 44.37 44.65 45.06 45.42 42.09 38.77 37.92 32.89 28.59 28.65 30.39 26.50 26.92 32.07 30.27 28.88 33.25 31.08 34.69 34.10 26.67 23.49 22.39 23.20 29.43 24.06 24.30 26.12 26.99 28.02 25.98 24.25 21.69 26.69 36.94 42.47 42.73 30.85 32.95 40.64 42.07 42.59
44.03 44.23 44.56 44.83 45.16 45.49 43.05 38.21 37.91 33.89 26.93 29.82 33.38 33.99 29.00 29.47 29.03 22.05 29.05 28.08 30.91 31.51 26.74 25.42 24.95 22.79 26.96 25.96 28.63 28.04 26.69 24.98 24.72 24.82 23.18 21.09 41.28 41.07 33.56 38.33 40.98 40.78 40.51 39.44
44.45 44.38 44.71 44.95 45.21 45.53 44.11 36.85 39.67 37.51 32.55 28.60 36.19 37.47 36.34 34.48 33.96 30.09 31.95 28.96 31.56 32.78 28.89 27.10 30.09 26.61 26.69 27.56 23.21 35.18 28.26 30.90 28.01 29.62 28.07 38.70 40.55 41.39 42.29 40.29 38.83 38.73 39.67 39.01
44.81 45.02 45.00 45.27 45.48 45.60 43.96 38.20 38.66 38.31 33.62 31.42 29.33 29.71 34.97 38.54 37.85 38.77 30.75 33.29 37.18 34.45 37.14 35.07 33.52 28.20 33.58 25.98 29.12 29.05 31.23 34.29 33.71 33.51 33.87 34.65 37.19 37.07 36.59 35.64 34.00 35.44 36.30 35.45
45.50 45.91 45.75 46.18 45.75 45.72 45.01 39.13 39.64 35.14 29.99 20.43 25.22 35.62 32.80 37.09 37.73 37.01 38.06 37.56 39.13 38.30 38.15 34.89 32.15 30.76 36.65 31.84 30.10 27.54 29.09 31.49 33.31 33.10 34.21 35.13 33.93 33.40 34.88 33.30 32.73 31.50 31.60 31.87
45.85 46.26 46.28 46.33 45.98 45.98 44.68 42.00 40.24 38.64 30.07 22.87 27.00 33.18 36.33 37.95 36.14 35.00 36.20 36.68 36.08 35.61 33.62 30.13 31.54 36.30 34.95 33.13 31.70 24.47 29.42 27.84 27.68 28.54 32.61 32.22 31.89 32.46 32.08 29.37 28.36 28.83 27.60 26.28
45.94 46.19 46.54 46.51 46.14 45.90 42.26 33.52 40.43 40.85 37.39 29.59 21.52 31.40 33.05 36.16 36.27 35.04 35.45 36.55 36.10 36.20 36.10 31.69 34.74 38.96 35.79 30.16 24.87 27.59 29.79 31.10 32.78 31.81 33.49 33.10 32.50 30.96 30.05 27.27 26.77 26.58 25.55 25.12
45.77 45.82 46.25 46.39 45.67 43.04 38.14 34.21 38.07 42.24 41.37 33.13 25.89 25.20 33.00 37.72 36.08 35.18 36.39 37.61 36.87 37.60 34.83 32.86 34.79 35.71 33.67 27.25 21.46 25.49 28.83 30.69 31.92 33.62 34.71 29.44 31.30 28.50 29.11 27.28 25.81 25.78 23.98 23.72
45.82 46.03 46.07 45.93 45.89 44.17 39.80 41.45 43.70 42.77 37.37 35.18 26.46 24.62 30.23 37.58 30.91 32.54 36.70 33.34 37.23 35.57 32.64 36.00 35.10 32.03 30.04 20.96 24.26 26.05 26.76 29.15 29.21 30.66 30.12 28.80 29.40 29.05 27.87 27.27 25.41 22.83 21.67 21.00
46.17 46.07 46.05 42.31 39.29 36.29 39.24 44.28 44.12 43.19 36.96 28.85 28.28 24.34 25.08 37.10 33.52 35.54 35.30 33.64 31.06 35.52 32.86 33.97 30.98 24.51 18.20 22.16 22.89 23.02 24.20 24.06 25.02 28.50 27.62 26.24 24.50 23.95 24.60 24.40 23.62 22.14 20.91 20.11
45.32 41.57 35.84 30.94 37.83 45.10 43.63 40.24 34.03 34.37 35.51 35.78 28.11 30.32 26.20 35.43 32.10 32.55 32.30 33.61 31.70 29.57 31.85 31.31 23.82 18.96 23.07 23.87 23.90 23.52 23.81 23.29 24.02 23.87 22.93 23.42 21.38 21.16 21.11 20.65 21.13 20.58 19.58 19.26
39.34 33.25 33.32 40.27 44.09 39.14 35.67 29.75 29.36 29.97 28.51 31.21 31.16 31.61 30.24 36.82 31.81 29.82 33.26 30.31 31.74 27.26 29.79 28.65 21.33 18.09 20.31 23.25 22.57 22.21 22.28 22.47 22.47 22.19 22.26 22.41 21.94 20.57 19.64 18.83 19.06 18.68 17.58 15.62
39.41 39.96 41.41 39.83 35.03 32.73 28.89 26.62 29.93 26.61 24.32 25.06 30.63 32.51 34.13 35.09 35.92 32.15 32.86 29.65 31.08 26.16 32.90 22.97 10.58 17.51 21.07 21.31 20.78 20.52 20.69 20.39 20.49 21.56 20.61 20.97 20.61 20.14 19.15 17.88 16.07 14.73 13.42 10.93
41.00 36.96 32.57 32.87 31.08 26.33 21.27 21.90 25.47 25.86 29.48 31.24 33.53 32.39 33.67 33.37 35.52 32.37 31.39 26.26 23.13 30.65 12.21 10.46 13.01 19.88 20.71 20.60 20.31 19.59 20.41 19.75 19.26 18.53 18.60 17.34 15.70 15.27 14.67 12.16 9.83 10.28 9.10 7.69
32.36 29.26 22.21 24.68 23.64 19.25 18.75 16.15 17.88 28.20 32.19 32.90 33.04 32.52 32.00 31.86 29.74 30.78 18.56 22.74 23.80 11.09 9.14 9.92 13.20 17.82 19.07 19.12 18.89 16.01 12.11 11.88 11.90 9.21 10.28 9.31 8.64 5.95 3.76 2.14 -0.12 4.53 3.28 -0.16
27.32 26.30 17.73 12.78 22.03 25.09 28.27 29.95 30.50 30.82 32.57 32.48 30.87 29.46 31.41 25.92 23.07 26.37 25.88 19.52 11.04 12.32 9.74 6.73 14.14 15.88 15.68 14.23 13.93 11.53 9.76 7.39 7.82 4.34 6.04 2.70 4.71 5.67 4.51 0.68 2.73 4.93 2.83 2.00
25.68 22.00 21.66 23.30 22.35 22.57 26.40 28.25 28.66 31.98 32.04 32.34 29.94 25.47 22.43 21.56 22.02 20.43 15.18 17.70 13.08 7.78 4.63 9.69 14.58 12.53 12.70 12.52 12.29 8.57 6.29 7.46 5.31 3.96 4.85 4.88 3.42 5.06 3.43 3.22 1.91 -1.55 0.52 -3.12
22.76 18.44 19.12 14.12 17.58 18.51 24.88 26.98 27.30 31.50 32.22 28.25 23.09 17.27 18.50 23.61 14.42 12.65 13.69 8.45 5.48 7.32 12.32 13.47 9.00 12.18 9.46 6.92 9.37 10.89 12.10 10.20 7.59 5.85 6.06 4.71 3.68 4.47 8.60 7.53 4.97 8.47 6.78 0.77

GFSNW_sfc_wetblb_084.txt.gz
Wetbulb
44.31 44.42 44.25 44.38 44.45 43.57 38.19 29.99 21.21 34.24 38.24 26.69 26.51 18.43 26.19 30.83 28.66 31.91 29.23 30.29 29.30 27.72 29.07 27.47 29.34 31.13 36.09 38.91 38.36 34.54 37.29 33.41 27.37 29.95 35.34 38.82 37.21 34.79 35.31 31.17 28.31 31.86 28.26 28.49
44.11 43.83 44.12 44.27 44.22 43.00 33.18 28.01 27.14 33.74 33.85 12.09 17.15 28.12 27.36 29.56 27.91 28.19 27.96 27.48 30.03 33.32 28.25 24.94 30.09 32.84 39.50 40.69 37.43 36.18 36.49 31.01 23.69 24.84 31.57 37.27 35.99 37.15 37.22 35.06 35.19 31.06 29.35 29.11
43.50 43.19 43.07 43.61 43.99 43.42 35.03 26.15 22.67 24.48 31.92 24.71 22.41 23.70 23.85 24.36 30.96 29.29 30.12 29.14 30.66 28.80 27.33 29.63 27.62 30.50 36.64 39.70 38.79 40.69 37.47 30.85 26.85 22.46 24.69 30.48 27.14 32.39 34.66 34.29 27.89 27.26 30.71 32.28
42.95 42.69 42.92 43.16 43.44 42.67 35.97 28.99 20.96 25.01 19.01 21.75 23.35 27.42 25.75 23.60 23.70 29.26 30.71 27.92 27.78 27.02 25.90 28.87 29.10 32.62 35.38 38.37 39.45 36.91 33.10 27.64 29.71 29.67 31.12 31.33 30.72 30.44 31.69 30.92 31.89 28.55 30.08 31.68
42.74 43.03 43.42 43.64 43.07 42.80 36.25 25.17 26.95 30.40 22.84 26.77 24.98 26.47 24.47 24.64 27.28 29.49 27.23 27.19 28.87 30.34 28.41 30.19 29.79 31.34 32.78 33.45 35.19 33.83 34.93 27.16 29.36 27.68 29.95 29.87 29.13 30.50 30.00 30.19 31.52 32.22 33.08 33.09
43.72 43.55 43.74 44.03 43.39 42.57 34.82 35.97 35.66 31.78 26.16 25.36 21.28 23.20 25.51 27.09 29.65 31.01 31.82 31.87 31.34 30.51 33.13 34.71 36.57 37.15 36.37 35.36 33.19 31.66 31.90 28.23 25.14 19.53 26.66 27.07 23.08 28.85 32.31 33.01 35.62 35.23 31.88 36.44
43.18 43.45 43.89 44.09 44.26 42.88 36.07 32.66 33.88 27.69 20.29 24.51 25.28 27.43 28.81 28.19 29.89 28.26 35.18 34.67 33.04 35.60 40.06 39.28 36.79 35.40 34.57 34.24 34.51 35.10 30.50 29.60 27.58 23.27 24.30 12.57 27.18 37.31 37.77 34.92 36.14 36.94 38.91 40.53
43.37 43.86 44.26 44.52 44.35 44.37 39.09 34.41 32.35 30.02 21.32 27.01 26.20 27.87 28.37 30.08 30.91 30.77 33.01 34.40 36.67 39.03 36.70 29.30 27.52 26.23 27.28 28.95 32.37 33.82 32.93 30.05 24.40 19.16 20.32 24.19 28.31 35.52 33.57 31.72 31.84 38.68 37.45 40.58
43.22 43.68 44.06 44.40 44.55 44.83 41.17 38.82 37.40 32.73 23.88 22.91 29.24 27.45 28.09 26.06 28.03 28.44 32.12 35.07 37.92 36.33 29.85 27.59 22.80 20.30 24.95 24.50 25.86 33.37 32.83 31.07 26.69 23.91 19.22 13.44 25.69 37.51 40.82 39.93 28.94 36.84 40.37 41.92
43.18 43.50 43.96 44.23 44.54 44.88 42.31 39.20 39.18 35.00 26.57 28.19 29.16 25.65 26.82 31.75 29.70 27.79 29.56 29.85 32.03 33.04 25.93 22.83 21.40 22.49 28.36 23.36 23.90 25.88 27.35 27.90 25.08 23.62 22.94 25.09 34.20 39.19 41.59 29.41 30.32 34.95 36.64 34.43
43.09 43.67 44.09 44.33 44.55 45.10 42.71 39.15 39.44 35.66 29.29 27.59 31.94 32.78 28.14 28.87 27.77 23.68 28.47 27.39 28.47 30.25 26.69 26.28 25.02 23.52 26.60 26.55 28.17 27.36 26.23 25.46 24.95 26.68 23.66 19.86 38.08 39.48 33.60 37.28 36.56 34.17 33.96 32.59
43.77 44.02 44.15 44.26 44.67 45.10 44.00 37.16 39.66 38.79 32.32 28.09 33.31 35.37 35.67 33.45 32.78 29.60 31.06 29.43 31.62 32.39 30.40 29.19 29.70 26.40 26.67 26.63 22.25 31.64 26.60 30.71 28.04 28.82 28.08 35.45 35.43 35.42 36.53 36.33 34.08 35.96 33.90 34.11
43.54 44.00 44.41 44.45 44.74 45.21 43.94 37.94 38.35 37.86 34.34 31.97 29.14 29.40 34.25 36.77 36.35 36.72 29.18 32.66 36.11 34.36 36.49 33.45 32.12 28.80 32.54 26.89 25.26 27.05 26.78 33.16 29.06 32.66 32.32 31.49 33.13 34.03 33.33 32.95 31.58 32.88 33.40 32.86
43.89 44.37 45.18 45.46 45.26 45.61 44.63 38.58 38.32 36.02 31.06 25.72 25.17 34.00 31.38 35.63 35.88 35.88 36.88 36.49 39.22 36.68 36.13 33.07 31.06 27.98 35.52 30.69 28.10 23.38 26.25 28.79 27.09 31.47 33.28 32.67 30.53 31.20 31.29 30.50 30.66 29.10 29.48 29.65
44.38 45.15 45.97 46.34 45.73 45.90 44.12 41.39 40.10 38.67 31.78 21.54 25.37 31.43 34.40 36.09 34.47 34.38 35.31 35.31 35.20 32.29 28.50 32.39 27.14 33.67 34.67 32.77 29.86 21.82 27.27 25.40 24.43 25.52 31.68 30.21 28.18 29.47 29.96 27.62 26.21 26.79 26.26 25.56
45.02 45.69 46.04 46.54 46.02 45.68 42.06 33.13 40.06 40.47 38.44 31.14 20.90 29.70 31.13 34.13 34.34 33.21 32.54 33.42 34.25 33.30 33.69 33.90 33.15 37.56 34.84 28.49 23.20 25.04 27.93 29.78 31.23 30.34 31.85 30.04 29.08 28.37 28.11 25.61 24.44 24.56 24.07 24.00
45.47 45.83 46.15 46.22 46.06 43.07 37.72 34.49 37.48 42.00 40.42 32.66 25.91 24.39 30.88 35.77 34.79 32.92 32.88 35.68 34.95 32.67 35.04 30.93 32.35 33.18 33.07 26.15 20.71 25.13 26.79 29.79 30.84 30.79 33.78 28.63 28.01 25.51 26.21 25.03 24.05 23.96 22.10 21.62
45.52 45.67 45.85 45.99 45.81 43.59 39.58 40.33 43.01 41.79 37.06 35.54 25.89 23.69 27.04 36.12 29.52 30.11 33.45 31.21 33.27 34.02 33.34 32.59 33.81 31.04 29.11 20.82 24.19 25.28 25.55 28.33 28.75 28.21 28.67 27.59 27.07 26.37 25.19 25.14 23.83 21.24 19.99 19.51
45.74 45.73 45.88 43.28 39.89 37.02 39.59 44.07 43.46 42.48 36.91 28.11 28.30 24.11 19.87 36.28 34.47 35.27 34.02 34.53 26.06 32.49 31.53 32.91 31.11 23.73 17.26 21.80 22.42 22.28 22.95 22.38 23.14 26.43 25.29 24.19 22.59 21.89 22.25 22.38 22.61 20.58 19.35 18.81
45.67 41.75 35.80 30.17 37.04 44.80 42.77 38.47 32.92 33.45 33.98 35.32 23.76 26.88 25.40 33.79 32.72 30.39 28.93 32.39 29.60 29.25 32.23 29.83 22.94 16.68 22.60 22.33 22.32 22.24 22.27 22.08 23.16 23.98 21.38 22.39 20.47 20.22 19.77 19.68 20.50 19.47 18.51 17.42
39.77 34.16 33.10 40.35 44.54 38.12 34.32 29.75 29.35 30.03 27.98 30.20 30.62 27.85 25.58 36.79 30.69 29.67 32.60 30.16 31.53 27.32 30.24 28.25 21.04 15.82 20.47 22.75 21.24 21.24 21.47 21.90 21.40 21.96 21.48 21.35 20.58 19.93 18.82 17.82 17.76 17.02 15.58 13.44
39.32 39.41 40.73 39.12 34.97 32.18 29.11 26.02 28.82 27.05 23.47 28.07 28.22 29.67 31.13 34.24 34.80 31.65 32.38 28.78 30.49 24.87 31.02 23.52 12.04 17.29 21.31 20.76 20.12 19.59 19.99 20.00 19.54 20.16 19.23 19.47 19.02 18.44 17.20 15.89 14.28 12.78 11.19 8.73
40.79 37.16 32.18 32.87 30.85 25.47 18.71 20.78 24.34 23.40 22.57 28.77 32.56 31.35 32.96 33.73 34.88 31.65 31.23 27.72 25.88 28.82 16.33 13.24 11.95 18.90 20.28 19.49 19.53 19.14 19.80 19.30 18.03 16.53 16.39 15.39 13.80 13.49 13.03 10.21 7.46 8.41 6.86 4.76
33.12 29.55 23.36 24.96 22.49 19.48 21.05 23.24 20.19 24.48 31.98 31.92 33.10 32.16 31.73 32.01 30.67 30.43 19.02 23.65 28.26 19.40 12.13 11.79 14.21 16.36 17.17 18.14 18.44 15.32 10.93 10.95 10.73 8.03 9.15 8.00 6.83 3.40 2.99 1.01 -1.92 2.72 0.91 -3.15
27.93 26.34 20.91 15.49 20.22 22.31 28.44 30.29 30.22 31.03 32.92 33.13 31.55 30.30 31.76 25.11 23.08 24.28 24.42 22.12 19.05 13.95 11.45 5.89 12.02 15.27 14.94 12.24 11.83 9.19 6.85 4.88 5.99 3.60 4.24 0.86 3.76 4.72 2.49 -0.95 -0.17 2.17 -1.59 -2.30
26.05 20.74 17.75 22.37 21.05 24.24 26.94 28.58 29.06 32.13 32.21 32.50 29.63 24.77 20.25 19.27 22.38 21.90 18.09 16.36 12.11 7.52 2.43 7.69 13.64 10.97 11.07 11.23 12.56 9.83 7.74 6.66 3.81 1.60 3.60 3.66 1.59 3.02 1.22 0.18 -0.91 -3.86 -2.70 -4.76
21.56 16.14 19.15 15.52 16.10 22.09 24.84 26.97 27.44 30.95 31.94 25.25 22.60 17.52 18.95 23.07 15.82 14.31 14.54 10.10 6.32 5.65 10.07 10.41 10.34 11.86 10.16 7.63 7.26 8.31 9.72 8.15 5.71 3.85 4.65 3.13 1.92 2.73 7.40 6.77 3.86 7.37 5.77 -1.32

GFSNW_sfc_wetblb_087.txt.gz
Wetbulb
43.76 43.67 43.67 43.82 43.91 43.19 37.99 31.95 22.75 35.69 39.04 26.97 27.98 23.89 26.88 30.46 28.70 31.31 28.69 29.08 27.48 25.46 26.55 27.51 27.11 27.61 31.15 35.45 38.21 35.57 38.09 34.44 29.64 31.69 37.47 40.61 39.29 36.14 35.85 29.54 27.92 32.06 30.72 31.97
43.64 43.43 43.46 43.34 43.52 42.68 34.26 28.61 28.18 35.39 35.72 18.60 21.70 26.21 26.67 28.27 27.34 27.90 27.84 26.99 29.08 29.64 26.50 22.86 27.23 30.44 36.22 35.39 35.65 36.88 38.17 32.42 25.92 29.51 34.83 38.62 35.63 36.74 34.80 33.58 32.42 29.47 27.66 32.32
43.95 43.22 42.65 42.43 43.28 43.36 35.27 27.60 20.27 26.64 32.91 27.67 25.00 23.69 24.00 24.50 30.43 29.20 30.04 28.55 30.44 27.37 25.68 29.09 26.59 27.72 34.06 35.04 38.91 40.42 39.46 32.91 28.78 24.90 27.84 32.43 29.65 32.73 33.89 33.73 28.44 28.61 29.41 31.61
43.24 42.57 42.22 42.21 43.11 43.63 35.13 28.53 23.41 26.87 19.88 24.43 26.47 25.46 24.71 23.46 23.84 29.60 30.46 27.57 27.54 26.53 23.69 27.63 26.82 31.45 32.89 35.79 38.74 38.46 36.28 29.82 31.80 31.73 32.44 32.48 31.62 31.48 32.73 30.93 31.83 27.53 30.55 31.47
42.43 42.43 42.84 43.13 43.45 43.14 34.68 28.05 26.55 30.54 27.03 26.71 22.34 25.31 23.58 24.13 26.47 28.37 26.58 26.99 28.22 29.02 25.72 28.88 27.83 32.04 32.49 32.35 36.67 35.97 36.90 29.52 31.16 28.65 31.46 31.26 29.13 31.60 31.98 31.58 32.05 32.05 32.99 33.33
43.19 43.27 43.48 43.48 43.70 42.08 35.81 35.94 36.09 30.74 25.92 26.04 23.44 22.98 24.86 26.77 29.45 30.44 31.13 29.82 29.68 28.52 31.04 35.36 36.49 36.93 36.98 36.50 34.47 34.11 33.03 31.21 28.65 24.22 28.74 29.00 24.71 29.74 31.90 33.25 35.67 36.02 30.93 37.00
42.93 42.83 43.13 43.55 44.07 42.26 37.17 34.77 34.19 28.08 21.81 25.18 25.10 26.73 27.65 27.12 28.59 26.54 30.47 34.17 31.36 35.40 39.82 39.43 38.43 37.59 36.51 36.13 35.89 36.74 31.83 30.20 29.71 24.96 26.28 17.03 29.94 35.66 37.04 35.80 36.50 37.47 37.05 38.53
42.53 43.04 43.66 44.03 44.22 44.29 39.16 36.13 34.02 29.48 23.05 26.58 25.91 26.37 27.34 28.74 30.13 30.07 31.29 31.90 35.22 37.76 37.08 32.01 28.66 28.72 29.93 31.35 33.39 34.68 34.88 31.97 26.90 23.61 23.24 26.73 30.51 36.48 34.90 34.17 32.91 35.07 33.99 36.07
42.79 43.11 43.53 43.86 44.17 44.32 41.10 38.40 38.38 34.24 25.76 24.01 28.70 27.41 27.97 25.43 27.25 27.79 30.31 34.39 37.30 35.98 32.24 29.49 23.67 22.11 25.95 25.46 28.83 35.12 34.18 34.00 29.87 25.54 19.78 17.09 27.96 36.65 40.71 40.33 29.58 34.48 33.06 32.15
42.87 43.11 43.46 43.71 44.17 44.58 42.31 40.07 40.05 35.37 27.50 29.31 29.81 26.76 26.59 31.18 28.85 26.36 28.97 29.48 32.06 35.44 30.02 26.71 24.21 23.84 29.20 24.02 24.45 26.60 27.66 27.66 25.21 24.61 23.01 26.89 33.78 37.42 41.40 28.79 29.15 34.37 32.91 30.77
42.49 42.80 43.29 43.70 44.11 44.53 42.00 39.81 40.35 35.83 28.96 29.33 32.40 33.52 30.23 30.12 29.27 25.22 29.28 29.21 30.84 31.13 27.73 27.52 26.91 26.03 28.03 28.10 29.65 28.42 27.61 26.22 25.92 26.51 23.90 20.79 34.40 37.23 31.82 35.18 34.51 34.01 32.02 30.89
42.65 43.13 43.80 44.23 44.20 44.61 43.66 37.82 40.46 40.05 33.71 31.27 34.71 36.28 36.37 34.40 34.30 31.77 32.00 30.50 31.91 33.09 28.27 29.73 30.73 26.54 29.17 27.15 24.58 32.15 27.78 29.25 26.09 30.51 28.95 32.39 32.90 31.46 32.86 33.98 32.89 32.89 31.99 31.37
43.16 43.61 43.62 44.22 44.35 44.72 43.41 38.49 39.16 37.11 33.78 32.33 30.99 30.87 35.17 37.56 37.51 39.04 30.24 33.37 36.05 34.91 36.47 32.07 32.58 27.85 32.59 27.67 25.17 26.43 26.21 29.81 28.58 27.94 29.27 28.80 30.28 31.55 31.35 30.71 29.45 30.49 30.91 29.91
42.95 43.16 43.94 44.57 44.76 45.06 43.20 38.86 39.66 37.28 31.72 25.70 27.75 34.98 33.07 36.89 37.06 36.87 37.37 35.66 39.02 38.05 36.86 31.11 31.78 27.70 35.31 28.96 27.20 24.79 26.15 28.11 25.89 29.49 30.59 30.38 28.14 28.95 29.20 29.06 29.52 28.28 28.03 27.93
42.81 43.82 44.59 45.32 45.79 45.44 43.26 41.22 40.31 38.99 33.11 25.54 27.75 33.02 34.89 36.64 35.61 35.02 35.84 35.30 34.49 34.05 30.80 31.49 30.55 34.11 34.40 32.29 28.08 22.65 27.07 25.06 24.65 23.56 29.35 26.63 25.34 27.63 28.07 25.59 25.64 26.34 25.24 23.45
43.29 44.31 45.18 45.84 46.28 45.44 41.58 32.92 40.01 40.45 39.39 32.29 24.37 32.45 32.73 35.34 35.05 34.29 34.07 35.00 34.85 35.00 32.98 32.71 35.09 37.48 34.79 28.18 23.21 25.88 27.97 30.41 29.43 29.52 29.31 27.49 26.67 26.68 27.08 24.26 23.36 23.39 22.35 22.38
43.67 44.77 45.56 45.98 46.03 43.22 37.48 34.98 37.65 41.55 40.66 32.83 26.19 26.76 32.34 36.90 35.25 34.22 34.58 35.91 35.68 35.44 34.10 33.62 33.93 32.79 32.53 27.16 21.83 24.40 26.61 29.86 29.12 31.17 30.20 26.01 26.70 23.93 25.82 24.24 22.94 23.29 21.50 21.32
44.02 45.03 45.74 46.09 45.85 43.67 39.65 41.84 42.69 41.54 37.23 34.02 26.58 25.90 29.09 37.26 32.66 32.42 36.00 32.62 35.07 36.24 34.50 34.64 33.61 30.94 29.32 21.11 23.47 24.72 24.99 27.77 27.65 26.67 27.73 26.52 26.23 25.38 24.24 24.25 23.35 20.88 19.72 19.62
44.42 45.32 45.26 42.85 40.12 37.07 39.24 43.39 42.88 42.69 37.17 28.87 27.98 24.07 23.29 36.45 34.57 36.01 35.13 35.47 29.93 34.12 32.72 32.81 32.33 24.90 18.90 22.19 23.09 22.11 22.36 22.22 23.52 25.25 24.72 24.08 22.26 22.15 22.66 23.12 21.39 19.81 18.95 18.83
44.97 42.39 36.81 30.90 37.02 44.23 42.40 38.04 33.44 33.81 34.13 35.20 27.20 29.10 25.99 33.53 33.59 31.22 31.38 33.49 30.41 27.26 32.08 30.22 25.08 18.90 22.46 22.57 22.27 22.36 22.21 22.45 24.99 24.18 21.87 21.98 20.47 20.41 19.96 19.53 19.78 18.72 17.60 16.86
40.01 34.67 33.63 39.61 44.00 37.88 33.60 30.15 29.88 30.76 27.98 31.05 31.74 28.35 27.99 36.56 30.71 30.25 31.60 30.81 31.43 27.26 30.18 29.94 23.03 18.26 21.25 22.49 21.18 21.36 22.44 22.55 22.53 22.32 22.02 21.95 21.79 20.22 18.85 18.04 17.48 16.72 15.72 13.95
38.62 39.39 41.16 39.83 35.23 32.73 29.00 26.79 28.75 27.40 25.17 29.09 28.27 29.62 32.41 34.74 36.70 31.90 32.82 30.20 30.96 26.08 31.24 26.41 20.57 19.60 21.83 20.94 19.91 20.01 20.94 20.62 20.06 20.98 20.15 19.88 19.47 19.15 17.73 16.30 14.80 13.10 11.94 10.48
41.59 36.37 32.30 32.47 31.07 26.39 22.20 18.46 24.65 23.97 26.54 26.51 31.19 30.25 32.53 34.72 35.44 32.38 32.35 28.68 27.79 30.15 24.10 22.25 17.59 20.86 20.84 20.06 19.69 19.52 19.90 19.15 18.08 17.02 17.02 16.34 15.27 14.87 13.84 11.35 10.25 10.81 8.33 7.54
33.63 30.92 25.04 25.67 23.37 24.12 21.82 23.98 25.76 27.81 27.98 30.18 32.32 32.50 31.94 32.44 30.89 31.81 26.53 27.38 28.88 22.87 20.27 20.37 18.34 19.48 19.27 19.44 19.09 16.30 13.37 12.77 12.64 11.79 11.83 10.46 9.12 6.86 6.14 5.90 6.80 7.87 6.22 4.07
29.69 28.36 21.00 19.82 21.97 22.90 27.46 27.32 30.42 31.39 32.85 33.57 32.77 32.26 32.49 28.73 27.26 27.24 25.79 24.80 22.19 23.14 21.68 16.51 17.79 18.02 16.21 14.26 13.45 11.65 10.16 8.96 9.16 9.84 8.74 7.92 8.38 8.54 6.85 5.55 7.37 6.47 4.85 4.77
26.74 22.91 17.47 20.23 22.90 26.47 28.61 28.33 29.81 32.68 32.92 33.54 31.94 28.53 27.12 25.47 24.21 24.03 23.96 21.59 19.08 19.32 14.45 13.53 15.66 13.28 13.01 13.19 13.47 11.18 10.99 10.91 9.81 9.92 10.36 9.88 8.86 9.89 9.02 7.71 7.17 5.08 6.39 4.97
21.36 14.55 12.66 15.30 17.28 22.19 25.34 28.23 28.80 31.09 32.73 29.10 26.14 21.84 23.66 24.59 19.25 18.96 18.70 18.28 16.04 11.95 13.20 15.55 14.91 14.40 12.67 11.60 11.92 11.90 12.83 12.00 11.68 11.27 11.59 10.29 8.90 9.59 13.11 12.98 11.99 12.39 10.68 7.20

GFSNW_sfc_wetblb_090.txt.gz
Wetbulb
44.19 44.10 44.02 44.02 43.67 43.02 41.96 40.71 32.84 43.06 44.28 33.99 33.87 29.42 28.98 31.53 31.23 33.48 31.41 31.33 30.00 28.17 29.15 28.05 28.50 28.91 32.37 36.72 34.74 30.59 41.01 37.77 32.97 35.03 40.95 43.23 41.34 38.66 38.69 33.09 30.72 34.63 31.91 35.32
43.98 44.23 43.86 43.50 43.54 42.74 42.89 36.47 36.53 42.49 41.96 28.22 30.06 30.35 29.30 30.80 30.42 30.57 29.95 29.23 31.65 32.69 28.40 24.14 29.03 30.54 36.24 36.19 33.71 34.18 40.86 36.39 30.35 31.69 36.29 40.18 37.62 38.53 38.29 36.41 36.37 32.23 29.98 36.47
44.31 43.94 43.35 42.70 43.44 42.74 43.11 37.45 30.97 35.88 38.77 34.63 27.97 26.65 27.23 27.62 32.86 31.62 32.13 30.85 32.91 30.74 28.73 31.34 26.76 28.49 32.93 33.93 33.77 36.97 40.42 36.69 33.48 30.08 32.93 37.27 33.80 36.01 37.84 36.67 32.29 33.11 34.29 35.99
44.32 43.35 42.37 42.47 43.34 43.30 42.71 37.26 31.61 32.55 29.70 30.68 29.95 28.97 27.69 26.53 26.80 31.83 32.75 30.45 30.20 29.06 25.59 27.86 27.57 31.11 32.85 34.33 37.31 39.38 39.96 33.19 35.30 35.15 35.91 35.62 34.71 34.39 35.64 34.48 34.96 30.70 34.43 34.51
43.35 42.73 43.00 43.31 43.88 42.41 41.14 33.18 34.16 33.07 31.48 30.15 28.26 27.43 26.69 26.50 28.36 28.91 28.52 28.72 30.87 30.42 28.50 30.00 25.99 30.56 31.40 33.39 35.93 34.78 38.67 31.89 33.55 30.80 34.07 34.06 31.42 33.78 35.14 35.23 35.40 35.67 36.32 36.19
42.79 43.10 43.22 43.74 43.98 42.92 40.39 40.21 38.34 35.72 30.25 28.99 28.42 28.33 27.60 27.48 30.00 31.01 31.43 31.84 30.22 29.76 32.49 36.04 36.18 37.16 37.29 36.32 34.39 33.68 34.82 33.62 30.64 26.41 31.69 31.32 28.01 32.43 34.01 35.17 37.27 37.40 33.49 38.55
43.98 43.74 43.74 43.61 44.20 43.09 42.91 40.84 38.14 32.20 29.11 29.85 28.94 29.41 29.94 28.46 28.94 28.32 31.69 34.12 31.85 35.08 39.45 40.18 39.64 39.07 38.67 38.10 37.62 38.34 33.86 32.78 32.56 28.43 29.42 19.50 34.64 39.48 39.06 36.40 37.53 36.58 36.14 38.49
43.10 43.31 43.24 43.79 44.22 43.94 43.05 41.62 39.00 34.72 27.53 30.97 29.97 30.32 29.79 29.87 31.84 30.93 31.12 33.26 34.65 36.65 36.66 33.81 30.34 31.37 32.51 34.14 36.54 36.96 38.53 35.03 30.28 27.31 26.47 29.67 34.04 36.64 36.24 34.85 33.57 33.71 33.10 34.34
42.92 43.12 43.57 43.89 44.00 44.61 43.01 39.87 41.49 37.01 31.38 31.89 31.54 30.27 30.37 28.91 27.79 29.82 29.99 36.00 38.40 36.28 35.25 32.81 25.68 24.51 28.14 27.91 32.08 37.56 36.05 36.32 32.22 29.31 20.16 19.56 32.34 37.98 42.20 41.97 31.13 32.74 33.43 31.12
43.04 43.30 43.52 43.60 43.88 44.34 43.42 41.00 41.39 37.63 31.82 35.99 34.20 31.68 30.40 33.39 31.18 28.28 32.18 32.72 35.17 39.21 34.63 30.65 27.75 27.46 31.87 26.96 26.68 28.77 31.00 29.63 27.93 28.71 26.63 31.07 34.31 37.66 41.47 31.26 29.43 33.73 32.93 30.54
43.17 43.25 43.27 43.42 43.84 44.37 44.13 41.17 42.32 38.11 32.37 35.96 36.53 36.71 33.93 33.75 32.85 29.15 32.89 33.73 34.64 33.74 30.25 30.13 30.01 29.74 31.28 30.93 32.23 30.68 29.61 28.95 29.71 28.80 26.09 22.99 32.56 37.76 31.92 32.06 34.16 33.84 32.06 30.40
42.75 42.78 43.15 43.47 44.13 44.59 44.69 39.51 42.25 41.01 35.38 35.74 39.53 39.89 40.66 38.88 37.67 34.34 35.07 33.42 33.27 34.88 31.77 31.70 31.98 30.63 33.97 30.74 28.51 34.67 29.52 29.01 28.69 27.86 26.33 30.75 31.83 31.03 32.57 33.35 31.33 32.29 31.66 31.19
42.48 42.94 43.41 44.01 44.37 44.52 44.54 41.63 40.49 37.72 34.25 33.96 36.87 36.76 40.15 41.42 41.10 41.96 32.64 37.74 37.80 35.84 38.73 33.92 33.28 29.09 34.27 30.70 29.20 29.95 30.85 32.69 31.40 30.77 29.52 29.08 30.43 31.51 31.60 31.52 29.93 30.77 30.94 29.83
43.00 43.58 43.65 43.72 44.38 44.87 44.40 41.20 41.33 38.79 36.98 31.95 35.14 40.02 38.53 41.36 41.84 40.91 40.50 38.63 39.08 38.48 36.72 34.57 33.83 31.33 35.99 32.04 30.47 30.07 28.76 30.32 28.27 29.05 30.77 31.29 29.09 29.27 29.80 29.67 29.89 27.89 28.03 27.94
43.02 42.91 43.24 44.04 44.73 45.00 45.42 43.30 41.49 43.27 37.21 32.47 34.31 39.62 39.29 41.31 40.96 39.67 40.19 38.72 36.94 36.36 34.37 34.09 32.99 36.33 35.25 33.82 33.32 27.49 28.84 26.79 27.40 26.91 30.15 29.11 26.74 28.33 28.77 26.29 25.73 27.20 26.06 24.59
42.71 43.12 44.01 44.71 45.01 44.48 42.69 33.99 41.81 42.72 40.45 35.69 30.87 38.85 37.33 39.99 39.89 38.80 38.28 38.74 38.03 37.64 35.17 35.12 37.44 39.06 34.94 31.64 27.56 27.55 30.11 30.94 31.12 29.39 30.37 28.70 28.23 27.65 27.71 25.32 24.48 24.90 24.53 24.09
42.63 43.48 44.08 45.31 46.00 44.59 38.88 38.30 43.07 43.61 43.18 35.04 29.65 33.58 37.99 39.92 39.31 39.69 39.06 39.12 39.98 38.25 36.35 34.85 35.75 34.63 35.32 31.48 26.80 26.83 29.43 30.02 31.08 32.26 30.70 27.10 27.51 24.95 26.63 25.57 24.98 24.95 24.53 24.53
43.07 43.75 44.82 45.67 45.53 43.90 39.92 45.09 43.45 43.42 38.28 35.91 28.24 31.26 34.63 40.26 36.60 36.24 41.14 37.01 37.64 37.53 35.70 36.21 34.72 34.13 32.49 24.14 25.05 26.29 27.72 29.03 28.09 28.98 29.64 27.89 28.03 27.11 26.50 27.16 26.12 23.92 22.78 22.63
43.33 44.27 45.42 43.21 40.58 36.93 39.99 43.42 43.41 44.25 39.24 32.53 30.19 28.81 30.00 37.89 36.33 39.02 37.41 37.88 32.38 39.18 33.40 33.29 33.96 30.99 25.63 24.91 24.66 24.44 25.04 25.08 26.59 27.39 27.95 27.51 26.22 25.88 25.88 26.07 25.41 23.47 22.20 22.33
43.77 43.07 37.86 31.85 38.20 44.04 42.50 38.73 35.44 35.26 36.60 35.48 30.99 36.42 32.42 37.22 34.43 34.49 34.93 35.44 32.12 27.66 33.21 35.64 32.60 24.85 24.97 24.97 25.04 25.39 25.49 26.67 28.56 25.93 24.04 24.76 23.84 23.78 23.19 22.83 23.45 22.85 21.55 20.69
40.61 34.90 34.37 40.12 43.58 38.50 35.40 31.99 31.10 31.52 29.40 33.20 32.79 34.90 33.49 39.30 32.89 33.31 34.49 33.29 33.40 27.37 32.20 31.00 29.56 25.82 23.96 25.43 24.37 25.56 25.94 26.61 26.84 27.04 26.27 26.37 25.40 23.30 21.76 20.97 21.14 20.64 19.65 17.56
38.64 40.55 42.03 40.95 36.72 34.75 31.14 29.33 31.05 29.28 28.68 33.81 31.52 31.60 35.19 35.75 37.24 34.82 33.45 29.59 32.92 28.00 34.27 30.62 27.80 23.90 24.49 24.63 23.57 23.86 24.64 24.81 24.58 25.27 24.10 24.14 23.44 23.40 22.13 20.65 18.85 17.08 15.38 13.79
42.13 38.71 33.28 34.07 33.31 28.74 26.57 23.05 26.79 28.82 32.64 34.13 33.53 30.80 35.54 35.67 36.95 34.53 33.40 30.38 30.90 34.78 30.28 29.43 26.12 24.25 24.28 23.78 23.58 22.82 23.43 23.16 22.39 21.69 22.09 21.62 20.27 19.73 18.19 15.55 14.79 14.88 12.61 12.34
34.33 32.86 28.21 28.88 27.55 29.51 31.00 31.59 34.17 35.68 35.49 34.59 33.62 33.82 34.67 36.57 31.65 33.84 29.60 32.00 32.66 26.44 25.55 26.50 24.80 23.64 23.29 23.73 23.10 21.86 19.58 19.46 19.26 18.30 17.25 15.53 14.07 13.04 13.24 13.67 13.66 12.86 11.72 11.12
34.43 33.60 28.37 27.68 33.04 32.05 32.54 33.30 32.86 33.46 37.18 36.75 34.75 34.80 35.31 32.58 31.49 31.97 29.85 27.43 24.68 26.74 29.02 27.01 25.09 23.94 22.12 20.35 19.60 17.35 15.78 15.28 16.23 16.74 14.98 13.99 13.68 13.38 12.55 13.12 14.42 13.02 11.51 11.10
30.03 28.19 27.93 28.55 29.97 29.76 31.44 32.03 31.09 35.62 35.96 38.47 38.31 32.26 30.34 30.27 31.55 27.38 27.02 26.14 25.95 28.99 26.70 25.71 23.86 20.74 19.51 18.88 18.39 17.43 17.25 17.23 16.83 16.31 16.35 15.84 14.79 15.35 15.41 14.23 13.84 12.91 13.23 11.85
26.22 27.08 27.86 30.22 31.85 32.33 31.43 33.09 32.78 34.30 35.58 33.06 34.31 28.75 28.90 29.24 27.74 25.85 28.56 28.84 27.31 24.01 24.13 25.03 24.02 20.32 18.71 17.58 16.69 16.21 17.09 17.42 17.71 17.48 17.18 16.27 16.39 15.86 17.28 17.03 16.58 17.14 15.70 14.13

GFSNW_sfc_wetblb_093.txt.gz
Wetbulb
44.79 44.59 44.65 44.32 43.82 43.68 41.85 44.12 37.47 46.11 47.06 37.25 37.85 32.71 31.27 33.58 33.36 35.97 33.78 33.53 31.26 29.82 30.65 29.08 29.01 29.12 33.56 36.98 35.93 31.59 36.10 37.00 32.30 35.99 41.90 43.01 41.81 39.33 39.44 33.06 31.84 35.83 34.95 35.70
44.66 44.68 44.34 43.90 43.79 43.56 45.52 41.51 40.21 45.96 44.83 32.08 34.02 33.13 32.10 33.21 32.51 32.98 32.55 31.09 32.99 33.48 30.33 25.95 30.47 31.95 37.48 37.23 34.37 33.58 35.07 34.71 30.54 31.00 37.54 41.85 38.93 40.58 41.11 39.40 38.41 33.78 31.47 35.27
44.80 44.65 44.11 43.39 43.57 43.74 44.03 41.37 34.25 38.49 41.09 37.44 31.60 29.58 30.00 30.07 35.59 33.95 34.35 33.14 34.83 32.44 30.15 33.55 29.85 31.24 34.54 35.61 34.93 38.00 36.43 32.43 34.06 29.19 34.60 38.85 35.08 37.75 39.79 38.44 33.41 33.78 35.54 37.53
44.55 44.26 43.41 42.71 43.19 44.22 42.77 41.51 35.17 36.47 33.46 33.02 32.77 30.89 29.63 28.98 28.56 34.22 35.01 32.40 32.25 30.52 27.51 29.78 30.01 32.57 33.53 35.75 36.82 36.56 34.75 34.69 36.39 37.28 38.88 39.27 38.10 37.38 38.07 36.14 36.83 32.56 35.83 36.09
44.59 43.66 42.89 42.86 43.77 44.05 42.48 36.81 37.09 36.95 34.80 32.57 28.78 31.09 28.91 28.73 29.85 30.29 30.06 29.67 32.20 32.63 29.73 30.87 27.74 30.93 32.37 32.81 37.00 34.97 37.41 33.32 36.72 33.89 37.22 37.04 34.51 35.91 36.55 36.76 36.78 36.79 37.64 37.37
43.85 43.11 43.40 43.98 44.23 43.42 39.99 43.52 41.89 38.98 31.97 33.41 31.79 32.32 29.85 29.92 32.45 32.85 33.76 32.71 31.78 31.73 34.07 37.46 37.67 38.73 37.31 36.47 34.95 34.71 34.90 35.85 34.21 28.36 34.38 33.15 29.61 33.90 35.24 36.24 39.12 37.80 34.17 38.33
43.40 43.52 43.84 44.17 44.25 43.63 42.72 42.96 42.37 35.04 32.59 33.54 32.62 32.17 33.01 31.06 30.99 29.38 33.41 34.71 32.12 36.05 40.27 39.49 40.44 39.26 38.14 38.56 37.65 38.32 35.12 34.66 34.64 27.66 30.61 23.83 34.97 40.98 39.93 38.02 37.86 38.68 38.13 38.81
43.96 44.18 44.15 43.91 44.49 44.37 42.92 44.34 39.54 35.01 30.32 34.63 33.15 32.91 33.15 34.62 34.44 33.21 33.19 35.10 36.45 39.01 35.93 32.00 32.01 32.59 34.32 35.40 37.60 37.18 39.23 35.51 30.28 28.61 30.00 32.33 35.40 37.41 36.85 35.89 32.75 35.36 34.58 35.83
43.26 43.81 43.56 44.13 44.61 44.63 44.41 44.47 45.56 40.36 33.15 34.34 35.22 33.45 34.83 32.57 31.15 31.64 32.80 39.46 41.39 38.07 35.24 33.28 26.98 26.10 29.97 28.98 32.07 38.27 37.79 38.19 33.96 31.52 25.81 22.94 32.12 38.23 41.91 40.76 28.07 33.42 33.50 31.66
43.24 43.34 43.81 44.08 44.17 44.81 44.87 45.16 43.65 39.36 35.54 38.45 37.43 34.25 32.81 36.31 34.78 33.27 35.82 36.28 37.38 40.81 34.51 31.58 29.50 28.79 34.05 28.43 28.45 29.67 32.32 32.97 30.62 29.90 29.80 31.54 33.48 38.55 40.51 30.83 26.43 32.81 32.39 29.89
43.58 43.74 43.81 44.12 43.95 44.13 45.32 43.42 45.09 40.66 37.64 38.15 39.48 39.63 36.27 36.71 36.46 32.44 35.95 36.90 36.87 35.53 31.20 30.81 31.50 30.86 32.95 32.67 33.87 31.37 30.84 29.55 30.47 31.09 28.83 25.61 33.39 37.27 30.05 30.44 34.11 34.30 31.91 30.94
43.89 43.76 43.68 43.78 43.90 44.30 44.95 40.56 44.72 43.28 36.69 38.47 42.69 42.49 43.11 41.32 40.20 37.29 37.87 34.72 35.54 36.73 32.12 32.39 33.25 32.51 34.54 32.91 28.86 36.33 30.21 30.39 28.53 28.61 26.67 31.86 32.39 31.25 32.59 33.96 32.02 32.57 32.17 31.65
43.48 43.19 43.27 43.62 44.05 44.47 44.54 42.94 42.07 39.11 35.90 36.82 39.65 39.70 42.76 43.62 43.44 44.47 35.82 39.83 39.12 37.30 38.64 34.01 34.59 31.23 36.04 30.38 30.30 32.02 32.76 35.18 32.00 30.48 30.25 29.64 31.08 32.13 31.87 31.36 30.02 31.02 31.15 30.13
42.73 42.93 43.30 43.98 44.34 44.73 44.40 42.87 43.54 42.10 37.20 32.31 37.45 43.13 41.64 44.46 44.23 43.26 42.93 40.78 41.87 41.07 39.95 35.56 35.43 32.95 37.78 32.91 33.45 30.62 29.86 32.51 30.74 29.51 31.09 31.01 29.22 29.71 30.20 30.25 30.11 28.94 29.15 29.05
42.79 43.28 43.81 43.76 43.96 44.85 45.84 46.07 45.49 43.00 37.43 32.70 36.14 42.21 42.19 43.66 43.77 42.21 42.59 41.41 40.07 38.60 34.87 33.91 34.14 36.97 35.70 37.21 36.30 29.17 30.23 27.53 27.79 26.80 31.08 29.23 26.90 28.76 29.65 27.57 27.11 28.59 28.05 26.92
42.82 43.17 43.22 43.71 44.44 44.81 43.47 34.96 44.84 45.36 42.11 35.36 30.82 41.67 39.99 42.07 43.31 41.63 40.63 41.40 40.94 38.49 35.16 34.89 37.39 39.69 37.43 32.44 28.67 28.40 31.22 31.56 33.19 30.11 31.13 29.80 29.06 28.82 28.76 26.94 26.42 26.95 26.60 26.49
43.03 42.92 43.33 44.33 44.79 44.35 39.45 39.01 42.32 44.61 43.12 37.53 31.31 35.26 40.25 41.55 42.09 42.12 41.35 41.41 41.39 39.28 37.73 36.11 36.63 36.42 36.96 32.99 29.21 28.25 30.31 31.35 32.66 33.69 32.52 28.75 28.74 26.18 28.19 27.64 27.34 27.54 26.94 27.04
42.68 43.03 44.00 45.05 45.30 43.38 39.57 45.28 45.20 44.97 40.17 39.87 29.04 32.65 36.54 41.59 35.97 35.30 42.38 38.82 37.71 37.53 37.78 39.50 35.50 36.72 33.95 26.39 27.03 28.71 30.32 29.94 30.18 30.72 30.84 29.45 29.42 28.92 28.28 29.17 28.36 25.85 24.55 24.50
42.60 43.47 44.22 42.97 40.89 37.63 41.02 44.12 44.08 45.58 40.21 33.25 31.44 29.92 31.50 41.82 37.77 38.84 39.71 40.27 33.21 40.98 35.39 36.63 37.33 33.77 26.76 26.84 27.52 27.20 27.94 28.46 27.59 29.45 31.43 30.78 29.44 28.73 29.01 28.68 27.43 25.40 24.33 24.31
43.03 42.40 36.72 31.92 38.03 44.04 42.88 39.09 36.33 36.47 36.82 37.73 32.59 38.18 34.43 38.96 37.42 36.38 36.01 38.21 33.47 30.30 34.89 39.54 33.49 26.91 27.38 27.14 27.62 28.33 28.77 30.03 30.49 27.80 26.52 27.68 26.68 26.10 25.90 25.76 26.38 25.51 24.36 23.11
39.29 34.61 34.26 40.80 43.63 39.93 37.57 32.45 32.47 32.17 29.72 34.43 33.72 35.95 33.99 41.77 34.12 33.08 39.15 33.98 35.14 28.43 33.74 33.06 31.50 26.96 26.12 28.39 27.26 28.77 29.73 30.49 30.38 30.63 29.94 29.72 28.10 25.69 24.69 24.01 23.99 23.39 21.92 19.18
39.02 39.70 41.81 39.72 35.99 35.89 32.46 30.62 32.44 30.50 30.58 35.96 33.00 33.17 36.60 39.62 41.38 35.26 35.64 31.20 34.31 28.75 37.16 32.08 28.75 26.02 27.89 27.59 27.22 27.75 28.74 28.73 28.21 28.94 27.95 27.82 26.94 26.73 25.38 23.70 21.25 19.06 16.44 15.17
42.10 38.95 34.59 33.79 33.90 30.11 28.29 24.63 27.81 30.81 35.57 37.12 35.36 32.24 36.74 37.90 38.00 34.67 34.85 29.16 30.70 37.82 31.55 31.04 28.28 27.38 27.82 27.99 27.05 26.40 27.36 27.10 26.54 25.83 26.08 25.46 23.84 22.93 20.77 17.80 16.85 16.56 14.87 15.18
34.93 33.36 29.57 30.49 28.81 31.12 33.04 34.29 36.55 39.02 38.57 37.09 35.22 34.79 35.38 36.99 33.67 34.58 29.51 34.35 33.99 28.84 27.40 28.46 28.10 26.50 26.07 26.81 26.61 25.85 23.74 23.57 23.26 22.24 20.77 18.67 17.26 16.38 16.62 16.28 16.11 15.32 13.90 13.66
34.28 35.08 29.52 30.02 35.93 35.09 34.63 35.71 35.62 37.67 39.68 37.41 35.08 37.64 36.58 34.78 32.51 34.18 31.67 28.66 26.52 28.14 29.93 29.59 28.11 26.71 25.46 24.62 24.33 21.99 20.63 20.02 19.83 19.52 17.79 16.75 16.61 16.18 15.86 16.62 17.09 15.74 14.57 14.11
34.90 32.41 30.57 32.28 32.63 32.10 33.01 33.37 33.37 37.45 38.92 38.94 38.32 32.89 32.01 31.54 32.51 29.36 27.55 27.41 27.66 30.16 29.16 28.52 26.91 24.57 24.22 23.24 22.02 20.69 21.14 21.60 20.92 19.57 19.23 18.35 17.09 17.66 18.15 17.56 16.91 15.83 15.83 14.43
31.03 30.12 30.65 33.37 33.19 34.10 34.10 35.00 36.03 38.70 37.07 34.38 35.68 29.49 29.63 34.28 29.06 27.81 33.23 30.31 29.22 28.27 26.95 27.54 26.73 24.57 22.97 21.82 20.97 20.32 21.01 21.27 21.39 20.79 20.03 19.27 19.69 18.20 18.62 18.90 18.70 18.79 18.50 16.72

GFSNW_sfc_wetblb_096.txt.gz
Wetbulb
44.97 44.39 44.75 43.92 43.86 43.67 42.01 42.98 36.26 45.35 46.82 36.81 36.74 32.88 32.36 34.90 33.79 36.25 34.30 33.63 31.63 29.64 29.81 28.04 28.40 28.31 32.29 37.84 36.99 30.37 34.92 34.14 27.96 33.78 40.37 41.83 40.37 37.96 37.65 31.15 30.43 34.65 33.45 32.92
45.00 44.37 44.15 43.90 43.61 43.46 43.04 39.68 39.12 44.76 45.13 32.07 32.72 34.29 33.07 34.09 33.46 33.73 33.49 31.97 33.42 33.92 30.13 25.77 30.14 31.48 36.69 36.91 34.30 31.49 34.44 30.45 26.52 29.44 35.61 40.78 37.45 38.81 39.23 38.14 37.77 32.36 30.02 32.86
44.81 44.56 44.24 43.31 43.23 43.68 41.98 40.60 34.24 38.31 40.48 37.11 32.88 30.31 31.18 30.74 36.17 34.44 35.56 33.46 34.68 32.17 29.80 32.58 29.15 31.22 35.59 37.45 36.57 37.84 36.26 29.79 26.74 24.12 31.35 37.68 34.81 37.54 38.85 37.34 32.12 32.19 33.21 33.96
45.27 44.53 43.80 42.52 42.73 43.67 41.72 41.07 36.25 37.28 32.37 33.45 33.27 32.19 30.76 29.62 29.25 34.27 34.70 32.37 32.52 30.68 26.98 29.06 28.90 32.24 32.82 35.31 37.02 36.84 34.98 28.75 31.47 32.50 33.29 38.65 36.84 36.28 36.20 34.59 36.10 31.97 34.33 34.81
44.77 44.29 43.08 42.48 43.10 43.54 41.98 36.31 36.39 36.28 34.82 34.96 31.84 32.76 30.29 29.59 30.87 30.73 29.83 30.03 31.71 31.26 28.66 30.30 28.39 31.28 31.32 31.96 36.18 35.46 36.33 31.64 33.22 30.94 36.28 37.28 33.91 34.78 36.21 36.86 36.81 36.25 36.91 36.09
44.84 43.61 43.18 43.25 43.45 43.51 40.86 42.34 41.70 38.25 34.05 33.73 32.56 32.78 31.21 31.16 33.46 33.59 34.33 32.61 31.23 30.37 33.27 35.58 35.99 36.84 36.88 36.67 34.19 34.79 33.97 32.66 32.76 28.05 34.49 34.47 29.41 34.51 36.08 36.53 36.17 35.46 30.72 34.02
44.17 43.26 43.54 43.71 43.66 43.59 42.59 41.95 40.90 36.27 31.71 33.34 33.14 33.13 34.28 32.87 33.12 30.18 34.03 35.28 32.63 36.19 39.97 38.39 38.57 37.64 37.09 37.26 37.51 38.58 33.91 33.26 34.41 28.25 31.85 23.71 34.19 40.34 39.79 34.45 33.21 33.69 33.96 33.66
43.52 43.72 43.76 44.13 43.76 43.79 43.07 43.08 39.98 36.04 31.81 34.96 34.28 33.64 34.12 35.82 35.51 35.13 35.05 36.32 38.38 40.74 36.71 32.34 30.81 31.93 33.36 35.29 37.40 37.08 38.06 36.35 32.12 28.62 28.31 30.85 33.76 35.40 35.47 34.76 29.59 32.23 31.45 31.15
44.20 44.54 43.91 43.52 43.67 43.86 44.15 44.23 44.79 39.06 33.64 33.23 36.54 34.12 35.74 32.47 33.00 34.81 35.40 40.95 43.46 39.40 34.42 32.50 27.73 24.98 28.99 28.42 32.06 38.56 37.82 38.56 34.47 32.26 26.08 23.04 28.70 33.62 39.40 39.44 25.15 32.07 31.00 28.89
43.52 43.73 43.73 43.83 44.01 44.25 44.50 44.80 46.08 40.59 34.48 38.05 37.69 33.44 32.72 36.80 35.04 33.07 36.46 36.84 37.55 40.62 32.94 31.29 28.35 27.90 33.78 27.22 27.57 29.70 32.42 33.29 30.50 29.29 28.80 28.04 29.97 35.15 39.65 28.10 25.14 31.91 30.51 28.25
43.39 43.44 43.96 44.01 44.15 43.91 44.44 43.42 45.96 40.79 36.52 37.76 39.96 40.08 36.38 36.74 36.05 31.32 35.53 36.12 36.49 34.18 30.65 29.65 29.65 30.09 32.19 31.48 32.69 30.76 27.69 27.85 27.31 30.26 27.11 22.42 31.09 33.51 26.83 30.32 33.07 32.47 30.17 29.21
43.93 43.91 43.89 43.98 43.96 43.74 44.71 41.64 44.50 44.67 38.31 37.34 41.54 41.88 43.03 41.26 40.14 36.65 37.18 35.37 35.64 35.67 30.80 31.58 32.11 30.79 33.78 32.16 27.15 34.54 26.45 29.59 27.84 26.75 25.80 30.53 30.84 30.12 31.75 32.23 30.07 30.28 29.97 29.89
43.85 43.69 43.73 43.61 43.73 43.98 44.03 43.18 43.33 41.33 35.39 37.53 39.76 40.05 43.74 44.53 43.26 44.35 35.04 38.56 38.80 37.22 39.08 34.42 33.47 31.41 34.32 28.50 29.01 32.24 32.94 34.48 30.89 29.64 28.79 28.27 29.65 31.32 30.89 30.14 28.85 29.65 30.22 28.95
43.51 43.34 43.27 43.42 43.61 44.30 44.15 41.99 42.77 41.86 38.52 32.11 37.07 44.05 42.04 44.93 44.51 43.21 42.93 40.61 41.73 41.33 39.90 35.26 34.01 32.91 37.25 32.72 32.77 28.88 29.66 32.28 30.34 28.39 29.45 28.96 27.83 29.17 29.91 29.72 30.16 28.69 29.16 28.87
42.96 42.83 43.02 43.34 44.11 44.42 45.10 46.57 43.97 44.73 38.40 31.91 34.76 41.37 43.44 43.84 43.90 42.44 42.50 41.18 39.41 37.84 35.38 35.01 33.46 36.59 35.79 36.93 34.20 26.36 29.75 26.09 26.60 24.82 30.44 27.39 26.23 28.79 29.12 27.26 27.29 28.47 27.51 26.52
42.73 42.91 43.54 43.67 43.79 44.45 43.69 35.00 44.63 45.74 43.68 34.83 29.97 41.86 41.32 42.50 43.35 42.14 40.82 41.07 39.82 38.63 35.39 35.29 37.46 39.72 36.24 31.69 27.35 28.30 30.42 32.17 33.17 28.69 30.23 28.63 28.54 28.17 28.59 26.75 26.93 27.78 27.20 27.41
42.40 43.25 43.12 43.35 44.67 45.02 39.19 37.84 41.52 45.15 44.01 36.15 31.60 34.04 40.77 41.68 41.85 41.61 40.62 41.47 39.56 38.91 36.68 36.15 36.88 36.71 36.91 32.54 26.66 28.38 30.49 32.36 33.79 34.07 31.02 27.99 29.02 25.71 28.11 27.94 27.75 27.87 27.02 26.87
42.60 42.86 43.06 43.93 44.41 42.79 40.06 45.35 45.29 45.34 39.95 38.20 29.32 31.06 36.52 41.99 37.51 36.73 41.76 38.37 39.04 37.24 36.86 38.43 35.92 36.53 34.13 25.12 28.06 29.76 29.92 30.46 31.32 30.72 31.31 29.53 29.87 29.90 29.28 29.47 28.10 25.27 24.02 24.04
42.77 42.97 43.60 43.13 40.99 37.07 40.20 44.83 44.57 45.81 40.29 32.87 32.09 28.42 30.61 41.39 38.09 39.67 38.60 38.72 33.32 39.35 35.39 35.88 36.27 34.00 25.90 27.23 27.76 28.29 29.98 29.97 29.03 31.97 31.72 31.14 29.20 29.19 28.98 28.33 27.09 24.72 24.03 24.21
42.86 43.08 37.72 31.63 37.36 43.96 43.41 39.90 36.63 36.97 38.13 37.10 31.96 36.79 32.82 38.96 37.18 36.08 36.43 37.38 33.92 30.36 35.09 38.60 33.28 26.05 27.91 29.12 29.49 29.33 29.80 31.21 31.26 28.48 27.48 27.97 26.34 26.16 26.00 25.49 25.71 24.66 23.03 21.11
40.03 35.21 33.79 40.72 44.17 40.70 38.07 32.07 32.03 33.16 29.79 34.12 33.96 35.71 34.65 40.99 34.26 34.11 37.86 34.01 34.85 28.14 33.04 32.67 31.30 26.33 26.44 28.26 28.23 29.90 30.86 31.99 31.31 31.16 30.28 29.73 27.93 25.44 24.55 23.69 23.32 21.89 19.52 16.57
39.17 39.43 41.09 40.03 36.38 33.97 31.86 30.01 32.87 30.99 29.43 35.81 33.42 34.02 36.68 38.94 40.99 35.53 35.68 30.68 33.89 27.14 36.74 32.36 28.90 26.60 28.62 27.78 27.51 28.62 29.44 29.48 28.96 29.61 28.14 27.89 27.03 26.56 24.62 22.62 19.36 16.65 15.62 14.41
41.13 37.73 33.61 33.19 33.89 27.82 26.78 24.31 27.68 30.34 35.93 38.60 36.87 33.22 36.54 38.36 38.81 34.98 33.52 27.88 29.05 36.66 31.76 29.28 27.04 27.85 28.31 27.71 27.40 26.82 28.08 27.83 27.17 26.26 26.05 24.26 22.38 21.90 19.62 16.21 15.74 15.81 14.74 14.89
33.41 32.34 29.08 30.20 28.21 30.26 32.91 34.77 36.59 39.80 40.15 37.52 36.51 34.61 34.93 37.72 33.55 33.70 28.15 33.46 32.98 28.06 26.92 27.66 27.21 28.01 28.35 28.07 27.44 26.13 24.42 24.36 23.14 21.43 20.25 18.72 16.96 15.51 15.45 15.24 14.91 13.33 12.27 11.96
32.54 32.69 28.75 30.00 35.92 35.44 34.17 35.98 36.48 38.99 40.23 37.98 36.14 36.54 36.56 34.27 31.92 32.94 31.78 29.56 26.51 28.61 28.95 28.98 28.78 28.01 26.73 25.91 24.74 23.39 21.67 21.13 20.39 19.32 17.47 16.43 16.32 15.75 15.68 15.97 16.25 15.23 13.01 12.51
33.58 33.56 31.68 34.17 33.38 31.99 33.08 33.81 33.81 39.32 39.67 40.24 38.52 33.68 32.04 30.84 31.70 29.76 28.13 27.59 26.95 28.76 28.50 28.46 27.94 26.18 25.71 24.18 23.18 22.24 22.35 22.08 20.95 19.41 18.59 17.90 15.99 16.79 17.59 17.68 16.47 14.59 15.21 12.46
32.72 31.33 32.72 33.62 34.17 33.44 33.26 35.08 36.72 40.28 38.70 33.20 34.55 29.13 28.44 34.02 29.10 27.89 33.12 30.16 29.25 28.42 27.56 28.22 27.08 25.37 23.56 22.74 22.26 22.56 22.78 22.10 21.77 20.96 19.99 19.67 20.09 18.36 18.30 17.70 17.52 18.01 18.81 15.16

GFSNW_sfc_wetblb_099.txt.gz
Wetbulb
45.28 44.61 44.57 44.29 44.04 43.51 40.84 37.38 31.12 41.76 43.20 32.98 33.70 27.65 32.02 35.07 33.15 35.56 33.22 32.15 30.58 28.01 28.25 26.31 26.02 25.71 29.83 35.92 34.06 28.42 33.11 30.05 24.33 27.91 36.18 39.11 38.24 34.28 35.03 26.86 28.06 31.98 30.75 29.63
44.48 44.39 44.44 44.19 43.50 43.63 38.82 35.29 33.74 41.01 41.60 26.92 27.33 32.20 32.28 33.66 32.63 32.38 31.85 31.02 32.56 31.66 28.18 23.69 28.23 29.52 35.73 36.16 32.75 29.92 32.75 28.07 19.50 23.95 33.65 37.33 34.74 36.61 37.30 37.20 34.39 30.87 27.91 29.28
44.84 44.30 44.18 43.37 43.25 43.75 38.84 35.97 29.17 33.23 36.06 32.82 29.74 27.92 29.90 29.41 35.27 33.11 33.46 31.10 32.11 30.45 28.23 30.68 27.54 28.68 33.75 36.14 34.46 37.74 35.09 29.92 24.37 19.72 27.18 31.59 29.47 33.41 38.13 36.40 29.93 31.72 31.83 31.13
44.58 44.38 43.77 43.05 42.88 43.72 38.85 36.35 32.33 34.08 28.25 27.72 28.82 29.60 30.09 28.35 27.80 33.13 32.84 30.20 30.86 28.79 24.77 26.19 25.95 29.34 29.82 34.01 36.12 35.75 33.47 27.49 29.05 29.12 30.58 31.69 31.03 32.17 35.71 34.95 33.90 31.16 30.26 28.21
45.29 44.42 43.42 42.60 43.15 43.69 38.23 31.74 32.55 30.79 30.90 32.41 27.21 29.48 27.90 28.05 29.90 29.68 28.31 28.49 29.90 29.93 26.03 28.73 27.16 29.66 30.17 30.13 35.17 34.90 35.34 28.48 32.43 30.70 34.40 34.43 33.35 35.38 34.34 32.80 32.54 32.27 32.00 28.20
44.84 43.89 42.87 42.89 43.59 43.06 37.44 38.13 36.77 33.75 31.39 29.19 27.28 28.37 30.11 28.82 29.46 32.07 33.47 30.97 31.13 29.24 31.16 34.09 34.12 34.79 34.48 33.30 31.30 30.60 33.30 31.26 30.42 27.19 32.92 32.63 29.17 31.74 30.78 29.57 30.06 30.89 25.37 28.09
44.52 43.44 43.64 43.98 43.93 43.20 39.76 37.75 35.82 30.52 25.89 28.26 30.67 32.83 32.86 31.44 31.30 23.06 33.08 34.70 31.51 34.97 39.42 38.32 37.52 35.36 34.05 34.28 34.62 36.38 32.91 32.74 31.68 26.62 29.77 21.81 30.19 34.82 33.00 28.89 28.21 29.42 28.70 28.67
43.69 43.54 43.98 44.12 43.98 43.93 40.07 39.94 35.95 31.89 25.50 32.14 32.92 32.76 32.93 33.42 32.83 30.20 32.22 34.50 36.95 37.89 36.69 31.80 29.51 30.69 31.57 34.00 36.66 36.32 36.94 33.82 29.30 26.55 26.58 29.13 28.88 29.82 28.27 30.93 25.94 29.07 27.15 27.60
44.53 44.51 44.44 43.95 43.58 43.98 40.83 41.18 40.25 35.18 26.35 28.86 35.23 31.35 33.68 27.06 25.80 29.10 34.22 36.93 39.85 37.77 33.77 31.02 25.34 24.35 28.80 27.81 32.09 38.11 37.82 36.29 30.71 28.25 23.64 20.13 25.30 28.88 33.38 33.45 20.05 28.91 27.86 26.08
44.97 44.87 44.08 43.90 44.00 44.08 41.36 40.35 41.22 35.81 28.04 34.25 34.37 28.15 27.79 32.90 30.03 27.23 31.87 32.49 34.34 36.96 29.40 28.21 26.91 26.64 32.64 26.64 27.43 26.93 28.45 28.77 25.28 26.02 23.79 25.01 26.75 29.58 33.72 17.08 22.00 28.77 28.12 26.52
44.65 44.46 44.18 43.97 44.15 44.46 41.56 39.84 41.25 37.95 32.67 32.55 36.63 38.10 31.63 32.04 30.36 24.07 30.02 30.28 31.95 29.29 26.06 25.98 27.12 28.65 30.62 30.41 29.94 28.77 25.09 24.96 23.15 24.97 21.23 18.00 28.44 29.06 23.03 29.39 30.32 29.29 28.13 27.25
44.11 44.37 44.42 44.24 44.12 44.07 44.03 39.81 41.75 41.79 33.11 32.16 36.99 37.66 38.85 37.45 36.25 31.86 31.85 34.61 31.85 30.57 26.61 27.54 28.72 29.18 30.47 30.03 23.73 32.53 24.28 29.85 24.20 25.13 22.53 28.58 28.88 27.51 29.27 29.27 27.64 28.22 28.05 27.10
44.30 44.38 44.00 44.05 43.83 44.02 42.53 41.27 40.52 38.43 34.20 31.77 33.13 35.34 40.50 43.47 40.10 39.19 31.69 36.67 35.09 33.35 35.94 30.72 30.57 30.05 31.42 25.96 25.79 27.61 28.39 31.91 26.25 26.39 25.96 26.26 28.49 28.91 28.67 28.02 27.20 28.51 28.35 26.84
44.19 44.23 43.99 43.69 43.52 43.74 43.21 37.65 41.07 37.56 35.56 26.01 33.83 41.74 39.70 42.42 40.73 39.10 38.48 36.45 37.16 36.68 35.36 32.12 31.68 30.08 33.90 28.61 29.30 24.76 26.95 28.86 27.56 25.82 26.30 26.35 26.55 27.62 28.37 28.40 28.48 27.43 27.86 27.43
43.72 43.27 43.24 43.32 43.39 43.79 41.87 40.41 41.05 42.45 37.12 28.72 29.13 36.55 40.30 41.89 39.98 38.88 38.20 36.83 34.65 32.29 28.57 28.71 29.90 33.91 32.22 29.29 29.90 24.43 28.39 24.99 24.18 20.19 27.41 24.41 24.95 27.48 28.42 26.67 26.81 27.77 26.48 25.60
43.51 43.10 42.85 43.64 44.03 43.87 39.69 33.45 40.26 42.15 41.61 31.72 23.88 36.00 37.85 39.71 40.00 39.19 37.54 36.67 35.98 33.18 29.82 29.46 33.38 37.58 30.71 26.79 21.55 28.06 30.49 31.00 32.20 27.01 27.16 25.40 26.46 27.47 28.01 26.69 27.41 27.66 26.45 25.69
43.07 43.28 43.86 43.62 44.04 40.57 38.35 35.57 40.23 44.15 41.63 32.97 25.96 27.55 37.57 39.64 39.10 36.88 35.84 36.49 33.57 33.44 31.13 30.36 32.83 33.88 31.54 23.88 18.79 27.37 30.78 31.85 31.71 30.81 29.02 25.83 27.92 24.45 27.53 27.11 26.88 26.90 25.47 25.12
42.92 43.34 43.39 44.17 44.46 42.26 38.99 42.69 43.97 43.83 37.28 35.33 28.64 26.93 31.61 38.27 31.36 30.94 36.01 32.50 33.03 32.40 31.28 33.32 31.99 33.41 28.67 22.05 26.00 27.79 29.01 30.43 30.10 29.89 29.43 27.70 28.44 28.50 27.68 27.51 25.96 23.40 22.43 22.46
43.04 43.14 43.97 40.31 37.59 36.07 38.10 44.63 44.29 43.27 38.88 29.68 30.36 26.65 25.89 37.11 33.18 33.91 33.49 33.60 23.42 33.98 28.70 31.12 31.98 31.57 21.25 26.29 27.22 28.37 30.23 29.83 29.88 30.19 29.67 28.97 27.59 27.30 27.03 26.03 24.63 22.56 21.18 20.40
43.28 41.64 36.18 31.26 36.66 44.35 43.34 39.47 34.93 34.58 35.87 35.92 27.72 30.25 25.53 35.46 29.42 28.17 28.81 31.12 26.64 24.90 29.24 33.76 28.47 23.70 27.58 29.11 29.33 29.94 30.53 30.47 30.74 26.82 25.50 25.51 23.89 23.59 22.82 21.95 21.53 19.75 17.73 16.09
38.78 34.34 33.07 39.79 44.15 39.83 36.23 30.03 29.85 27.50 27.66 31.06 30.56 29.39 25.29 35.74 26.31 26.15 31.26 25.00 27.12 22.84 28.17 29.18 28.77 22.75 24.65 28.79 28.48 29.39 30.06 30.87 29.33 27.88 27.02 25.90 24.48 22.61 21.17 19.71 18.44 17.19 15.61 13.36
37.34 38.91 40.66 39.55 35.56 32.56 29.45 24.11 26.13 29.50 24.54 29.54 30.97 27.65 31.41 32.59 35.77 27.20 30.11 27.61 25.83 21.37 31.59 27.37 23.60 24.35 25.52 26.58 26.35 26.17 27.02 26.87 26.26 26.65 25.25 24.68 23.96 22.54 20.13 17.70 15.51 13.62 12.10 8.11
40.74 36.89 32.18 32.12 31.94 26.21 23.57 17.14 23.83 19.89 26.92 30.04 28.42 24.75 32.81 30.25 33.44 26.24 29.34 25.72 24.36 32.69 23.77 23.56 24.61 25.74 25.51 25.64 25.13 24.82 25.57 25.27 23.02 21.57 20.97 20.03 18.76 17.64 15.25 12.17 7.68 8.26 7.03 4.06
32.53 30.24 26.22 26.88 24.84 26.29 23.69 23.43 25.08 28.77 28.65 29.35 29.27 27.09 26.69 27.28 25.99 29.91 26.24 27.30 29.83 24.66 17.40 24.19 24.17 25.39 24.36 25.12 25.53 22.85 20.02 18.67 17.62 15.76 14.74 12.15 11.01 8.48 6.32 4.74 2.45 3.08 1.05 0.36
30.49 31.02 25.10 21.39 28.06 32.49 32.32 32.86 32.10 33.94 30.57 28.84 27.37 27.75 28.48 26.25 28.04 28.97 28.74 24.17 22.61 21.84 24.85 25.89 25.87 23.58 22.48 21.32 20.67 18.56 16.64 14.84 13.28 11.12 10.05 8.15 7.80 8.83 5.32 3.22 3.86 4.33 1.38 0.92
31.05 31.02 30.30 32.49 30.23 30.30 31.57 32.15 32.32 34.79 31.66 29.78 29.85 26.18 22.38 23.08 26.89 25.76 21.87 22.68 18.24 24.53 25.79 26.53 24.80 22.24 20.72 19.27 18.22 16.85 15.60 14.24 12.93 11.66 11.80 11.77 8.60 8.93 8.59 6.36 5.40 3.09 3.86 1.11
30.45 29.77 31.30 31.99 32.29 31.49 30.63 32.52 32.19 35.12 29.02 28.99 27.60 23.51 23.00 30.16 26.50 25.89 28.98 22.73 26.72 25.61 25.75 26.28 25.28 21.22 18.25 17.72 18.24 17.73 18.41 15.67 14.28 13.95 12.41 9.13 8.84 10.41 11.65 11.21 9.44 11.69 13.54 7.03

GFSNW_sfc_wetblb_102.txt.gz
Wetbulb
46.60 44.98 44.93 44.64 44.52 43.97 40.80 37.06 31.00 40.72 42.18 31.89 32.50 27.95 31.64 35.31 33.02 35.06 32.61 31.32 29.81 27.38 26.81 25.06 24.84 25.00 28.35 34.12 32.68 26.55 32.20 27.60 22.24 25.63 33.18 35.67 36.33 33.55 32.99 24.70 26.15 30.47 28.71 27.84
45.22 44.71 44.82 44.54 43.92 44.16 38.89 34.82 32.81 39.71 40.64 24.00 25.58 31.77 32.47 33.71 32.32 32.14 31.27 30.13 30.82 30.26 26.14 22.95 27.45 28.94 35.00 35.09 32.04 28.98 32.25 24.57 19.43 21.52 31.60 35.63 33.43 35.20 35.54 35.25 33.40 30.05 27.49 27.43
44.81 44.88 44.56 43.71 44.20 44.19 38.89 35.62 26.26 31.45 34.70 31.48 29.73 28.12 28.89 29.25 34.50 32.72 32.56 30.62 31.16 29.34 26.65 29.53 25.05 26.69 31.76 34.64 32.73 37.05 35.23 27.55 23.95 19.57 25.32 30.22 28.21 31.39 34.08 34.46 28.83 28.33 26.23 27.78
44.52 44.44 43.69 43.54 43.64 44.03 39.06 32.56 28.82 33.04 25.73 27.52 28.99 28.86 29.31 27.91 27.21 32.61 31.95 29.23 29.98 27.35 24.22 25.18 24.84 28.49 28.24 31.42 35.04 35.19 33.36 27.89 29.09 27.84 28.96 29.55 29.00 32.39 33.34 32.23 32.44 27.75 26.84 26.33
44.44 44.13 43.54 43.12 43.46 43.68 37.15 30.30 29.60 31.96 30.18 29.90 26.15 29.00 27.76 27.34 29.00 28.72 27.84 27.21 29.39 28.82 25.60 26.23 24.03 28.42 27.92 27.54 33.89 33.86 32.85 27.60 30.09 27.23 31.08 30.33 29.70 32.56 30.15 29.78 30.65 30.03 28.16 26.02
44.59 43.80 43.23 43.55 43.87 43.02 36.16 36.45 35.93 32.39 31.37 28.56 26.78 26.93 29.52 28.22 28.43 31.19 32.48 30.59 30.02 29.76 31.59 33.64 33.93 34.00 33.52 32.44 29.61 28.80 29.16 29.41 29.64 26.93 31.80 32.15 25.06 27.81 27.20 26.83 27.85 27.26 23.43 27.59
44.15 43.46 43.82 44.36 44.56 43.04 38.05 36.44 34.62 29.47 25.26 27.27 28.88 32.92 32.38 30.73 29.89 20.95 32.77 32.61 31.84 34.35 39.00 38.43 37.05 34.87 34.22 33.59 32.90 33.85 30.28 30.67 32.02 27.75 29.66 17.97 27.63 32.10 30.00 26.16 26.40 27.23 26.96 28.91
43.71 44.07 44.26 44.34 44.53 44.79 38.82 38.02 34.19 30.35 25.53 30.34 31.62 32.17 31.65 31.64 30.48 27.07 27.47 33.59 35.45 36.92 35.85 31.52 28.30 30.34 31.23 32.96 33.89 35.42 35.65 32.67 29.02 26.93 24.80 26.66 27.54 27.10 25.82 27.33 22.77 27.21 25.22 26.39
44.09 44.39 44.22 44.22 44.38 45.02 40.31 38.77 38.04 33.98 27.98 27.99 33.87 29.95 30.65 25.81 23.98 26.74 29.97 35.59 37.88 35.34 33.24 29.68 23.89 24.94 28.69 27.65 31.23 36.01 34.96 35.68 30.70 28.61 22.06 18.41 23.86 26.12 30.93 31.40 17.22 27.41 26.07 23.56
44.79 44.32 43.97 44.36 44.36 44.89 40.14 38.20 39.14 34.03 25.73 31.02 32.54 27.66 27.08 31.18 27.85 25.35 28.69 30.28 32.43 33.58 26.23 23.31 23.86 26.75 31.52 24.76 26.36 25.96 26.79 28.05 23.83 25.30 22.40 23.75 24.63 27.78 32.72 18.03 18.82 27.29 25.58 23.33
44.99 44.27 44.24 44.82 44.70 44.75 40.46 37.62 39.31 34.26 24.56 29.86 34.97 36.43 30.29 29.38 28.45 22.58 28.36 28.40 29.75 28.19 24.09 25.07 25.21 27.53 29.88 28.02 28.61 27.81 24.71 23.63 21.40 23.35 19.91 17.51 26.36 26.85 22.52 26.03 28.44 27.23 25.16 23.31
44.68 44.37 44.70 44.60 44.27 44.56 42.89 35.76 40.09 38.83 30.84 29.65 35.39 35.74 36.24 35.59 34.90 30.28 30.18 32.55 29.36 28.15 25.75 27.24 28.26 26.82 28.29 27.24 23.27 31.24 22.82 27.27 22.58 23.24 20.72 26.84 27.13 25.55 27.96 28.94 26.93 27.14 24.63 24.04
44.64 44.30 44.22 44.36 44.22 44.41 42.26 38.73 37.53 34.17 29.15 28.43 31.46 33.72 38.30 40.57 38.54 37.12 30.24 33.29 33.59 32.27 34.76 30.00 29.90 29.76 29.79 26.07 22.77 24.84 26.26 30.43 23.90 23.39 24.53 25.73 27.25 27.43 27.39 27.62 27.24 26.55 25.62 24.88
44.43 44.21 43.94 43.95 43.98 44.07 42.51 35.32 36.74 35.89 31.96 23.90 29.63 39.87 36.64 40.55 38.97 37.40 36.48 35.12 35.25 34.73 33.16 29.52 29.79 29.29 33.26 28.03 26.26 21.95 25.67 26.80 25.43 23.23 24.90 25.33 26.14 26.81 27.43 26.68 26.48 26.22 25.96 24.95
43.87 43.67 43.54 43.61 43.61 44.08 40.51 37.61 38.15 40.35 33.48 24.98 27.43 34.24 38.58 39.78 38.46 37.38 36.69 35.18 32.68 30.09 27.63 26.78 30.09 33.22 32.19 30.43 26.98 22.77 27.87 24.10 21.58 20.12 25.37 23.77 24.37 26.66 27.26 26.05 25.92 25.96 24.30 23.90
43.75 43.07 43.17 43.44 44.04 43.23 37.01 28.24 37.94 40.25 41.32 28.51 21.03 32.89 34.91 37.43 38.06 37.27 36.08 34.97 32.80 30.85 28.71 27.96 30.97 36.72 29.53 25.49 21.29 27.34 29.27 26.96 29.77 23.09 26.43 24.80 25.38 26.63 27.11 24.92 25.13 25.27 24.26 24.06
43.57 43.27 43.57 43.75 43.94 39.93 36.91 33.72 40.19 43.46 40.93 30.62 26.63 25.58 35.70 39.72 36.85 34.77 33.93 34.20 31.80 31.75 29.40 28.43 32.96 31.34 29.37 18.08 11.90 27.28 30.63 27.10 26.64 26.95 26.53 23.77 23.76 24.07 26.66 25.12 25.18 25.48 24.17 23.57
43.38 43.74 44.10 44.36 43.98 40.73 36.00 39.41 43.43 43.22 36.65 33.87 21.61 23.85 28.39 37.62 29.70 29.40 33.90 30.68 30.88 30.04 29.09 30.35 30.62 28.97 22.52 15.07 23.60 25.61 27.63 27.97 28.89 28.79 28.68 26.14 26.43 26.93 25.50 25.38 24.04 21.66 20.53 20.46
43.47 43.96 43.36 38.51 35.71 31.68 34.61 42.85 43.97 41.75 38.32 28.90 24.95 19.70 21.94 35.04 31.28 31.74 31.30 31.05 21.93 30.57 26.39 28.66 31.91 29.08 19.95 17.88 23.13 22.97 27.36 26.92 26.02 27.70 28.04 27.67 26.78 25.09 24.31 23.40 22.56 20.07 18.55 18.29
43.55 39.85 34.18 29.78 35.60 42.27 43.15 37.55 32.19 33.63 35.12 35.13 25.40 27.14 23.64 34.78 26.38 26.08 26.69 27.97 24.56 25.17 27.47 31.29 25.65 22.97 27.53 29.59 29.69 30.60 30.64 31.21 31.71 26.41 24.64 25.23 23.65 22.95 22.14 20.75 20.23 18.55 17.07 16.28
36.84 34.13 32.86 39.47 42.98 39.51 35.28 28.84 28.93 26.45 26.59 28.95 27.56 30.54 22.49 32.99 24.52 24.55 29.28 22.97 25.48 22.08 27.30 28.79 26.66 21.71 24.86 29.26 29.08 29.77 30.30 29.01 28.88 28.85 26.53 25.89 23.34 21.12 19.47 18.51 18.18 16.90 15.24 12.67
37.38 38.43 40.62 38.90 35.09 31.55 28.73 25.35 25.18 26.49 23.43 26.66 29.51 25.66 29.55 30.26 33.67 26.31 27.95 24.29 24.23 20.41 31.98 28.97 23.37 22.61 26.78 27.56 27.12 26.30 26.94 26.17 25.46 25.82 24.21 23.51 22.45 21.00 19.19 17.63 15.43 13.16 11.23 6.24
40.13 36.53 32.35 32.08 30.55 24.61 23.04 17.88 21.81 16.54 23.82 27.85 25.23 22.87 31.07 28.43 30.54 23.92 25.21 24.15 17.73 31.16 26.25 25.39 22.35 23.88 25.43 24.35 24.36 22.96 23.23 22.96 22.00 21.16 21.43 20.61 18.72 17.17 14.50 10.57 5.88 6.92 5.60 0.93
32.36 30.12 24.74 24.86 22.60 24.83 20.41 19.68 19.09 24.75 24.27 26.84 24.55 24.01 25.64 24.47 24.46 23.44 24.10 24.25 29.48 24.18 18.03 20.27 21.58 23.03 23.57 24.69 24.27 22.16 18.76 17.36 16.91 14.57 13.79 11.78 10.19 6.51 3.59 4.24 2.46 2.85 -0.15 -2.55
29.80 30.75 21.88 23.59 25.89 30.25 31.83 32.42 27.03 27.06 25.84 26.41 25.99 25.57 26.12 22.10 26.61 28.48 27.81 24.53 23.00 19.81 17.62 21.52 23.02 23.96 22.25 21.11 19.63 16.48 14.04 12.81 12.43 11.27 9.57 7.15 6.09 5.90 2.50 -1.84 -0.18 1.20 -2.79 -2.67
30.57 30.15 29.06 30.47 29.39 29.39 30.75 31.84 31.55 33.52 28.43 26.14 27.42 24.25 19.19 20.29 21.14 25.56 20.37 21.40 16.20 21.94 24.76 23.23 23.96 21.87 18.06 18.46 18.34 17.07 15.13 12.95 10.59 8.94 8.49 7.91 6.54 7.70 6.14 1.85 1.09 -1.17 -0.74 -1.27
28.58 29.62 28.95 31.08 31.02 29.55 30.64 32.21 31.98 31.92 27.43 27.68 24.58 21.01 19.74 27.37 23.72 22.17 22.67 17.25 22.33 24.91 24.74 24.95 24.37 21.39 15.05 14.25 15.03 14.62 14.05 12.01 10.88 9.06 9.20 6.53 4.62 5.89 9.63 9.27 7.56 8.50 11.02 4.03

GFSNW_sfc_wetblb_105.txt.gz
Wetbulb
47.39 46.18 45.49 45.07 44.35 44.64 41.57 37.24 30.20 40.19 41.77 31.69 31.78 27.71 32.27 35.18 32.81 34.79 32.47 31.26 29.63 27.02 26.34 24.75 24.38 24.40 27.38 31.79 31.17 25.83 29.81 24.58 21.23 23.58 30.78 33.16 31.52 29.29 33.04 26.47 24.35 28.16 27.02 22.39
45.36 44.92 44.56 44.73 44.59 44.40 37.74 33.05 32.85 39.16 39.97 25.11 27.22 31.89 31.87 33.35 31.77 31.24 30.39 29.46 30.05 29.50 25.88 22.67 26.66 27.12 33.58 33.59 30.29 28.01 30.36 24.57 16.81 21.23 30.26 33.30 31.54 33.25 33.20 35.28 33.46 26.80 23.71 23.02
45.07 44.92 44.85 44.86 44.41 44.65 39.44 33.47 26.30 31.82 34.55 31.29 29.34 27.80 28.24 28.84 33.39 31.65 31.63 29.77 30.45 28.11 26.12 28.11 24.14 26.73 30.08 32.95 31.45 36.63 33.27 25.25 21.78 16.90 22.99 29.12 26.53 29.37 31.41 32.24 28.44 25.63 25.35 23.41
45.69 44.88 44.60 44.21 44.80 44.55 39.52 33.79 28.54 32.38 26.22 27.74 28.63 28.93 28.79 27.33 26.45 31.72 30.81 28.71 29.10 27.08 23.55 24.70 24.05 26.41 26.34 29.77 33.08 32.96 33.13 25.71 27.52 27.34 28.14 28.79 29.28 30.14 31.14 29.91 31.93 24.84 24.67 22.77
44.61 44.00 43.74 43.94 44.58 44.37 37.08 32.17 29.34 32.37 29.15 29.81 28.04 28.73 27.51 27.07 28.51 28.52 27.52 26.72 28.67 27.74 25.13 26.01 22.97 26.56 26.67 25.16 30.40 32.94 33.60 24.08 28.12 25.38 29.73 30.60 25.87 26.69 26.81 28.57 29.31 28.50 25.53 21.57
44.13 43.52 43.33 43.69 44.10 43.36 35.30 35.40 35.18 33.03 30.02 27.13 26.82 26.17 28.82 28.52 28.21 30.99 31.69 29.31 27.56 27.84 30.24 33.14 33.07 33.75 33.08 32.72 30.17 29.33 29.17 26.57 26.74 25.12 29.59 27.03 17.53 24.52 24.63 25.03 25.58 26.24 22.85 23.82
43.86 43.37 44.22 45.19 44.93 42.74 36.92 35.95 34.37 28.41 24.88 27.23 28.50 32.10 31.57 29.56 29.13 22.71 31.30 31.19 30.27 33.82 36.66 35.83 34.97 33.58 33.27 33.41 33.26 33.95 28.71 28.58 28.62 26.83 28.43 15.84 25.68 30.32 28.10 24.42 24.78 25.50 26.13 24.69
43.81 44.34 44.61 45.24 45.73 44.47 38.50 36.92 34.14 30.94 25.86 29.05 30.75 31.98 31.01 30.34 29.75 26.70 25.24 32.16 34.50 34.99 32.87 30.87 26.87 27.06 29.82 31.42 33.76 35.15 34.35 30.12 28.78 25.93 22.13 24.78 27.88 25.37 24.66 25.54 21.74 25.45 23.70 25.21
44.16 44.30 44.49 44.99 45.76 44.97 39.28 37.84 37.23 33.36 28.78 27.44 33.18 28.72 29.78 25.74 23.66 26.40 28.93 33.60 34.95 33.40 31.46 29.52 23.38 24.00 26.69 26.56 30.47 34.01 33.40 33.38 30.50 26.77 21.82 17.79 22.58 24.78 29.12 29.67 15.46 25.20 23.70 22.36
44.25 44.04 44.37 44.95 45.59 44.61 39.28 37.24 37.16 33.20 28.05 30.92 31.77 27.29 27.18 29.63 26.93 24.97 27.47 29.35 31.09 31.40 25.39 26.28 24.18 25.46 30.25 22.79 23.29 26.12 26.83 27.85 23.47 24.51 21.93 22.26 23.13 25.58 31.65 17.52 18.42 24.83 23.67 21.48
44.33 44.18 44.71 44.90 45.35 44.73 39.52 36.65 38.75 33.78 27.42 30.17 34.70 34.88 28.49 27.83 27.39 22.31 27.38 25.91 28.02 27.10 23.80 25.17 24.28 24.19 27.37 26.30 27.68 26.40 23.40 22.10 20.58 22.79 20.32 17.51 24.98 25.93 22.13 25.09 26.90 25.01 23.11 21.46
44.64 44.91 44.57 44.71 45.12 44.85 41.61 35.31 38.92 37.11 31.07 30.27 33.94 34.67 34.45 33.03 32.61 29.19 31.10 27.63 28.27 26.12 25.58 27.33 27.97 24.39 25.46 23.64 18.07 28.84 21.64 24.50 21.23 21.67 19.02 24.61 25.98 25.21 28.03 28.40 25.40 24.31 22.85 22.55
44.87 44.82 44.23 44.47 45.09 44.95 42.19 36.40 35.60 33.59 27.88 28.99 31.37 32.59 37.07 38.40 36.67 35.82 28.87 30.95 32.30 31.43 32.53 29.04 29.39 27.02 29.73 24.89 21.62 23.60 25.72 28.95 22.23 21.77 23.09 24.52 24.60 25.87 26.36 26.08 24.54 25.51 25.02 23.64
44.51 44.12 44.06 44.11 44.44 44.33 41.13 36.21 36.17 34.51 29.93 24.49 29.04 37.56 34.58 38.94 38.67 36.02 35.00 34.00 33.88 33.09 32.01 28.66 26.64 28.73 32.77 27.29 24.61 21.59 24.47 26.03 23.61 21.65 23.31 24.07 24.68 25.08 25.27 25.61 26.14 25.04 24.63 23.55
44.02 43.68 43.62 43.70 43.96 43.61 39.54 37.24 37.12 37.80 30.77 24.26 26.63 32.84 36.99 38.01 37.16 35.81 34.81 33.96 31.36 28.76 27.35 26.31 29.58 32.93 32.00 26.23 25.63 20.64 27.67 23.62 18.51 19.45 23.20 23.14 21.83 26.01 26.50 24.41 23.49 24.37 23.50 23.19
43.81 43.36 43.28 44.04 43.89 41.78 35.47 29.06 37.99 38.93 36.40 27.41 20.87 31.23 33.27 35.48 35.91 35.01 34.21 33.46 31.29 29.43 28.19 27.54 29.48 37.24 29.20 24.03 20.46 26.29 24.84 28.25 26.39 23.94 26.54 24.69 25.34 25.87 26.62 24.17 23.92 24.24 22.77 21.90
43.65 43.35 43.74 43.70 43.25 39.47 35.18 31.47 40.12 42.50 36.95 27.86 21.50 25.08 34.68 37.46 35.54 33.30 32.69 32.77 30.52 30.03 28.57 28.42 32.84 32.46 27.88 21.64 17.61 26.28 25.67 24.47 25.47 26.52 25.64 23.34 24.54 22.83 25.79 25.64 25.35 24.72 21.70 20.64
43.36 43.87 43.87 43.85 42.60 40.06 35.22 37.22 44.16 40.70 33.74 32.35 20.19 24.06 30.62 37.35 28.91 28.44 32.05 29.58 29.62 29.32 28.04 28.90 30.04 31.86 22.64 18.55 24.03 27.99 28.79 26.89 25.93 26.66 27.89 25.12 25.32 25.02 24.23 24.13 22.17 20.36 19.02 18.87
43.91 43.93 41.79 37.64 35.09 31.63 33.98 42.99 41.49 38.31 33.86 24.84 21.84 19.60 24.76 33.40 29.81 30.09 29.84 29.58 21.24 28.99 25.43 27.34 32.30 27.10 19.40 18.39 25.46 26.13 26.20 25.54 25.09 25.93 25.77 25.28 24.33 22.96 22.33 21.83 21.05 18.95 17.73 17.76
42.71 37.76 31.96 27.85 32.88 41.72 42.59 35.50 28.48 28.36 30.51 33.88 23.14 26.03 22.62 31.48 24.66 24.91 25.53 26.70 23.87 24.45 27.61 29.72 25.27 22.48 26.98 24.63 25.43 27.04 28.87 27.02 27.45 24.56 24.14 24.71 22.58 21.82 21.71 20.87 20.28 18.93 17.47 16.52
35.36 33.35 32.36 38.89 42.97 38.41 34.40 29.25 27.43 26.50 23.64 27.18 25.25 26.02 22.01 31.08 23.76 23.60 27.32 22.17 24.16 21.20 26.60 27.57 24.68 21.05 24.40 28.24 28.87 30.68 31.46 30.90 29.18 27.11 26.80 25.94 24.83 21.90 19.69 18.70 18.04 16.68 15.03 12.24
36.32 38.73 40.53 38.91 35.16 31.56 27.83 24.67 24.98 26.44 22.71 23.76 24.14 24.50 28.29 29.56 31.34 25.13 26.64 23.34 23.12 19.32 31.66 28.40 21.25 19.75 26.47 27.17 26.71 27.86 26.68 26.74 26.32 26.36 24.23 23.45 22.56 21.45 19.28 16.91 14.82 12.39 10.39 6.10
39.88 36.54 32.01 29.88 30.38 22.97 22.35 15.58 22.34 15.90 22.90 25.87 23.56 22.06 27.62 27.01 28.70 23.40 24.54 17.68 16.25 29.19 24.16 24.57 20.32 24.31 26.24 24.97 24.56 23.76 24.17 24.57 23.90 22.76 22.45 21.02 19.10 17.34 14.63 10.66 4.08 5.89 4.89 -1.55
32.41 28.80 23.77 24.69 21.14 24.81 17.70 18.97 17.96 23.72 22.64 24.26 24.21 23.61 25.11 24.18 23.94 18.93 15.90 21.92 27.64 17.10 17.67 19.53 18.20 23.64 23.47 23.97 24.03 22.75 19.80 19.04 18.57 15.93 15.33 12.48 10.05 4.30 2.12 2.90 0.32 2.82 -0.60 -4.52
29.01 29.88 21.46 23.10 23.94 27.94 30.35 32.13 29.43 27.33 24.04 26.11 25.30 24.74 25.19 21.80 25.53 27.89 24.38 21.31 19.78 17.29 15.81 15.84 20.13 23.24 23.13 21.92 20.19 17.22 14.77 13.17 12.41 10.37 8.63 5.17 4.52 5.46 0.70 -4.34 -2.77 0.02 -3.65 -4.52
30.07 28.87 27.31 28.81 28.00 28.19 30.04 30.97 29.76 32.51 28.61 24.94 27.75 24.28 19.88 22.11 19.24 24.75 17.36 18.05 15.04 15.52 16.14 20.77 20.99 21.01 19.85 19.51 19.17 16.59 14.30 12.63 10.06 9.01 8.32 6.98 5.05 5.63 4.39 -0.13 -2.09 -4.72 -2.80 -3.95
26.71 28.29 27.47 30.93 30.63 28.82 30.06 31.31 31.83 32.08 26.81 21.12 25.97 16.54 18.37 24.97 22.17 22.57 21.00 14.44 20.12 21.75 24.41 24.89 24.91 21.88 15.37 14.66 15.65 15.41 14.27 12.03 9.48 7.53 8.26 4.09 3.21 4.93 7.75 7.37 4.45 6.22 8.38 0.88

GFSNW_sfc_wetblb_108.txt.gz
Wetbulb
49.85 48.73 47.82 47.09 46.68 45.70 43.11 37.15 26.56 39.04 40.99 31.05 29.79 26.40 31.76 34.95 32.04 34.47 32.21 31.44 29.39 26.55 26.13 24.28 24.46 24.56 27.03 31.67 30.85 24.72 27.57 24.14 20.80 22.64 30.13 31.94 29.07 26.78 27.07 20.55 24.25 26.71 23.75 20.80
48.40 47.63 46.95 46.05 45.49 45.16 39.02 33.65 33.21 39.15 39.51 26.43 26.75 31.06 31.18 33.14 31.53 31.05 30.27 28.73 29.83 29.30 25.58 22.07 25.80 27.19 32.46 32.40 28.75 27.34 29.79 23.92 15.89 20.61 27.83 33.13 29.79 31.74 33.19 31.12 29.17 27.06 17.80 17.98
47.37 46.64 45.97 45.32 45.90 44.62 39.77 32.85 26.22 32.94 35.97 30.70 29.83 28.17 29.02 28.09 33.36 31.31 31.18 29.63 30.08 27.61 25.83 27.72 24.08 26.48 29.51 31.58 30.21 35.45 31.62 24.92 19.73 15.99 21.88 26.70 24.27 28.01 30.76 29.53 24.18 23.69 20.63 22.77
46.22 45.32 44.36 44.96 45.69 45.17 39.66 33.07 26.98 32.78 27.47 26.28 29.39 29.69 29.68 27.35 26.75 31.36 30.51 27.91 28.53 26.83 23.36 24.58 23.82 25.70 25.10 28.21 32.15 30.51 28.94 23.64 24.98 25.96 27.29 27.96 28.04 26.65 26.26 29.50 30.41 25.11 23.56 20.92
44.99 44.00 44.45 45.13 45.24 45.08 36.82 31.52 30.11 31.84 29.51 31.02 29.21 30.05 27.62 27.25 28.23 28.39 26.67 26.40 27.77 27.41 24.97 25.48 22.08 26.34 25.70 24.02 28.36 31.15 34.37 23.83 26.33 22.85 27.76 29.58 23.83 25.43 24.55 24.22 26.81 24.52 23.02 20.17
44.32 44.76 45.48 45.67 45.58 43.59 35.37 35.27 35.61 32.25 28.53 27.56 26.56 26.47 28.37 28.16 28.15 30.25 30.77 28.52 27.52 27.35 28.86 31.68 31.42 32.82 31.94 32.11 30.36 29.67 28.89 26.53 24.85 22.76 26.69 25.90 19.97 23.16 23.84 23.02 24.05 25.50 22.42 22.61
44.31 44.50 44.93 45.05 45.08 43.12 37.07 35.40 33.92 29.47 25.16 27.27 28.27 30.60 30.89 28.64 27.98 21.82 30.50 30.41 28.67 31.98 34.76 34.20 33.26 31.90 31.24 31.82 31.93 33.43 28.72 27.43 27.33 24.10 25.54 15.80 23.30 29.99 26.82 22.75 22.95 24.66 24.19 23.89
44.12 45.15 45.43 45.64 45.55 43.69 37.24 35.40 33.45 29.86 23.42 28.38 30.76 31.29 29.86 29.73 29.89 26.67 25.95 31.14 33.40 33.84 31.29 30.33 26.60 27.62 29.55 30.88 33.40 33.97 32.34 29.43 25.31 24.74 21.27 22.27 26.02 24.26 23.70 24.34 20.43 24.03 23.24 24.55
45.64 45.81 46.41 46.11 45.00 43.97 38.22 36.60 35.72 33.15 28.98 27.66 32.48 29.12 29.12 25.79 24.03 26.51 28.56 32.16 33.38 30.96 28.95 28.35 20.02 19.64 25.46 26.56 29.98 33.95 33.97 32.95 28.39 26.94 21.04 16.44 21.41 24.26 27.79 28.35 14.99 24.11 23.03 22.33
45.17 45.69 46.25 46.07 45.32 44.14 38.85 36.35 36.09 34.03 28.00 31.09 31.21 27.16 27.19 29.25 26.98 24.62 27.07 28.51 29.51 30.04 23.56 20.93 22.94 23.67 29.01 22.41 22.26 25.18 26.62 27.64 24.01 24.79 21.07 20.93 22.80 24.62 29.45 18.87 17.00 23.50 22.27 20.10
44.98 45.41 45.93 45.80 45.05 43.89 39.06 35.96 36.84 33.29 28.14 30.28 34.31 33.75 29.06 27.98 26.42 21.34 26.62 24.73 26.23 26.19 22.79 24.38 23.49 23.30 23.72 25.94 26.14 24.91 22.30 21.56 20.15 22.55 20.89 17.26 24.18 26.31 22.70 23.28 24.79 23.09 21.05 19.26
44.99 45.29 45.60 45.39 45.10 44.21 40.59 33.80 36.76 36.18 32.14 30.94 33.97 34.27 33.56 30.70 31.08 28.79 30.43 26.54 27.53 24.83 24.98 27.44 25.64 24.63 26.95 22.07 16.90 27.53 21.58 22.84 20.56 20.17 18.27 23.55 25.18 24.98 26.99 26.82 23.74 22.60 21.40 21.20
44.80 44.99 45.34 45.13 44.84 43.91 40.21 34.68 34.15 33.40 30.59 30.87 31.63 31.44 35.76 37.05 35.07 34.89 28.80 29.49 31.27 29.58 30.87 29.24 26.86 26.14 30.09 24.03 21.03 23.71 26.13 27.62 21.13 20.47 23.08 22.84 23.81 24.89 25.41 25.13 22.92 23.35 22.92 20.65
44.57 44.61 44.80 44.75 44.48 44.04 41.18 35.83 35.33 33.64 30.33 25.78 29.20 36.05 34.23 37.46 37.00 35.32 34.18 32.79 32.61 31.77 30.55 27.96 28.09 26.52 33.40 24.71 23.25 21.40 23.98 25.00 22.81 20.63 23.01 23.69 23.61 23.29 24.44 24.52 23.62 22.34 23.02 21.53
43.72 43.78 43.98 44.17 43.80 43.05 39.88 37.47 37.23 36.62 30.91 25.32 26.34 31.90 35.33 36.87 36.71 34.93 34.23 32.93 30.36 28.14 26.37 26.12 29.44 32.33 30.13 23.83 24.87 19.56 27.60 24.08 17.37 13.29 21.90 21.17 22.17 21.53 24.66 22.20 21.55 22.35 22.33 21.52
43.73 43.66 44.06 43.68 43.30 40.35 35.09 29.84 37.28 38.52 33.35 27.92 21.62 30.29 32.12 34.25 34.53 33.43 32.88 32.11 29.97 28.62 27.49 26.57 28.98 36.79 26.88 15.49 18.65 25.90 24.23 28.44 26.44 23.71 24.76 22.67 25.06 24.01 23.98 23.74 23.08 23.33 22.04 20.89
43.42 43.59 43.88 43.73 43.34 38.95 33.85 31.54 36.07 41.43 34.84 27.06 21.66 26.33 32.86 35.15 33.99 32.04 31.52 31.42 29.10 29.14 28.00 27.28 31.84 31.90 28.73 15.11 15.24 24.90 24.06 26.07 25.56 26.30 25.44 22.83 22.27 21.60 24.17 23.77 24.12 23.10 20.24 19.49
43.71 43.60 43.38 42.62 42.32 40.00 34.93 37.69 42.54 38.01 32.38 29.14 20.13 25.95 30.84 36.81 28.50 28.09 30.44 28.55 28.88 28.72 27.36 28.02 29.41 30.57 24.56 17.62 21.79 24.45 24.07 24.03 24.78 26.35 26.64 24.63 24.60 24.08 22.98 22.66 21.42 19.31 17.96 17.71
43.79 42.52 41.08 37.35 34.88 31.94 34.43 42.00 39.83 36.81 31.88 23.33 21.24 22.11 23.14 32.13 29.00 29.17 29.10 28.81 20.97 28.33 24.41 26.47 32.55 26.69 17.13 18.83 25.92 26.12 25.08 24.98 25.23 25.42 24.54 24.26 23.51 22.71 21.96 21.14 20.19 18.28 17.41 17.06
41.50 37.13 31.14 25.31 34.15 41.42 41.44 34.64 27.91 27.57 29.74 30.23 22.36 25.19 27.50 31.21 24.10 24.46 24.82 25.98 23.16 24.93 29.72 29.65 24.85 19.04 27.07 23.65 26.87 27.30 27.72 26.48 25.84 23.27 22.08 22.80 21.57 20.98 20.66 20.28 20.21 18.71 17.41 16.24
34.79 31.80 32.53 38.78 42.88 35.26 30.57 23.55 21.91 23.07 22.75 25.80 24.46 25.04 24.16 30.13 22.76 27.39 27.84 23.64 24.61 20.82 25.50 27.08 22.82 19.51 24.90 25.90 26.65 28.44 27.38 27.39 26.62 26.45 26.52 25.46 23.45 21.93 20.13 18.98 18.63 17.62 16.13 12.74
35.90 38.17 39.87 38.27 34.55 31.26 25.55 24.11 25.62 25.18 22.22 23.11 22.93 23.60 27.44 29.66 30.56 25.55 27.35 22.40 21.99 17.81 30.95 26.13 20.62 20.36 27.21 28.29 28.25 29.50 28.09 27.96 27.37 26.81 24.87 24.24 23.75 22.14 20.09 17.70 15.28 12.99 10.18 5.54
39.75 35.27 32.48 29.04 29.29 22.23 14.83 14.44 21.57 17.14 22.39 23.22 22.61 21.15 25.89 26.34 27.94 22.88 23.73 15.50 14.86 28.33 25.78 24.07 20.32 25.65 27.45 27.47 26.20 25.67 26.16 26.81 25.03 24.06 23.75 22.54 20.35 18.31 15.08 10.68 5.61 5.30 3.18 -3.25
31.45 28.22 22.79 21.59 19.77 24.07 17.71 18.28 16.97 22.05 21.18 22.84 23.52 23.24 24.33 23.30 23.25 17.00 14.64 18.45 23.26 13.54 15.77 19.03 18.21 25.90 25.48 25.55 25.92 24.33 22.69 21.77 21.24 19.79 18.49 14.57 11.46 5.59 3.30 3.87 1.89 2.08 0.06 -6.92
28.76 28.87 22.24 22.59 23.61 27.28 24.56 28.86 29.65 29.50 22.99 25.34 24.87 24.71 27.22 24.03 23.31 23.73 19.85 19.51 14.69 15.13 15.07 14.42 16.10 24.02 23.65 22.38 21.19 19.65 18.10 17.51 16.19 14.65 11.27 7.70 5.20 4.96 -0.56 -5.83 -3.70 1.14 -1.97 -6.19
29.54 28.94 26.87 27.72 27.21 27.64 29.69 30.19 30.27 31.54 30.01 24.72 26.81 26.55 21.91 22.26 18.01 24.23 15.19 17.39 13.64 14.62 17.07 18.70 15.38 20.72 20.80 20.41 20.35 18.33 16.01 15.20 11.75 9.68 9.09 6.66 4.97 5.96 3.94 -1.39 -3.77 -5.84 -2.30 -3.88
27.21 26.02 27.73 30.35 30.11 27.68 29.21 30.71 30.97 32.23 29.58 19.16 25.96 16.14 17.60 23.80 21.69 20.54 19.74 13.86 14.51 14.69 21.30 24.85 22.24 18.32 16.92 16.66 16.27 15.69 14.58 12.30 10.73 8.24 7.68 4.28 2.95 4.49 6.57 6.43 2.76 4.86 6.53 -1.71

GFSNW_sfc_wetblb_111.txt.gz
Wetbulb
51.50 52.46 50.36 48.69 47.05 45.41 43.39 38.34 29.88 41.30 42.96 33.01 31.63 27.51 31.42 34.73 32.23 34.72 32.27 32.13 29.42 27.37 27.52 26.05 25.73 25.45 28.26 33.00 32.79 27.30 30.80 27.39 21.85 24.48 31.31 33.64 30.78 28.52 28.17 22.67 21.93 25.77 24.89 23.55
51.65 50.71 49.22 47.62 45.92 45.81 40.79 33.77 33.96 40.21 39.76 26.05 27.60 31.58 31.59 33.05 31.64 31.67 30.99 29.28 31.06 30.33 27.20 23.65 27.03 27.88 33.06 33.52 31.95 29.58 32.10 26.10 19.08 22.35 28.98 33.03 28.86 30.66 31.01 31.62 28.51 22.81 21.31 22.34
50.93 49.27 48.04 46.32 45.86 46.86 40.29 34.19 27.85 33.73 36.52 33.31 30.71 29.63 29.27 28.36 33.57 31.56 31.87 30.03 31.20 29.04 26.83 28.74 25.46 27.16 31.16 32.99 32.27 35.57 34.33 27.21 22.45 18.85 23.41 27.28 24.31 27.69 29.97 29.25 25.05 25.17 24.87 21.43
49.61 48.13 46.62 45.90 46.67 45.89 40.10 35.02 29.98 33.42 27.36 28.82 30.65 31.51 30.80 27.64 27.03 31.58 31.49 28.63 29.28 27.85 23.96 25.28 25.03 27.49 28.20 29.63 32.73 32.95 31.66 23.87 25.26 26.17 27.40 27.79 27.89 26.44 26.50 23.08 27.75 25.88 22.36 20.23
47.99 47.22 46.13 46.33 46.34 45.20 39.06 31.21 30.79 33.27 31.63 31.83 30.27 31.52 29.01 28.14 28.77 29.59 27.24 27.75 29.17 29.11 25.94 26.94 24.47 27.18 27.52 27.10 30.83 31.42 32.58 25.29 25.77 21.78 28.16 28.56 23.45 25.30 25.72 24.05 26.04 23.70 22.46 19.96
46.82 46.17 45.61 46.34 45.78 43.55 37.05 36.50 36.83 34.02 32.28 30.45 29.20 28.76 29.51 29.38 30.41 30.96 32.20 31.10 29.47 27.92 29.92 32.59 32.74 33.92 33.40 33.00 30.42 30.83 29.76 27.38 25.25 22.24 26.63 25.68 22.14 23.74 23.90 23.66 25.16 26.02 22.91 22.97
46.03 45.47 45.92 45.97 45.69 42.37 38.59 36.69 36.04 31.42 26.51 29.43 29.49 30.57 31.08 29.30 29.82 27.14 31.73 32.36 30.98 33.54 36.78 35.95 34.67 33.38 32.55 32.65 32.41 33.91 29.85 28.17 27.70 24.20 25.47 17.96 24.71 28.74 26.65 23.38 23.27 25.71 24.64 24.43
44.62 45.18 45.76 45.54 45.69 43.74 38.43 37.35 35.23 31.30 26.71 30.59 30.91 31.14 30.33 31.29 31.57 30.02 30.00 32.37 35.02 36.50 35.32 30.64 27.49 27.92 28.50 29.69 32.05 33.11 32.10 29.87 25.11 24.53 22.22 22.84 25.07 25.56 25.24 24.39 21.01 24.50 24.34 25.66
44.56 45.17 45.41 45.83 46.35 43.81 38.62 37.07 37.16 34.48 30.57 28.99 33.45 30.08 31.43 28.13 27.52 28.32 30.73 34.15 36.18 35.08 31.74 28.31 23.20 22.49 25.06 26.38 30.63 35.22 33.77 31.95 26.96 25.65 20.60 17.51 23.14 24.83 28.05 28.38 20.30 24.34 24.50 23.84
45.87 46.11 46.22 45.97 45.05 44.02 39.04 36.84 36.71 35.23 29.87 31.92 32.92 29.60 29.39 30.47 29.13 27.44 29.42 31.18 31.94 33.23 28.05 26.23 25.13 25.13 29.39 23.43 22.42 24.50 26.57 27.57 25.02 26.21 22.10 21.59 23.61 25.34 29.22 21.42 21.21 23.84 22.92 22.62
45.90 45.75 45.62 45.29 44.24 43.02 38.94 36.13 36.91 35.46 31.45 32.48 35.41 34.51 30.82 30.07 29.39 26.52 28.81 29.84 29.67 29.26 26.28 27.02 26.13 24.62 27.24 26.77 26.10 25.16 23.12 21.73 21.97 24.31 21.18 18.41 24.88 27.18 24.36 24.69 25.10 23.22 21.92 20.82
45.53 45.61 45.66 45.31 44.43 43.34 39.99 35.48 37.43 37.19 34.23 33.15 35.47 35.80 36.02 34.79 33.40 32.01 31.66 29.58 29.80 30.96 28.33 28.63 28.77 25.93 27.86 25.11 21.85 28.12 23.01 23.68 21.47 20.81 20.12 24.20 26.20 26.04 28.23 27.65 24.26 23.14 22.37 21.26
45.57 45.45 45.20 44.64 44.22 43.22 39.94 35.89 35.98 36.01 33.05 32.56 33.49 33.08 37.29 38.58 37.60 38.20 31.55 32.95 33.70 32.15 33.86 32.66 31.01 26.51 31.00 24.46 23.42 25.09 26.97 28.17 22.45 22.14 22.78 23.32 24.59 26.12 26.45 26.49 24.29 24.30 23.81 22.33
45.15 45.24 45.13 44.86 44.36 43.68 41.03 36.76 36.60 34.97 32.81 28.60 31.32 37.23 35.65 38.93 39.17 37.63 36.65 35.38 34.81 34.63 34.50 32.21 31.67 28.25 33.13 26.20 26.14 24.57 26.16 27.07 23.75 21.35 23.13 23.67 23.95 25.48 25.30 24.54 24.27 23.27 22.93 22.22
44.82 44.92 44.67 44.34 43.80 43.17 40.75 38.73 38.02 36.85 33.90 28.86 29.56 33.83 36.23 38.22 38.32 36.75 36.51 35.55 33.41 32.46 31.13 31.20 30.25 32.74 30.30 27.78 26.86 23.91 28.29 24.39 21.73 22.16 24.56 24.16 22.92 25.43 25.69 23.57 22.92 23.15 22.38 20.92
44.30 43.99 43.93 43.40 42.78 39.32 36.12 31.49 37.63 39.91 35.17 31.77 26.85 32.53 34.52 36.68 37.32 36.58 35.68 34.81 32.85 32.64 31.94 30.83 33.19 35.99 31.34 24.45 23.31 26.07 26.57 29.20 28.28 24.31 26.49 25.23 25.50 25.53 25.68 24.10 24.40 24.05 22.92 21.86
44.43 44.29 44.21 43.83 43.42 40.80 35.18 32.16 37.91 40.94 36.69 31.55 27.51 29.48 33.38 36.21 35.35 34.09 33.87 33.92 32.74 33.53 31.79 31.37 33.98 32.59 29.72 23.82 23.02 25.75 26.58 27.21 26.75 27.15 26.05 23.61 24.98 23.19 25.50 24.87 24.79 23.94 22.27 21.59
44.05 43.28 43.15 42.74 42.42 40.12 37.09 39.70 41.56 38.60 32.72 31.29 25.70 27.76 32.11 36.05 31.61 31.54 32.90 32.43 32.84 31.57 30.71 31.94 32.35 31.12 28.26 23.82 23.15 25.14 26.27 26.29 26.71 27.01 27.84 26.39 26.01 25.50 24.41 23.83 22.35 20.39 18.94 18.63
42.24 41.38 40.41 37.58 35.54 34.06 36.70 42.40 39.16 37.60 34.00 26.72 25.80 26.21 24.83 33.92 31.20 32.14 32.48 31.95 28.83 31.35 30.00 30.83 32.21 29.24 25.46 24.06 25.01 24.44 25.14 25.54 25.84 25.89 25.27 24.98 24.05 23.03 22.57 22.32 21.58 20.16 18.98 18.44
40.76 37.66 31.78 29.13 36.17 41.23 40.02 34.38 29.63 29.76 30.36 30.93 26.47 27.63 28.27 32.69 29.25 29.76 30.25 29.96 28.65 27.20 30.68 32.38 29.29 27.30 27.56 28.06 28.75 27.59 27.24 27.67 26.94 23.98 22.29 23.57 22.77 22.21 21.79 21.65 22.13 21.55 19.72 18.18
35.64 33.73 33.08 39.02 42.28 35.83 31.28 24.74 25.06 26.57 25.19 28.17 27.45 28.71 29.55 32.81 28.70 29.46 30.26 28.15 28.28 24.04 28.27 28.79 26.76 25.06 25.98 27.61 28.78 29.69 29.51 28.10 27.79 28.00 27.41 26.85 25.16 23.04 21.89 21.13 20.76 19.90 18.55 16.78
37.71 36.98 40.12 37.77 34.20 29.36 24.30 23.64 25.24 25.53 23.81 26.65 27.57 28.23 30.13 31.66 33.08 31.03 29.37 25.79 26.33 21.71 31.24 28.68 24.63 25.07 27.06 27.82 28.48 28.79 28.26 28.10 28.03 28.32 26.46 25.76 24.92 24.02 22.17 20.41 18.99 17.27 15.00 11.38
37.93 34.76 32.42 29.18 28.38 20.19 16.61 14.72 22.17 22.22 25.95 27.19 28.10 27.22 30.15 30.73 30.88 27.25 26.87 22.15 21.76 28.94 25.52 25.00 24.94 26.76 28.41 28.64 29.46 28.93 29.06 28.85 27.17 26.30 25.92 24.77 22.57 21.18 18.94 15.08 12.21 10.77 8.83 6.42
31.57 26.63 22.16 20.19 21.24 22.24 21.02 22.29 21.77 25.31 25.75 27.41 28.42 27.85 29.55 28.07 27.20 23.25 21.91 23.34 26.66 20.57 19.25 21.72 25.30 27.08 28.08 28.28 28.33 27.14 26.10 25.19 24.29 22.88 21.69 18.88 15.82 12.42 11.45 10.47 8.50 6.87 5.57 2.32
28.55 27.81 21.95 23.15 26.15 28.19 28.30 28.92 30.36 29.69 27.46 28.65 29.33 29.02 29.81 26.00 24.20 25.82 22.74 21.73 19.10 20.18 21.72 23.99 24.34 27.23 26.18 25.45 25.87 24.55 22.77 21.19 20.53 19.93 17.43 14.05 12.06 10.73 6.20 5.80 7.16 7.37 4.36 3.68
28.55 28.48 27.06 27.83 27.97 29.01 31.29 31.46 30.53 31.42 31.04 28.91 30.52 28.31 23.82 22.87 22.81 23.82 18.74 19.73 18.75 23.61 23.34 26.52 21.53 24.18 24.69 24.24 23.75 22.40 20.75 20.19 17.46 15.68 14.30 11.86 10.31 10.31 8.20 5.33 6.74 5.46 6.68 5.43
26.87 26.01 27.78 31.08 29.95 28.89 30.38 31.83 31.52 32.81 30.14 26.27 27.07 19.61 20.65 26.15 21.74 21.34 23.03 22.34 24.64 22.86 26.65 25.75 21.98 22.60 21.83 21.55 20.53 19.40 17.90 16.14 14.63 12.90 12.50 10.06 8.88 8.29 9.41 9.99 8.34 8.69 10.15 8.03

GFSNW_sfc_wetblb_114.txt.gz
Wetbulb
49.78 50.76 51.51 51.75 48.97 47.91 45.20 40.16 30.50 40.35 44.85 33.91 34.81 32.60 35.58 37.51 35.85 37.31 34.91 35.53 33.73 32.77 32.29 30.49 30.00 29.38 31.63 36.06 35.98 30.03 33.78 30.31 25.37 28.50 34.54 36.22 34.63 32.15 32.25 25.55 24.96 28.78 27.54 27.17
49.32 50.34 51.08 50.63 48.20 48.49 42.97 35.31 34.05 42.38 41.85 29.91 31.43 35.67 34.73 36.18 34.68 35.07 34.54 33.40 34.48 33.94 31.29 28.42 31.26 30.40 35.01 36.56 34.82 32.07 34.55 29.20 23.67 25.78 31.01 34.90 31.39 32.67 33.02 32.26 31.13 26.62 24.07 26.61
49.31 49.92 50.88 49.57 47.93 48.94 42.36 36.74 30.51 34.25 36.57 39.26 35.55 33.64 33.38 31.95 36.73 35.57 35.54 33.13 34.32 32.48 31.33 32.96 28.92 29.64 33.29 35.86 35.36 35.55 36.32 29.97 25.66 24.65 27.20 30.73 27.23 30.33 32.18 30.21 26.78 28.01 29.01 25.72
49.18 49.84 50.44 48.50 48.38 48.21 42.15 39.55 33.92 37.06 30.48 32.58 35.60 36.08 34.66 31.70 30.51 34.74 35.12 31.28 33.09 32.56 28.18 29.09 27.60 31.05 31.78 33.41 34.80 35.44 34.29 26.15 28.97 29.02 30.54 31.05 29.78 29.11 29.87 27.07 27.87 24.94 27.44 24.38
49.03 49.63 49.98 47.75 48.59 47.56 41.40 36.28 35.60 38.06 36.23 36.34 34.86 34.70 32.52 31.28 31.13 31.50 31.12 32.06 33.61 33.65 29.22 30.30 28.04 31.11 31.40 31.49 34.50 32.88 34.36 26.88 29.22 26.35 31.58 30.93 27.83 27.29 29.31 27.10 25.07 26.11 25.50 22.38
48.93 49.73 49.25 47.74 47.77 46.65 40.24 40.84 43.84 40.85 34.76 34.91 33.39 33.58 32.49 32.39 33.96 34.31 36.09 35.24 33.04 30.75 33.19 36.08 36.32 37.57 36.50 36.07 33.57 32.30 32.17 29.29 28.09 24.78 28.23 28.08 24.07 24.90 25.75 25.95 27.46 27.36 27.05 25.20
49.42 49.45 47.47 47.40 46.78 45.05 42.23 43.03 43.37 38.60 30.63 33.79 32.80 33.52 34.15 33.49 35.07 33.57 35.27 36.47 34.14 36.79 40.85 39.87 38.68 37.68 36.71 35.90 34.80 35.85 31.63 29.95 30.50 26.65 27.43 20.87 26.00 30.21 29.25 26.17 26.37 28.57 27.26 27.46
48.03 47.14 46.91 46.17 44.81 44.45 42.07 42.83 42.32 37.27 30.63 33.13 33.19 33.92 34.24 35.95 36.05 33.96 34.80 36.32 39.04 41.31 38.11 33.06 29.99 30.06 29.41 30.74 33.31 34.03 33.95 31.74 28.45 25.79 25.65 25.32 26.95 28.14 27.84 26.52 23.76 27.85 27.96 28.24
46.65 45.94 45.87 45.75 44.24 44.30 43.54 41.62 44.77 41.03 33.71 32.39 37.09 35.24 35.86 33.24 33.44 33.23 34.43 38.31 41.36 39.93 36.51 31.61 27.30 25.39 28.35 28.76 30.22 34.30 34.72 33.22 29.75 28.52 23.57 20.60 27.23 28.70 31.35 31.59 24.48 27.95 28.97 29.15
45.46 45.75 46.17 46.08 44.45 43.62 43.69 40.96 42.86 42.98 36.37 37.56 39.01 35.23 34.38 37.61 35.73 33.29 34.48 35.58 36.10 38.66 34.06 30.11 29.29 28.39 32.60 27.28 26.87 27.93 30.22 30.73 26.70 27.76 27.12 26.06 27.04 28.63 31.96 23.87 24.59 27.87 29.68 29.80
45.37 45.35 46.19 45.84 45.04 43.74 44.28 40.55 42.36 42.91 38.43 37.10 38.90 38.53 36.15 36.06 37.07 32.49 35.29 34.74 34.41 33.98 31.36 32.58 31.80 29.12 30.51 29.55 29.59 27.74 27.51 27.53 27.74 28.58 26.47 22.34 28.25 29.72 27.15 27.39 28.50 28.08 28.18 27.50
45.40 45.64 45.35 44.88 43.92 42.74 45.27 39.98 42.61 45.73 40.09 35.94 40.35 39.73 40.04 39.88 39.65 38.28 37.48 35.74 35.85 38.22 35.89 35.73 33.53 28.30 29.61 29.10 25.86 30.57 26.23 28.72 29.12 25.70 25.06 26.94 29.09 29.00 31.56 31.51 28.89 28.71 27.59 26.53
45.17 45.31 45.42 45.00 44.20 44.05 44.73 42.24 43.70 43.24 38.80 37.11 37.96 36.63 41.54 43.76 42.84 44.28 37.51 39.23 38.74 37.91 41.45 36.21 34.31 28.76 33.32 27.97 29.84 27.90 28.16 29.59 26.35 26.66 25.32 25.92 27.63 29.18 30.64 30.97 28.94 28.82 27.88 26.26
45.26 45.12 44.98 44.81 44.56 44.37 45.28 42.09 42.78 43.31 39.29 33.08 34.06 41.61 39.68 43.01 44.28 43.43 43.66 41.25 41.17 41.70 42.06 37.30 34.30 30.51 36.19 30.88 31.46 30.86 30.64 29.76 26.41 23.85 25.36 26.64 26.91 27.97 28.44 28.06 27.93 26.77 26.80 26.13
45.19 45.14 44.96 44.78 44.87 44.73 45.09 44.86 43.73 43.21 40.24 32.72 34.29 40.27 40.78 42.74 43.26 42.09 42.83 41.74 40.62 39.66 37.88 35.60 31.94 33.86 34.11 35.30 33.25 30.35 31.37 29.22 27.50 28.93 28.73 29.33 27.22 27.67 28.61 26.80 26.10 26.23 25.58 24.35
44.54 44.48 44.19 43.24 41.66 41.32 44.48 38.37 44.08 43.95 45.09 36.74 31.47 38.43 38.37 40.85 42.31 41.64 40.99 40.86 40.51 41.58 40.24 35.56 36.02 37.68 36.05 31.39 32.04 29.05 29.94 31.38 31.37 28.85 30.86 30.31 28.71 28.39 29.77 27.74 27.06 27.70 27.29 26.71
44.50 44.52 44.37 44.51 44.29 44.78 39.34 37.48 42.43 42.40 46.43 37.90 31.91 32.38 38.56 40.46 40.60 41.41 40.71 41.33 40.58 40.77 39.10 38.35 36.82 36.78 36.43 34.86 31.17 28.31 29.04 29.69 30.38 31.11 29.66 25.39 27.58 25.82 28.69 28.38 28.02 28.48 27.76 27.64
43.69 43.12 43.05 43.67 44.43 43.93 40.37 42.80 42.36 43.54 40.87 39.62 31.32 30.40 35.03 40.21 36.64 36.16 41.48 39.30 40.45 38.53 38.09 38.83 37.54 36.76 36.95 30.27 27.66 28.24 28.92 29.05 29.35 30.05 31.30 30.03 30.18 28.91 28.20 29.08 28.07 26.00 25.03 24.50
41.78 41.42 42.66 44.01 41.29 39.21 40.79 42.42 41.87 44.80 41.23 33.80 34.19 29.47 28.44 39.70 37.54 39.49 39.17 40.37 34.73 38.98 36.17 36.37 36.32 34.46 30.55 31.34 28.14 27.79 28.27 29.03 28.67 29.25 30.32 29.69 28.10 27.32 27.33 27.22 26.86 25.73 23.90 23.44
42.01 42.54 38.63 32.48 39.35 41.81 42.18 41.72 38.24 37.80 38.39 38.56 32.96 37.09 30.74 37.94 37.30 36.08 36.46 38.15 34.37 30.72 34.54 38.04 33.62 33.29 31.69 31.69 32.45 31.75 30.96 31.50 30.34 26.79 25.59 27.13 26.27 26.34 26.60 26.75 27.63 26.23 24.38 23.63
41.01 37.07 35.30 41.78 42.57 41.64 37.58 31.99 31.62 33.87 30.75 35.56 34.61 34.09 33.25 39.74 34.25 33.58 37.95 33.63 34.14 27.69 31.02 30.44 30.26 30.86 30.85 32.52 32.32 32.66 32.53 31.27 31.73 31.67 30.78 30.34 29.19 27.36 26.29 26.10 26.01 25.15 23.77 22.26
40.11 41.07 42.52 42.13 37.51 33.57 29.45 27.36 29.50 30.41 28.09 33.07 33.16 34.58 37.16 38.27 40.93 36.42 35.46 30.20 32.22 24.72 33.42 30.14 27.66 31.62 31.67 32.49 32.20 32.38 32.71 31.03 30.38 31.38 30.09 30.09 29.00 28.37 27.07 25.56 24.02 22.88 21.77 18.45
42.42 38.22 34.07 33.69 30.84 25.99 24.74 21.51 25.89 28.01 31.97 33.75 34.78 33.41 37.79 37.73 39.01 34.33 32.69 27.39 27.95 34.58 28.09 27.93 31.55 31.06 31.22 32.16 32.49 31.66 32.20 31.56 30.51 29.69 29.45 28.78 27.79 27.59 25.70 23.31 21.01 18.28 16.74 15.66
34.34 31.13 25.16 26.78 25.32 27.53 28.60 29.69 31.11 31.73 34.34 35.16 36.68 34.06 35.64 36.21 32.87 32.24 27.40 30.03 31.18 25.52 23.32 24.45 33.50 30.55 30.94 31.76 31.95 30.67 29.95 29.80 29.12 27.98 27.28 25.18 22.70 21.52 20.73 18.78 17.44 14.74 13.09 13.28
32.20 32.25 24.83 27.08 30.59 32.10 31.94 32.35 33.12 32.87 36.91 37.08 35.33 34.76 35.91 31.79 29.52 31.28 28.78 24.51 23.02 26.74 28.44 33.35 33.09 31.29 30.91 30.46 31.16 30.90 29.08 27.52 27.05 26.33 23.73 21.42 18.85 17.79 15.84 15.41 16.49 15.20 12.12 12.46
33.12 31.85 29.74 31.81 32.50 31.59 32.68 33.41 33.04 37.19 37.80 38.08 37.13 31.19 28.26 26.09 29.50 25.81 23.17 23.89 23.95 30.73 33.67 33.00 30.94 29.23 30.45 30.09 29.88 29.43 28.70 27.91 26.69 25.18 22.84 20.47 17.91 16.59 15.97 14.84 14.52 13.39 13.76 12.91
30.49 30.12 32.32 32.86 33.22 31.96 32.86 35.58 35.84 38.69 37.39 31.62 32.96 27.17 24.78 29.65 26.12 23.49 30.36 30.02 33.09 32.32 31.70 33.32 30.91 29.54 29.63 28.98 27.48 25.87 25.33 24.78 23.73 21.80 20.94 19.66 18.15 14.37 14.56 14.49 14.56 16.06 16.19 16.39

GFSNW_sfc_wetblb_117.txt.gz
Wetbulb
48.20 49.07 50.03 51.29 51.51 49.16 47.11 41.39 32.19 43.19 45.59 33.53 35.22 37.30 40.69 41.87 41.39 40.94 39.30 39.76 39.52 36.86 37.47 34.96 34.78 33.94 35.78 39.08 38.46 33.11 36.77 32.78 28.14 31.24 36.95 38.20 36.55 34.36 33.55 26.28 25.82 29.33 28.63 28.91
47.29 48.15 49.05 50.19 50.34 48.51 43.82 34.55 33.74 41.93 42.78 32.18 35.50 40.46 40.84 41.07 39.64 38.46 38.28 37.06 39.10 38.96 36.64 32.16 35.22 34.69 38.38 37.85 37.08 34.17 36.25 30.61 24.10 27.95 32.78 36.61 33.88 35.62 35.15 34.38 32.94 27.61 24.86 28.06
47.08 47.65 48.37 49.59 49.71 49.18 43.42 35.96 29.57 33.20 35.18 37.29 39.76 38.29 37.10 37.03 41.07 39.29 39.70 38.30 38.79 36.79 34.64 36.68 33.49 34.54 36.20 38.26 37.64 36.70 37.19 31.50 28.08 25.07 27.26 33.31 30.11 32.96 34.56 32.94 27.55 28.81 29.65 28.79
46.76 47.47 48.05 49.24 49.31 49.12 46.68 38.11 34.54 38.45 29.35 31.30 37.14 38.91 39.04 36.56 34.79 39.34 39.51 36.84 36.65 34.95 31.99 34.00 32.79 34.93 34.84 36.03 37.07 36.30 34.94 27.54 30.42 30.66 32.40 32.89 31.71 31.76 32.58 30.39 31.69 27.42 30.28 26.66
46.77 47.19 47.76 48.59 49.01 48.98 45.51 35.85 38.57 40.50 40.80 37.10 35.72 37.32 37.30 36.86 36.72 36.74 35.23 34.50 35.38 36.41 33.78 35.17 31.86 34.27 33.97 31.98 35.58 34.17 36.62 27.99 30.44 26.67 32.95 33.23 30.92 32.41 32.39 31.64 30.45 27.39 27.97 24.99
46.74 47.43 47.41 48.52 48.77 48.14 43.28 43.78 46.94 43.30 39.14 36.15 35.51 37.75 38.64 38.27 38.64 37.64 37.81 35.98 36.31 35.73 37.46 38.67 38.90 39.92 38.96 38.08 35.04 33.33 33.39 31.26 28.73 26.49 31.71 29.72 26.85 29.32 29.50 29.58 28.32 30.18 26.63 26.98
46.70 47.14 47.62 48.35 48.71 48.64 43.51 45.53 44.27 40.77 34.53 37.50 36.78 39.57 39.63 38.45 37.15 34.57 37.08 39.89 37.81 40.03 43.23 42.09 40.54 39.34 39.12 38.08 37.40 38.27 33.65 31.23 31.41 27.89 29.15 21.38 27.46 32.29 31.96 29.77 29.78 31.22 29.50 29.47
46.86 47.08 47.64 48.15 48.58 49.14 46.01 45.77 43.59 42.58 35.96 39.60 38.09 39.50 38.67 38.25 37.61 35.56 38.05 39.65 42.03 43.79 40.44 34.93 31.39 31.17 31.39 33.88 35.65 35.06 36.92 33.14 29.56 26.78 27.13 27.55 27.04 29.26 29.55 27.88 26.72 32.25 30.33 29.83
46.50 46.87 47.69 48.08 48.68 49.08 46.04 43.83 46.99 44.69 40.94 38.15 41.80 38.77 37.60 33.55 34.87 35.73 37.90 41.77 44.36 42.33 37.49 33.09 27.55 27.05 30.70 29.66 31.07 37.06 35.27 34.82 29.92 29.85 24.73 22.18 29.44 33.41 35.96 34.72 25.75 32.30 33.14 31.17
46.50 46.92 47.90 48.46 48.44 47.21 45.17 42.89 46.28 45.62 39.51 40.50 40.50 37.15 35.92 40.04 37.93 35.83 37.42 37.68 38.17 41.47 34.88 29.41 30.54 30.16 35.51 29.59 29.06 29.46 29.95 30.57 27.88 28.07 27.59 27.81 32.47 33.38 34.64 25.53 26.28 32.84 33.96 33.50
46.65 47.42 48.05 46.85 46.12 46.33 44.51 42.41 47.21 45.87 40.89 40.46 41.23 42.69 40.36 40.33 39.77 34.94 38.04 36.56 37.31 35.92 31.63 32.90 33.48 33.08 34.19 32.45 33.72 31.38 30.84 29.82 29.23 30.23 27.91 24.70 32.03 32.84 28.04 30.83 33.07 33.85 33.02 31.16
45.33 45.26 45.18 45.47 45.42 45.89 45.94 42.26 47.87 48.73 42.72 40.69 44.55 43.98 45.05 44.54 43.94 41.20 40.36 38.67 38.42 39.60 36.31 37.66 38.13 33.55 33.07 32.71 28.56 35.01 28.85 32.73 30.08 29.20 27.31 29.41 31.73 32.58 34.89 34.99 32.44 32.10 30.52 29.69
44.58 44.83 45.02 44.40 45.23 46.01 46.12 45.43 46.93 45.45 40.45 39.99 41.35 38.86 43.45 46.51 47.10 48.10 38.94 41.39 43.16 41.15 45.26 39.35 38.67 30.33 35.74 31.27 32.62 32.44 31.74 33.21 32.06 29.27 28.00 28.00 30.10 32.56 34.43 34.51 32.04 31.98 31.71 29.79
44.71 44.72 44.75 44.92 45.94 46.82 47.66 45.65 47.65 46.12 41.33 34.51 34.96 44.45 41.74 45.78 46.43 45.62 46.78 45.14 44.95 45.31 44.56 37.19 36.23 33.03 38.40 33.22 34.85 34.93 34.21 33.02 30.04 27.38 27.90 28.55 29.73 31.01 31.43 30.62 30.77 29.83 30.25 29.65
45.21 45.35 45.71 46.19 46.50 46.73 47.95 47.33 47.41 47.69 41.59 33.92 35.15 41.16 43.05 45.08 45.35 44.77 45.77 45.38 44.19 42.80 39.47 36.43 33.70 36.27 35.56 36.24 36.84 33.87 34.92 32.89 30.20 30.55 30.90 31.30 29.14 29.88 30.87 29.11 28.44 29.17 28.36 27.46
44.63 44.97 44.89 44.49 44.49 47.10 45.47 40.10 46.73 48.11 46.27 37.21 32.29 40.46 40.27 42.90 44.03 43.32 43.27 44.29 44.92 44.75 42.10 36.64 38.12 39.24 37.35 32.17 31.95 31.47 33.22 33.22 34.17 31.05 34.66 32.76 30.40 30.54 31.60 30.05 29.89 30.60 29.85 29.03
44.91 44.95 45.02 44.78 44.56 45.49 41.56 39.27 43.12 44.73 48.10 38.70 33.26 33.71 39.93 42.57 42.09 42.37 41.75 43.19 43.62 43.14 42.15 38.20 36.32 37.53 37.38 33.64 30.50 31.25 31.28 32.46 34.06 34.29 31.64 28.11 29.40 28.12 30.99 31.27 31.45 31.48 31.10 30.87
44.50 44.78 45.01 44.86 44.64 44.89 41.70 43.87 44.73 46.02 43.71 41.75 33.75 32.18 35.28 41.88 38.12 37.49 43.83 40.08 41.17 41.15 40.71 40.84 38.49 38.48 37.45 30.37 30.67 30.47 30.79 32.10 32.43 32.61 34.57 32.40 32.57 31.64 30.78 32.04 31.86 29.85 29.13 28.89
43.67 44.73 45.16 45.68 43.91 40.54 40.94 42.25 44.68 49.05 44.19 36.10 35.29 31.14 29.33 41.41 39.15 39.83 40.31 42.09 36.58 40.99 37.92 39.00 38.87 36.85 32.08 33.74 30.58 29.52 31.08 30.74 30.91 32.75 33.66 32.90 30.90 30.52 30.33 31.02 30.67 29.32 28.23 27.56
44.25 45.30 40.59 33.76 41.22 42.58 43.45 44.65 40.83 41.29 41.46 40.46 35.62 38.80 33.05 38.93 38.02 37.73 37.31 39.75 35.76 31.73 36.33 40.07 35.09 35.05 35.36 35.81 35.46 34.70 33.95 34.70 33.96 30.87 29.16 30.14 29.75 29.79 30.20 30.36 31.16 30.26 28.57 27.18
44.29 39.66 37.24 42.32 42.19 44.17 40.85 35.91 35.11 36.95 33.48 36.69 36.13 36.64 35.19 41.58 35.30 34.96 39.87 35.04 35.93 28.91 32.98 32.13 31.58 32.05 33.31 35.94 35.78 36.21 35.90 35.29 34.62 34.48 33.68 33.30 32.37 30.75 30.16 30.16 30.30 29.14 27.83 26.06
41.71 42.10 44.06 44.04 40.13 37.09 32.37 30.71 33.49 33.83 30.65 35.77 35.02 36.23 38.55 40.16 43.19 36.15 37.27 31.84 33.77 26.65 36.38 30.00 28.86 31.78 34.85 34.94 35.21 34.80 35.07 34.35 33.57 34.60 33.14 32.84 32.34 32.04 30.91 30.12 28.67 27.02 26.39 23.28
45.10 40.44 35.39 36.42 34.30 29.50 29.26 24.37 28.96 29.86 33.54 36.76 37.26 35.26 38.20 39.93 40.29 35.53 34.58 29.47 29.41 35.89 29.07 29.79 32.63 34.61 34.78 34.12 34.05 33.38 34.20 33.32 32.37 32.72 32.91 32.08 31.30 31.40 29.75 27.71 25.86 22.78 20.94 19.86
37.80 34.17 27.38 30.37 28.35 28.63 29.42 32.61 32.92 34.17 37.11 38.28 38.80 37.12 36.22 38.45 33.79 35.00 29.97 30.98 32.54 26.29 25.37 27.49 34.17 33.13 33.62 33.54 33.17 32.99 32.16 31.79 31.21 31.41 30.95 29.84 28.39 27.58 26.53 23.51 22.13 20.73 17.99 18.68
34.90 34.21 26.55 29.14 32.69 33.08 32.51 34.92 34.42 37.37 40.11 39.16 37.26 37.03 37.16 33.99 31.30 33.45 30.44 26.34 25.32 28.28 30.02 32.25 33.08 33.21 33.15 32.87 33.20 32.24 30.93 30.04 29.74 29.63 27.10 25.39 24.40 22.57 21.38 20.91 20.80 19.78 17.46 17.17
35.37 33.61 31.92 34.67 32.30 31.40 33.05 33.41 34.68 40.20 40.21 40.30 38.90 32.97 29.33 28.30 31.44 27.20 25.45 25.88 26.30 31.05 32.62 32.25 32.05 32.14 32.32 32.50 32.49 32.23 31.60 31.29 29.90 28.33 26.11 23.86 22.14 20.97 20.97 20.49 18.93 17.29 17.84 16.97
32.40 31.01 33.41 33.59 33.23 32.14 32.68 37.52 37.86 42.75 38.88 33.44 35.05 29.56 25.68 32.60 27.98 26.62 33.36 30.66 31.71 31.41 31.73 32.60 32.34 31.14 32.14 32.14 31.78 31.23 30.94 30.35 29.03 27.18 25.57 23.64 23.34 19.98 19.02 17.81 18.08 19.18 19.07 19.15

GFSNW_sfc_wetblb_120.txt.gz
Wetbulb
47.33 47.82 48.37 49.14 50.17 50.14 47.65 42.01 33.51 43.99 46.04 33.69 33.68 34.78 40.45 43.22 44.20 46.74 42.31 41.78 40.09 39.09 39.22 38.07 37.90 36.33 38.73 40.42 39.41 34.10 37.61 33.46 27.55 31.35 37.94 38.67 36.39 33.10 33.20 25.85 23.56 27.99 26.85 26.51
46.13 46.67 47.61 48.47 49.52 49.40 45.33 36.03 34.78 43.79 42.86 30.81 31.94 37.73 40.41 43.12 42.55 42.73 39.65 38.95 40.27 41.86 38.75 34.70 37.74 37.72 39.50 39.94 37.74 35.37 36.66 30.65 24.10 26.75 32.65 35.75 32.33 34.58 35.06 34.44 32.24 26.14 23.41 25.47
46.01 46.31 46.95 47.74 49.09 49.73 43.31 36.18 29.90 33.14 36.05 37.45 35.92 36.84 38.71 38.58 44.33 42.72 41.82 39.55 40.82 39.39 36.93 38.91 34.62 36.11 37.92 39.17 37.74 38.03 37.76 31.80 27.62 22.78 27.59 31.92 28.97 32.78 34.96 33.42 27.42 27.49 28.04 26.42
45.68 46.30 46.93 47.47 48.54 49.35 44.90 38.67 34.52 37.20 28.52 31.92 34.72 38.74 39.14 37.61 38.17 41.29 41.79 38.52 38.72 36.89 33.18 35.10 34.29 36.53 36.11 36.95 38.63 36.70 35.21 26.90 29.15 30.12 31.20 31.36 31.04 30.87 32.22 30.77 31.95 27.62 29.87 28.42
45.63 46.16 46.80 46.98 48.00 49.04 43.57 35.23 38.98 39.55 39.55 36.86 34.02 34.77 38.33 37.98 39.63 38.92 37.36 36.56 38.37 38.21 34.63 35.28 33.17 36.08 35.76 32.56 36.21 34.19 35.57 26.69 30.31 25.56 30.96 31.22 28.94 31.63 32.32 32.20 32.59 31.32 29.64 28.49
45.70 46.31 46.25 46.90 47.55 48.04 42.18 44.67 47.26 42.89 38.69 36.40 33.18 34.39 37.89 38.97 41.47 41.53 40.91 39.48 38.03 36.48 37.21 39.59 40.92 39.77 39.72 37.92 34.63 33.05 32.57 30.97 26.87 23.44 32.21 31.50 26.84 31.27 32.59 33.49 33.48 31.91 27.21 28.78
45.65 45.98 46.35 46.77 47.39 47.47 46.23 46.96 46.59 39.56 36.41 36.08 35.60 37.46 39.43 39.17 40.73 36.69 40.20 41.00 37.48 39.61 44.09 42.42 40.97 39.46 38.42 38.04 37.94 38.26 33.38 30.73 29.06 26.17 29.72 20.44 28.92 33.83 33.94 31.85 31.32 32.91 29.32 28.89
45.48 45.86 46.19 46.50 47.15 47.70 46.13 48.65 44.84 42.35 37.55 39.66 38.31 38.01 39.33 41.14 41.31 38.27 38.76 39.48 41.99 44.29 40.71 34.52 30.81 30.92 32.00 34.14 36.72 36.34 36.98 32.82 28.35 25.59 25.88 28.17 28.22 30.07 30.56 28.10 28.03 33.26 30.39 29.70
45.26 45.60 45.93 46.34 46.92 47.53 46.38 49.04 48.76 47.20 40.12 39.00 41.48 39.52 41.49 38.86 36.36 36.38 37.86 42.93 45.24 43.14 36.64 33.35 26.55 24.63 28.67 28.85 30.87 36.92 35.87 35.39 29.94 28.02 24.31 21.96 29.23 33.52 36.83 35.28 25.01 33.84 32.25 30.14
45.22 45.47 45.90 46.12 46.70 47.24 46.43 44.80 47.13 47.60 42.18 44.09 43.91 40.80 40.77 43.00 38.77 35.21 37.45 38.37 38.32 41.56 34.48 30.55 27.60 28.07 34.66 28.48 27.28 28.15 28.91 29.63 27.13 26.62 24.86 28.31 33.96 35.17 36.80 24.55 26.72 34.55 34.32 32.96
45.12 45.52 45.90 46.45 46.93 47.28 46.55 44.04 49.08 45.07 43.24 43.02 45.58 46.41 41.61 40.80 39.41 34.68 37.89 35.80 36.88 35.58 31.58 30.73 30.67 32.18 33.30 32.74 34.56 30.99 29.11 27.50 27.34 28.25 25.82 24.14 34.75 33.78 28.42 31.69 35.57 35.16 33.17 31.19
45.38 45.43 45.93 46.45 46.76 47.67 47.44 43.06 48.63 48.88 43.90 42.00 46.15 45.64 45.80 45.01 44.30 41.23 40.03 38.17 37.68 38.97 34.35 35.61 36.52 32.90 34.42 33.37 28.28 37.44 29.85 33.12 30.07 27.18 27.38 31.14 33.45 33.67 36.05 36.35 34.22 32.83 30.77 28.63
45.55 45.52 46.16 46.74 47.29 47.55 47.24 44.83 46.82 43.40 39.51 39.16 40.15 38.60 44.50 48.23 47.89 48.68 38.30 41.36 42.41 41.62 44.68 40.79 37.41 32.16 36.09 30.67 32.20 33.32 34.04 35.26 32.16 29.42 28.95 29.46 31.84 34.44 35.33 34.88 32.92 32.53 31.25 29.31
46.00 46.45 46.68 46.92 47.03 47.56 47.33 43.89 47.45 45.39 41.37 33.99 35.57 44.43 42.05 46.77 48.10 47.76 47.78 46.21 46.61 45.88 44.06 39.20 36.73 34.19 38.97 34.72 35.90 34.37 35.41 34.16 31.61 28.05 29.20 29.60 30.92 32.95 32.66 31.93 32.17 31.08 31.05 29.87
46.22 46.32 46.36 46.59 47.26 47.23 46.55 46.34 47.65 47.37 40.29 33.09 34.59 41.76 43.78 45.48 45.67 45.41 46.15 45.54 44.50 42.01 38.62 37.18 34.11 36.87 36.08 36.94 36.19 34.51 36.12 34.00 29.73 30.30 32.07 31.68 30.41 31.99 31.86 29.95 29.56 29.79 29.20 28.22
45.34 45.46 46.04 46.43 46.43 46.77 45.18 39.05 47.80 48.72 44.65 36.21 30.82 40.61 40.54 43.31 44.70 44.03 44.20 45.20 44.71 43.04 40.25 37.63 38.42 39.69 37.54 33.01 31.11 33.58 33.57 34.78 36.05 32.80 34.97 33.51 32.11 31.68 31.62 29.69 30.23 30.65 30.03 29.81
45.07 45.79 46.55 46.79 46.68 46.14 41.35 38.92 44.48 45.28 48.23 38.85 32.76 32.67 40.04 42.80 42.52 42.25 42.05 43.73 42.75 42.30 40.41 38.23 36.75 37.09 37.73 34.12 30.34 32.21 32.23 33.35 35.22 34.53 31.94 28.70 29.93 28.74 31.58 31.46 31.64 31.97 30.77 30.28
45.15 45.17 45.09 44.92 44.99 45.05 41.63 44.31 45.79 44.72 44.74 41.15 33.74 31.81 35.14 41.95 37.60 36.50 42.14 39.14 40.57 40.50 39.34 39.70 37.08 37.75 37.36 30.59 31.98 31.45 31.52 33.82 33.21 32.79 34.85 31.76 32.19 31.77 31.04 32.24 31.43 29.42 28.63 28.63
45.43 45.72 46.13 46.50 43.90 40.01 41.92 42.64 43.00 51.62 44.63 36.37 34.78 30.93 29.00 40.92 38.74 39.42 39.70 40.71 36.49 39.65 36.47 37.31 37.65 35.80 32.20 34.93 31.84 30.70 31.25 32.08 31.64 33.29 32.98 32.09 30.37 30.29 30.69 30.81 30.62 28.85 27.73 27.46
45.87 45.78 40.33 34.06 40.49 42.09 42.58 44.45 40.98 41.94 41.51 40.78 35.42 37.80 32.76 39.36 38.13 36.38 36.68 38.03 35.09 30.79 35.23 39.17 33.84 34.34 36.51 37.27 36.20 34.34 33.95 34.68 34.36 31.17 29.33 29.99 29.35 29.89 30.21 30.61 31.50 30.67 28.49 27.31
43.96 40.32 38.64 42.24 43.40 43.58 41.51 37.54 35.48 36.55 33.00 37.58 37.57 37.56 35.50 40.93 36.18 34.86 38.48 35.07 35.18 28.39 32.94 32.20 30.92 30.75 33.94 37.07 36.11 36.25 36.37 36.06 35.41 35.01 34.40 33.36 32.56 30.96 30.85 30.89 31.33 30.23 28.35 26.48
42.43 42.05 44.75 44.22 40.67 38.30 32.43 30.93 33.80 33.75 29.62 35.51 36.03 37.25 38.75 40.10 41.54 36.27 36.73 31.67 33.32 26.24 36.71 30.73 27.11 31.96 36.01 36.25 35.55 35.29 35.92 35.64 35.06 35.46 33.57 33.34 32.55 32.75 31.93 31.32 29.85 27.64 24.75 20.77
45.37 40.56 36.26 36.33 35.95 29.58 28.83 24.24 29.06 29.48 34.95 38.04 38.12 35.46 38.27 39.58 39.82 35.81 34.10 30.42 28.96 35.94 29.10 28.10 31.76 34.02 35.19 34.95 34.18 33.93 35.06 34.58 33.99 33.72 33.63 32.91 31.98 32.11 30.72 25.62 23.60 22.42 20.33 19.67
38.84 34.37 27.71 30.82 27.78 28.48 30.54 32.69 33.59 36.21 38.15 38.52 39.13 37.31 35.94 38.29 33.28 35.36 28.89 31.34 32.54 26.57 25.12 27.06 32.73 34.32 34.33 34.32 33.61 32.32 32.03 31.58 32.25 31.93 31.65 30.20 28.76 25.37 24.59 24.23 23.10 20.31 18.27 18.81
35.06 34.26 27.49 28.74 31.42 31.99 34.03 37.12 37.70 39.93 41.53 39.83 37.76 37.73 36.69 33.79 30.98 33.05 29.86 26.19 24.51 27.44 28.21 31.62 32.84 34.18 33.29 32.89 33.27 31.45 30.18 29.54 29.56 29.96 27.47 26.00 24.51 23.30 22.12 22.02 21.28 20.09 18.52 17.43
35.00 34.00 31.21 32.91 32.56 31.50 32.80 34.25 36.03 41.51 41.48 41.29 38.50 32.96 29.60 28.66 30.82 28.08 26.96 26.62 25.87 29.49 30.97 32.25 32.97 32.62 32.62 32.80 31.66 31.16 30.79 30.32 29.23 27.87 26.61 24.69 23.42 22.13 21.53 21.27 19.59 18.21 18.18 18.23
32.73 31.85 32.44 33.71 32.62 31.52 32.62 37.65 38.61 42.44 39.08 33.24 34.81 29.12 26.53 33.03 28.17 27.43 32.32 29.28 30.19 31.34 31.53 31.60 32.71 32.26 32.26 32.26 31.54 30.71 30.45 29.86 29.35 27.48 25.59 24.04 23.86 21.58 20.12 17.47 17.68 19.00 18.89 18.07

GFSNW_sfc_wetblb_123.txt.gz
Wetbulb
46.83 46.94 47.57 48.01 48.74 49.70 48.09 42.55 34.61 44.66 47.03 33.51 33.25 32.88 37.14 41.42 41.38 43.86 42.38 42.16 38.58 36.90 37.05 34.78 34.86 34.46 38.33 38.77 37.04 31.75 33.82 29.48 22.14 28.11 35.26 36.79 33.58 30.70 30.47 19.26 21.22 24.53 22.96 19.11
46.34 46.45 47.12 47.39 48.55 49.19 44.94 38.10 35.25 43.65 43.39 30.72 30.34 34.72 37.40 40.34 40.25 40.80 41.04 40.27 39.52 38.02 34.36 30.12 35.15 34.70 38.42 38.13 35.46 32.42 33.46 26.02 18.96 22.80 28.53 33.67 30.65 33.20 33.59 32.16 27.88 23.60 18.10 18.18
45.95 46.34 46.47 47.04 47.80 48.76 43.81 35.42 28.94 34.16 37.37 36.36 33.97 32.97 34.72 36.31 42.17 41.36 42.49 40.10 39.19 35.55 33.78 36.30 31.75 32.86 37.19 37.81 35.95 39.58 36.06 28.52 23.52 19.30 24.26 28.86 24.93 29.60 32.53 31.80 25.72 22.08 21.05 19.10
45.55 45.61 46.15 46.80 47.16 47.71 44.46 37.70 31.97 33.27 27.23 30.78 34.03 36.84 36.26 34.70 36.22 41.14 42.25 39.43 36.46 34.28 29.97 30.96 30.02 33.72 32.91 35.60 37.92 35.13 31.10 23.71 22.63 26.51 29.85 29.65 27.92 27.24 28.99 24.83 28.38 22.04 21.60 24.04
45.48 45.35 45.82 46.00 46.52 47.32 42.35 34.71 34.55 33.53 31.87 34.02 33.78 35.23 35.68 35.69 37.83 38.84 36.65 35.50 36.53 35.45 30.63 32.04 29.50 32.75 31.19 28.94 34.04 32.05 32.08 22.46 21.31 16.85 29.09 28.90 25.82 27.75 28.64 26.24 27.63 24.08 24.89 24.58
45.72 45.67 45.45 45.70 46.26 46.16 39.68 41.89 40.05 35.78 34.12 32.01 31.94 32.40 34.10 36.44 38.10 40.17 39.88 37.42 34.98 33.45 35.30 37.67 36.55 36.09 36.18 35.62 31.67 29.44 27.27 22.93 17.65 17.73 28.96 30.08 21.32 24.44 26.59 28.01 30.86 30.67 26.26 27.04
45.72 45.48 45.41 45.49 45.98 46.06 42.47 42.27 39.80 35.25 29.45 31.86 31.98 34.31 35.23 36.16 39.07 32.95 40.11 39.17 34.93 37.62 40.10 39.16 37.84 36.74 36.61 35.81 35.12 34.73 26.18 23.69 24.90 20.44 23.74 17.34 22.97 32.43 32.60 30.19 31.83 29.78 27.69 27.55
45.29 45.65 45.38 45.27 46.16 46.67 42.05 44.59 40.67 36.28 30.67 35.06 34.54 34.66 34.44 37.23 38.61 36.60 37.54 39.35 39.62 39.58 37.56 31.61 28.32 27.35 29.70 32.94 34.29 33.71 32.64 26.84 21.27 19.00 21.30 25.09 27.26 29.44 29.64 27.14 28.19 31.57 28.73 28.71
44.56 45.24 45.27 45.24 46.07 46.52 43.58 41.98 44.53 39.95 32.87 32.25 38.93 35.15 36.76 32.92 35.42 34.73 36.76 40.29 40.47 38.50 33.05 29.61 24.11 22.69 27.06 25.63 29.80 36.05 32.97 30.78 23.80 24.98 22.31 20.26 26.74 33.27 36.13 34.68 22.65 33.50 30.85 27.30
44.58 45.06 45.15 45.22 45.83 46.32 44.09 41.72 44.12 40.97 36.94 38.33 39.60 35.52 34.52 38.47 34.57 32.26 34.17 34.82 35.01 37.23 30.97 27.64 25.69 25.68 32.71 26.22 25.65 26.91 28.60 28.06 24.37 23.24 22.80 25.45 31.86 34.45 37.06 22.52 22.77 32.53 31.22 28.63
44.21 44.91 45.03 45.29 45.87 46.14 44.49 41.29 46.49 43.39 36.16 37.33 41.53 42.63 37.73 38.70 36.15 30.79 34.18 32.44 33.44 32.89 29.25 28.57 28.00 26.66 28.02 30.37 32.08 28.37 26.77 23.42 23.19 25.15 24.06 21.53 33.20 32.67 27.48 29.14 31.80 32.46 31.87 29.83
44.16 44.82 44.94 45.29 45.83 46.14 46.09 39.24 45.74 47.77 38.81 37.83 42.73 42.88 42.33 44.35 40.54 36.86 37.47 35.46 35.12 34.63 31.30 31.09 30.26 28.14 29.14 29.72 27.69 34.96 26.59 28.37 24.95 26.84 23.44 28.98 30.90 29.48 33.24 33.43 30.28 29.18 28.14 26.81
44.55 44.94 45.20 45.61 45.99 46.53 45.46 40.92 44.90 43.23 38.63 36.35 36.68 37.15 43.56 46.62 44.25 45.04 35.29 37.86 39.04 38.29 39.76 35.24 33.82 28.66 33.05 28.20 27.94 29.22 30.34 33.95 26.43 25.20 26.12 29.00 30.99 32.52 33.04 32.85 30.08 28.82 27.92 25.84
44.28 44.98 45.37 45.77 46.20 46.80 45.76 41.58 46.26 43.15 38.14 32.90 35.33 43.23 41.22 45.42 46.06 44.32 43.80 42.02 42.54 41.55 39.74 33.82 31.66 30.62 35.76 28.48 30.68 29.51 29.07 30.21 27.17 25.17 27.10 28.04 30.69 31.61 30.79 30.31 30.39 28.17 27.64 26.08
44.91 45.27 45.69 46.07 46.68 46.96 45.01 43.70 46.71 45.06 38.96 32.62 34.42 39.24 42.68 44.48 45.16 44.60 44.59 42.55 39.69 37.18 34.08 32.49 29.95 33.06 31.48 29.21 30.50 25.86 29.80 25.17 23.36 20.77 27.78 26.98 26.36 30.37 31.37 29.09 28.45 28.69 27.21 25.63
45.12 45.65 46.09 46.43 46.51 46.28 43.91 36.88 44.57 46.74 41.64 33.30 28.94 38.90 39.71 42.16 42.95 42.76 42.09 41.67 40.07 38.18 35.23 32.26 33.72 38.38 33.30 25.14 23.81 29.72 33.30 33.44 30.76 27.86 31.15 29.19 29.90 29.45 31.11 29.67 29.68 29.59 28.00 27.17
45.50 45.91 46.21 46.33 46.80 45.50 40.36 37.41 42.22 45.79 42.36 35.09 30.57 31.32 38.75 42.28 42.30 40.16 39.22 40.72 39.13 38.34 36.47 32.10 32.61 33.94 33.26 30.30 20.63 26.01 32.35 28.88 31.01 30.98 30.15 28.37 28.66 27.31 29.99 30.66 30.92 31.34 29.64 28.47
46.25 46.33 46.38 46.51 45.95 44.64 40.21 42.46 45.92 44.91 40.33 38.79 29.84 30.16 32.88 40.73 33.59 32.50 37.90 34.58 35.40 34.97 34.70 33.84 31.83 31.27 30.24 20.94 29.81 26.98 29.84 31.12 29.98 29.82 31.87 29.57 30.70 30.90 30.65 31.37 30.55 28.02 26.67 26.69
46.09 46.00 46.21 43.92 41.55 38.09 39.57 43.55 44.21 44.54 40.23 31.49 30.96 27.73 25.86 37.69 34.86 34.64 34.54 34.94 27.18 33.39 29.09 30.87 32.61 26.67 23.52 26.29 29.34 27.98 30.11 30.68 29.57 31.15 30.18 30.17 29.29 29.76 30.32 30.05 28.71 26.57 24.85 24.50
45.93 43.98 37.51 32.63 38.22 42.61 43.28 42.32 36.55 37.55 37.23 37.13 30.52 33.23 29.22 35.54 32.22 30.72 29.60 31.27 28.25 24.65 28.16 32.90 26.55 23.65 32.77 33.77 32.00 31.22 31.30 33.30 31.61 28.57 26.66 28.42 28.02 28.90 29.48 28.91 28.88 27.72 25.63 24.39
40.97 36.85 34.58 39.89 43.47 41.71 38.06 31.89 30.88 32.11 29.54 33.27 32.53 32.91 31.58 36.38 28.54 27.70 31.49 26.40 26.62 23.26 26.88 25.65 23.60 22.89 27.66 32.62 31.96 32.54 32.82 34.61 33.87 31.58 30.61 30.62 30.55 29.63 29.82 29.63 29.09 27.25 25.74 23.90
40.39 40.07 42.70 42.09 38.75 34.46 29.78 27.16 29.73 29.55 26.83 31.00 29.90 31.04 34.01 34.25 36.28 29.65 30.24 26.32 25.95 20.60 29.21 22.70 18.39 29.08 33.04 32.51 33.22 32.98 34.95 34.12 33.71 33.52 31.03 31.26 31.49 31.21 30.95 30.23 27.69 24.85 22.50 20.52
41.95 38.89 33.73 32.83 30.35 22.77 22.22 18.98 25.58 24.80 28.71 29.99 30.20 29.61 32.63 33.75 34.60 28.04 27.48 21.88 19.93 29.69 16.99 19.72 25.39 29.72 33.51 32.64 32.55 32.23 32.93 32.23 31.70 30.18 30.80 32.16 31.87 31.48 27.90 22.95 22.24 21.25 19.28 17.44
33.95 29.04 21.39 25.26 24.52 24.51 29.18 27.77 27.41 29.04 31.32 32.87 31.90 28.99 29.41 28.49 27.37 25.86 20.03 25.93 25.95 16.55 14.03 23.78 29.31 30.84 30.81 30.97 31.17 31.02 29.67 30.17 29.46 27.68 29.31 28.26 25.18 23.77 23.64 22.71 21.56 20.15 17.99 17.65
30.56 30.56 22.57 24.40 29.36 30.85 31.94 33.22 32.20 33.35 33.01 31.98 30.66 30.38 30.67 26.29 23.86 26.07 24.02 21.44 15.48 20.19 20.99 27.94 29.58 31.25 29.65 30.18 29.72 27.32 27.21 27.31 27.42 26.53 24.52 23.72 23.69 22.56 21.17 21.45 20.73 19.69 17.86 16.81
31.86 31.39 26.71 29.25 30.25 31.71 32.87 32.89 31.76 35.49 32.49 31.58 31.49 27.15 22.14 22.69 24.85 23.27 19.38 21.98 19.20 25.93 28.23 30.13 31.32 31.62 31.61 30.49 27.59 27.20 27.98 27.63 26.08 24.95 24.52 23.46 22.77 21.63 20.05 19.53 19.11 17.76 17.09 16.13
30.43 30.42 32.16 30.87 31.55 31.55 32.16 33.25 31.97 35.58 31.08 25.20 28.61 22.21 23.68 26.93 22.57 23.14 25.54 22.53 27.24 29.15 29.18 29.86 31.08 31.77 31.58 29.87 27.13 26.71 27.10 26.11 24.87 23.01 22.64 21.55 20.98 20.21 18.53 16.36 16.40 17.32 16.80 14.77